# Wetter Temperatur Luftdruck Luftfeuchtigkeit Sichtweite Windgeschwindigkeit Windrichtung Zeit
1 Clouds 7 1019 93 10000 1.5 340 22:23 24.01.2020
2 Clouds 6 1019 100 10000 1 0 21:41 24.01.2020
3 Clouds 7 1019 93 10000 1.5 340 21:20 24.01.2020
4 Clouds 7 1019 93 10000 1 10 20:55 24.01.2020
5 Clouds 7 1019 87 10000 1 0 20:37 24.01.2020
6 Clouds 7 1019 87 10000 1 0 20:18 24.01.2020
7 Clouds 7 1019 87 10000 1.5 80 19:55 24.01.2020
8 Clouds 7 1019 81 10000 1 0 19:37 24.01.2020
9 Clouds 7 1019 81 10000 1 0 19:19 24.01.2020
10 Clouds 7 1019 81 10000 1 0 19:19 24.01.2020
11 Clouds 7 1019 81 10000 1.5 130 18:42 24.01.2020
12 Clouds 8 1019 81 10000 2.1 120 18:22 24.01.2020
13 Clouds 8 1019 87 10000 2.1 100 17:45 24.01.2020
14 Clouds 8 1019 87 10000 2.1 100 17:45 24.01.2020
15 Clouds 8 1019 87 10000 3.1 120 17:22 24.01.2020
16 Rain 8 1019 81 10000 2.1 110 16:57 24.01.2020
17 Clouds 8 1019 87 10000 2.1 100 16:38 24.01.2020
18 Clouds 8 1019 87 10000 2.1 100 16:19 24.01.2020
19 Clouds 8 1019 87 10000 1.5 0 15:42 24.01.2020
20 Clouds 8 1019 87 10000 1.5 0 15:21 24.01.2020
21 Clouds 8 1020 87 10000 2.1 140 14:55 24.01.2020
22 Clouds 8 1020 87 10000 2.1 140 14:55 24.01.2020
23 Clouds 8 1020 87 10000 2.6 130 14:36 24.01.2020
24 Clouds 8 1020 87 10000 2.6 130 14:18 24.01.2020
25 Clouds 8 1021 87 10000 2.6 110 13:41 24.01.2020
26 Clouds 8 1021 87 10000 2.6 110 13:21 24.01.2020
27 Rain 7 1021 93 8000 2.6 100 12:43 24.01.2020
28 Drizzle 7 1021 93 7000 3.1 110 12:21 24.01.2020
29 Drizzle 6 1021 93 7000 3.1 110 11:45 24.01.2020
30 Drizzle 6 1021 100 7000 3.6 100 11:19 24.01.2020
31 Drizzle 6 1021 100 7000 3.6 100 10:58 24.01.2020
32 Rain 6 1020 100 8000 3.6 100 10:40 24.01.2020
33 Rain 6 1020 100 400 1 0 10:19 24.01.2020
34 Rain 6 1020 93 8000 3.6 90 09:41 24.01.2020
35 Rain 6 1020 93 5000 3.1 100 09:23 24.01.2020
36 Rain 6 1020 93 7000 2.6 130 08:41 24.01.2020
37 Rain 6 1020 93 7000 2.6 130 08:21 24.01.2020
38 Rain 6 1020 93 8000 2.1 120 07:59 24.01.2020
39 Rain 7 1020 93 8000 2.1 130 07:41 24.01.2020
40 Rain 7 1020 93 8000 2.1 130 07:18 24.01.2020
41 Clouds 7 1019 87 10000 0.5 0 06:42 24.01.2020
42 Clouds 6 1019 87 10000 0.5 0 06:18 24.01.2020
43 Clouds 7 1019 87 10000 1.5 350 05:20 24.01.2020
44 Clouds 7 1019 87 10000 1 0 03:29 24.01.2020
45 Clouds 7 1020 87 10000 1 0 02:39 24.01.2020
46 Clouds 7 1020 87 10000 1 0 02:19 24.01.2020
47 Clouds 7 1020 81 10000 1.5 110 01:38 24.01.2020
48 Clouds 7 1020 87 10000 1 0 00:40 24.01.2020
49 Clouds 7 1020 87 10000 1 0 00:18 24.01.2020
50 Clouds 7 1020 81 10000 1 0 23:41 23.01.2020
51 Clouds 7 1020 81 10000 1 0 23:21 23.01.2020
52 Clouds 7 1020 81 10000 0.5 0 22:58 23.01.2020
53 Clouds 8 1019 75 10000 1 0 22:36 23.01.2020
54 Clouds 8 1019 75 10000 1 0 22:18 23.01.2020
55 Clouds 8 1019 75 10000 0.5 0 21:55 23.01.2020
56 Clouds 8 1019 75 10000 1.5 110 21:37 23.01.2020
57 Clouds 8 1019 75 10000 1.5 110 21:18 23.01.2020
58 Clouds 8 1019 75 10000 1 0 20:41 23.01.2020
59 Clouds 8 1019 71 10000 1.5 60 20:22 23.01.2020
60 Clouds 8 1018 71 10000 2.1 60 19:57 23.01.2020
61 Clouds 8 1018 71 10000 1.5 60 19:39 23.01.2020
62 Clouds 8 1018 71 10000 1.5 60 19:39 23.01.2020
63 Clouds 8 1018 71 10000 1.5 60 19:21 23.01.2020
64 Clouds 9 1018 71 10000 2.1 80 18:56 23.01.2020
65 Clouds 9 1018 71 10000 2.1 80 18:38 23.01.2020
66 Clouds 9 1018 71 10000 2.1 90 18:19 23.01.2020
67 Clouds 10 1017 66 10000 2.6 80 17:45 23.01.2020
68 Clouds 9 1017 66 10000 2.6 80 17:21 23.01.2020
69 Clouds 10 1017 66 10000 2.6 80 16:59 23.01.2020
70 Clouds 10 1017 62 10000 2.6 80 16:39 23.01.2020
71 Clouds 10 1017 62 10000 2.6 80 16:20 23.01.2020
72 Clouds 10 1018 71 10000 2.6 80 15:58 23.01.2020
73 Clouds 10 1018 66 10000 2.1 70 15:39 23.01.2020
74 Clouds 10 1018 66 10000 2.1 70 15:19 23.01.2020
75 Clouds 9 1018 66 10000 3.1 90 14:58 23.01.2020
76 Clouds 9 1018 66 10000 3.1 90 14:40 23.01.2020
77 Clouds 9 1018 70 10000 2.6 90 14:22 23.01.2020
78 Clouds 9 1019 70 10000 2.6 100 13:54 23.01.2020
79 Clouds 8 1019 76 10000 2.6 100 13:36 23.01.2020
80 Clouds 8 1019 76 10000 2.6 100 13:18 23.01.2020
81 Clouds 8 1019 75 10000 3.6 100 12:40 23.01.2020
82 Clouds 8 1019 75 10000 3.6 100 12:22 23.01.2020
83 Clouds 7 1019 70 10000 2.1 70 11:55 23.01.2020
84 Clouds 6 1019 75 10000 1.5 70 11:36 23.01.2020
85 Clouds 6 1019 75 10000 1.5 70 11:18 23.01.2020
86 Clouds 4 1019 75 10000 2.6 50 10:41 23.01.2020
87 Clouds 4 1019 80 10000 2.6 60 10:19 23.01.2020
88 Clouds 3 1019 80 10000 2.1 50 09:42 23.01.2020
89 Clouds 3 1018 80 10000 2.6 50 09:23 23.01.2020
90 Clouds 2 1018 86 10000 1.5 40 08:57 23.01.2020
91 Clear 2 1018 86 10000 1.5 30 08:38 23.01.2020
92 Clear 2 1018 86 10000 1.5 30 08:20 23.01.2020
93 Clouds 3 1017 86 10000 1 0 07:42 23.01.2020
94 Clouds 3 1017 86 10000 1 0 07:24 23.01.2020
95 Clear 2 1018 87 10000 1 0 06:46 23.01.2020
96 Clear 3 1018 87 10000 1.91 36 06:19 23.01.2020
97 Clouds 3 1018 93 10000 0.5 0 04:44 23.01.2020
98 Clouds 3 1018 93 10000 2.1 340 04:21 23.01.2020
99 Clouds 4 1019 86 10000 1 0 01:58 23.01.2020
100 Clouds 4 1018 86 10000 2.1 360 00:47 23.01.2020
101 Clouds 4 1018 86 10000 1.5 10 00:26 23.01.2020
102 Clouds 5 1018 86 10000 2.1 360 23:47 22.01.2020
103 Clouds 5 1018 86 10000 2.1 360 23:47 22.01.2020
104 Rain 5 1018 86 10000 2.6 10 23:28 22.01.2020
105 Rain 5 1018 81 10000 1.5 360 22:55 22.01.2020
106 Clouds 5 1018 75 10000 1.5 20 22:37 22.01.2020
107 Clouds 5 1018 75 10000 1.5 20 22:19 22.01.2020
108 Clouds 5 1017 75 10000 2.1 30 21:39 22.01.2020
109 Clouds 5 1017 75 10000 2.1 30 21:21 22.01.2020
110 Clouds 6 1017 75 10000 2.6 20 20:56 22.01.2020
111 Clouds 6 1017 75 10000 2.6 30 20:36 22.01.2020
112 Clouds 6 1017 75 10000 2.6 30 20:36 22.01.2020
113 Clouds 6 1017 75 10000 2.6 30 20:18 22.01.2020
114 Clouds 6 1017 87 10000 1.5 50 19:55 22.01.2020
115 Clouds 7 1017 87 10000 3.6 70 19:37 22.01.2020
116 Clouds 6 1017 87 10000 3.6 70 19:37 22.01.2020
117 Clouds 7 1017 87 10000 3.6 70 19:18 22.01.2020
118 Clouds 7 1016 76 10000 2.1 60 18:55 22.01.2020
119 Clouds 8 1016 70 10000 1.5 60 18:36 22.01.2020
120 Clouds 8 1016 70 10000 1.5 60 18:18 22.01.2020
121 Clouds 8 1016 70 10000 1.5 60 18:18 22.01.2020
122 Rain 9 1016 66 10000 2.1 50 17:40 22.01.2020
123 Rain 9 1016 66 10000 2.1 50 17:21 22.01.2020
124 Rain 10 1016 66 10000 2.1 80 16:58 22.01.2020
125 Clouds 10 1016 66 10000 2.1 80 16:39 22.01.2020
126 Clouds 10 1016 66 10000 1.5 50 16:20 22.01.2020
127 Clouds 10 1017 61 10000 2.1 50 15:55 22.01.2020
128 Clouds 10 1017 57 10000 3.6 90 15:37 22.01.2020
129 Clouds 10 1017 57 10000 3.6 90 15:18 22.01.2020
130 Clouds 10 1018 66 10000 2.1 70 14:39 22.01.2020
131 Clouds 10 1018 66 10000 2.1 70 14:20 22.01.2020
132 Clouds 9 1018 66 10000 2.6 50 13:58 22.01.2020
133 Clouds 9 1019 70 10000 2.1 60 13:37 22.01.2020
134 Clouds 9 1019 70 10000 2.1 60 13:37 22.01.2020
135 Clouds 9 1019 70 10000 2.1 60 13:19 22.01.2020
136 Clouds 8 1019 75 10000 2.1 40 12:57 22.01.2020
137 Clouds 7 1020 75 10000 2.6 50 12:38 22.01.2020
138 Clouds 7 1020 75 10000 2.6 50 12:19 22.01.2020
139 Clouds 7 1020 81 10000 2.6 40 11:57 22.01.2020
140 Rain 6 1019 87 7000 3.1 40 11:39 22.01.2020
141 Rain 6 1019 87 7000 3.1 40 11:19 22.01.2020
142 Clouds 6 1019 81 10000 3.1 40 10:45 22.01.2020
143 Rain 5 1019 81 10000 2.1 40 10:21 22.01.2020
144 Rain 5 1019 81 10000 2.1 40 10:21 22.01.2020
145 Rain 5 1019 81 10000 2.6 50 09:58 22.01.2020
146 Drizzle 5 1019 81 10000 2.6 40 09:40 22.01.2020
147 Drizzle 5 1019 81 10000 2.6 40 09:21 22.01.2020
148 Drizzle 5 1018 81 10000 3.1 30 08:55 22.01.2020
149 Rain 5 1018 81 10000 2.6 40 08:37 22.01.2020
150 Rain 5 1018 81 10000 2.6 40 08:19 22.01.2020
151 Clouds 5 1018 75 10000 3.6 40 07:44 22.01.2020
152 Clouds 5 1018 75 10000 3.1 30 07:26 22.01.2020
153 Clouds 5 1018 75 10000 4.1 50 06:36 22.01.2020
154 Clouds 4 1018 75 10000 4.6 50 05:57 22.01.2020
155 Clouds 5 1018 75 10000 4.6 60 04:26 22.01.2020
156 Clouds 5 1018 75 10000 5.1 50 03:27 22.01.2020
157 Clouds 5 1018 75 10000 4.6 40 02:48 22.01.2020
158 Clouds 5 1018 75 10000 4.1 30 00:47 22.01.2020
159 Clouds 5 1018 75 10000 2.6 20 00:28 22.01.2020
160 Clouds 5 1018 75 10000 3.1 30 23:57 21.01.2020
161 Clouds 5 1018 75 10000 3.6 20 23:37 21.01.2020
162 Clouds 5 1018 75 10000 3.6 20 23:19 21.01.2020
163 Clouds 5 1017 75 10000 3.6 40 22:41 21.01.2020
164 Clouds 5 1017 75 10000 3.6 40 22:23 21.01.2020
165 Clouds 5 1017 75 10000 4.1 40 21:58 21.01.2020
166 Rain 5 1016 75 10000 5.1 20 21:39 21.01.2020
167 Rain 5 1016 75 10000 5.1 20 21:20 21.01.2020
168 Rain 5 1017 81 10000 4.1 40 20:57 21.01.2020
169 Rain 5 1017 81 10000 4.1 40 20:57 21.01.2020
170 Rain 5 1016 81 10000 4.6 40 20:39 21.01.2020
171 Rain 5 1016 81 10000 4.6 40 20:20 21.01.2020
172 Clouds 5 1016 81 10000 4.6 0 19:57 21.01.2020
173 Clouds 5 1016 81 10000 4.6 0 19:39 21.01.2020
174 Clouds 5 1016 81 10000 4.6 40 19:20 21.01.2020
175 Rain 5 1016 81 10000 5.1 40 18:55 21.01.2020
176 Rain 5 1016 81 10000 4.6 40 18:37 21.01.2020
177 Rain 5 1016 81 10000 4.6 40 18:19 21.01.2020
178 Rain 5 1016 86 10000 3.1 40 17:45 21.01.2020
179 Rain 5 1016 86 10000 3.1 40 17:20 21.01.2020
180 Rain 5 1016 81 10000 5.7 30 16:59 21.01.2020
181 Rain 5 1016 65 10000 6.2 30 16:37 21.01.2020
182 Rain 6 1016 65 10000 6.2 30 16:19 21.01.2020
183 Clouds 7 1015 61 10000 6.2 0 15:56 21.01.2020
184 Clouds 7 1015 65 10000 5.7 40 15:37 21.01.2020
185 Clouds 7 1015 65 10000 5.7 40 15:18 21.01.2020
186 Rain 7 1016 65 10000 5.7 30 14:38 21.01.2020
187 Rain 7 1017 70 10000 5.7 30 14:20 21.01.2020
188 Rain 7 1018 65 10000 5.7 30 13:41 21.01.2020
189 Rain 7 1018 65 10000 5.7 30 13:19 21.01.2020
190 Rain 6 1018 65 10000 6.7 30 12:56 21.01.2020
191 Rain 6 1018 70 10000 4.1 30 12:38 21.01.2020
192 Rain 6 1018 70 10000 4.1 30 12:19 21.01.2020
193 Rain 6 1019 70 10000 6.7 20 11:40 21.01.2020
194 Rain 6 1019 70 10000 6.7 20 11:21 21.01.2020
195 Rain 5 1019 70 10000 5.7 40 10:59 21.01.2020
196 Rain 5 1019 70 10000 6.7 30 10:40 21.01.2020
197 Rain 5 1019 70 10000 6.7 30 10:21 21.01.2020
198 Rain 5 1019 63 10000 7.2 30 09:42 21.01.2020
199 Rain 5 1019 63 10000 6.7 40 09:23 21.01.2020
200 Clouds 5 1019 63 10000 6.7 30 08:54 21.01.2020
201 Clouds 5 1019 63 10000 6.7 20 08:36 21.01.2020
202 Clouds 5 1019 67 10000 6.7 20 08:18 21.01.2020
203 Clouds 5 1019 65 10000 6.7 30 07:41 21.01.2020
204 Clouds 5 1019 65 10000 7.2 30 07:22 21.01.2020
205 Clouds 5 1020 65 10000 6.7 30 06:49 21.01.2020
206 Clouds 4 1020 65 10000 6.2 30 06:29 21.01.2020
207 Clouds 4 1021 60 10000 5.1 30 05:43 21.01.2020
208 Clouds 4 1022 64 10000 5.7 30 04:40 21.01.2020
209 Clouds 4 1022 60 10000 7.2 20 02:57 21.01.2020
210 Clouds 5 1023 56 10000 5.7 30 01:56 21.01.2020
211 Clouds 5 1023 56 10000 6.7 10 01:26 21.01.2020
212 Clouds 5 1023 60 10000 4.6 10 00:38 21.01.2020
213 Clouds 5 1023 60 10000 5.7 20 23:59 20.01.2020
214 Clouds 5 1023 60 10000 4.6 30 23:41 20.01.2020
215 Clouds 5 1023 60 10000 4.6 30 23:19 20.01.2020
216 Clouds 5 1023 56 10000 4.6 10 22:58 20.01.2020
217 Clouds 5 1023 52 10000 5.1 10 22:38 20.01.2020
218 Clouds 4 1023 52 10000 5.1 10 22:20 20.01.2020
219 Clouds 4 1023 52 10000 5.1 10 22:20 20.01.2020
220 Clouds 4 1023 52 10000 4.1 20 21:58 20.01.2020
221 Clouds 4 1023 52 10000 5.1 20 21:37 20.01.2020
222 Clouds 5 1023 52 10000 5.1 20 21:19 20.01.2020
223 Clouds 5 1023 56 10000 4.6 40 20:56 20.01.2020
224 Clouds 5 1023 52 10000 5.7 40 20:38 20.01.2020
225 Clouds 5 1023 52 10000 5.7 40 20:18 20.01.2020
226 Clouds 5 1022 52 10000 5.7 40 19:56 20.01.2020
227 Clouds 5 1022 52 10000 5.7 30 19:38 20.01.2020
228 Clouds 5 1022 52 10000 5.7 30 19:18 20.01.2020
229 Clouds 5 1022 52 10000 4.6 30 18:44 20.01.2020
230 Clouds 5 1021 52 10000 5.7 30 18:22 20.01.2020
231 Clouds 5 1021 48 10000 6.2 40 17:58 20.01.2020
232 Clouds 5 1021 48 10000 6.7 30 17:36 20.01.2020
233 Clouds 5 1021 48 10000 6.7 30 17:18 20.01.2020
234 Clouds 6 1021 45 10000 5.7 40 16:39 20.01.2020
235 Clouds 6 1021 45 10000 5.7 40 16:19 20.01.2020
236 Clouds 6 1021 42 10000 6.2 30 15:57 20.01.2020
237 Clouds 6 1021 45 10000 5.7 40 15:39 20.01.2020
238 Clouds 6 1021 45 10000 5.7 40 15:20 20.01.2020
239 Clouds 6 1022 39 10000 5.7 0 14:41 20.01.2020
240 Clouds 6 1022 39 10000 5.7 0 14:23 20.01.2020
241 Clouds 6 1022 36 10000 5.7 40 13:59 20.01.2020
242 Clouds 6 1023 35 10000 5.1 0 13:40 20.01.2020
243 Clouds 6 1023 35 10000 5.1 0 13:22 20.01.2020
244 Clouds 6 1023 30 10000 6.2 40 12:47 20.01.2020
245 Clouds 6 1023 26 10000 4.1 50 12:28 20.01.2020
246 Clouds 5 1022 24 10000 4.6 20 11:59 20.01.2020
247 Clouds 4 1022 27 10000 5.1 20 11:40 20.01.2020
248 Clouds 4 1022 27 10000 5.1 20 11:21 20.01.2020
249 Clouds 3 1022 25 10000 5.1 20 10:55 20.01.2020
250 Clouds 3 1022 27 10000 7.2 20 10:37 20.01.2020
251 Clouds 3 1022 37 10000 6.2 20 10:18 20.01.2020
252 Clouds 2 1022 29 10000 5.7 20 09:40 20.01.2020
253 Clouds 2 1022 29 10000 5.7 20 09:20 20.01.2020
254 Snow 2 1022 29 10000 4.6 30 08:46 20.01.2020
255 Snow 2 1022 29 10000 4.6 30 08:28 20.01.2020
256 Clouds 2 1022 29 10000 3.6 40 07:45 20.01.2020
257 Clouds 2 1022 29 10000 4.6 40 07:26 20.01.2020
258 Clouds 2 1022 37 10000 4.6 40 06:54 20.01.2020
259 Clouds 2 1022 40 10000 4.1 30 06:28 20.01.2020
260 Clouds 2 1023 40 10000 3.1 50 05:43 20.01.2020
261 Clouds 2 1023 40 10000 3.1 50 05:43 20.01.2020
262 Clouds 2 1023 40 10000 3.1 50 05:43 20.01.2020
263 Clouds 2 1023 40 10000 2.6 40 05:22 20.01.2020
264 Clouds 2 1023 34 10000 4.1 30 04:48 20.01.2020
265 Clouds 3 1024 37 10000 4.6 20 02:58 20.01.2020
266 Clouds 3 1024 35 10000 2.6 40 01:57 20.01.2020
267 Clouds 3 1024 35 10000 4.6 30 01:37 20.01.2020
268 Clouds 3 1024 35 10000 3.6 30 00:45 20.01.2020
269 Clouds 3 1024 35 10000 3.6 30 00:25 20.01.2020
270 Clouds 3 1024 38 10000 3.1 30 23:40 19.01.2020
271 Clouds 3 1024 38 10000 3.1 30 23:20 19.01.2020
272 Clouds 4 1024 35 10000 3.6 30 22:57 19.01.2020
273 Clouds 4 1024 30 10000 3.1 30 22:39 19.01.2020
274 Clouds 4 1024 30 10000 3.1 30 22:21 19.01.2020
275 Clouds 4 1023 30 10000 5.7 30 21:57 19.01.2020
276 Clouds 4 1023 24 10000 5.7 20 21:39 19.01.2020
277 Clouds 5 1023 24 10000 5.7 20 21:21 19.01.2020
278 Clouds 5 1022 41 10000 6.2 10 20:57 19.01.2020
279 Clear 5 1022 35 10000 7.2 360 20:39 19.01.2020
280 Clouds 5 1022 35 10000 7.2 360 20:21 19.01.2020
281 Clouds 6 1021 39 10000 4.6 10 19:58 19.01.2020
282 Clouds 6 1021 36 10000 6.7 10 19:39 19.01.2020
283 Clouds 6 1021 36 10000 6.7 10 19:21 19.01.2020
284 Clouds 7 1021 33 10000 6.2 360 18:59 19.01.2020
285 Clouds 7 1021 29 10000 5.1 360 18:41 19.01.2020
286 Clouds 7 1021 29 10000 5.1 360 18:41 19.01.2020
287 Clouds 8 1021 29 10000 5.1 360 18:21 19.01.2020
288 Clouds 9 1020 16 10000 8.2 20 17:59 19.01.2020
289 Clouds 9 1020 16 10000 8.2 20 17:40 19.01.2020
290 Clouds 9 1020 18 10000 7.7 10 17:22 19.01.2020
291 Clouds 9 1020 18 10000 6.7 0 17:00 19.01.2020
292 Clouds 9 1020 20 10000 7.7 10 16:40 19.01.2020
293 Clouds 9 1020 18 10000 6.7 0 16:40 19.01.2020
294 Clouds 10 1020 20 10000 7.7 10 16:22 19.01.2020
295 Clouds 10 1020 25 10000 6.2 10 16:00 19.01.2020
296 Clouds 9 1020 34 10000 5.7 10 15:40 19.01.2020
297 Clouds 9 1020 34 10000 5.7 10 15:21 19.01.2020
298 Clouds 9 1020 37 10000 6.2 360 14:59 19.01.2020
299 Clouds 9 1020 37 10000 6.2 20 14:40 19.01.2020
300 Clouds 9 1020 37 10000 6.2 20 14:19 19.01.2020
301 Clouds 9 1020 40 10000 4.6 10 13:58 19.01.2020
302 Clouds 9 1021 49 10000 4.6 10 13:38 19.01.2020
303 Clouds 9 1021 49 10000 4.6 10 13:38 19.01.2020
304 Clouds 9 1021 49 10000 4.6 10 13:20 19.01.2020
305 Rain 8 1021 29 10000 5.7 10 12:56 19.01.2020
306 Rain 8 1021 57 10000 5.7 360 12:37 19.01.2020
307 Clouds 8 1021 57 10000 5.7 360 12:19 19.01.2020
308 Clouds 7 1020 61 10000 6.2 360 11:56 19.01.2020
309 Clouds 7 1020 65 10000 6.2 360 11:37 19.01.2020
310 Clouds 7 1020 65 10000 6.2 360 11:18 19.01.2020
311 Clouds 6 1019 70 10000 3.6 350 10:39 19.01.2020
312 Clouds 6 1019 70 10000 3.6 350 10:19 19.01.2020
313 Clouds 6 1020 81 10000 0.5 0 09:57 19.01.2020
314 Clouds 6 1019 81 10000 2.1 280 09:38 19.01.2020
315 Clouds 6 1019 81 10000 2.1 280 09:19 19.01.2020
316 Clouds 6 1019 81 10000 2.1 280 08:54 19.01.2020
317 Clouds 6 1019 81 10000 3.91 15 08:31 19.01.2020
318 Clouds 5 1019 81 10000 1.5 300 07:49 19.01.2020
319 Clouds 5 1019 75 10000 1.5 320 07:28 19.01.2020
320 Clouds 4 1019 93 10000 1 0 06:54 19.01.2020
321 Clouds 4 1019 93 10000 1 0 06:21 19.01.2020
322 Clouds 5 1020 100 10000 0.5 260 03:52 19.01.2020
323 Clouds 5 1019 86 10000 3.1 280 02:32 19.01.2020
324 Rain 5 1019 87 10000 2.6 40 01:39 19.01.2020
325 Rain 6 1019 87 10000 2.6 40 01:19 19.01.2020
326 Rain 6 1019 81 10000 3.1 270 00:44 19.01.2020
327 Clouds 6 1019 81 10000 3.1 270 00:20 19.01.2020
328 Drizzle 7 1020 87 10000 2.6 300 23:45 18.01.2020
329 Rain 7 1020 93 10000 2.1 210 23:25 18.01.2020
330 Clouds 7 1020 93 10000 2.1 110 22:58 18.01.2020
331 Clouds 7 1020 93 10000 2.1 110 22:40 18.01.2020
332 Clouds 7 1020 100 10000 3.1 250 22:21 18.01.2020
333 Clouds 8 1021 93 10000 4.6 300 21:58 18.01.2020
334 Clouds 7 1020 87 10000 3.1 250 21:38 18.01.2020
335 Rain 8 1020 87 10000 3.1 250 21:20 18.01.2020
336 Rain 8 1020 93 10000 4.1 210 20:55 18.01.2020
337 Rain 8 1021 100 6000 6.7 250 20:36 18.01.2020
338 Rain 8 1021 100 6000 6.7 250 20:18 18.01.2020
339 Drizzle 8 1020 100 3000 3.6 210 19:42 18.01.2020
340 Drizzle 8 1020 100 3000 3.6 210 19:24 18.01.2020
341 Drizzle 8 1021 100 5000 3.6 210 18:43 18.01.2020
342 Drizzle 8 1021 100 5000 3.6 210 18:24 18.01.2020
343 Drizzle 8 1022 100 4400 3.6 220 17:58 18.01.2020
344 Drizzle 8 1022 100 5000 2.6 220 17:40 18.01.2020
345 Drizzle 8 1022 100 5000 2.6 220 17:20 18.01.2020
346 Drizzle 8 1023 93 5000 5.1 210 16:56 18.01.2020
347 Mist 8 1023 93 5000 3.1 200 16:37 18.01.2020
348 Mist 8 1023 93 5000 3.1 200 16:19 18.01.2020
349 Mist 8 1025 93 4000 2.6 200 15:44 18.01.2020
350 Mist 8 1025 93 4000 2.6 200 15:25 18.01.2020
351 Rain 7 1025 100 5000 2.1 180 14:59 18.01.2020
352 Rain 7 1026 93 2500 2.1 190 14:40 18.01.2020
353 Rain 7 1026 93 2500 2.1 190 14:19 18.01.2020
354 Clouds 7 1027 93 8000 2.1 170 13:55 18.01.2020
355 Rain 7 1028 93 7000 1.5 160 13:36 18.01.2020
356 Rain 7 1028 93 7000 1.5 160 13:18 18.01.2020
357 Clouds 7 1029 93 7000 2.6 140 12:41 18.01.2020
358 Clouds 7 1029 93 7000 2.6 140 12:21 18.01.2020
359 Rain 6 1029 93 7000 1.5 120 11:56 18.01.2020
360 Drizzle 6 1029 100 7000 1 0 11:37 18.01.2020
361 Drizzle 6 1029 100 7000 1 0 11:18 18.01.2020
362 Rain 6 1029 93 7000 1 160 10:41 18.01.2020
363 Drizzle 6 1030 93 9000 3.93 184 10:20 18.01.2020
364 Drizzle 5 1030 100 9000 0.5 120 09:50 18.01.2020
365 Drizzle 5 1030 93 9000 1 150 09:32 18.01.2020
366 Drizzle 5 1030 100 9000 1.5 160 08:58 18.01.2020
367 Rain 5 1030 100 10000 1 0 08:39 18.01.2020
368 Rain 5 1030 100 10000 1 0 08:19 18.01.2020
369 Drizzle 5 1030 100 5000 3.1 140 07:52 18.01.2020
370 Drizzle 5 1030 100 5000 3.1 140 07:52 18.01.2020
371 Drizzle 5 1030 100 5000 2.6 140 07:32 18.01.2020
372 Clouds 5 1030 86 10000 1.5 320 06:48 18.01.2020
373 Clouds 5 1029 80 10000 1.5 160 06:18 18.01.2020
374 Clouds 5 1030 80 10000 1.5 350 05:25 18.01.2020
375 Clouds 5 1030 86 10000 1 340 03:25 18.01.2020
376 Clouds 5 1031 80 10000 2.1 10 01:59 18.01.2020
377 Clouds 5 1031 86 10000 1 0 01:35 18.01.2020
378 Clouds 6 1031 86 10000 2.1 320 00:38 18.01.2020
379 Clouds 6 1031 86 10000 2.1 320 00:19 18.01.2020
380 Clouds 6 1031 93 10000 1 0 23:44 17.01.2020
381 Clouds 6 1031 87 10000 1 0 23:20 17.01.2020
382 Clouds 6 1031 87 10000 2.1 60 22:59 17.01.2020
383 Clouds 6 1031 87 10000 1.61 27 22:40 17.01.2020
384 Clouds 6 1031 87 10000 1.61 27 22:18 17.01.2020
385 Clouds 7 1031 87 10000 1.61 27 21:41 17.01.2020
386 Clouds 7 1031 87 10000 1.61 27 21:22 17.01.2020
387 Clouds 7 1031 87 10000 1 0 20:58 17.01.2020
388 Clouds 7 1032 87 10000 3.6 240 20:40 17.01.2020
389 Clouds 7 1032 87 10000 3.6 240 20:20 17.01.2020
390 Clouds 8 1031 87 10000 1.5 230 19:57 17.01.2020
391 Clouds 8 1031 81 10000 3.1 240 19:38 17.01.2020
392 Clouds 9 1031 81 10000 3.1 240 19:19 17.01.2020
393 Clouds 10 1031 76 10000 3.1 220 18:57 17.01.2020
394 Clouds 10 1031 71 10000 3.6 220 18:36 17.01.2020
395 Clouds 11 1031 71 10000 3.6 220 18:18 17.01.2020
396 Clouds 11 1031 66 10000 4.1 220 17:39 17.01.2020
397 Clouds 11 1031 66 10000 4.1 220 17:21 17.01.2020
398 Clouds 12 1030 62 10000 3.6 210 16:44 17.01.2020
399 Clouds 12 1030 66 10000 4.6 220 16:21 17.01.2020
400 Clouds 12 1030 71 10000 3.6 200 15:58 17.01.2020
401 Clouds 12 1030 62 10000 4.6 230 15:40 17.01.2020
402 Clouds 12 1030 62 10000 4.6 230 15:40 17.01.2020
403 Clouds 12 1030 62 10000 4.6 230 15:21 17.01.2020
404 Clouds 11 1030 62 10000 4.6 240 14:43 17.01.2020
405 Clouds 11 1030 66 10000 6.2 260 14:24 17.01.2020
406 Clouds 11 1031 71 10000 5.7 250 13:45 17.01.2020
407 Clouds 10 1031 76 10000 5.7 230 13:23 17.01.2020
408 Clouds 10 1031 81 10000 5.7 230 12:48 17.01.2020
409 Clouds 10 1031 81 10000 6.7 230 12:23 17.01.2020
410 Clouds 9 1031 81 10000 5.1 240 11:44 17.01.2020
411 Clouds 8 1031 81 10000 5.1 240 11:20 17.01.2020
412 Clouds 8 1031 81 10000 5.1 240 11:20 17.01.2020
413 Clouds 8 1031 81 10000 5.1 240 11:20 17.01.2020
414 Clouds 7 1030 87 10000 3.6 220 10:58 17.01.2020
415 Clouds 7 1030 100 10000 4.1 230 10:40 17.01.2020
416 Clouds 7 1030 100 10000 4.1 230 10:21 17.01.2020
417 Clouds 6 1030 93 8000 3.1 240 09:56 17.01.2020
418 Clouds 6 1029 100 6000 3.6 240 09:37 17.01.2020
419 Clouds 5 1029 100 6000 3.6 240 09:18 17.01.2020
420 Clouds 5 1028 93 10000 2.6 210 08:42 17.01.2020
421 Clouds 5 1028 93 10000 2.6 210 08:23 17.01.2020
422 Clouds 5 1028 93 10000 2.1 250 07:51 17.01.2020
423 Clouds 5 1028 87 10000 3.6 230 07:31 17.01.2020
424 Clouds 5 1027 93 10000 2.6 180 06:57 17.01.2020
425 Clouds 5 1027 86 10000 1 0 06:37 17.01.2020
426 Clouds 5 1027 86 10000 1.5 130 05:27 17.01.2020
427 Rain 7 1024 76 0 2.68 250 03:38 17.01.2020
428 Clouds 7 1027 70 10000 1.5 170 02:44 17.01.2020
429 Clouds 7 1028 67 0 1.79 253 01:46 17.01.2020
430 Clouds 8 1023 69 0 2.68 231 01:27 17.01.2020
431 Clouds 8 1024 68 0 4.47 261 00:44 17.01.2020
432 Clouds 8 1026 93 6000 0.5 130 00:20 17.01.2020
433 Clouds 8 1026 93 6000 0.5 130 23:42 16.01.2020
434 Clouds 8 1026 93 6000 0.5 130 23:24 16.01.2020
435 Mist 8 1026 93 4500 1.5 20 22:43 16.01.2020
436 Mist 8 1026 93 4500 1.5 20 22:22 16.01.2020
437 Mist 8 1026 93 4500 1 0 21:57 16.01.2020
438 Mist 8 1026 93 5000 4.07 195 21:39 16.01.2020
439 Mist 8 1026 93 5000 4.07 195 21:20 16.01.2020
440 Clouds 9 1026 87 6000 4.07 195 20:59 16.01.2020
441 Clouds 9 1026 66 10000 2.1 210 20:40 16.01.2020
442 Clouds 9 1026 66 10000 2.1 210 20:20 16.01.2020
443 Clouds 9 1026 71 10000 1.5 180 19:57 16.01.2020
444 Clouds 9 1025 71 10000 1 0 19:39 16.01.2020
445 Clouds 9 1025 71 10000 1 0 19:20 16.01.2020
446 Clouds 10 1025 71 10000 1.5 200 18:56 16.01.2020
447 Clouds 10 1025 66 10000 1 190 18:37 16.01.2020
448 Clouds 11 1025 66 10000 1 190 18:18 16.01.2020
449 Clouds 11 1025 66 10000 1 190 18:18 16.01.2020
450 Clouds 12 1025 62 10000 2.1 200 17:56 16.01.2020
451 Clouds 12 1025 66 10000 2.6 190 17:38 16.01.2020
452 Clouds 12 1025 66 10000 2.6 190 17:20 16.01.2020
453 Clouds 12 1025 67 10000 2.1 200 16:40 16.01.2020
454 Clouds 12 1025 67 10000 2.1 200 16:21 16.01.2020
455 Clouds 12 1025 66 10000 3.1 160 15:56 16.01.2020
456 Clouds 12 1026 76 10000 1.5 340 15:38 16.01.2020
457 Clouds 11 1026 76 10000 1.5 340 15:19 16.01.2020
458 Clouds 11 1026 71 10000 0.5 0 14:42 16.01.2020
459 Clouds 11 1027 76 10000 1.5 0 14:23 16.01.2020
460 Clouds 10 1027 76 10000 2.6 200 13:47 16.01.2020
461 Clouds 10 1028 76 10000 1 0 13:29 16.01.2020
462 Clouds 9 1028 81 10000 1.5 120 12:59 16.01.2020
463 Clouds 9 1028 81 10000 1.5 120 12:40 16.01.2020
464 Clouds 9 1028 87 9000 1.5 100 12:21 16.01.2020
465 Clouds 8 1028 81 8000 2.6 110 11:43 16.01.2020
466 Clouds 8 1028 81 8000 2.6 110 11:24 16.01.2020
467 Clouds 7 1028 87 10000 2.1 100 10:57 16.01.2020
468 Drizzle 7 1028 93 10000 2.1 100 10:37 16.01.2020
469 Drizzle 7 1028 93 10000 2.1 100 10:19 16.01.2020
470 Clouds 7 1027 87 10000 2.1 110 09:44 16.01.2020
471 Clouds 7 1027 87 8000 1 0 09:24 16.01.2020
472 Clouds 7 1027 87 8000 1.5 60 08:59 16.01.2020
473 Clouds 7 1027 87 8000 1 0 08:41 16.01.2020
474 Clouds 7 1027 87 8000 1 0 08:20 16.01.2020
475 Clouds 7 1027 87 8000 1 0 07:43 16.01.2020
476 Clouds 7 1027 87 8000 0.5 0 07:24 16.01.2020
477 Clouds 7 1027 93 8000 0.5 340 06:55 16.01.2020
478 Clouds 7 1027 87 8000 0.5 330 06:35 16.01.2020
479 Clouds 7 1027 87 8000 1.22 136 05:56 16.01.2020
480 Clouds 7 1027 87 8000 1.5 350 05:25 16.01.2020
481 Clouds 7 1027 87 8000 1 360 04:23 16.01.2020
482 Clouds 6 1027 87 8000 0.5 0 03:27 16.01.2020
483 Clouds 7 1027 81 8000 2.1 340 02:23 16.01.2020
484 Clouds 7 1028 81 8000 2.1 350 00:44 16.01.2020
485 Clouds 7 1028 81 10000 2.6 310 00:23 16.01.2020
486 Clouds 7 1028 81 10000 2.1 330 23:45 15.01.2020
487 Clouds 7 1028 81 10000 2.1 330 23:22 15.01.2020
488 Clouds 7 1028 81 10000 2.1 330 22:57 15.01.2020
489 Clouds 7 1027 81 10000 2.1 350 22:39 15.01.2020
490 Clouds 7 1027 81 10000 2.1 350 22:18 15.01.2020
491 Clouds 7 1027 81 10000 1.5 340 21:56 15.01.2020
492 Clouds 7 1027 87 10000 1.5 330 21:37 15.01.2020
493 Clouds 7 1027 87 10000 1.5 330 21:19 15.01.2020
494 Clouds 7 1027 81 10000 1.5 340 20:56 15.01.2020
495 Clouds 7 1027 81 10000 1 0 20:38 15.01.2020
496 Clouds 7 1027 81 10000 1 0 20:19 15.01.2020
497 Clouds 7 1027 81 10000 1.71 230 19:54 15.01.2020
498 Clouds 7 1027 81 10000 1.71 230 19:36 15.01.2020
499 Clouds 7 1027 81 10000 1.71 230 19:18 15.01.2020
500 Clouds 7 1026 81 10000 1 90 18:56 15.01.2020
501 Clouds 7 1026 81 10000 1.71 230 18:37 15.01.2020
502 Clouds 7 1026 81 10000 1.71 230 18:19 15.01.2020
503 Clouds 8 1026 81 10000 1 0 17:55 15.01.2020
504 Clouds 8 1026 76 10000 1.71 230 17:37 15.01.2020
505 Clouds 8 1026 76 10000 3.22 225 17:18 15.01.2020
506 Clouds 8 1025 81 10000 1.5 140 16:40 15.01.2020
507 Clouds 8 1025 81 10000 1.5 140 16:21 15.01.2020
508 Clouds 8 1025 75 10000 1.5 120 15:57 15.01.2020
509 Clouds 7 1025 75 9000 1.5 90 15:39 15.01.2020
510 Clouds 8 1025 75 9000 1.5 90 15:18 15.01.2020
511 Clouds 7 1026 81 9000 1.5 80 14:43 15.01.2020
512 Clouds 7 1026 81 9000 1.5 80 14:20 15.01.2020
513 Clouds 7 1026 81 9000 2.1 90 13:46 15.01.2020
514 Clouds 6 1026 87 9000 1.5 100 13:27 15.01.2020
515 Clouds 6 1026 87 9000 2.1 110 12:59 15.01.2020
516 Clouds 6 1026 87 9000 2.1 110 12:40 15.01.2020
517 Clouds 5 1026 87 9000 2.1 110 12:20 15.01.2020
518 Clouds 5 1026 81 9000 2.1 110 11:58 15.01.2020
519 Clouds 5 1025 86 9000 2.1 100 11:37 15.01.2020
520 Clouds 5 1025 86 9000 2.1 100 11:19 15.01.2020
521 Clouds 4 1025 86 8000 1.5 100 10:46 15.01.2020
522 Clouds 4 1024 86 8000 1 0 10:27 15.01.2020
523 Clouds 4 1024 86 10000 2.6 182 09:46 15.01.2020
524 Clouds 3 1024 93 10000 2.6 182 09:26 15.01.2020
525 Clouds 3 1023 100 10000 2.6 182 08:59 15.01.2020
526 Clouds 3 1023 93 10000 2.6 182 08:41 15.01.2020
527 Clouds 3 1023 93 10000 1.8 174 08:22 15.01.2020
528 Clouds 3 1023 93 10000 1.8 174 07:52 15.01.2020
529 Clouds 3 1022 86 10000 1.8 174 07:32 15.01.2020
530 Mist 3 1022 81 4000 0.5 0 06:46 15.01.2020
531 Mist 3 1022 81 5000 1.8 174 06:20 15.01.2020
532 Clouds 4 1023 86 6000 1 0 04:44 15.01.2020
533 Clouds 4 1023 86 7000 1.85 174 02:38 15.01.2020
534 Clouds 4 1023 86 7000 2.1 330 01:28 15.01.2020
535 Clouds 4 1023 86 7000 1.5 330 00:47 15.01.2020
536 Clouds 4 1023 86 7000 1 340 00:27 15.01.2020
537 Clouds 4 1023 86 7000 1.5 350 23:57 14.01.2020
538 Clouds 4 1023 86 7000 1 0 23:38 14.01.2020
539 Clouds 4 1023 86 7000 1 0 23:19 14.01.2020
540 Clouds 4 1023 80 8000 1 0 22:41 14.01.2020
541 Clouds 4 1023 86 8000 1 330 22:41 14.01.2020
542 Clouds 4 1023 86 8000 1 330 22:19 14.01.2020
543 Clouds 4 1022 80 9000 1 0 21:59 14.01.2020
544 Clouds 4 1022 80 9000 2.6 330 21:40 14.01.2020
545 Clouds 4 1022 80 9000 2.6 330 21:22 14.01.2020
546 Clouds 5 1022 80 10000 2.1 360 20:59 14.01.2020
547 Clouds 5 1022 81 10000 0.5 260 20:40 14.01.2020
548 Clouds 5 1022 81 10000 0.5 260 20:20 14.01.2020
549 Clouds 5 1022 81 10000 0.5 260 20:20 14.01.2020
550 Clouds 4 1022 81 10000 0.5 260 19:56 14.01.2020
551 Clouds 5 1022 75 10000 2.12 209 19:38 14.01.2020
552 Clouds 4 1022 75 10000 2.12 209 19:19 14.01.2020
553 Clouds 6 1022 75 10000 1.5 210 18:56 14.01.2020
554 Clouds 6 1022 70 10000 2.1 200 18:37 14.01.2020
555 Clouds 7 1022 70 10000 2.1 200 18:19 14.01.2020
556 Clouds 8 1022 70 10000 2.1 200 17:39 14.01.2020
557 Clouds 8 1021 61 10000 2.1 200 17:19 14.01.2020
558 Clouds 8 1021 66 10000 2.6 200 16:55 14.01.2020
559 Clouds 8 1021 66 10000 3.6 190 16:37 14.01.2020
560 Clouds 8 1021 66 10000 3.6 190 16:19 14.01.2020
561 Clouds 8 1022 61 10000 2.6 200 15:43 14.01.2020
562 Clouds 7 1022 65 10000 3.6 220 15:19 14.01.2020
563 Clouds 7 1022 65 10000 2.1 190 14:59 14.01.2020
564 Clouds 7 1023 61 10000 1.5 0 14:41 14.01.2020
565 Clouds 7 1023 61 10000 1.5 0 14:19 14.01.2020
566 Clear 6 1023 65 10000 1 0 13:42 14.01.2020
567 Clear 6 1023 65 10000 1 0 13:20 14.01.2020
568 Clear 5 1024 70 10000 1 0 12:56 14.01.2020
569 Clear 5 1024 61 10000 1 0 12:38 14.01.2020
570 Clear 5 1024 61 10000 1 0 12:20 14.01.2020
571 Clear 3 1024 61 10000 1 0 11:41 14.01.2020
572 Clear 2 1024 80 10000 1 0 11:22 14.01.2020
573 Clear 2 1023 80 9000 1 0 10:56 14.01.2020
574 Clear 1 1023 80 9000 0.5 0 10:38 14.01.2020
575 Clear 1 1023 80 9000 0.5 0 10:19 14.01.2020
576 Clear 0 1023 86 9000 1 0 09:55 14.01.2020
577 Mist -1 1024 100 3000 0.98 161 09:37 14.01.2020
578 Mist -1 1024 100 3000 0.98 161 09:19 14.01.2020
579 Clear -2 1023 100 8000 0.5 0 08:41 14.01.2020
580 Clear -2 1023 100 8000 0.5 0 08:41 14.01.2020
581 Clouds -2 1023 100 8000 0.5 0 08:22 14.01.2020
582 Fog -2 1023 100 7000 1.23 159 07:51 14.01.2020
583 Clouds -2 1022 92 10000 0.5 0 07:25 14.01.2020
584 Clouds -2 1022 92 8000 1.5 350 06:44 14.01.2020
585 Clouds -1 1022 92 8000 0.5 0 05:59 14.01.2020
586 Clouds -1 1023 92 9000 1 360 04:56 14.01.2020
587 Clouds -1 1023 92 7000 1.5 340 03:48 14.01.2020
588 Clouds -1 1023 92 7000 1.5 360 02:40 14.01.2020
589 Clouds 0 1024 92 7000 1.5 350 01:31 14.01.2020
590 Clouds 0 1024 86 7000 1.5 350 00:48 14.01.2020
591 Clouds 0 1024 92 7000 1.5 360 00:22 14.01.2020
592 Clouds 0 1024 92 8000 1 360 23:47 13.01.2020
593 Clouds 1 1024 92 9000 1 360 23:19 13.01.2020
594 Clouds 1 1024 73 9000 1 360 22:58 13.01.2020
595 Clouds 2 1024 73 9000 1 360 22:39 13.01.2020
596 Clouds 2 1024 73 10000 1 360 22:20 13.01.2020
597 Clouds 1 1024 80 10000 1.5 30 21:56 13.01.2020
598 Clouds 2 1024 74 10000 2.1 190 21:37 13.01.2020
599 Clouds 2 1024 74 10000 2.1 190 21:18 13.01.2020
600 Clouds 2 1024 74 10000 2.1 190 20:56 13.01.2020
601 Clouds 3 1024 73 10000 1.55 188 20:38 13.01.2020
602 Clouds 3 1024 64 10000 1.96 197 20:19 13.01.2020
603 Clouds 4 1024 70 10000 3.1 180 19:42 13.01.2020
604 Clouds 5 1024 70 10000 3.1 180 19:22 13.01.2020
605 Clouds 6 1024 64 10000 1 220 18:59 13.01.2020
606 Clouds 6 1024 64 10000 1.5 200 18:40 13.01.2020
607 Clouds 6 1024 64 10000 1.5 200 18:20 13.01.2020
608 Clouds 6 1024 64 10000 1.5 200 18:20 13.01.2020
609 Clouds 7 1024 61 10000 2.1 200 17:59 13.01.2020
610 Clouds 8 1024 61 10000 2.6 210 17:40 13.01.2020
611 Clouds 8 1024 61 10000 2.6 210 17:21 13.01.2020
612 Clouds 8 1024 61 10000 2.6 210 17:21 13.01.2020
613 Clouds 8 1024 57 10000 3.1 210 16:55 13.01.2020
614 Clouds 8 1020 58 0 1.79 246 16:36 13.01.2020
615 Clouds 8 1020 59 0 2.24 209 16:18 13.01.2020
616 Clouds 8 1020 61 0 2.68 185 15:42 13.01.2020
617 Clouds 7 1021 61 0 1.34 229 15:22 13.01.2020
618 Clouds 7 1021 60 0 1.79 279 14:56 13.01.2020
619 Clouds 7 1021 61 0 1.79 182 14:36 13.01.2020
620 Clouds 7 1021 61 0 1.34 200 14:18 13.01.2020
621 Clouds 6 1022 62 0 1.79 168 13:40 13.01.2020
622 Clouds 6 1022 63 0 0.89 146 13:22 13.01.2020
623 Clouds 5 1027 69 10000 0.5 0 12:58 13.01.2020
624 Clouds 4 1027 69 10000 0.5 0 12:40 13.01.2020
625 Clouds 4 1027 69 10000 0.5 0 12:21 13.01.2020
626 Clouds 3 1027 69 10000 0.5 0 11:56 13.01.2020
627 Clouds 2 1027 74 10000 1 110 11:36 13.01.2020
628 Clouds 2 1027 74 10000 1 110 11:18 13.01.2020
629 Clouds 1 1027 74 10000 1 0 10:55 13.01.2020
630 Clouds 0 1026 80 10000 1 0 10:36 13.01.2020
631 Clouds 0 1026 80 10000 1 0 10:18 13.01.2020
632 Clouds -1 1026 50 10000 0.67 128 09:40 13.01.2020
633 Clouds -1 1026 50 10000 0.67 128 09:22 13.01.2020
634 Clouds -1 1026 92 10000 0.53 131 08:42 13.01.2020
635 Clouds -1 1026 92 10000 0.58 109 08:21 13.01.2020
636 Clouds -1 1026 51 10000 1 350 07:57 13.01.2020
637 Clouds -1 1027 92 10000 0.58 109 07:38 13.01.2020
638 Clouds -1 1027 92 10000 1 350 06:55 13.01.2020
639 Clouds -1 1027 92 10000 0.5 20 06:36 13.01.2020
640 Clouds -1 1027 92 10000 0.5 20 06:36 13.01.2020
641 Clouds 0 1027 86 10000 1 360 05:36 13.01.2020
642 Clouds -1 1028 92 10000 1 350 04:25 13.01.2020
643 Clouds 0 1028 92 10000 1 330 03:31 13.01.2020
644 Clouds 1 1028 92 10000 1.5 360 02:47 13.01.2020
645 Clouds 0 1028 86 10000 2.6 340 02:29 13.01.2020
646 Clouds 1 1029 86 10000 1.5 10 01:23 13.01.2020
647 Clouds 1 1030 80 10000 1.5 350 00:42 13.01.2020
648 Clouds 1 1030 80 10000 1.5 350 00:24 13.01.2020
649 Clouds 2 1030 80 10000 1.5 340 23:56 12.01.2020
650 Clouds 2 1029 86 10000 1.5 20 23:37 12.01.2020
651 Clouds 2 1029 86 10000 1.5 20 23:19 12.01.2020
652 Clouds 3 1029 74 10000 1.5 360 22:42 12.01.2020
653 Clouds 3 1029 74 10000 1.5 360 22:24 12.01.2020
654 Clouds 3 1029 74 10000 1.5 360 21:57 12.01.2020
655 Clouds 3 1029 80 10000 0.48 123 21:38 12.01.2020
656 Clouds 3 1029 80 10000 0.48 123 21:19 12.01.2020
657 Clouds 4 1029 69 10000 1 0 20:57 12.01.2020
658 Clouds 4 1029 45 10000 0.5 0 20:38 12.01.2020
659 Clear 4 1029 44 10000 0.5 0 20:20 12.01.2020
660 Clear 4 1029 44 10000 0.5 0 19:56 12.01.2020
661 Clear 5 1029 44 10000 1 220 19:38 12.01.2020
662 Clear 5 1029 44 10000 1 220 19:19 12.01.2020
663 Clear 7 1029 44 10000 1 190 18:57 12.01.2020
664 Clear 7 1029 45 10000 2.1 180 18:39 12.01.2020
665 Clear 8 1029 45 10000 2.1 180 18:21 12.01.2020
666 Clear 9 1028 46 10000 2.1 190 17:56 12.01.2020
667 Clear 9 1028 44 10000 2.1 190 17:37 12.01.2020
668 Clear 10 1028 29 10000 2.1 190 17:18 12.01.2020
669 Clear 10 1028 43 10000 1.5 170 16:55 12.01.2020
670 Clear 10 1029 43 10000 0.5 0 16:37 12.01.2020
671 Clear 10 1029 43 10000 0.5 0 16:18 12.01.2020
672 Clear 10 1029 29 10000 0.5 0 15:42 12.01.2020
673 Clear 9 1029 43 10000 0.5 150 15:23 12.01.2020
674 Clear 9 1029 29 10000 1.11 229 14:56 12.01.2020
675 Clear 9 1030 29 10000 1 0 14:37 12.01.2020
676 Clear 9 1030 37 10000 1 0 14:18 12.01.2020
677 Clear 7 1030 37 10000 0.5 0 13:42 12.01.2020
678 Clear 7 1031 52 10000 1 0 13:23 12.01.2020
679 Clear 7 1031 52 10000 0.5 0 12:58 12.01.2020
680 Clear 6 1032 60 10000 1 0 12:38 12.01.2020
681 Clear 6 1032 60 10000 1 0 12:20 12.01.2020
682 Clear 5 1032 65 10000 1 0 11:57 12.01.2020
683 Clear 5 1032 65 10000 1 0 11:38 12.01.2020
684 Clear 4 1032 60 10000 1 0 11:19 12.01.2020
685 Clear 2 1031 64 10000 1.5 360 10:41 12.01.2020
686 Clear 1 1031 64 10000 1.5 360 10:21 12.01.2020
687 Clear 0 1031 74 10000 1 0 09:56 12.01.2020
688 Clear -1 1031 86 10000 1.17 57 09:38 12.01.2020
689 Clear -2 1031 86 10000 1.17 57 09:18 12.01.2020
690 Clear -2 1031 86 10000 1 350 08:42 12.01.2020
691 Clear -2 1031 86 10000 1.39 50 08:19 12.01.2020
692 Clear -2 1030 86 10000 0.5 0 07:40 12.01.2020
693 Clear -2 1030 63 10000 0.5 0 07:21 12.01.2020
694 Clear -1 1030 85 10000 1 360 06:43 12.01.2020
695 Clear -1 1030 85 10000 1 360 06:19 12.01.2020
696 Clear -1 1030 79 10000 1.5 350 05:23 12.01.2020
697 Clear 0 1031 86 10000 1.5 340 03:47 12.01.2020
698 Clear 1 1031 86 10000 1 350 03:22 12.01.2020
699 Clear 1 1030 79 10000 0.5 360 02:30 12.01.2020
700 Clear 0 1031 86 10000 1.5 360 01:42 12.01.2020
701 Clear 1 1031 80 10000 1.5 350 01:22 12.01.2020
702 Clear 1 1031 80 10000 1.5 360 00:40 12.01.2020
703 Clear 1 1031 80 10000 1.5 360 00:20 12.01.2020
704 Clear 2 1031 61 10000 1.5 350 23:42 11.01.2020
705 Clear 2 1031 54 10000 1.5 350 23:19 11.01.2020
706 Clear 3 1031 54 10000 1.5 350 22:57 11.01.2020
707 Clear 3 1031 80 10000 1.5 340 22:39 11.01.2020
708 Clear 3 1031 80 10000 1.5 340 22:20 11.01.2020
709 Clear 3 1031 80 10000 1.5 20 21:58 11.01.2020
710 Clear 4 1030 69 10000 1 0 21:39 11.01.2020
711 Clear 4 1030 69 10000 1 0 21:18 11.01.2020
712 Clear 5 1030 65 10000 1 0 20:40 11.01.2020
713 Clear 5 1030 65 10000 1 0 20:40 11.01.2020
714 Clear 5 1030 65 10000 1 0 20:22 11.01.2020
715 Clear 5 1030 42 10000 1.22 217 19:58 11.01.2020
716 Clear 6 1030 65 10000 1.5 210 19:39 11.01.2020
717 Clear 6 1030 65 10000 1.5 210 19:21 11.01.2020
718 Clear 8 1030 52 10000 1 210 18:58 11.01.2020
719 Clear 8 1030 46 10000 1.5 190 18:38 11.01.2020
720 Clear 8 1030 46 10000 1.5 190 18:19 11.01.2020
721 Clear 10 1030 40 10000 1.5 190 17:57 11.01.2020
722 Clear 10 1030 40 10000 1.5 190 17:57 11.01.2020
723 Clear 11 1030 37 10000 1 0 17:39 11.01.2020
724 Clear 11 1030 37 10000 1 0 17:39 11.01.2020
725 Clear 11 1030 37 10000 1 0 17:19 11.01.2020
726 Clear 11 1030 37 10000 1 0 16:45 11.01.2020
727 Clear 11 1030 37 10000 0.5 0 16:27 11.01.2020
728 Clear 11 1030 37 10000 1 0 15:58 11.01.2020
729 Clear 11 1030 40 10000 1 0 15:40 11.01.2020
730 Clear 11 1030 40 10000 1 0 15:20 11.01.2020
731 Clear 10 1030 40 10000 1.5 90 14:56 11.01.2020
732 Clear 10 1030 40 10000 1.5 90 14:38 11.01.2020
733 Clear 10 1031 40 10000 1 70 14:19 11.01.2020
734 Clear 9 1032 39 10000 2.1 0 13:39 11.01.2020
735 Clear 9 1032 39 10000 2.1 0 13:20 11.01.2020
736 Clear 9 1032 39 10000 2.1 0 13:20 11.01.2020
737 Clear 8 1032 45 10000 2.1 0 12:57 11.01.2020
738 Clear 7 1032 45 10000 2.1 0 12:38 11.01.2020
739 Clear 7 1033 49 10000 2.1 30 12:20 11.01.2020
740 Clear 6 1033 52 10000 1.5 0 11:46 11.01.2020
741 Clear 4 1032 56 10000 2.6 360 11:25 11.01.2020
742 Clear 3 1032 60 10000 1.5 360 10:50 11.01.2020
743 Clear 2 1032 60 10000 1 0 10:30 11.01.2020
744 Clear 2 1032 60 10000 1 0 10:30 11.01.2020
745 Clear 1 1032 69 10000 1 360 09:55 11.01.2020
746 Clear 0 1032 74 10000 2.1 10 09:37 11.01.2020
747 Clear 0 1032 74 10000 2.1 10 09:18 11.01.2020
748 Clear 0 1031 74 10000 2.1 360 08:41 11.01.2020
749 Clear 0 1031 74 10000 2.1 360 08:21 11.01.2020
750 Clear 0 1031 80 10000 1 0 07:44 11.01.2020
751 Clear 0 1031 80 10000 1 0 07:25 11.01.2020
752 Clear 0 1031 92 10000 1 360 06:48 11.01.2020
753 Clear 0 1031 92 10000 0.5 0 05:34 11.01.2020
754 Clear 1 1031 80 10000 2.1 340 04:46 11.01.2020
755 Clear 1 1031 80 10000 2.1 340 04:27 11.01.2020
756 Clear 2 1030 74 10000 1.5 10 02:49 11.01.2020
757 Clear 2 1030 74 10000 1.5 120 01:57 11.01.2020
758 Clear 2 1030 80 10000 0.5 340 01:38 11.01.2020
759 Clear 2 1030 80 10000 0.5 340 01:18 11.01.2020
760 Clear 3 1031 74 10000 0.5 0 00:38 11.01.2020
761 Clear 4 1031 80 10000 1 0 23:59 10.01.2020
762 Clear 4 1031 80 10000 1 0 23:40 10.01.2020
763 Clear 4 1030 70 10000 1.5 10 23:21 10.01.2020
764 Clear 4 1030 70 10000 2.1 10 22:57 10.01.2020
765 Clear 4 1030 70 10000 3.6 360 22:39 10.01.2020
766 Clear 4 1030 70 10000 3.6 360 22:20 10.01.2020
767 Clear 5 1030 70 10000 3.6 10 21:56 10.01.2020
768 Clear 5 1030 70 10000 3.6 360 21:36 10.01.2020
769 Clear 5 1030 70 10000 3.6 360 21:18 10.01.2020
770 Clear 6 1029 70 10000 2.6 360 20:43 10.01.2020
771 Clouds 6 1029 57 10000 2.6 360 20:24 10.01.2020
772 Clouds 7 1029 52 10000 2.1 360 19:56 10.01.2020
773 Clouds 7 1029 58 10000 3.1 10 19:37 10.01.2020
774 Clouds 7 1029 58 10000 3.1 10 19:19 10.01.2020
775 Clouds 7 1029 58 10000 3.1 10 19:19 10.01.2020
776 Clouds 8 1029 58 10000 3.1 10 18:42 10.01.2020
777 Clouds 9 1028 58 10000 2.6 10 18:19 10.01.2020
778 Clouds 10 1028 58 10000 2.6 10 17:57 10.01.2020
779 Clouds 10 1028 43 10000 3.1 40 17:39 10.01.2020
780 Clouds 10 1028 43 10000 3.1 40 17:20 10.01.2020
781 Clouds 10 1027 40 10000 2.6 30 16:57 10.01.2020
782 Clouds 11 1027 40 10000 4.6 50 16:38 10.01.2020
783 Clouds 11 1027 40 10000 4.6 50 16:19 10.01.2020
784 Clouds 11 1027 37 10000 4.1 10 15:56 10.01.2020
785 Clouds 11 1027 37 10000 4.1 10 15:37 10.01.2020
786 Clouds 11 1027 40 10000 5.1 10 15:18 10.01.2020
787 Clouds 11 1027 40 10000 5.1 10 14:55 10.01.2020
788 Clouds 11 1027 43 10000 5.1 10 14:37 10.01.2020
789 Clouds 10 1027 43 10000 5.1 10 14:18 10.01.2020
790 Clouds 10 1028 43 10000 4.6 10 13:44 10.01.2020
791 Clouds 10 1028 43 10000 4.6 10 13:44 10.01.2020
792 Clouds 10 1028 43 10000 4.6 360 13:26 10.01.2020
793 Clouds 9 1029 46 10000 3.1 10 12:59 10.01.2020
794 Clouds 9 1029 46 10000 3.1 10 12:39 10.01.2020
795 Clouds 8 1029 46 10000 3.1 10 12:21 10.01.2020
796 Clouds 8 1029 57 10000 3.1 10 11:56 10.01.2020
797 Clouds 7 1028 57 10000 2.6 360 11:38 10.01.2020
798 Clear 7 1028 57 10000 2.6 360 11:19 10.01.2020
799 Clear 5 1028 65 10000 2.1 350 10:58 10.01.2020
800 Clear 5 1028 70 10000 1.5 350 10:37 10.01.2020
801 Clear 5 1028 70 10000 1.5 350 10:18 10.01.2020
802 Clouds 4 1028 75 10000 0.5 0 09:45 10.01.2020
803 Clouds 3 1027 86 10000 0.5 0 09:25 10.01.2020
804 Clear 4 1027 66 10000 1.5 10 08:44 10.01.2020
805 Clouds 4 1027 73 10000 1.5 10 08:24 10.01.2020
806 Clouds 4 1027 73 10000 1.5 10 08:24 10.01.2020
807 Clouds 3 1026 73 10000 1 270 07:58 10.01.2020
808 Clouds 3 1026 73 10000 1 0 07:39 10.01.2020
809 Clouds 4 1026 73 10000 1 0 07:19 10.01.2020
810 Mist 4 1025 100 5000 0.5 0 06:27 10.01.2020
811 Mist 4 1025 93 5000 3.04 9 05:59 10.01.2020
812 Mist 5 1025 100 5000 1 0 04:44 10.01.2020
813 Clouds 5 1025 93 7000 0.5 0 03:31 10.01.2020
814 Clouds 5 1025 93 7000 2.85 26 02:52 10.01.2020
815 Clouds 7 1025 86 7000 1 50 01:53 10.01.2020
816 Clouds 6 1025 86 8000 1 330 01:30 10.01.2020
817 Clouds 7 1024 80 10000 1.5 230 00:49 10.01.2020
818 Clouds 7 1025 81 10000 2.1 140 00:31 10.01.2020
819 Clouds 6 1024 86 10000 1.5 130 23:55 09.01.2020
820 Clouds 7 1024 81 10000 2.6 170 23:36 09.01.2020
821 Clouds 7 1024 81 10000 2.6 170 23:18 09.01.2020
822 Clouds 7 1025 81 10000 1.5 210 22:54 09.01.2020
823 Clouds 7 1025 81 10000 3.6 200 22:36 09.01.2020
824 Clouds 8 1025 81 10000 3.6 200 22:18 09.01.2020
825 Clouds 8 1025 81 10000 2.6 210 21:54 09.01.2020
826 Clouds 8 1025 81 10000 2.1 240 21:36 09.01.2020
827 Clouds 8 1025 81 10000 2.1 240 21:18 09.01.2020
828 Clouds 9 1026 76 10000 1.5 270 20:54 09.01.2020
829 Clouds 9 1026 76 10000 1.5 270 20:36 09.01.2020
830 Clouds 9 1026 71 10000 1.5 280 20:18 09.01.2020
831 Clouds 8 1025 81 10000 1.5 260 19:39 09.01.2020
832 Clouds 9 1025 71 10000 2.1 210 19:20 09.01.2020
833 Clouds 9 1025 71 10000 2.1 210 18:56 09.01.2020
834 Clouds 10 1025 66 10000 2.1 200 18:38 09.01.2020
835 Clouds 10 1025 66 10000 2.1 200 18:20 09.01.2020
836 Clouds 11 1025 58 10000 2.1 170 17:41 09.01.2020
837 Clouds 12 1025 58 10000 2.1 170 17:19 09.01.2020
838 Clouds 12 1024 54 10000 2.1 160 16:58 09.01.2020
839 Clouds 12 1025 54 10000 2.1 160 16:39 09.01.2020
840 Clouds 12 1025 54 10000 2.1 160 16:20 09.01.2020
841 Clouds 12 1026 50 10000 1.5 210 15:43 09.01.2020
842 Clouds 12 1026 54 10000 2.1 150 15:22 09.01.2020
843 Clouds 12 1026 54 10000 2.1 150 14:58 09.01.2020
844 Clouds 12 1026 58 10000 1.5 130 14:40 09.01.2020
845 Clear 12 1027 54 10000 1 0 14:19 09.01.2020
846 Clear 11 1027 54 10000 1 0 13:55 09.01.2020
847 Clear 11 1027 58 10000 1 0 13:37 09.01.2020
848 Clear 11 1027 57 10000 1 0 13:18 09.01.2020
849 Clear 10 1027 57 10000 1 0 12:55 09.01.2020
850 Clear 10 1028 61 10000 2.1 110 12:37 09.01.2020
851 Clear 10 1028 57 10000 0.5 0 12:18 09.01.2020
852 Clear 9 1028 57 10000 0.5 0 11:42 09.01.2020
853 Clear 8 1028 57 10000 0.5 0 11:24 09.01.2020
854 Clear 8 1028 57 10000 0.5 0 11:24 09.01.2020
855 Clear 7 1028 70 10000 1.5 290 10:58 09.01.2020
856 Clear 6 1028 65 10000 1 0 10:39 09.01.2020
857 Clear 5 1027 75 10000 0.5 0 10:20 09.01.2020
858 Clear 4 1027 86 10000 0.5 0 09:45 09.01.2020
859 Clear 3 1027 80 10000 0.5 0 09:23 09.01.2020
860 Clear 3 1027 86 10000 0.5 0 09:23 09.01.2020
861 Clear 3 1027 80 10000 0.5 0 08:57 09.01.2020
862 Clear 4 1027 80 10000 0.5 0 08:38 09.01.2020
863 Clear 3 1027 80 10000 1 0 08:20 09.01.2020
864 Clear 3 1027 86 10000 0.5 0 07:46 09.01.2020
865 Clear 3 1027 86 10000 0.5 0 07:28 09.01.2020
866 Clear 3 1027 78 10000 1.5 350 06:40 09.01.2020
867 Clear 3 1027 78 10000 1.5 350 06:22 09.01.2020
868 Clear 3 1028 78 10000 1.5 350 05:51 09.01.2020
869 Clear 3 1028 86 10000 1.5 360 05:18 09.01.2020
870 Clear 4 1028 86 10000 2.1 350 04:38 09.01.2020
871 Clear 4 1028 86 10000 1.5 360 03:27 09.01.2020
872 Clear 4 1028 80 10000 1.5 20 02:46 09.01.2020
873 Clear 5 1029 75 10000 2.1 340 01:41 09.01.2020
874 Clear 5 1029 75 10000 2.1 350 00:57 09.01.2020
875 Clear 5 1029 75 10000 2.1 340 00:37 09.01.2020
876 Clear 6 1029 75 10000 1.5 350 00:19 09.01.2020
877 Clear 5 1029 75 10000 1.5 340 23:39 08.01.2020
878 Clear 6 1029 56 10000 1.5 360 23:20 08.01.2020
879 Clear 6 1029 56 10000 1.85 159 22:40 08.01.2020
880 Clear 6 1029 56 10000 1.85 159 22:22 08.01.2020
881 Clear 7 1028 56 10000 0.5 0 21:59 08.01.2020
882 Clear 7 1028 56 10000 0.5 0 21:40 08.01.2020
883 Clear 8 1028 56 10000 1.5 140 21:21 08.01.2020
884 Clear 8 1028 56 10000 1.5 140 20:59 08.01.2020
885 Clear 8 1028 56 10000 1.5 140 20:59 08.01.2020
886 Clear 8 1029 57 10000 1 160 20:41 08.01.2020
887 Clear 9 1028 53 10000 1.5 250 20:21 08.01.2020
888 Clear 9 1028 53 10000 1.5 250 19:58 08.01.2020
889 Clear 9 1028 61 10000 1 260 19:38 08.01.2020
890 Clear 10 1028 50 10000 1 260 19:19 08.01.2020
891 Clear 10 1028 50 10000 1 260 18:58 08.01.2020
892 Clear 11 1028 42 10000 0.28 280 18:39 08.01.2020
893 Clear 11 1028 42 10000 0.28 280 18:39 08.01.2020
894 Clear 12 1028 36 10000 0.28 280 18:19 08.01.2020
895 Clear 13 1028 36 10000 0.28 280 17:57 08.01.2020
896 Clear 14 1028 42 10000 0.28 280 17:38 08.01.2020
897 Clear 14 1028 41 10000 1.5 0 17:19 08.01.2020
898 Clear 14 1028 41 10000 1.5 0 17:19 08.01.2020
899 Clear 15 1028 41 10000 1.5 0 16:56 08.01.2020
900 Clear 14 1028 31 10000 1.5 120 16:38 08.01.2020
901 Clear 14 1028 31 10000 1.5 110 16:18 08.01.2020
902 Clear 15 1028 35 10000 1.5 120 15:44 08.01.2020
903 Clear 15 1028 35 10000 1.5 120 15:44 08.01.2020
904 Clear 15 1028 35 10000 1.5 120 15:21 08.01.2020
905 Clear 14 1028 35 10000 1 0 14:58 08.01.2020
906 Clear 14 1028 33 10000 1.5 110 14:40 08.01.2020
907 Clouds 13 1029 29 10000 0.78 46 14:21 08.01.2020
908 Clouds 12 1029 46 10000 1 0 13:41 08.01.2020
909 Clouds 12 1030 43 10000 1.5 100 13:22 08.01.2020
910 Clouds 11 1030 43 10000 0.85 47 12:55 08.01.2020
911 Clouds 11 1030 43 10000 0.85 47 12:36 08.01.2020
912 Clouds 10 1030 46 10000 1 0 12:18 08.01.2020
913 Clouds 10 1031 30 10000 0.5 0 11:47 08.01.2020
914 Clouds 7 1030 57 10000 1.35 54 11:19 08.01.2020
915 Clouds 7 1030 57 10000 1.35 54 10:59 08.01.2020
916 Clouds 6 1030 65 10000 1.35 54 10:40 08.01.2020
917 Clouds 4 1030 43 10000 1 0 10:21 08.01.2020
918 Clouds 3 1029 43 10000 1.35 54 09:43 08.01.2020
919 Clouds 3 1029 43 10000 1.35 54 09:20 08.01.2020
920 Clouds 3 1029 43 10000 1.35 54 08:58 08.01.2020
921 Clouds 3 1029 43 10000 1.35 54 08:40 08.01.2020
922 Clouds 2 1029 48 10000 1.5 360 08:21 08.01.2020
923 Clouds 2 1029 86 10000 1 0 07:52 08.01.2020
924 Clouds 2 1029 86 10000 1 0 07:34 08.01.2020
925 Clouds 1 1029 92 10000 1.5 360 06:58 08.01.2020
926 Clouds 2 1029 92 10000 1.5 330 06:40 08.01.2020
927 Clouds 3 1029 92 10000 1.5 360 05:56 08.01.2020
928 Clear 3 1029 92 10000 1 340 05:25 08.01.2020
929 Clear 4 1030 92 10000 1.5 360 04:36 08.01.2020
930 Clear 3 1030 54 10000 1 330 02:46 08.01.2020
931 Clear 4 1030 54 10000 1 330 02:28 08.01.2020
932 Clear 4 1030 48 10000 1.5 10 01:56 08.01.2020
933 Clear 4 1030 86 10000 1.5 350 01:32 08.01.2020
934 Clear 5 1030 49 10000 0.5 0 00:51 08.01.2020
935 Clear 5 1030 86 10000 2.1 10 00:22 08.01.2020
936 Clear 5 1030 49 10000 2.1 350 23:46 07.01.2020
937 Clear 5 1030 36 10000 1.5 360 23:21 07.01.2020
938 Clear 5 1030 80 10000 1 350 22:43 07.01.2020
939 Clear 5 1030 80 10000 1 350 22:21 07.01.2020
940 Clear 6 1030 36 10000 1.5 10 21:59 07.01.2020
941 Clear 6 1030 80 10000 0.5 0 21:41 07.01.2020
942 Clear 6 1030 80 10000 0.72 70 21:21 07.01.2020
943 Clear 6 1030 80 10000 0.72 70 20:58 07.01.2020
944 Clear 7 1030 75 10000 1.5 260 20:39 07.01.2020
945 Clouds 8 1030 75 10000 1.5 260 20:21 07.01.2020
946 Clouds 7 1030 70 10000 1.5 270 19:57 07.01.2020
947 Clouds 7 1030 70 10000 0.5 260 19:37 07.01.2020
948 Clouds 8 1030 66 10000 0.5 0 19:19 07.01.2020
949 Clouds 10 1030 54 10000 1 180 18:56 07.01.2020
950 Clouds 11 1030 54 10000 1 180 18:38 07.01.2020
951 Clouds 12 1030 47 10000 2.1 200 18:18 07.01.2020
952 Clouds 13 1030 47 10000 2.1 200 17:54 07.01.2020
953 Clouds 13 1030 44 10000 0.5 0 17:36 07.01.2020
954 Clouds 14 1030 41 10000 0.5 0 17:18 07.01.2020
955 Clouds 14 1030 41 10000 1 0 16:54 07.01.2020
956 Clouds 14 1030 41 10000 1 0 16:36 07.01.2020
957 Clouds 14 1030 41 10000 1 0 16:18 07.01.2020
958 Clouds 14 1030 44 10000 1 0 15:42 07.01.2020
959 Clouds 13 1030 41 10000 1 0 15:23 07.01.2020
960 Clouds 13 1030 41 10000 1 0 14:58 07.01.2020
961 Clouds 13 1031 46 10000 1 0 14:38 07.01.2020
962 Clouds 12 1031 27 10000 1 0 14:19 07.01.2020
963 Clouds 11 1032 27 10000 0.5 0 13:44 07.01.2020
964 Clouds 11 1032 27 10000 0.5 0 13:20 07.01.2020
965 Clouds 10 1032 27 10000 1 0 12:55 07.01.2020
966 Clouds 10 1032 27 10000 1 0 12:36 07.01.2020
967 Clouds 9 1032 53 10000 1 0 12:18 07.01.2020
968 Clouds 8 1032 57 10000 0.5 0 11:41 07.01.2020
969 Clear 6 1032 57 10000 0.5 0 11:22 07.01.2020
970 Clear 7 1032 57 10000 1.49 51 10:56 07.01.2020
971 Clear 6 1032 42 10000 1 0 10:37 07.01.2020
972 Clear 4 1032 100 10000 1.49 51 10:19 07.01.2020
973 Clear 3 1032 42 10000 1 0 09:39 07.01.2020
974 Clear 3 1031 42 10000 1.49 51 09:20 07.01.2020
975 Clear 3 1031 42 10000 1.49 51 08:57 07.01.2020
976 Clear 3 1031 80 10000 1.49 52 08:37 07.01.2020
977 Clear 3 1031 80 10000 1.49 52 08:37 07.01.2020
978 Clouds 2 1031 52 10000 0.5 0 08:18 07.01.2020
979 Clouds 2 1031 52 10000 0.5 0 07:42 07.01.2020
980 Clouds 2 1031 52 10000 0.5 0 07:42 07.01.2020
981 Clouds 2 1031 92 10000 1 360 06:57 07.01.2020
982 Clouds 2 1031 92 10000 0.5 40 06:35 07.01.2020
983 Clouds 2 1031 92 10000 2.1 340 05:59 07.01.2020
984 Clouds 3 1031 100 10000 1.5 350 05:40 07.01.2020
985 Clouds 3 1031 64 10000 1.5 340 03:46 07.01.2020
986 Clouds 3 1031 64 10000 1.5 340 03:24 07.01.2020
987 Clouds 4 1031 86 10000 1.5 350 02:18 07.01.2020
988 Clouds 3 1031 86 10000 1 0 01:40 07.01.2020
989 Clouds 4 1031 86 10000 1.5 340 00:58 07.01.2020
990 Clouds 4 1031 58 10000 2.1 360 00:21 07.01.2020
991 Clouds 4 1031 58 10000 2.1 360 00:21 07.01.2020
992 Clouds 4 1031 58 10000 2.1 360 23:57 06.01.2020
993 Clouds 4 1030 93 10000 1.5 360 23:37 06.01.2020
994 Clear 5 1030 49 10000 1.5 350 23:19 06.01.2020
995 Clear 5 1030 86 10000 2.1 20 22:44 06.01.2020
996 Clear 5 1030 86 10000 2.1 20 22:25 06.01.2020
997 Clear 5 1030 49 10000 0.5 0 21:59 06.01.2020
998 Clear 6 1030 80 10000 1.5 10 21:40 06.01.2020
999 Clear 6 1029 80 10000 2.1 20 21:20 06.01.2020
1000 Clear 6 1029 80 10000 2.1 20 20:57 06.01.2020
1001 Clear 6 1029 87 10000 1 250 20:39 06.01.2020
1002 Clear 7 1029 87 10000 2.1 260 20:20 06.01.2020
1003 Clear 7 1029 87 10000 2.1 260 19:57 06.01.2020
1004 Clear 7 1029 87 10000 1.5 250 19:39 06.01.2020
1005 Clear 8 1028 81 10000 2.1 250 19:20 06.01.2020
1006 Clear 9 1029 70 10000 2.1 250 18:48 06.01.2020
1007 Clear 10 1029 70 10000 2.1 250 18:25 06.01.2020
1008 Clear 12 1028 58 10000 1 210 17:59 06.01.2020
1009 Clear 12 1028 54 10000 1 0 17:39 06.01.2020
1010 Clear 13 1028 44 10000 0.5 0 17:19 06.01.2020
1011 Clear 13 1028 47 10000 0.5 0 16:55 06.01.2020
1012 Clear 13 1028 47 10000 0.5 0 16:36 06.01.2020
1013 Clear 13 1028 50 10000 2.1 140 16:18 06.01.2020
1014 Clear 13 1028 50 10000 1.5 140 15:41 06.01.2020
1015 Clear 13 1028 58 10000 0.5 0 15:20 06.01.2020
1016 Clear 13 1028 50 10000 1.5 130 14:59 06.01.2020
1017 Clear 12 1028 50 10000 1.5 120 14:40 06.01.2020
1018 Clear 12 1028 50 10000 1.5 120 14:20 06.01.2020
1019 Clear 11 1029 50 10000 1 0 13:57 06.01.2020
1020 Clear 12 1029 50 10000 1 0 13:57 06.01.2020
1021 Clear 11 1029 50 10000 1 0 13:37 06.01.2020
1022 Clear 10 1030 36 10000 1.5 110 13:19 06.01.2020
1023 Clear 10 1030 36 10000 1 0 12:43 06.01.2020
1024 Clear 9 1030 36 10000 1 0 12:21 06.01.2020
1025 Clear 9 1030 36 10000 1.5 80 11:58 06.01.2020
1026 Clear 9 1030 36 10000 0.5 0 11:39 06.01.2020
1027 Clear 7 1030 51 10000 0.5 0 11:20 06.01.2020
1028 Clear 6 1030 60 10000 1 360 10:54 06.01.2020
1029 Clear 6 1030 60 10000 1 360 10:36 06.01.2020
1030 Clear 4 1030 51 10000 1.43 46 10:18 06.01.2020
1031 Clear 3 1029 80 10000 1 360 09:37 06.01.2020
1032 Clear 2 1029 86 10000 0.5 340 09:19 06.01.2020
1033 Clear 2 1029 51 10000 0.5 340 08:43 06.01.2020
1034 Clear 1 1028 63 10000 0.9 52 08:25 06.01.2020
1035 Clear 1 1028 63 10000 0.9 52 07:51 06.01.2020
1036 Clear 1 1028 63 10000 0.9 52 07:26 06.01.2020
1037 Clear 1 1028 92 10000 0.9 52 06:45 06.01.2020
1038 Clear 2 1028 92 10000 0.9 52 06:19 06.01.2020
1039 Clear 2 1028 92 10000 1 360 05:42 06.01.2020
1040 Clear 2 1028 92 10000 1.5 340 04:33 06.01.2020
1041 Clear 2 1027 92 10000 1 360 03:59 06.01.2020
1042 Clear 3 1028 92 10000 1.5 340 02:46 06.01.2020
1043 Clear 3 1028 62 10000 1.5 340 02:23 06.01.2020
1044 Clear 4 1028 62 10000 1 360 01:44 06.01.2020
1045 Clear 4 1028 63 10000 1 360 01:24 06.01.2020
1046 Clear 4 1028 86 10000 1.5 340 00:41 06.01.2020
1047 Clear 4 1028 86 10000 1 360 00:20 06.01.2020
1048 Clear 4 1028 63 10000 1.5 350 23:41 05.01.2020
1049 Clear 4 1028 55 10000 1.5 350 23:22 05.01.2020
1050 Clear 4 1028 55 10000 1 350 22:56 05.01.2020
1051 Clear 5 1028 55 10000 1 350 22:37 05.01.2020
1052 Clear 5 1028 86 10000 1.5 350 22:19 05.01.2020
1053 Clear 5 1028 86 10000 1.5 350 21:54 05.01.2020
1054 Clear 5 1028 86 10000 1 10 21:36 05.01.2020
1055 Clear 6 1028 80 10000 1.5 140 21:18 05.01.2020
1056 Clear 6 1028 80 10000 1.5 140 20:55 05.01.2020
1057 Clear 6 1028 80 10000 0.28 75 20:36 05.01.2020
1058 Clear 6 1028 81 10000 0.34 321 20:18 05.01.2020
1059 Clear 7 1028 81 10000 0.34 321 19:54 05.01.2020
1060 Clear 7 1028 81 10000 0.34 321 19:54 05.01.2020
1061 Clear 7 1028 65 10000 0.34 321 19:36 05.01.2020
1062 Clear 8 1028 61 10000 1 110 19:18 05.01.2020
1063 Clear 8 1028 61 10000 1 110 18:54 05.01.2020
1064 Clear 8 1028 61 10000 1 110 18:54 05.01.2020
1065 Clear 9 1027 57 10000 1.5 110 18:36 05.01.2020
1066 Clear 10 1027 50 10000 1.5 130 18:18 05.01.2020
1067 Clear 9 1027 57 10000 1.5 110 18:18 05.01.2020
1068 Clear 11 1027 43 10000 1 140 17:39 05.01.2020
1069 Clear 12 1027 41 10000 0.67 257 17:21 05.01.2020
1070 Clear 12 1027 41 10000 0.67 257 16:58 05.01.2020
1071 Clear 12 1027 47 10000 1 0 16:40 05.01.2020
1072 Clear 12 1027 43 10000 1 0 16:20 05.01.2020
1073 Clear 12 1028 47 10000 1 0 15:41 05.01.2020
1074 Clear 12 1028 47 10000 1 0 15:22 05.01.2020
1075 Clear 12 1028 37 10000 1 0 14:58 05.01.2020
1076 Clear 11 1028 37 10000 1 0 14:40 05.01.2020
1077 Clear 11 1029 46 10000 1.1 21 14:22 05.01.2020
1078 Clear 10 1029 46 10000 1.1 21 13:59 05.01.2020
1079 Clear 10 1030 46 10000 1.1 21 13:39 05.01.2020
1080 Clear 9 1030 44 10000 1 0 13:20 05.01.2020
1081 Clear 9 1030 44 10000 1 0 12:57 05.01.2020
1082 Clear 9 1031 61 10000 1 0 12:57 05.01.2020
1083 Clear 9 1031 61 10000 1 0 12:38 05.01.2020
1084 Clear 7 1031 44 10000 1 0 12:20 05.01.2020
1085 Clear 8 1031 44 10000 1 0 11:55 05.01.2020
1086 Clear 7 1031 44 10000 1 0 11:36 05.01.2020
1087 Clear 7 1031 44 10000 1 0 11:36 05.01.2020
1088 Clear 6 1031 64 10000 1 0 11:18 05.01.2020
1089 Clear 5 1030 65 10000 1.5 360 10:41 05.01.2020
1090 Clear 4 1030 65 10000 1.5 360 10:20 05.01.2020
1091 Clear 3 1030 74 10000 1 0 09:57 05.01.2020
1092 Clear 2 1030 64 10000 1.35 44 09:38 05.01.2020
1093 Clear 2 1030 64 10000 1.35 44 09:38 05.01.2020
1094 Clear 1 1030 64 10000 1.35 44 09:20 05.01.2020
1095 Clear 1 1030 86 10000 1 10 08:45 05.01.2020
1096 Clear 1 1030 86 10000 1 10 08:21 05.01.2020
1097 Clear 1 1030 75 10000 1.5 360 07:50 05.01.2020
1098 Clear 1 1030 75 10000 1.5 360 07:29 05.01.2020
1099 Clear 1 1030 92 10000 1 0 06:56 05.01.2020
1100 Clear 1 1031 92 10000 1 10 05:52 05.01.2020
1101 Clear 1 1031 92 10000 0.5 30 04:57 05.01.2020
1102 Clear 2 1031 76 10000 1 0 04:19 05.01.2020
1103 Clear 2 1031 76 10000 1 0 04:19 05.01.2020
1104 Clear 2 1031 86 10000 2.6 360 03:40 05.01.2020
1105 Clear 2 1031 86 10000 1.5 330 02:41 05.01.2020
1106 Clear 2 1031 74 10000 1 0 02:19 05.01.2020
1107 Clear 3 1032 74 10000 1.5 350 01:36 05.01.2020
1108 Clouds 3 1032 74 10000 1.5 350 01:18 05.01.2020
1109 Clouds 4 1032 74 10000 1.5 350 00:39 05.01.2020
1110 Clouds 4 1032 74 10000 1.5 350 00:21 05.01.2020
1111 Clouds 4 1032 74 10000 1.5 340 23:58 04.01.2020
1112 Clouds 4 1032 80 10000 1 350 23:38 04.01.2020
1113 Clouds 5 1032 75 10000 1.5 340 23:18 04.01.2020
1114 Clouds 5 1032 70 10000 1 0 22:39 04.01.2020
1115 Clouds 5 1032 70 10000 1 0 22:39 04.01.2020
1116 Clouds 5 1032 70 10000 1.5 340 22:20 04.01.2020
1117 Clouds 5 1032 70 10000 1.5 340 21:56 04.01.2020
1118 Clouds 6 1032 70 10000 3.47 41 21:37 04.01.2020
1119 Clouds 6 1032 70 10000 3.47 41 21:19 04.01.2020
1120 Clouds 6 1032 70 10000 3.47 41 21:19 04.01.2020
1121 Clouds 6 1032 75 10000 3.47 41 20:56 04.01.2020
1122 Clouds 6 1032 66 10000 0.5 0 20:37 04.01.2020
1123 Clear 7 1032 66 10000 1 0 20:18 04.01.2020
1124 Clear 7 1032 66 10000 1 360 19:41 04.01.2020
1125 Clear 7 1032 66 10000 1 360 19:41 04.01.2020
1126 Clear 8 1032 61 10000 1 0 19:23 04.01.2020
1127 Clear 8 1032 61 10000 1 0 18:58 04.01.2020
1128 Clear 9 1032 57 10000 2.1 50 18:39 04.01.2020
1129 Clear 9 1031 65 10000 1 0 18:20 04.01.2020
1130 Clear 10 1031 54 10000 2.6 60 17:57 04.01.2020
1131 Clear 10 1031 54 10000 2.6 60 17:39 04.01.2020
1132 Clear 11 1031 54 10000 2.6 30 17:21 04.01.2020
1133 Clear 11 1031 54 10000 2.6 30 16:42 04.01.2020
1134 Clear 11 1031 54 10000 2.6 30 16:24 04.01.2020
1135 Clear 11 1031 54 10000 2.6 30 15:57 04.01.2020
1136 Clear 11 1032 54 10000 3.6 0 15:39 04.01.2020
1137 Clouds 11 1032 57 10000 5.1 30 15:19 04.01.2020
1138 Clouds 11 1032 57 10000 5.1 30 14:57 04.01.2020
1139 Clear 11 1033 53 10000 4.1 40 14:39 04.01.2020
1140 Clear 10 1033 53 10000 4.1 40 14:19 04.01.2020
1141 Clear 10 1033 57 10000 3.1 0 14:19 04.01.2020
1142 Clear 10 1034 61 10000 3.6 50 13:55 04.01.2020
1143 Clear 9 1034 61 10000 3.6 50 13:36 04.01.2020
1144 Clear 9 1034 66 10000 3.1 40 13:18 04.01.2020
1145 Clear 8 1034 66 10000 3.1 30 12:41 04.01.2020
1146 Clear 7 1034 70 10000 2.1 10 12:20 04.01.2020
1147 Clear 7 1034 70 10000 2.1 10 11:58 04.01.2020
1148 Clear 6 1035 75 10000 2.1 10 11:40 04.01.2020
1149 Clear 5 1034 81 10000 1 0 11:19 04.01.2020
1150 Clear 4 1034 81 10000 1 0 10:55 04.01.2020
1151 Clear 4 1034 81 10000 1 0 10:55 04.01.2020
1152 Clear 4 1034 80 10000 2.1 360 10:36 04.01.2020
1153 Clear 3 1034 86 10000 1.5 350 10:18 04.01.2020
1154 Clear 2 1034 93 10000 1 0 09:41 04.01.2020
1155 Clear 1 1034 93 10000 1.5 360 09:22 04.01.2020
1156 Clear 1 1033 93 10000 1 360 08:42 04.01.2020
1157 Clear 1 1033 93 10000 1 360 08:21 04.01.2020
1158 Clear 1 1033 93 10000 0.5 10 07:44 04.01.2020
1159 Clear 1 1033 100 7000 2.58 40 07:21 04.01.2020
1160 Clear 1 1033 100 7000 2.58 40 06:33 04.01.2020
1161 Fog 1 1033 100 5000 2.58 40 05:45 04.01.2020
1162 Fog 1 1033 100 4500 2.4 39 04:44 04.01.2020
1163 Fog 1 1033 100 4500 2.4 39 04:26 04.01.2020
1164 Fog 2 1033 78 700 3.6 340 03:19 04.01.2020
1165 Fog 1 1033 78 700 2.6 340 02:23 04.01.2020
1166 Fog 1 1033 78 700 2.6 340 02:23 04.01.2020
1167 Fog 1 1033 100 700 2.6 340 01:57 04.01.2020
1168 Fog 1 1034 100 800 2.6 350 01:32 04.01.2020
1169 Fog 1 1034 93 400 2.1 350 00:50 04.01.2020
1170 Fog 1 1035 100 4000 2.6 30 00:28 04.01.2020
1171 Fog 2 1034 100 200 1 10 23:52 03.01.2020
1172 Fog 2 1034 100 200 1 10 23:27 03.01.2020
1173 Fog 2 1034 93 400 1.5 360 22:55 03.01.2020
1174 Fog 3 1034 100 400 2.1 340 22:36 03.01.2020
1175 Fog 2 1034 100 400 2.1 350 22:18 03.01.2020
1176 Fog 3 1034 100 400 2.1 350 21:55 03.01.2020
1177 Fog 3 1033 100 500 1.5 20 21:37 03.01.2020
1178 Fog 3 1033 93 700 1.5 20 21:18 03.01.2020
1179 Mist 3 1033 100 1000 1.5 100 20:43 03.01.2020
1180 Mist 4 1033 100 2000 1 110 20:19 03.01.2020
1181 Mist 4 1033 100 2000 1 110 19:59 03.01.2020
1182 Mist 4 1032 100 1500 1 140 19:40 03.01.2020
1183 Mist 4 1032 93 2000 0.5 0 19:22 03.01.2020
1184 Mist 4 1032 93 4000 0.73 19 18:46 03.01.2020
1185 Mist 5 1032 93 4000 0.73 19 18:26 03.01.2020
1186 Mist 5 1032 87 4000 0.73 19 18:26 03.01.2020
1187 Mist 5 1032 87 4000 0.73 19 17:57 03.01.2020
1188 Mist 5 1032 81 3500 0.73 19 17:39 03.01.2020
1189 Mist 6 1032 93 3500 1 130 17:19 03.01.2020
1190 Mist 6 1032 87 3500 0.5 0 16:43 03.01.2020
1191 Mist 7 1032 87 3500 0.5 0 16:24 03.01.2020
1192 Mist 6 1032 87 3500 1 0 15:58 03.01.2020
1193 Mist 6 1032 93 3500 1 0 15:40 03.01.2020
1194 Mist 6 1032 93 3500 1 0 15:18 03.01.2020
1195 Mist 6 1032 93 3500 1 0 14:39 03.01.2020
1196 Mist 5 1032 100 1500 0.08 304 14:20 03.01.2020
1197 Mist 5 1032 100 1500 0.08 304 13:56 03.01.2020
1198 Fog 5 1033 100 800 0.23 235 13:37 03.01.2020
1199 Fog 4 1033 100 800 0.23 235 13:19 03.01.2020
1200 Mist 5 1034 100 1800 1 0 12:40 03.01.2020
1201 Mist 5 1034 100 1800 1 0 12:21 03.01.2020
1202 Mist 4 1034 93 2000 0.5 0 11:49 03.01.2020
1203 Mist 3 1034 93 2000 0.5 0 11:30 03.01.2020
1204 Fog 3 1033 100 100 1 0 10:48 03.01.2020
1205 Fog 2 1033 100 100 1 0 10:28 03.01.2020
1206 Fog 2 1032 100 100 0.5 0 09:59 03.01.2020
1207 Fog 2 1032 100 100 0.59 87 09:41 03.01.2020
1208 Fog 2 1032 100 100 0.59 87 09:22 03.01.2020
1209 Fog 2 1032 100 100 0.59 87 08:57 03.01.2020
1210 Mist 2 1032 100 4000 1 20 08:39 03.01.2020
1211 Fog 1 1032 100 200 0.52 37 08:20 03.01.2020
1212 Mist 1 1031 100 2500 1 0 07:41 03.01.2020
1213 Fog 1 1032 100 150 0.52 37 07:19 03.01.2020
1214 Fog 1 1032 100 150 0.52 37 06:54 03.01.2020
1215 Mist 1 1031 100 4000 1.5 360 06:35 03.01.2020
1216 Mist 1 1031 92 4000 0.5 10 05:48 03.01.2020
1217 Mist 1 1031 69 5000 1 350 04:31 03.01.2020
1218 Clouds 2 1031 69 6000 1.5 340 03:18 03.01.2020
1219 Clouds 2 1031 69 6000 1 350 02:45 03.01.2020
1220 Clouds 3 1031 64 6000 1 360 01:47 03.01.2020
1221 Clouds 4 1031 93 8000 1.5 360 00:57 03.01.2020
1222 Clouds 4 1031 93 8000 1.5 360 00:33 03.01.2020
1223 Clouds 4 1031 93 8000 1.5 340 23:58 02.01.2020
1224 Clouds 4 1031 93 9000 1.5 350 23:39 02.01.2020
1225 Clouds 4 1031 93 10000 1 340 23:19 02.01.2020
1226 Clouds 5 1031 93 10000 1 340 22:58 02.01.2020
1227 Clouds 5 1031 93 10000 1 340 22:58 02.01.2020
1228 Clouds 5 1031 93 10000 1.5 350 22:39 02.01.2020
1229 Clouds 5 1031 86 10000 1 360 22:19 02.01.2020
1230 Clouds 6 1031 86 10000 1 360 21:54 02.01.2020
1231 Clouds 6 1030 86 10000 0.5 360 21:36 02.01.2020
1232 Clouds 6 1030 86 10000 0.5 40 21:18 02.01.2020
1233 Clouds 7 1030 81 10000 0.84 68 20:40 02.01.2020
1234 Clouds 6 1030 81 10000 0.32 168 20:21 02.01.2020
1235 Clouds 7 1030 75 10000 0.32 168 19:56 02.01.2020
1236 Clouds 7 1030 75 10000 0.32 168 19:56 02.01.2020
1237 Clouds 7 1030 75 10000 0.32 168 19:38 02.01.2020
1238 Clouds 8 1030 65 10000 1.5 200 19:19 02.01.2020
1239 Clouds 8 1030 65 10000 1.5 200 18:59 02.01.2020
1240 Clouds 8 1030 61 10000 1 150 18:40 02.01.2020
1241 Clouds 9 1030 57 10000 1 150 18:22 02.01.2020
1242 Clouds 10 1030 57 10000 1 150 17:57 02.01.2020
1243 Clouds 10 1030 54 10000 1 110 17:38 02.01.2020
1244 Clouds 11 1030 58 10000 1 0 17:19 02.01.2020
1245 Clouds 12 1030 58 10000 1 0 16:57 02.01.2020
1246 Clouds 12 1030 58 10000 1 0 16:39 02.01.2020
1247 Clouds 11 1029 54 10000 1.06 233 16:20 02.01.2020
1248 Clouds 11 1029 58 10000 1.5 130 15:57 02.01.2020
1249 Clouds 11 1030 57 10000 1 0 15:37 02.01.2020
1250 Clouds 11 1030 62 10000 1 0 15:19 02.01.2020
1251 Clouds 11 1030 62 10000 1.06 233 14:55 02.01.2020
1252 Clouds 11 1030 62 10000 1.06 233 14:55 02.01.2020
1253 Clouds 11 1030 62 10000 1.06 233 14:36 02.01.2020
1254 Clear 10 1031 57 10000 1 0 14:18 02.01.2020
1255 Clear 10 1031 61 10000 1 0 13:47 02.01.2020
1256 Clear 9 1031 61 10000 1 0 13:29 02.01.2020
1257 Clear 9 1032 70 10000 1 0 12:45 02.01.2020
1258 Clear 9 1032 70 10000 1 0 12:25 02.01.2020
1259 Clear 7 1032 70 10000 1 0 11:44 02.01.2020
1260 Clear 6 1032 70 10000 1 0 11:26 02.01.2020
1261 Clear 5 1032 75 10000 1.37 48 10:58 02.01.2020
1262 Clear 4 1031 80 10000 1.37 48 10:39 02.01.2020
1263 Fog 3 1031 93 10000 1 360 10:19 02.01.2020
1264 Fog 2 1031 100 10000 1 350 09:42 02.01.2020
1265 Fog 2 1031 100 10000 1 350 09:24 02.01.2020
1266 Clear 1 1031 100 10000 1.37 48 08:45 02.01.2020
1267 Clear 1 1031 100 10000 1.37 48 08:45 02.01.2020
1268 Clear 1 1031 100 10000 1.04 50 08:27 02.01.2020
1269 Clear 1 1030 63 10000 1.12 47 07:50 02.01.2020
1270 Clear 1 1030 100 10000 1.12 47 07:30 02.01.2020
1271 Clear 1 1030 100 7000 1.5 360 06:44 02.01.2020
1272 Clear 1 1030 100 7000 0.5 360 06:26 02.01.2020
1273 Clear 2 1030 100 6000 1 350 04:53 02.01.2020
1274 Clear 2 1030 100 6000 1 350 04:30 02.01.2020
1275 Fog 3 1030 53 6000 1 340 02:32 02.01.2020
1276 Clouds 3 1031 53 6000 1 360 01:58 02.01.2020
1277 Fog 3 1031 54 6000 1 350 01:32 02.01.2020
1278 Clouds 4 1031 54 7000 1.5 350 00:57 02.01.2020
1279 Clouds 4 1031 54 7000 1.5 340 00:33 02.01.2020
1280 Clouds 4 1031 93 7000 2.1 10 23:49 01.01.2020
1281 Clouds 5 1031 93 7000 1 10 23:27 01.01.2020
1282 Clouds 5 1031 100 7000 1.5 350 22:56 01.01.2020
1283 Clouds 5 1031 93 7000 1 360 22:37 01.01.2020
1284 Clouds 5 1031 86 7000 1.5 340 22:19 01.01.2020
1285 Clouds 6 1031 86 7000 1.5 340 21:55 01.01.2020
1286 Clouds 6 1031 86 8000 2.1 10 21:37 01.01.2020
1287 Clouds 6 1031 86 8000 1 10 21:18 01.01.2020
1288 Clouds 7 1031 87 10000 0.6 111 20:42 01.01.2020
1289 Clouds 7 1031 93 10000 0.37 203 20:22 01.01.2020
1290 Clouds 7 1031 93 10000 0.37 203 19:58 01.01.2020
1291 Clouds 7 1031 87 10000 0.5 0 19:40 01.01.2020
1292 Clouds 8 1031 76 10000 1 0 19:21 01.01.2020
1293 Clouds 9 1031 76 10000 1 0 18:59 01.01.2020
1294 Clouds 9 1031 71 10000 1 110 18:39 01.01.2020
1295 Clouds 9 1031 71 10000 1 110 18:20 01.01.2020
1296 Clouds 11 1030 66 10000 2.1 110 17:59 01.01.2020
1297 Clouds 11 1030 62 10000 2.1 110 17:40 01.01.2020
1298 Clouds 12 1030 62 10000 2.1 110 17:20 01.01.2020
1299 Clouds 12 1030 62 10000 2.1 120 16:59 01.01.2020
1300 Clouds 12 1030 62 10000 2.1 120 16:59 01.01.2020
1301 Clouds 12 1030 62 10000 2.1 120 16:38 01.01.2020
1302 Clouds 12 1030 54 10000 1.5 140 16:20 01.01.2020
1303 Clouds 12 1030 54 10000 1.5 140 15:57 01.01.2020
1304 Clouds 12 1030 58 10000 1.5 160 15:38 01.01.2020
1305 Clouds 12 1030 58 10000 1.5 160 15:20 01.01.2020
1306 Clouds 12 1031 54 10000 0.79 255 14:56 01.01.2020
1307 Clouds 12 1031 54 10000 0.79 255 14:38 01.01.2020
1308 Clear 11 1031 54 10000 0.5 0 14:19 01.01.2020
1309 Clear 11 1031 54 10000 0.5 0 13:55 01.01.2020
1310 Clear 11 1031 54 10000 0.5 0 13:55 01.01.2020
1311 Clear 10 1032 58 10000 1 0 13:37 01.01.2020
1312 Clear 9 1033 57 10000 1 0 13:18 01.01.2020
1313 Clear 10 1033 57 10000 1 0 12:55 01.01.2020
1314 Clear 9 1033 61 10000 0.5 0 12:36 01.01.2020
1315 Clear 9 1033 61 10000 0.5 0 12:18 01.01.2020
1316 Clear 8 1033 61 10000 0.5 0 11:42 01.01.2020
1317 Clear 6 1033 70 10000 1.28 55 11:21 01.01.2020
1318 Clear 5 1033 75 10000 0.5 0 10:57 01.01.2020
1319 Clear 5 1033 75 10000 0.5 0 10:38 01.01.2020
1320 Clear 4 1032 86 10000 0.5 0 10:19 01.01.2020
1321 Clear 2 1032 93 10000 0.5 0 09:42 01.01.2020
1322 Clear 1 1032 93 9000 0.5 360 09:23 01.01.2020
1323 Clear 1 1032 93 9000 0.5 360 08:57 01.01.2020
1324 Clear 1 1032 93 8000 1 0 08:39 01.01.2020
1325 Clear 2 1032 100 8000 0.5 350 08:20 01.01.2020
1326 Clear 2 1032 100 8000 0.5 350 07:59 01.01.2020
1327 Clear 2 1031 100 8000 1.32 48 07:41 01.01.2020
1328 Clear 1 1031 100 8000 1.32 48 07:20 01.01.2020
1329 Clear 2 1031 92 7000 1 350 06:40 01.01.2020
1330 Clear 2 1031 100 7000 1 360 06:18 01.01.2020
1331 Clear 2 1032 100 6000 1 340 04:36 01.01.2020
1332 Clear 3 1032 62 6000 1.5 360 03:40 01.01.2020
1333 Clear 3 1031 62 6000 0.5 10 03:21 01.01.2020
1334 Clear 3 1032 62 6000 1.5 360 02:43 01.01.2020
1335 Clear 3 1032 55 6000 1.5 360 02:24 01.01.2020
1336 Clear 4 1032 55 6000 1 350 01:45 01.01.2020
1337 Clear 4 1032 54 6000 1.5 360 01:23 01.01.2020
1338 Clear 4 1032 54 6000 1.5 360 00:54 01.01.2020
1339 Clear 4 1032 93 7000 1 0 00:36 01.01.2020
1340 Clear 4 1032 93 7000 2.1 350 00:18 01.01.2020
1341 Clear 5 1032 93 7000 1.5 360 23:38 31.12.2019
1342 Clear 5 1032 93 8000 1.5 350 23:19 31.12.2019
1343 Clear 5 1032 93 8000 1.5 350 22:56 31.12.2019
1344 Clear 5 1032 93 8000 1.5 350 22:37 31.12.2019
1345 Clear 5 1032 86 8000 1.5 350 22:18 31.12.2019
1346 Clear 6 1031 93 10000 0.5 0 21:43 31.12.2019
1347 Clear 6 1031 93 10000 0.5 0 21:25 31.12.2019
1348 Clear 6 1031 93 10000 1.5 360 20:58 31.12.2019
1349 Clear 7 1032 93 10000 0.5 280 20:39 31.12.2019
1350 Clouds 7 1032 93 10000 0.51 227 20:21 31.12.2019
1351 Clouds 8 1032 93 10000 0.51 227 19:58 31.12.2019
1352 Clouds 8 1031 87 10000 0.5 240 19:40 31.12.2019
1353 Clouds 8 1031 87 10000 0.5 240 19:22 31.12.2019
1354 Clouds 9 1031 76 10000 1.5 150 18:57 31.12.2019
1355 Clouds 9 1031 87 10000 0.5 0 18:57 31.12.2019
1356 Clouds 9 1031 76 10000 1.5 150 18:39 31.12.2019
1357 Clouds 11 1031 66 10000 1.5 150 18:19 31.12.2019
1358 Clouds 11 1031 66 10000 1.5 150 17:56 31.12.2019
1359 Clouds 12 1031 66 10000 1.5 140 17:37 31.12.2019
1360 Clear 12 1031 66 10000 1.5 140 17:19 31.12.2019
1361 Clear 12 1031 62 10000 1.5 140 16:56 31.12.2019
1362 Clear 13 1030 62 10000 2.1 130 16:37 31.12.2019
1363 Clear 12 1030 58 10000 1.5 140 16:19 31.12.2019
1364 Clear 12 1030 58 10000 1.5 140 15:56 31.12.2019
1365 Clear 12 1031 54 10000 1 0 15:38 31.12.2019
1366 Clear 12 1031 54 10000 0.5 0 15:20 31.12.2019
1367 Clear 12 1031 54 10000 0.5 0 14:56 31.12.2019
1368 Clear 12 1031 58 10000 0.5 0 14:37 31.12.2019
1369 Clear 12 1031 54 10000 0.5 0 14:19 31.12.2019
1370 Clear 11 1032 62 10000 1 0 13:56 31.12.2019
1371 Clear 11 1032 58 10000 1 0 13:38 31.12.2019
1372 Clear 10 1033 62 10000 0.5 0 13:20 31.12.2019
1373 Clear 10 1033 62 10000 0.5 0 12:56 31.12.2019
1374 Clear 10 1033 61 10000 0.5 0 12:38 31.12.2019
1375 Clear 9 1033 66 10000 1 0 12:19 31.12.2019
1376 Clear 8 1033 66 10000 1 0 11:56 31.12.2019
1377 Clear 8 1033 75 10000 1 0 11:37 31.12.2019
1378 Clear 6 1033 75 10000 0.5 0 11:19 31.12.2019
1379 Clear 6 1033 75 10000 0.5 0 10:57 31.12.2019
1380 Clear 6 1033 75 10000 0.5 0 10:57 31.12.2019
1381 Clear 5 1032 80 10000 0.5 0 10:37 31.12.2019
1382 Clear 4 1032 86 10000 1.16 55 10:19 31.12.2019
1383 Clear 3 1032 86 10000 1.16 55 09:58 31.12.2019
1384 Clear 2 1032 93 10000 0.5 0 09:39 31.12.2019
1385 Mist 2 1032 100 4500 1.5 340 09:19 31.12.2019
1386 Mist 2 1032 100 4500 1.5 340 08:57 31.12.2019
1387 Clear 2 1031 100 10000 1.11 58 08:37 31.12.2019
1388 Clear 1 1031 92 10000 1.5 360 08:18 31.12.2019
1389 Fog 2 1031 64 5000 0.88 57 07:41 31.12.2019
1390 Clear 2 1031 92 10000 1 350 07:19 31.12.2019
1391 Clear 2 1031 92 10000 1.5 350 06:42 31.12.2019
1392 Clear 2 1031 100 10000 1.5 10 05:54 31.12.2019
1393 Clear 3 1031 59 10000 2.1 330 04:27 31.12.2019
1394 Clear 3 1031 59 10000 1.5 340 03:27 31.12.2019
1395 Clear 3 1031 59 10000 1 340 02:43 31.12.2019
1396 Clear 3 1031 55 10000 0.59 85 01:53 31.12.2019
1397 Clear 3 1031 55 10000 0.59 85 01:34 31.12.2019
1398 Clear 3 1032 53 10000 0.58 82 00:56 31.12.2019
1399 Clear 4 1032 53 10000 0.5 40 00:37 31.12.2019
1400 Clear 4 1032 93 10000 0.5 0 00:18 31.12.2019
1401 Clear 4 1032 93 10000 0.5 0 23:56 30.12.2019
1402 Clear 4 1032 86 10000 1.5 360 23:37 30.12.2019
1403 Clear 4 1032 86 10000 1.5 360 23:19 30.12.2019
1404 Clear 5 1031 93 10000 1.5 360 22:56 30.12.2019
1405 Clear 5 1031 86 10000 1.5 350 22:37 30.12.2019
1406 Clear 5 1031 86 10000 1 0 22:18 30.12.2019
1407 Clear 6 1031 86 10000 1 0 21:55 30.12.2019
1408 Clear 6 1031 80 10000 1 0 21:37 30.12.2019
1409 Clear 6 1031 81 10000 1.5 10 21:18 30.12.2019
1410 Clear 6 1031 81 10000 1.5 10 20:56 30.12.2019
1411 Clear 6 1031 87 10000 0.9 67 20:37 30.12.2019
1412 Clear 7 1031 81 10000 0.17 267 20:19 30.12.2019
1413 Clear 7 1031 81 10000 0.5 0 19:55 30.12.2019
1414 Clear 7 1031 81 10000 0.5 0 19:37 30.12.2019
1415 Clear 8 1031 70 10000 1 220 19:18 30.12.2019
1416 Clear 9 1031 70 10000 1 220 18:56 30.12.2019
1417 Clear 9 1031 71 10000 1 140 18:36 30.12.2019
1418 Clear 10 1031 58 10000 1 130 18:18 30.12.2019
1419 Clear 11 1031 58 10000 2.1 210 17:54 30.12.2019
1420 Clear 11 1031 58 10000 1.5 140 17:36 30.12.2019
1421 Clear 12 1031 58 10000 1.5 140 17:18 30.12.2019
1422 Clear 12 1031 54 10000 1.5 120 16:41 30.12.2019
1423 Clear 12 1031 54 10000 1.5 120 16:41 30.12.2019
1424 Clear 12 1031 54 10000 1.5 120 16:20 30.12.2019
1425 Clear 12 1031 50 10000 0.5 0 15:57 30.12.2019
1426 Clear 13 1031 50 10000 0.5 0 15:39 30.12.2019
1427 Clear 12 1031 50 10000 0.5 250 15:19 30.12.2019
1428 Clear 12 1031 50 10000 0.5 250 14:56 30.12.2019
1429 Clear 12 1031 54 10000 0.5 0 14:38 30.12.2019
1430 Clear 11 1032 58 10000 0.5 130 14:18 30.12.2019
1431 Clear 11 1032 62 10000 1.5 0 13:42 30.12.2019
1432 Clear 11 1032 62 10000 1.5 0 13:24 30.12.2019
1433 Clear 10 1033 70 10000 2.1 110 12:59 30.12.2019
1434 Clear 10 1033 66 10000 1.5 90 12:41 30.12.2019
1435 Clear 9 1033 65 10000 1 0 12:19 30.12.2019
1436 Clear 9 1033 65 10000 1 0 11:58 30.12.2019
1437 Clear 8 1033 65 10000 1 0 11:39 30.12.2019
1438 Clear 6 1032 65 10000 1 0 11:18 30.12.2019
1439 Clear 5 1032 65 10000 0.5 0 10:43 30.12.2019
1440 Clear 5 1032 65 10000 0.5 0 10:21 30.12.2019
1441 Clear 4 1032 50 10000 0.99 62 09:55 30.12.2019
1442 Clear 3 1031 93 10000 0.99 62 09:37 30.12.2019
1443 Clear 2 1031 86 10000 0.99 62 09:18 30.12.2019
1444 Clear 2 1031 49 10000 1.03 57 08:46 30.12.2019
1445 Clear 2 1031 58 10000 0.99 61 08:23 30.12.2019
1446 Clear 2 1030 58 10000 0.5 0 07:53 30.12.2019
1447 Clear 2 1030 58 10000 1 10 07:33 30.12.2019
1448 Clear 2 1030 92 10000 1.5 10 06:51 30.12.2019
1449 Clear 2 1030 92 10000 0.5 320 04:50 30.12.2019
1450 Clear 3 1030 92 10000 1 64 03:53 30.12.2019
1451 Clear 4 1030 50 10000 1.5 10 02:50 30.12.2019
1452 Clear 4 1030 50 10000 1.5 10 02:32 30.12.2019
1453 Clear 5 1030 86 10000 1.5 350 01:50 30.12.2019
1454 Clear 4 1030 86 10000 1.5 10 01:20 30.12.2019
1455 Clear 5 1030 44 10000 1.5 330 00:43 30.12.2019
1456 Clear 5 1030 44 10000 1 320 23:59 29.12.2019
1457 Clear 5 1030 44 10000 1.5 20 23:39 29.12.2019
1458 Clear 5 1030 40 10000 1.5 20 23:21 29.12.2019
1459 Clear 5 1030 40 10000 1 350 22:42 29.12.2019
1460 Clear 6 1030 40 10000 2.1 350 22:23 29.12.2019
1461 Clear 6 1030 40 10000 2.1 350 21:59 29.12.2019
1462 Clear 6 1030 40 10000 1.5 350 21:41 29.12.2019
1463 Clear 6 1030 40 10000 1.5 350 21:20 29.12.2019
1464 Clear 6 1030 40 10000 1.5 350 21:20 29.12.2019
1465 Clear 6 1029 80 10000 1.5 10 20:57 29.12.2019
1466 Clear 7 1030 70 10000 0.49 54 20:39 29.12.2019
1467 Clear 7 1030 61 10000 0.26 335 20:20 29.12.2019
1468 Clear 8 1030 61 10000 0.26 335 19:58 29.12.2019
1469 Clear 8 1029 57 10000 1 250 19:40 29.12.2019
1470 Clear 8 1029 57 10000 1 250 19:21 29.12.2019
1471 Clear 9 1029 57 10000 0.26 335 18:57 29.12.2019
1472 Clear 10 1029 50 10000 1 0 18:38 29.12.2019
1473 Clear 11 1029 35 10000 1.5 140 18:19 29.12.2019
1474 Clear 12 1029 35 10000 1.5 140 17:58 29.12.2019
1475 Clear 13 1029 38 10000 0.5 160 17:39 29.12.2019
1476 Clear 14 1029 36 10000 0.3 301 17:20 29.12.2019
1477 Clear 14 1029 36 10000 0.3 301 16:56 29.12.2019
1478 Clear 14 1029 25 10000 0.3 301 16:37 29.12.2019
1479 Clear 14 1029 44 10000 0.5 0 16:19 29.12.2019
1480 Clear 14 1029 44 10000 0.5 0 15:57 29.12.2019
1481 Clear 14 1030 25 10000 1 0 15:39 29.12.2019
1482 Clear 14 1030 41 10000 1 260 15:20 29.12.2019
1483 Clear 14 1030 41 10000 1 260 14:57 29.12.2019
1484 Clear 13 1030 25 10000 0.5 0 14:38 29.12.2019
1485 Clear 13 1031 38 10000 0.5 0 14:18 29.12.2019
1486 Clear 13 1031 38 10000 0.5 0 13:57 29.12.2019
1487 Clear 13 1031 38 10000 0.5 0 13:57 29.12.2019
1488 Clear 12 1031 26 10000 1 0 13:38 29.12.2019
1489 Clear 12 1031 26 10000 1 0 13:19 29.12.2019
1490 Clear 11 1032 43 10000 0.5 0 12:45 29.12.2019
1491 Clear 11 1032 43 10000 0.5 0 12:27 29.12.2019
1492 Clear 10 1032 26 10000 1 0 11:57 29.12.2019
1493 Clear 10 1032 26 10000 0.5 0 11:38 29.12.2019
1494 Clear 8 1032 46 10000 0.5 0 11:20 29.12.2019
1495 Clear 7 1031 48 10000 1.5 10 10:43 29.12.2019
1496 Clear 6 1031 48 10000 1.5 10 10:25 29.12.2019
1497 Clear 4 1031 48 10000 0.5 0 09:58 29.12.2019
1498 Clear 4 1031 60 10000 1 0 09:39 29.12.2019
1499 Clear 3 1031 60 10000 1 0 09:21 29.12.2019
1500 Clear 2 1031 60 10000 1 0 08:48 29.12.2019
1501 Clear 3 1031 60 10000 1 0 08:28 29.12.2019
1502 Clear 3 1031 74 10000 1 360 07:56 29.12.2019
1503 Clear 3 1031 80 10000 0.5 360 07:28 29.12.2019
1504 Clear 3 1031 80 10000 0.5 360 07:28 29.12.2019
1505 Clear 3 1031 92 10000 1 350 06:56 29.12.2019
1506 Clear 3 1031 92 10000 1.5 360 06:26 29.12.2019
1507 Clear 4 1031 92 10000 0.5 0 05:53 29.12.2019
1508 Clear 4 1030 92 10000 1.5 360 04:36 29.12.2019
1509 Clear 4 1030 33 10000 1 360 03:58 29.12.2019
1510 Clear 5 1030 86 10000 1 320 03:21 29.12.2019
1511 Clear 5 1030 86 10000 1.71 55 02:21 29.12.2019
1512 Clear 6 1030 86 10000 1 20 01:40 29.12.2019
1513 Clear 6 1030 33 10000 1.5 360 01:21 29.12.2019
1514 Clear 7 1030 33 10000 2.1 10 00:42 29.12.2019
1515 Clear 7 1030 33 10000 1.5 340 00:23 29.12.2019
1516 Clear 7 1030 33 10000 2.1 10 00:23 29.12.2019
1517 Clear 6 1030 33 10000 1.5 360 23:44 28.12.2019
1518 Clear 7 1030 80 10000 1.5 360 23:18 28.12.2019
1519 Clear 7 1030 86 10000 1 10 22:40 28.12.2019
1520 Clear 8 1030 35 10000 1.5 360 22:21 28.12.2019
1521 Clear 8 1030 35 10000 1.5 360 21:58 28.12.2019
1522 Clear 8 1030 75 10000 1.5 360 21:40 28.12.2019
1523 Clear 8 1029 35 10000 1 330 21:22 28.12.2019
1524 Clear 8 1029 35 10000 1 330 20:59 28.12.2019
1525 Clear 9 1029 65 10000 1.5 250 20:38 28.12.2019
1526 Clear 9 1029 65 10000 1.5 250 20:20 28.12.2019
1527 Clear 9 1029 65 10000 1.32 21 19:58 28.12.2019
1528 Clear 9 1029 28 10000 0.5 270 19:39 28.12.2019
1529 Clear 9 1029 28 10000 1.32 21 19:21 28.12.2019
1530 Clear 10 1029 28 10000 1.32 21 18:58 28.12.2019
1531 Clear 10 1029 37 10000 1 0 18:40 28.12.2019
1532 Clear 11 1029 37 10000 1 0 18:19 28.12.2019
1533 Clear 14 1029 29 10000 1.32 21 17:55 28.12.2019
1534 Clear 13 1028 41 10000 0.5 80 17:37 28.12.2019
1535 Clear 15 1028 27 10000 0.5 0 17:18 28.12.2019
1536 Clear 16 1028 29 10000 0.5 0 16:46 28.12.2019
1537 Clear 16 1028 29 10000 0.5 0 16:26 28.12.2019
1538 Clear 15 1028 35 10000 2.6 110 15:47 28.12.2019
1539 Clear 15 1028 33 10000 1.5 100 15:24 28.12.2019
1540 Clear 14 1028 33 10000 1.5 100 14:59 28.12.2019
1541 Clear 14 1028 33 10000 1.5 150 14:39 28.12.2019
1542 Clear 14 1029 21 10000 0.5 0 14:20 28.12.2019
1543 Clear 14 1029 21 10000 0.5 0 13:56 28.12.2019
1544 Clear 14 1029 25 10000 0.5 0 13:37 28.12.2019
1545 Clear 14 1030 28 10000 0.5 0 13:18 28.12.2019
1546 Clear 13 1030 25 10000 1 0 12:42 28.12.2019
1547 Clear 13 1030 25 10000 1 0 12:23 28.12.2019
1548 Clear 12 1030 32 10000 0.5 0 11:56 28.12.2019
1549 Clear 11 1031 40 10000 0.55 72 11:38 28.12.2019
1550 Clear 9 1031 40 10000 1.77 45 11:19 28.12.2019
1551 Clear 8 1030 48 10000 1 0 10:44 28.12.2019
1552 Clear 7 1030 52 10000 1 0 10:22 28.12.2019
1553 Clear 6 1030 52 10000 1 0 09:57 28.12.2019
1554 Clear 5 1030 60 10000 1.77 45 09:39 28.12.2019
1555 Clear 5 1030 59 10000 1 0 09:19 28.12.2019
1556 Clear 5 1030 64 10000 0.5 0 08:44 28.12.2019
1557 Clear 4 1029 64 10000 0.5 0 08:26 28.12.2019
1558 Clear 4 1029 64 10000 1 0 07:49 28.12.2019
1559 Clear 4 1029 64 10000 1 0 07:30 28.12.2019
1560 Clear 3 1029 100 10000 1 350 06:27 28.12.2019
1561 Clear 4 1029 92 10000 1.5 350 04:36 28.12.2019
1562 Clear 4 1029 31 10000 1 350 03:39 28.12.2019
1563 Clear 5 1029 31 10000 0.5 0 02:48 28.12.2019
1564 Clear 5 1029 38 10000 1 20 01:59 28.12.2019
1565 Clear 6 1029 42 10000 1.5 360 01:30 28.12.2019
1566 Clear 5 1030 42 10000 1.5 340 00:55 28.12.2019
1567 Clear 6 1030 42 10000 2.1 350 00:37 28.12.2019
1568 Clear 5 1030 86 10000 1.5 340 00:19 28.12.2019
1569 Clear 6 1030 86 10000 1.5 360 23:43 27.12.2019
1570 Clear 6 1029 93 10000 1.5 360 23:19 27.12.2019
1571 Clear 6 1029 93 10000 1.5 360 23:19 27.12.2019
1572 Clear 6 1030 86 10000 1 0 22:57 27.12.2019
1573 Clear 6 1030 86 10000 1 0 22:38 27.12.2019
1574 Clear 7 1030 86 10000 3.1 330 22:20 27.12.2019
1575 Clear 7 1030 86 10000 3.1 330 21:55 27.12.2019
1576 Clear 7 1030 80 10000 2.1 340 21:36 27.12.2019
1577 Clear 7 1029 81 10000 2.1 320 21:18 27.12.2019
1578 Clear 8 1030 70 10000 1 360 20:41 27.12.2019
1579 Clouds 7 1030 70 10000 1 360 20:22 27.12.2019
1580 Clouds 9 1029 66 10000 1.24 39 19:42 27.12.2019
1581 Clouds 9 1029 66 10000 1.24 39 19:21 27.12.2019
1582 Clouds 10 1029 61 10000 1.24 39 18:59 27.12.2019
1583 Clouds 10 1029 54 10000 1 250 18:39 27.12.2019
1584 Clouds 10 1029 54 10000 1 250 18:20 27.12.2019
1585 Clouds 13 1029 47 10000 1 0 17:57 27.12.2019
1586 Clouds 14 1028 54 10000 1.5 280 17:39 27.12.2019
1587 Clouds 14 1028 54 10000 1.5 310 17:19 27.12.2019
1588 Clouds 14 1028 54 10000 1.5 310 16:58 27.12.2019
1589 Clouds 14 1028 54 10000 1 310 16:38 27.12.2019
1590 Clouds 14 1029 48 10000 1 0 16:19 27.12.2019
1591 Clouds 14 1029 51 10000 1.5 350 15:44 27.12.2019
1592 Clouds 14 1029 51 10000 1.5 350 15:22 27.12.2019
1593 Clouds 13 1029 47 10000 1 30 14:57 27.12.2019
1594 Clouds 13 1030 41 10000 0.5 50 14:39 27.12.2019
1595 Clouds 13 1030 41 10000 0.5 50 14:20 27.12.2019
1596 Clouds 13 1030 41 10000 0.5 50 14:20 27.12.2019
1597 Clouds 12 1030 43 10000 1.5 80 13:48 27.12.2019
1598 Clouds 12 1030 43 10000 1.5 80 13:25 27.12.2019
1599 Clouds 11 1030 43 10000 0.5 0 12:58 27.12.2019
1600 Clouds 11 1031 41 10000 1.5 30 12:40 27.12.2019
1601 Clouds 10 1031 41 10000 1 0 12:21 27.12.2019
1602 Clouds 10 1031 41 10000 1.5 350 11:46 27.12.2019
1603 Clouds 8 1031 55 10000 1.5 350 11:26 27.12.2019
1604 Clouds 7 1031 55 10000 1 0 10:58 27.12.2019
1605 Clouds 6 1030 55 10000 1 0 10:39 27.12.2019
1606 Clouds 5 1030 65 10000 1 0 10:21 27.12.2019
1607 Clouds 4 1030 69 10000 1.5 10 09:44 27.12.2019
1608 Clouds 3 1030 69 10000 1.5 10 09:22 27.12.2019
1609 Clouds 3 1029 80 10000 1 0 08:59 27.12.2019
1610 Clouds 3 1029 80 10000 1 0 08:36 27.12.2019
1611 Clouds 3 1029 80 10000 0.5 0 07:52 27.12.2019
1612 Clouds 3 1029 80 10000 0.5 0 07:33 27.12.2019
1613 Clouds 4 1029 63 10000 1 330 06:38 27.12.2019
1614 Clouds 5 1030 63 10000 2.1 340 05:38 27.12.2019
1615 Clouds 4 1030 93 10000 1.5 340 03:47 27.12.2019
1616 Clouds 5 1030 93 10000 0.5 0 02:23 27.12.2019
1617 Clouds 6 1030 86 10000 2.1 350 01:42 27.12.2019
1618 Clouds 6 1030 86 10000 2.6 360 01:20 27.12.2019
1619 Clouds 6 1030 86 10000 2.6 350 00:44 27.12.2019
1620 Clouds 7 1030 86 10000 2.6 350 00:24 27.12.2019
1621 Clouds 7 1030 86 10000 2.6 350 00:24 27.12.2019
1622 Clouds 7 1029 87 10000 3.6 330 23:42 26.12.2019
1623 Clouds 7 1029 87 10000 3.6 330 23:24 26.12.2019
1624 Clouds 7 1030 81 10000 1.5 340 22:58 26.12.2019
1625 Clouds 8 1030 81 10000 2.6 350 22:37 26.12.2019
1626 Clouds 8 1029 75 10000 3.6 340 22:18 26.12.2019
1627 Clouds 9 1029 70 10000 2.6 340 21:39 26.12.2019
1628 Clouds 9 1029 70 10000 1.5 310 21:21 26.12.2019
1629 Clouds 10 1029 71 10000 1.5 360 20:47 26.12.2019
1630 Clouds 10 1029 71 10000 1.5 360 20:24 26.12.2019
1631 Clouds 10 1029 71 10000 1.5 320 19:59 26.12.2019
1632 Clouds 11 1029 76 10000 1 310 19:40 26.12.2019
1633 Clouds 11 1029 76 10000 1 270 19:22 26.12.2019
1634 Clouds 11 1029 76 10000 1 270 18:59 26.12.2019
1635 Clouds 12 1028 62 10000 0.5 0 18:40 26.12.2019
1636 Clouds 13 1028 55 10000 1.41 76 18:20 26.12.2019
1637 Clouds 14 1028 55 10000 1.41 76 17:58 26.12.2019
1638 Clouds 15 1028 55 10000 1.5 110 17:40 26.12.2019
1639 Clouds 15 1028 59 10000 1 0 17:19 26.12.2019
1640 Clouds 15 1028 55 10000 2.1 80 16:46 26.12.2019
1641 Clouds 15 1028 55 10000 2.1 80 16:26 26.12.2019
1642 Clouds 15 1028 55 10000 2.1 60 15:57 26.12.2019
1643 Clouds 15 1028 55 10000 1.5 30 15:38 26.12.2019
1644 Clouds 15 1028 67 10000 1.5 60 15:19 26.12.2019
1645 Clouds 15 1028 67 10000 1.5 60 15:18 26.12.2019
1646 Clouds 14 1028 67 10000 1.5 70 14:41 26.12.2019
1647 Clouds 14 1028 62 10000 1 0 14:23 26.12.2019
1648 Clouds 13 1029 67 10000 1 0 13:45 26.12.2019
1649 Clouds 13 1029 67 10000 1 0 13:24 26.12.2019
1650 Clouds 13 1029 76 10000 1 0 12:59 26.12.2019
1651 Clouds 13 1029 71 10000 1.5 70 12:41 26.12.2019
1652 Clouds 12 1029 67 10000 2.74 51 12:23 26.12.2019
1653 Clouds 11 1029 67 10000 2.74 51 11:58 26.12.2019
1654 Clouds 11 1029 67 10000 2.74 51 11:58 26.12.2019
1655 Clouds 11 1029 76 10000 2.74 51 11:40 26.12.2019
1656 Clouds 10 1029 76 10000 1.31 45 11:21 26.12.2019
1657 Clouds 8 1028 100 10000 1.31 45 10:50 26.12.2019
1658 Clouds 7 1028 100 10000 1.31 45 10:25 26.12.2019
1659 Clouds 6 1028 100 9000 1.31 45 09:54 26.12.2019
1660 Mist 6 1027 93 5000 1.31 45 09:33 26.12.2019
1661 Mist 5 1027 100 2900 1 0 08:58 26.12.2019
1662 Clouds 5 1027 100 9000 1.31 45 08:39 26.12.2019
1663 Clouds 5 1027 100 9000 1.01 56 08:20 26.12.2019
1664 Fog 5 1026 100 9000 1.01 56 07:35 26.12.2019
1665 Fog 5 1026 100 8000 1 10 06:57 26.12.2019
1666 Clouds 6 1026 100 10000 0.5 0 06:37 26.12.2019
1667 Clouds 6 1026 93 10000 0.5 0 06:19 26.12.2019
1668 Clouds 6 1027 100 10000 1.5 10 05:40 26.12.2019
1669 Clouds 6 1027 93 9000 1 360 04:32 26.12.2019
1670 Clouds 7 1026 93 10000 1 340 03:31 26.12.2019
1671 Clouds 7 1026 93 10000 1.5 360 02:46 26.12.2019
1672 Clouds 7 1026 93 10000 1.5 360 02:25 26.12.2019
1673 Clouds 7 1026 93 10000 1.5 360 02:25 26.12.2019
1674 Clouds 7 1026 93 10000 1.5 340 01:44 26.12.2019
1675 Clouds 7 1026 93 10000 1.5 340 01:44 26.12.2019
1676 Clouds 7 1026 93 10000 1.5 340 01:24 26.12.2019
1677 Clouds 8 1026 100 10000 2.1 330 00:43 26.12.2019
1678 Clouds 8 1026 100 10000 2.1 330 00:22 26.12.2019
1679 Clouds 8 1026 100 10000 1.5 350 23:57 25.12.2019
1680 Clouds 8 1026 100 10000 1.5 10 23:36 25.12.2019
1681 Clouds 9 1026 100 10000 1.5 10 23:18 25.12.2019
1682 Clouds 9 1026 93 10000 1 350 22:55 25.12.2019
1683 Clouds 9 1026 93 10000 1 20 22:37 25.12.2019
1684 Clouds 9 1026 93 10000 1 20 22:37 25.12.2019
1685 Clouds 9 1026 93 10000 0.5 0 22:18 25.12.2019
1686 Clouds 9 1026 100 10000 1 120 21:55 25.12.2019
1687 Clouds 10 1026 100 10000 1 120 21:37 25.12.2019
1688 Clouds 9 1025 87 10000 0.5 0 21:18 25.12.2019
1689 Clouds 10 1026 93 10000 1 250 20:40 25.12.2019
1690 Clouds 10 1026 93 10000 1 250 20:20 25.12.2019
1691 Clouds 11 1026 93 10000 0.87 183 19:59 25.12.2019
1692 Clouds 11 1025 93 10000 0.87 183 19:40 25.12.2019
1693 Clouds 11 1025 93 10000 0.87 183 19:21 25.12.2019
1694 Clouds 12 1025 82 10000 1.5 270 18:40 25.12.2019
1695 Clouds 12 1025 82 10000 1.5 270 18:21 25.12.2019
1696 Clouds 13 1025 67 10000 1.5 200 18:21 25.12.2019
1697 Clouds 14 1025 67 10000 1.5 200 17:57 25.12.2019
1698 Clouds 15 1025 63 10000 2.1 190 17:39 25.12.2019
1699 Clouds 15 1025 63 10000 1.5 190 17:18 25.12.2019
1700 Clouds 16 1025 59 10000 1.5 200 16:39 25.12.2019
1701 Clouds 16 1025 59 10000 1.5 200 16:20 25.12.2019
1702 Clouds 16 1025 55 10000 2.6 190 15:59 25.12.2019
1703 Clouds 16 1025 59 10000 1 0 15:40 25.12.2019
1704 Clouds 16 1025 59 10000 1 0 15:22 25.12.2019
1705 Clouds 15 1025 59 10000 1 0 14:59 25.12.2019
1706 Clouds 16 1026 59 10000 1 0 14:41 25.12.2019
1707 Clouds 15 1026 55 10000 0.17 0 14:23 25.12.2019
1708 Clouds 14 1026 71 10000 1 0 13:58 25.12.2019
1709 Clouds 14 1027 62 10000 0.17 0 13:39 25.12.2019
1710 Clouds 13 1027 62 10000 1 0 13:19 25.12.2019
1711 Clouds 13 1027 66 10000 1.5 70 12:43 25.12.2019
1712 Clouds 12 1027 66 10000 1 0 12:21 25.12.2019
1713 Clouds 12 1027 66 10000 1 0 11:57 25.12.2019
1714 Clouds 11 1027 66 10000 0.04 315 11:39 25.12.2019
1715 Clouds 9 1027 71 10000 1.47 48 11:20 25.12.2019
1716 Clouds 9 1027 81 10000 1.47 48 10:39 25.12.2019
1717 Clouds 9 1027 81 10000 1.47 48 10:39 25.12.2019
1718 Clouds 8 1027 81 10000 1.47 48 10:21 25.12.2019
1719 Clouds 7 1027 93 10000 1.47 48 09:51 25.12.2019
1720 Clouds 7 1027 93 10000 1.47 48 09:33 25.12.2019
1721 Clouds 5 1026 93 10000 1 0 08:56 25.12.2019
1722 Clouds 5 1026 100 10000 1 0 08:38 25.12.2019
1723 Clouds 5 1026 93 10000 1 10 08:19 25.12.2019
1724 Clouds 6 1026 100 10000 1.39 65 07:40 25.12.2019
1725 Clouds 6 1026 100 10000 1.39 65 07:40 25.12.2019
1726 Clouds 6 1026 100 10000 1.39 65 07:21 25.12.2019
1727 Clouds 6 1026 100 8000 0.5 340 06:24 25.12.2019
1728 Clouds 6 1027 93 8000 1 330 05:49 25.12.2019
1729 Clouds 6 1027 93 9000 1 360 04:42 25.12.2019
1730 Clouds 7 1027 93 9000 1 360 04:24 25.12.2019
1731 Clouds 7 1027 93 9000 1 330 03:43 25.12.2019
1732 Clouds 7 1027 100 9000 1 340 02:58 25.12.2019
1733 Clouds 7 1028 100 9000 1 360 02:29 25.12.2019
1734 Clouds 7 1028 93 10000 2.1 340 01:44 25.12.2019
1735 Clouds 7 1028 100 10000 1.5 360 01:19 25.12.2019
1736 Clouds 7 1028 100 10000 1.5 340 00:41 25.12.2019
1737 Clouds 8 1028 93 10000 1.5 350 00:23 25.12.2019
1738 Clouds 8 1028 93 10000 1.5 350 00:23 25.12.2019
1739 Clouds 8 1028 93 10000 1.5 330 23:39 24.12.2019
1740 Clouds 8 1028 93 10000 2.1 350 23:20 24.12.2019
1741 Clouds 8 1028 93 10000 2.1 340 22:42 24.12.2019
1742 Clouds 8 1028 93 10000 1.5 350 22:24 24.12.2019
1743 Clouds 9 1028 93 10000 1.5 350 21:59 24.12.2019
1744 Clouds 9 1028 87 10000 1.5 350 21:41 24.12.2019
1745 Clouds 9 1028 87 10000 1.5 350 21:20 24.12.2019
1746 Clouds 9 1028 81 10000 0.5 80 20:43 24.12.2019
1747 Clouds 10 1028 81 10000 1 50 20:23 24.12.2019
1748 Clouds 10 1028 81 10000 1 50 19:56 24.12.2019
1749 Clouds 10 1028 76 10000 0.5 0 19:37 24.12.2019
1750 Clouds 10 1028 76 10000 1 0 19:18 24.12.2019
1751 Clouds 11 1028 71 10000 0.5 110 18:42 24.12.2019
1752 Clouds 11 1028 71 10000 0.5 110 18:19 24.12.2019
1753 Clouds 13 1028 66 10000 1 140 17:44 24.12.2019
1754 Clouds 13 1028 66 10000 1 140 17:22 24.12.2019
1755 Clouds 13 1028 66 10000 1 140 17:22 24.12.2019
1756 Clouds 14 1028 67 10000 1.5 150 16:58 24.12.2019
1757 Clouds 14 1028 62 10000 0.5 0 16:40 24.12.2019
1758 Clouds 14 1028 62 10000 0.5 0 16:21 24.12.2019
1759 Clouds 14 1028 62 10000 1 0 15:58 24.12.2019
1760 Clouds 14 1028 54 10000 1 0 15:37 24.12.2019
1761 Clouds 13 1029 62 10000 1 0 15:19 24.12.2019
1762 Clouds 13 1029 62 10000 1 0 14:58 24.12.2019
1763 Clouds 13 1029 62 10000 1 0 14:40 24.12.2019
1764 Clouds 13 1029 62 10000 1 0 14:40 24.12.2019
1765 Clouds 13 1029 62 10000 1 0 14:22 24.12.2019
1766 Clouds 12 1029 62 10000 1 0 13:56 24.12.2019
1767 Clouds 12 1030 66 10000 1 0 13:38 24.12.2019
1768 Clouds 11 1030 66 10000 1 0 13:20 24.12.2019
1769 Clouds 11 1030 66 10000 1 0 12:56 24.12.2019
1770 Clouds 11 1030 66 10000 1 0 12:56 24.12.2019
1771 Clouds 10 1031 71 10000 1.5 70 12:38 24.12.2019
1772 Clouds 10 1031 71 10000 1.5 60 12:19 24.12.2019
1773 Clouds 10 1031 71 10000 1.5 60 12:19 24.12.2019
1774 Clouds 9 1031 76 10000 1.5 70 11:56 24.12.2019
1775 Clouds 9 1031 76 10000 1.5 70 11:37 24.12.2019
1776 Clouds 7 1031 76 10000 0.5 0 11:19 24.12.2019
1777 Clouds 7 1031 76 10000 0.5 0 10:56 24.12.2019
1778 Clouds 6 1030 81 10000 0.5 0 10:38 24.12.2019
1779 Clouds 6 1030 81 10000 0.5 0 10:38 24.12.2019
1780 Clouds 6 1030 87 10000 1.33 42 10:19 24.12.2019
1781 Clouds 6 1030 87 10000 1.33 42 09:55 24.12.2019
1782 -273 0 0 0 0 0 09:37 24.12.2019
1783 Clouds 5 1030 93 10000 1.5 10 09:19 24.12.2019
1784 Clouds 5 1030 93 10000 1 0 08:46 24.12.2019
1785 Clouds 5 1030 93 10000 1 0 08:24 24.12.2019
1786 Clouds 4 1030 93 10000 0.5 0 07:54 24.12.2019
1787 Clouds 5 1029 100 10000 0.5 0 07:36 24.12.2019
1788 Clouds 4 1029 100 10000 0.5 0 07:18 24.12.2019
1789 Clouds 5 1029 93 10000 0.5 0 06:39 24.12.2019
1790 Clouds 5 1029 100 10000 1.5 350 06:19 24.12.2019
1791 Clouds 5 1029 100 10000 1.5 340 05:49 24.12.2019
1792 Clouds 5 1029 100 10000 2.1 340 05:18 24.12.2019
1793 Clouds 5 1029 100 10000 1 360 03:55 24.12.2019
1794 Clouds 5 1029 100 10000 1 330 03:33 24.12.2019
1795 Clouds 6 1029 100 10000 1 360 02:28 24.12.2019
1796 Clouds 6 1029 93 10000 1.5 10 01:53 24.12.2019
1797 Clouds 6 1029 93 10000 0.89 120 01:23 24.12.2019
1798 Clouds 6 1029 93 10000 0.89 120 00:55 24.12.2019
1799 Clouds 6 1029 93 10000 0.5 0 00:37 24.12.2019
1800 Clouds 7 1029 93 10000 1 0 00:19 24.12.2019
1801 Clouds 7 1029 87 10000 0.5 0 23:41 23.12.2019
1802 Clouds 7 1029 87 10000 0.5 0 23:23 23.12.2019
1803 Clouds 7 1029 81 10000 1 0 22:56 23.12.2019
1804 Clouds 7 1029 81 10000 1 0 22:37 23.12.2019
1805 Clouds 7 1029 81 10000 1 0 22:37 23.12.2019
1806 Clouds 7 1029 81 10000 1 0 22:19 23.12.2019
1807 Clouds 8 1029 81 10000 1.5 140 21:56 23.12.2019
1808 Clouds 8 1029 81 10000 1.5 140 21:36 23.12.2019
1809 Clouds 8 1029 81 10000 1.5 140 21:36 23.12.2019
1810 Clouds 9 1029 76 10000 2.6 160 21:18 23.12.2019
1811 Clouds 8 1029 81 10000 1.5 140 21:18 23.12.2019
1812 Clouds 9 1029 76 10000 2.6 160 20:57 23.12.2019
1813 Clouds 9 1029 81 10000 1 220 20:39 23.12.2019
1814 Clouds 9 1029 81 10000 2.1 200 20:18 23.12.2019
1815 Clouds 10 1028 81 10000 2.1 170 19:56 23.12.2019
1816 Clouds 10 1028 81 10000 2.1 170 19:38 23.12.2019
1817 Clouds 10 1028 81 10000 1.5 160 19:19 23.12.2019
1818 Clouds 10 1028 81 10000 1.5 160 18:58 23.12.2019
1819 Clouds 10 1028 81 10000 2.1 170 18:39 23.12.2019
1820 Clouds 11 1028 76 10000 2.1 180 18:20 23.12.2019
1821 Clouds 11 1028 76 10000 3.1 180 17:58 23.12.2019
1822 Clouds 12 1028 76 10000 3.1 180 17:39 23.12.2019
1823 Clouds 12 1028 66 10000 2.6 180 17:19 23.12.2019
1824 Clouds 12 1027 62 10000 2.6 180 16:57 23.12.2019
1825 Clouds 13 1027 62 10000 2.6 180 16:39 23.12.2019
1826 Clouds 13 1027 62 10000 2.1 170 16:18 23.12.2019
1827 Clouds 13 1027 62 10000 2.6 180 15:56 23.12.2019
1828 Clouds 13 1027 62 10000 2.6 180 15:36 23.12.2019
1829 Clouds 12 1028 62 10000 1.5 160 15:18 23.12.2019
1830 Clouds 12 1028 62 10000 1.5 160 14:56 23.12.2019
1831 Clouds 12 1028 58 10000 1 0 14:37 23.12.2019
1832 Clouds 12 1028 66 10000 1 0 14:18 23.12.2019
1833 Clouds 12 1028 66 10000 1 0 13:55 23.12.2019
1834 Clouds 12 1028 66 10000 1.22 221 13:37 23.12.2019
1835 Clouds 12 1028 66 10000 1.22 221 13:19 23.12.2019
1836 Clouds 11 1029 71 10000 0.5 130 12:41 23.12.2019
1837 Clouds 10 1029 66 10000 1 0 12:21 23.12.2019
1838 Clouds 10 1029 66 10000 1 0 11:59 23.12.2019
1839 Clouds 9 1029 66 10000 0.5 0 11:41 23.12.2019
1840 Clouds 8 1029 87 10000 1 0 11:22 23.12.2019
1841 Clear 7 1028 87 10000 3.1 210 10:56 23.12.2019
1842 Clear 7 1028 87 10000 3.1 210 10:37 23.12.2019
1843 Clear 7 1028 87 10000 3.1 210 10:37 23.12.2019
1844 Clear 7 1028 87 10000 4.1 220 10:18 23.12.2019
1845 Clear 6 1028 87 10000 4.1 220 09:56 23.12.2019
1846 Clear 6 1027 93 10000 3.6 210 09:37 23.12.2019
1847 Clear 5 1027 93 10000 3.6 210 09:19 23.12.2019
1848 Clear 5 1026 81 10000 2.6 220 08:41 23.12.2019
1849 Clear 5 1026 87 10000 3.1 210 08:22 23.12.2019
1850 Clear 5 1026 87 10000 3.1 210 07:56 23.12.2019
1851 Clear 6 1026 87 10000 3.6 200 07:38 23.12.2019
1852 Clear 5 1025 86 10000 2.1 120 07:18 23.12.2019
1853 Clear 6 1025 80 10000 1 0 06:39 23.12.2019
1854 Clear 6 1025 80 10000 1 0 06:21 23.12.2019
1855 Clear 6 1025 61 10000 2.1 250 05:45 23.12.2019
1856 Clouds 7 1025 61 10000 3.6 260 04:44 23.12.2019
1857 Clouds 8 1025 66 10000 5.1 260 03:58 23.12.2019
1858 Clear 8 1024 57 10000 4.6 250 02:47 23.12.2019
1859 Clouds 8 1024 61 10000 5.7 250 02:20 23.12.2019
1860 Clouds 9 1024 61 10000 5.7 230 01:50 23.12.2019
1861 Clouds 9 1024 61 10000 5.7 230 01:31 23.12.2019
1862 Clouds 9 1023 53 10000 6.7 280 00:49 23.12.2019
1863 Clouds 9 1023 53 10000 6.7 280 00:30 23.12.2019
1864 Clouds 10 1022 57 10000 8.2 270 23:57 22.12.2019
1865 Clouds 10 1022 57 10000 8.2 270 23:57 22.12.2019
1866 Clouds 10 1022 57 10000 8.2 270 23:37 22.12.2019
1867 Clouds 10 1022 57 10000 6.2 260 23:19 22.12.2019
1868 Clouds 11 1022 54 10000 6.2 270 22:56 22.12.2019
1869 Clouds 11 1022 54 10000 6.2 270 22:38 22.12.2019
1870 Clouds 11 1021 54 10000 7.7 290 22:19 22.12.2019
1871 Clouds 11 1021 54 10000 7.7 290 21:56 22.12.2019
1872 Clouds 12 1021 58 10000 10.3 280 21:38 22.12.2019
1873 Clouds 12 1021 58 10000 10.3 280 21:20 22.12.2019
1874 Clouds 12 1020 87 10000 5.1 240 20:41 22.12.2019
1875 Clouds 12 1019 82 10000 6.7 240 20:19 22.12.2019
1876 Clouds 12 1019 82 10000 6.7 240 19:58 22.12.2019
1877 Clouds 12 1018 87 10000 7.2 240 19:39 22.12.2019
1878 Clouds 12 1018 87 10000 7.7 240 19:20 22.12.2019
1879 Clouds 12 1018 87 10000 7.7 240 18:55 22.12.2019
1880 Clouds 12 1017 87 10000 8.7 240 18:37 22.12.2019
1881 Clouds 12 1017 82 10000 10.8 240 18:18 22.12.2019
1882 Clouds 12 1017 82 10000 10.3 240 17:54 22.12.2019
1883 Clouds 12 1017 82 10000 10.3 240 17:36 22.12.2019
1884 Clouds 12 1017 87 10000 10.8 240 17:18 22.12.2019
1885 Drizzle 12 1016 87 10000 12.3 240 16:42 22.12.2019
1886 Drizzle 12 1016 87 10000 12.3 240 16:23 22.12.2019
1887 Clouds 12 1016 76 10000 11.8 240 15:57 22.12.2019
1888 Clouds 13 1016 76 10000 12.9 240 15:39 22.12.2019
1889 Clouds 12 1016 76 10000 12.9 230 15:21 22.12.2019
1890 Clouds 12 1016 76 10000 12.9 230 14:57 22.12.2019
1891 Clouds 13 1016 76 10000 13.9 230 14:38 22.12.2019
1892 Clouds 12 1016 76 10000 12.3 230 14:19 22.12.2019
1893 Clouds 12 1016 76 10000 12.3 230 13:56 22.12.2019
1894 Clouds 12 1016 82 10000 11.3 230 13:38 22.12.2019
1895 Clouds 12 1017 82 10000 11.3 230 13:19 22.12.2019
1896 Clouds 12 1017 87 10000 11.3 230 12:57 22.12.2019
1897 Clouds 12 1017 87 10000 11.3 230 12:38 22.12.2019
1898 Clouds 12 1017 87 10000 11.3 230 12:19 22.12.2019
1899 Clouds 11 1017 87 10000 9.8 230 11:57 22.12.2019
1900 Clouds 11 1017 87 10000 9.8 230 11:38 22.12.2019
1901 Clouds 11 1017 87 10000 9.3 230 11:19 22.12.2019
1902 Clouds 10 1017 87 10000 9.3 230 10:56 22.12.2019
1903 Clouds 10 1017 87 10000 9.3 230 10:38 22.12.2019
1904 Clouds 10 1017 87 10000 9.3 230 10:19 22.12.2019
1905 Clouds 9 1017 87 10000 7.2 230 09:57 22.12.2019
1906 Clouds 9 1016 93 10000 6.2 240 09:39 22.12.2019
1907 Clouds 9 1016 93 10000 6.7 230 09:20 22.12.2019
1908 Clouds 9 1016 93 10000 6.7 230 08:45 22.12.2019
1909 Clouds 9 1015 87 10000 7.2 240 08:22 22.12.2019
1910 Clouds 9 1015 87 10000 8.2 240 07:44 22.12.2019
1911 Clouds 9 1015 87 10000 8.2 240 07:21 22.12.2019
1912 Clouds 9 1014 81 10000 6.7 230 06:53 22.12.2019
1913 Clouds 10 1013 71 10000 6.7 250 06:26 22.12.2019
1914 Clouds 10 1013 76 10000 6.7 230 05:33 22.12.2019
1915 Clouds 10 1012 76 10000 8.7 240 04:55 22.12.2019
1916 Clouds 10 1012 76 10000 8.7 240 04:25 22.12.2019
1917 Clouds 11 1011 76 10000 9.8 240 02:46 22.12.2019
1918 Clouds 11 1011 76 10000 9.8 240 02:46 22.12.2019
1919 Clouds 11 1010 71 10000 10.8 240 02:21 22.12.2019
1920 Clouds 10 1010 71 10000 10.3 240 01:31 22.12.2019
1921 Clouds 10 1009 71 10000 9.8 240 00:56 22.12.2019
1922 Clouds 11 1009 71 10000 9.8 240 00:36 22.12.2019
1923 Clouds 11 1009 71 10000 11.3 240 00:18 22.12.2019
1924 Clouds 11 1008 66 10000 9.3 240 23:40 21.12.2019
1925 Clouds 11 1008 66 10000 9.8 230 23:21 21.12.2019
1926 Clouds 11 1008 66 10000 9.8 230 22:56 21.12.2019
1927 Clouds 11 1007 66 10000 11.8 230 22:37 21.12.2019
1928 Clouds 11 1006 66 10000 12.9 230 22:18 21.12.2019
1929 Clouds 11 1006 66 10000 12.9 230 21:54 21.12.2019
1930 Clouds 11 1006 66 10000 12.9 230 21:36 21.12.2019
1931 Clouds 11 1006 71 10000 12.3 230 21:18 21.12.2019
1932 Clouds 11 1007 76 10000 11.8 240 20:55 21.12.2019
1933 Clouds 12 1007 76 10000 11.8 240 20:37 21.12.2019
1934 Clouds 12 1006 76 10000 10.8 240 20:18 21.12.2019
1935 Clouds 12 1006 76 10000 10.8 240 19:55 21.12.2019
1936 Clouds 13 1005 76 10000 12.3 230 19:36 21.12.2019
1937 Clouds 13 1004 76 10000 12.9 230 19:18 21.12.2019
1938 Clouds 14 1004 82 10000 14.4 230 18:40 21.12.2019
1939 Clouds 15 1003 72 10000 17 230 18:22 21.12.2019
1940 Clouds 15 1003 72 10000 17 230 17:56 21.12.2019
1941 Rain 15 1003 82 10000 13.9 220 17:37 21.12.2019
1942 Clouds 15 1002 72 10000 16.5 230 17:18 21.12.2019
1943 Clouds 16 1003 72 10000 14.9 230 16:54 21.12.2019
1944 Clouds 16 1003 72 10000 14.9 230 16:36 21.12.2019
1945 Clouds 16 1003 72 10000 14.9 230 16:36 21.12.2019
1946 Clouds 16 1003 77 10000 14.9 230 16:18 21.12.2019
1947 Clouds 16 1003 77 10000 14.9 230 15:55 21.12.2019
1948 Clouds 16 1003 77 10000 12.9 230 15:36 21.12.2019
1949 Clouds 16 1003 77 10000 16.5 230 15:18 21.12.2019
1950 Rain 16 1003 72 10000 13.9 230 14:41 21.12.2019
1951 Rain 16 1003 72 10000 13.9 230 14:22 21.12.2019
1952 Clouds 16 1003 82 10000 12.9 230 13:58 21.12.2019
1953 Clouds 16 1004 87 10000 14.4 230 13:39 21.12.2019
1954 Clouds 16 1004 87 10000 14.4 230 13:19 21.12.2019
1955 Clouds 15 1004 93 6000 13.4 230 12:56 21.12.2019
1956 Clouds 15 1004 87 10000 12.9 220 12:38 21.12.2019
1957 Drizzle 14 1004 93 7000 10.8 220 12:19 21.12.2019
1958 Drizzle 14 1004 93 6000 10.8 220 11:46 21.12.2019
1959 Drizzle 14 1004 93 6000 10.8 220 11:27 21.12.2019
1960 Clouds 14 1004 93 6000 10.3 220 10:58 21.12.2019
1961 Rain 13 1004 100 9000 9.3 230 10:39 21.12.2019
1962 Drizzle 13 1004 100 3000 11.3 220 10:21 21.12.2019
1963 Drizzle 13 1004 100 3000 11.3 220 09:57 21.12.2019
1964 Drizzle 13 1004 100 1800 7.7 220 09:39 21.12.2019
1965 Rain 13 1004 100 7000 5.7 210 09:19 21.12.2019
1966 Drizzle 12 1004 100 1500 5.1 220 08:47 21.12.2019
1967 Drizzle 12 1004 100 1500 5.1 220 08:27 21.12.2019
1968 Rain 12 1004 93 5000 7.7 230 07:47 21.12.2019
1969 Drizzle 12 1004 93 3000 7.7 250 07:23 21.12.2019
1970 Clouds 12 1003 87 10000 3.1 180 06:49 21.12.2019
1971 Clouds 12 1003 87 10000 3.1 180 06:31 21.12.2019
1972 Clouds 12 1003 87 10000 3.6 220 05:59 21.12.2019
1973 Clouds 12 1003 87 10000 4.6 220 04:59 21.12.2019
1974 Clouds 12 1003 87 10000 4.6 220 04:34 21.12.2019
1975 Clouds 12 1003 93 10000 2.6 190 03:56 21.12.2019
1976 Rain 13 1002 87 10000 5.7 240 02:25 21.12.2019
1977 Rain 13 1002 87 10000 6.7 250 01:43 21.12.2019
1978 Rain 13 1002 87 10000 6.7 250 01:24 21.12.2019
1979 Clouds 13 1001 87 10000 7.7 250 00:40 21.12.2019
1980 Clouds 13 1001 87 10000 7.7 250 00:21 21.12.2019
1981 Rain 13 1000 87 10000 7.7 240 23:39 20.12.2019
1982 Rain 13 1000 87 10000 7.7 240 23:20 20.12.2019
1983 Rain 13 999 87 10000 7.2 240 22:59 20.12.2019
1984 Rain 13 998 87 10000 7.7 230 22:39 20.12.2019
1985 Rain 13 999 87 9000 7.7 230 22:18 20.12.2019
1986 Rain 12 999 87 9000 7.7 220 21:41 20.12.2019
1987 Rain 12 999 93 9000 7.2 220 21:21 20.12.2019
1988 Rain 12 999 93 9000 7.2 220 20:59 20.12.2019
1989 Rain 11 998 100 9000 5.1 220 20:38 20.12.2019
1990 Rain 11 999 93 5000 7.2 230 20:19 20.12.2019
1991 Rain 11 999 93 5000 7.2 230 19:56 20.12.2019
1992 Drizzle 11 998 100 6000 5.1 200 19:38 20.12.2019
1993 Rain 11 1000 100 4000 3.6 250 19:18 20.12.2019
1994 Rain 11 999 93 4000 2.6 210 18:41 20.12.2019
1995 Rain 11 999 93 4000 2.6 210 18:22 20.12.2019
1996 Rain 11 1000 93 7000 4.6 220 17:57 20.12.2019
1997 Rain 11 1000 93 10000 5.7 220 17:39 20.12.2019
1998 Rain 11 1000 93 10000 5.7 220 17:39 20.12.2019
1999 Rain 11 1000 93 10000 5.7 220 17:20 20.12.2019
2000 Rain 11 1000 87 8000 8.7 230 16:56 20.12.2019
2001 Rain 11 1000 93 8000 8.7 220 16:38 20.12.2019
2002 Rain 11 1000 93 8000 8.7 220 16:38 20.12.2019
2003 Rain 11 1000 93 8000 8.7 220 16:38 20.12.2019
2004 Rain 11 1000 93 8000 8.7 220 16:19 20.12.2019
2005 Rain 11 1000 93 8000 9.3 250 15:54 20.12.2019
2006 Rain 11 1000 81 10000 7.7 220 15:36 20.12.2019
2007 Clouds 11 1000 81 10000 7.7 220 15:18 20.12.2019
2008 Clouds 12 1001 81 10000 8.2 220 14:42 20.12.2019
2009 Clouds 12 1001 81 10000 8.7 220 14:24 20.12.2019
2010 Clouds 13 1002 76 10000 7.7 210 13:57 20.12.2019
2011 Clouds 13 1003 76 10000 8.2 220 13:37 20.12.2019
2012 Clouds 13 1003 76 10000 8.2 220 13:18 20.12.2019
2013 Clouds 13 1003 76 10000 8.2 220 13:18 20.12.2019
2014 Clouds 13 1002 76 10000 7.7 220 12:55 20.12.2019
2015 Clouds 13 1002 76 10000 7.2 220 12:36 20.12.2019
2016 Clouds 13 1002 76 10000 7.2 220 12:18 20.12.2019
2017 Clouds 12 1003 81 10000 7.7 220 11:57 20.12.2019
2018 Clouds 12 1003 87 10000 8.2 210 11:38 20.12.2019
2019 Clouds 12 1003 87 10000 8.2 210 11:18 20.12.2019
2020 Clouds 12 1003 87 10000 7.2 230 10:55 20.12.2019
2021 Clouds 11 1002 87 10000 8.2 220 10:37 20.12.2019
2022 Clouds 11 1002 87 10000 8.2 220 10:19 20.12.2019
2023 Clouds 11 1002 87 10000 7.7 240 09:42 20.12.2019
2024 Clouds 11 1002 87 10000 7.7 240 09:21 20.12.2019
2025 Clouds 12 1000 87 10000 8.01 235 08:55 20.12.2019
2026 Clouds 12 1000 87 10000 7.2 230 08:37 20.12.2019
2027 Clouds 12 1000 87 10000 7.2 230 08:19 20.12.2019
2028 Clouds 13 999 87 10000 7.2 240 07:55 20.12.2019
2029 Clouds 13 999 93 10000 9.3 220 07:36 20.12.2019
2030 Clouds 13 999 93 10000 9.3 220 07:18 20.12.2019
2031 Clouds 12 997 82 10000 10.3 240 06:43 20.12.2019
2032 Rain 12 997 82 10000 10.3 240 06:25 20.12.2019
2033 Rain 12 998 82 10000 9.3 240 05:47 20.12.2019
2034 Drizzle 12 997 87 8000 8.2 230 04:59 20.12.2019
2035 Rain 12 997 93 6000 4.1 200 03:49 20.12.2019
2036 Rain 12 997 87 5000 9.8 200 02:55 20.12.2019
2037 Rain 12 999 93 5000 11.8 190 01:59 20.12.2019
2038 Rain 12 999 93 8000 10.8 190 01:35 20.12.2019
2039 Rain 12 1000 93 5000 9.8 190 00:55 20.12.2019
2040 Rain 12 1000 93 7000 10.3 180 00:35 20.12.2019
2041 Rain 12 1000 87 6000 9.8 170 23:58 19.12.2019
2042 Rain 12 1000 87 8000 11.3 170 23:40 19.12.2019
2043 Rain 12 1000 87 8000 11.3 170 23:19 19.12.2019
2044 Rain 11 1002 93 6000 8.7 170 22:40 19.12.2019
2045 Rain 12 1002 93 7000 8.2 170 22:22 19.12.2019
2046 Rain 12 1003 93 7000 5.7 180 21:57 19.12.2019
2047 Rain 12 1003 93 7000 5.7 180 21:57 19.12.2019
2048 Rain 12 1004 93 8000 7.7 160 21:38 19.12.2019
2049 Rain 12 1004 93 8000 7.7 160 21:19 19.12.2019
2050 Rain 12 1004 87 9000 8.7 170 20:57 19.12.2019
2051 Rain 12 1005 93 8000 4.6 190 20:37 19.12.2019
2052 Rain 12 1005 93 8000 4.6 190 20:19 19.12.2019
2053 Rain 12 1005 93 7000 6.2 180 19:58 19.12.2019
2054 Rain 12 1005 93 7000 6.2 180 19:58 19.12.2019
2055 Rain 12 1005 93 9000 6.2 170 19:39 19.12.2019
2056 Rain 12 1005 93 9000 6.2 170 19:19 19.12.2019
2057 Rain 12 1005 93 9000 6.2 170 19:19 19.12.2019
2058 Rain 12 1005 93 9000 6.2 170 19:19 19.12.2019
2059 Rain 12 1005 93 9000 6.2 170 19:19 19.12.2019
2060 Rain 11 1005 100 200 8.7 190 18:57 19.12.2019
2061 Rain 12 1005 93 5000 5.7 170 18:39 19.12.2019
2062 Rain 11 1005 93 5000 5.7 170 18:19 19.12.2019
2063 Rain 11 1006 100 1400 6.7 180 17:55 19.12.2019
2064 Rain 12 1006 93 9000 6.2 170 17:37 19.12.2019
2065 Rain 12 1006 93 9000 6.2 170 17:18 19.12.2019
2066 Rain 12 1007 93 9000 6.2 160 16:56 19.12.2019
2067 Rain 12 1007 93 8000 5.7 170 16:37 19.12.2019
2068 Rain 12 1007 93 8000 5.7 170 16:19 19.12.2019
2069 Clouds 12 1007 87 10000 5.7 150 15:56 19.12.2019
2070 Rain 12 1007 87 10000 5.7 150 15:37 19.12.2019
2071 Rain 12 1008 93 10000 7.2 170 15:18 19.12.2019
2072 Rain 12 1008 93 10000 7.2 170 15:18 19.12.2019
2073 Rain 12 1008 93 4500 6.7 170 14:43 19.12.2019
2074 Rain 12 1008 93 4500 6.7 170 14:20 19.12.2019
2075 Clouds 12 1009 82 10000 6.2 170 13:59 19.12.2019
2076 Clouds 12 1010 87 10000 6.7 160 13:38 19.12.2019
2077 Clouds 12 1010 87 10000 6.7 160 13:38 19.12.2019
2078 Clouds 12 1010 87 10000 6.7 160 13:19 19.12.2019
2079 Clouds 11 1010 87 10000 5.7 160 12:57 19.12.2019
2080 Clouds 11 1012 87 10000 4.1 150 12:39 19.12.2019
2081 Clouds 11 1012 87 10000 4.1 150 12:19 19.12.2019
2082 Clouds 11 1012 87 10000 4.1 150 12:19 19.12.2019
2083 Clouds 10 1012 87 10000 5.1 150 11:58 19.12.2019
2084 Clouds 10 1012 93 10000 5.1 140 11:40 19.12.2019
2085 Clouds 10 1012 93 10000 5.1 140 11:18 19.12.2019
2086 Clouds 10 1012 87 10000 5.7 140 10:58 19.12.2019
2087 Clouds 10 1012 93 10000 5.7 140 10:38 19.12.2019
2088 Clouds 9 1012 93 10000 5.7 140 10:20 19.12.2019
2089 Rain 9 1012 87 10000 5.1 150 09:54 19.12.2019
2090 Rain 10 1012 100 800 5.1 180 09:36 19.12.2019
2091 Rain 9 1012 100 800 5.1 180 09:18 19.12.2019
2092 Clouds 9 1012 93 10000 3.1 160 08:41 19.12.2019
2093 Clouds 9 1012 93 10000 3.1 160 08:20 19.12.2019
2094 Clouds 9 1012 93 10000 3.1 180 07:59 19.12.2019
2095 Clouds 9 1012 93 10000 3.1 180 07:38 19.12.2019
2096 Clouds 9 1012 93 10000 4.1 180 07:38 19.12.2019
2097 Clouds 9 1012 93 10000 4.1 180 07:20 19.12.2019
2098 Mist 9 1013 87 5000 4.6 190 06:50 19.12.2019
2099 Mist 9 1013 93 5000 6.2 160 06:32 19.12.2019
2100 Mist 8 1014 93 5000 4.1 160 05:57 19.12.2019
2101 Mist 8 1014 93 5000 3.6 170 05:39 19.12.2019
2102 Rain 8 1014 93 4000 5.87 176 04:56 19.12.2019
2103 Mist 7 1014 100 3500 1 0 03:46 19.12.2019
2104 Rain 7 1016 93 4000 2.1 360 02:25 19.12.2019
2105 Rain 7 1017 93 4000 3.1 320 01:24 19.12.2019
2106 Mist 7 1017 93 5000 1.5 10 00:44 19.12.2019
2107 Mist 7 1017 93 5000 1.5 10 00:25 19.12.2019
2108 Mist 7 1018 93 5000 2.6 360 23:59 18.12.2019
2109 Clouds 7 1018 87 10000 1 0 23:41 18.12.2019
2110 Clouds 7 1018 87 10000 1 0 23:19 18.12.2019
2111 Clouds 8 1018 87 10000 1 30 22:56 18.12.2019
2112 Clouds 7 1018 87 10000 1.5 350 22:37 18.12.2019
2113 Clouds 7 1018 87 10000 1.5 350 22:19 18.12.2019
2114 Clouds 7 1018 87 10000 2.1 340 21:57 18.12.2019
2115 Clouds 7 1018 87 10000 1 350 21:39 18.12.2019
2116 Clouds 8 1018 87 10000 1 350 21:19 18.12.2019
2117 Clouds 7 1019 87 10000 1 0 20:55 18.12.2019
2118 Clouds 7 1018 81 10000 1.5 360 20:37 18.12.2019
2119 Clouds 7 1018 81 10000 1.5 360 20:19 18.12.2019
2120 Clouds 7 1018 76 10000 1 0 19:55 18.12.2019
2121 Clouds 7 1018 76 10000 1 0 19:37 18.12.2019
2122 Clouds 7 1018 81 10000 1 0 19:18 18.12.2019
2123 Clouds 7 1018 76 10000 1.5 160 18:45 18.12.2019
2124 Clouds 8 1018 76 10000 1.5 160 18:25 18.12.2019
2125 Clouds 8 1018 76 10000 1.5 130 17:57 18.12.2019
2126 Clouds 8 1018 76 10000 1 0 17:39 18.12.2019
2127 Clouds 8 1018 76 10000 1 0 17:20 18.12.2019
2128 Clouds 8 1018 76 10000 1 0 17:20 18.12.2019
2129 Clouds 8 1018 76 10000 1.5 180 16:57 18.12.2019
2130 Clouds 8 1018 70 10000 1.5 170 16:39 18.12.2019
2131 Clouds 8 1018 76 10000 2.6 230 16:20 18.12.2019
2132 Clouds 8 1018 76 10000 2.6 230 15:56 18.12.2019
2133 Clouds 8 1018 70 10000 2.1 260 15:37 18.12.2019
2134 Clouds 8 1018 70 10000 2.1 260 15:19 18.12.2019
2135 Clouds 8 1018 75 10000 2.1 220 14:42 18.12.2019
2136 Clouds 7 1019 75 10000 2.1 180 14:22 18.12.2019
2137 Clouds 7 1019 75 10000 2.1 180 13:57 18.12.2019
2138 Clouds 7 1019 70 10000 2.1 190 13:39 18.12.2019
2139 Clouds 7 1019 70 10000 2.1 190 13:20 18.12.2019
2140 Clouds 7 1020 70 10000 2.6 190 12:59 18.12.2019
2141 Clouds 7 1020 70 10000 2.6 190 12:59 18.12.2019
2142 Clouds 6 1020 75 10000 2.6 190 12:39 18.12.2019
2143 Clouds 6 1020 70 10000 2.1 200 12:20 18.12.2019
2144 Clouds 6 1020 70 10000 2.1 200 11:56 18.12.2019
2145 Clouds 5 1020 81 10000 2.6 220 11:38 18.12.2019
2146 Clouds 6 1020 81 10000 2.6 220 11:38 18.12.2019
2147 Clouds 5 1019 75 10000 1.5 190 11:19 18.12.2019
2148 Clouds 5 1019 75 10000 1.5 190 10:56 18.12.2019
2149 Clouds 5 1019 75 10000 0.5 0 10:56 18.12.2019
2150 Clouds 5 1019 75 10000 0.5 0 10:38 18.12.2019
2151 Clouds 5 1018 86 10000 1 0 10:20 18.12.2019
2152 Clouds 4 1018 93 10000 1 170 09:52 18.12.2019
2153 Clouds 4 1018 93 10000 0.5 0 09:19 18.12.2019
2154 Fog 4 1016 100 100 2.53 212 08:42 18.12.2019
2155 Fog 4 1016 100 100 2.55 186 08:24 18.12.2019
2156 Clouds 4 1017 86 10000 1 210 07:55 18.12.2019
2157 Clouds 4 1016 86 10000 1 210 07:37 18.12.2019
2158 Clouds 4 1016 86 10000 1 210 07:19 18.12.2019
2159 Clouds 4 1016 80 10000 3.1 160 06:50 18.12.2019
2160 Clouds 4 1016 80 10000 3.1 170 06:22 18.12.2019
2161 Clouds 5 1016 81 10000 2.6 180 05:30 18.12.2019
2162 Clouds 6 1015 81 10000 3.1 170 03:45 18.12.2019
2163 Clouds 6 1015 87 10000 3.6 170 02:43 18.12.2019
2164 Clouds 6 1015 87 10000 3.6 170 02:25 18.12.2019
2165 Clouds 6 1015 93 10000 2.6 180 01:43 18.12.2019
2166 Clouds 6 1015 93 10000 2.6 180 01:24 18.12.2019
2167 Clouds 7 1014 87 10000 2.1 170 00:42 18.12.2019
2168 Clouds 7 1014 93 10000 2.1 140 00:24 18.12.2019
2169 Clouds 7 1014 87 10000 2.1 170 00:24 18.12.2019
2170 Clouds 7 1014 93 10000 2.1 140 23:58 17.12.2019
2171 Clouds 7 1013 93 10000 1.5 190 23:39 17.12.2019
2172 Clouds 7 1013 87 10000 2.1 190 23:20 17.12.2019
2173 Clouds 7 1013 87 10000 2.1 190 22:57 17.12.2019
2174 Clouds 7 1013 87 10000 2.6 180 22:38 17.12.2019
2175 Clouds 8 1013 81 10000 2.6 170 22:19 17.12.2019
2176 Clouds 8 1012 81 10000 2.1 190 21:57 17.12.2019
2177 Clouds 8 1012 81 10000 2.1 190 21:38 17.12.2019
2178 Clouds 8 1012 81 10000 2.1 190 21:19 17.12.2019
2179 Clouds 8 1012 81 10000 2.1 190 20:58 17.12.2019
2180 Clouds 8 1012 76 10000 3.6 220 20:39 17.12.2019
2181 Clouds 8 1011 81 10000 2.6 210 20:18 17.12.2019
2182 Rain 8 1011 81 10000 2.6 210 19:56 17.12.2019
2183 Rain 8 1011 93 6000 4.1 220 19:38 17.12.2019
2184 Rain 9 1010 87 10000 4.1 240 19:19 17.12.2019
2185 Clouds 9 1009 87 10000 3.6 240 18:55 17.12.2019
2186 Clouds 9 1009 87 10000 3.6 240 18:37 17.12.2019
2187 Clouds 9 1009 87 10000 4.1 240 18:19 17.12.2019
2188 Clouds 10 1008 81 10000 3.6 250 17:42 17.12.2019
2189 Clouds 10 1008 81 10000 3.6 250 17:42 17.12.2019
2190 Clouds 10 1008 81 10000 3.6 250 17:42 17.12.2019
2191 Clouds 10 1008 71 10000 2.6 200 17:21 17.12.2019
2192 Clouds 10 1008 71 10000 2.6 200 16:57 17.12.2019
2193 Clouds 10 1007 71 10000 1 0 16:38 17.12.2019
2194 Clouds 10 1007 71 10000 1 0 16:19 17.12.2019
2195 Clouds 11 1006 66 10000 2.1 200 15:59 17.12.2019
2196 Clouds 11 1006 66 10000 2.6 200 15:38 17.12.2019
2197 Clouds 11 1006 66 10000 2.6 200 15:19 17.12.2019
2198 Clouds 11 1005 71 10000 2.1 160 14:56 17.12.2019
2199 Clouds 10 1005 71 10000 2.1 160 14:38 17.12.2019
2200 Clouds 10 1005 71 10000 2.1 160 14:19 17.12.2019
2201 Clouds 10 1005 71 10000 2.6 200 14:19 17.12.2019
2202 Clouds 10 1005 81 10000 2.6 170 13:56 17.12.2019
2203 Clouds 10 1005 81 10000 2.6 170 13:38 17.12.2019
2204 Clouds 10 1005 81 10000 2.1 0 13:19 17.12.2019
2205 Clouds 9 1005 81 10000 2.1 0 12:56 17.12.2019
2206 Rain 9 1005 81 10000 1.5 140 12:37 17.12.2019
2207 Rain 9 1005 87 10000 3.1 130 12:18 17.12.2019
2208 Rain 9 1005 81 8000 3.1 180 11:56 17.12.2019
2209 Rain 9 1005 81 8000 3.1 180 11:36 17.12.2019
2210 Rain 9 1003 87 10000 1.5 140 11:18 17.12.2019
2211 Rain 9 1003 87 10000 1.5 140 11:18 17.12.2019
2212 Rain 9 1003 87 10000 1.5 140 11:18 17.12.2019
2213 Clouds 8 1003 87 10000 1.5 160 10:55 17.12.2019
2214 Clouds 8 1003 87 10000 1.5 160 10:37 17.12.2019
2215 Drizzle 8 1002 87 10000 2.1 170 10:18 17.12.2019
2216 Clouds 8 1002 87 10000 2.6 150 09:42 17.12.2019
2217 Clouds 8 1002 87 10000 2.1 150 09:21 17.12.2019
2218 Clouds 8 1001 87 10000 3.1 140 08:58 17.12.2019
2219 Clouds 8 1001 87 10000 3.6 140 08:39 17.12.2019
2220 Drizzle 8 1000 87 10000 3.1 130 08:21 17.12.2019
2221 Drizzle 8 1000 87 10000 3.1 130 07:57 17.12.2019
2222 Drizzle 8 1000 87 10000 3.1 120 07:39 17.12.2019
2223 Rain 9 1000 87 10000 3.1 150 07:19 17.12.2019
2224 Drizzle 8 1000 87 10000 2.6 140 06:36 17.12.2019
2225 Drizzle 8 1000 81 10000 1 0 06:18 17.12.2019
2226 Clouds 9 999 87 10000 1 0 05:38 17.12.2019
2227 Clouds 9 1000 81 10000 1 0 04:48 17.12.2019
2228 Clouds 9 1000 76 10000 0.5 0 03:31 17.12.2019
2229 Clouds 9 999 76 10000 0.5 0 01:58 17.12.2019
2230 Clouds 9 1000 71 10000 2.1 120 01:21 17.12.2019
2231 Clouds 10 1000 71 10000 4.1 150 00:39 17.12.2019
2232 Clouds 10 1000 71 10000 3.6 160 00:21 17.12.2019
2233 Clouds 10 1000 71 10000 3.1 150 23:43 16.12.2019
2234 Clouds 10 1000 66 10000 3.6 170 23:20 16.12.2019
2235 Clouds 10 1000 66 10000 3.6 170 22:58 16.12.2019
2236 Clouds 10 1000 66 10000 4.1 170 22:38 16.12.2019
2237 Clouds 10 1000 66 10000 1.5 220 22:20 16.12.2019
2238 Clouds 10 1000 66 10000 1.5 220 21:57 16.12.2019
2239 Clouds 10 1000 62 10000 5.1 160 21:38 16.12.2019
2240 Clouds 11 1000 66 10000 4.1 130 21:20 16.12.2019
2241 Clouds 11 1000 66 10000 4.1 130 20:58 16.12.2019
2242 Clouds 11 999 62 10000 3.6 130 20:39 16.12.2019
2243 Clouds 11 999 62 10000 3.6 130 20:19 16.12.2019
2244 Clouds 12 999 62 10000 4.6 120 19:56 16.12.2019
2245 Clouds 12 999 58 10000 5.1 110 19:37 16.12.2019
2246 Clouds 12 999 54 10000 3.6 130 19:19 16.12.2019
2247 Clouds 12 999 54 10000 3.6 130 18:58 16.12.2019
2248 Clouds 12 999 58 10000 3.1 100 18:40 16.12.2019
2249 Clouds 13 999 50 10000 4.1 120 18:20 16.12.2019
2250 Clouds 13 999 47 10000 3.6 130 17:58 16.12.2019
2251 Clouds 13 999 47 10000 3.6 130 17:39 16.12.2019
2252 Clouds 14 999 47 10000 4.6 150 17:21 16.12.2019
2253 Clouds 14 999 47 10000 4.6 150 16:57 16.12.2019
2254 Clouds 14 999 44 10000 5.7 150 16:38 16.12.2019
2255 Clouds 14 999 44 10000 5.7 150 16:19 16.12.2019
2256 Clouds 14 999 44 10000 5.7 150 15:58 16.12.2019
2257 Clouds 14 999 54 10000 3.6 120 15:38 16.12.2019
2258 Clouds 13 1000 58 10000 3.6 110 15:20 16.12.2019
2259 Clouds 13 1000 58 10000 3.6 110 14:57 16.12.2019
2260 Clouds 13 1001 50 10000 4.6 120 14:37 16.12.2019
2261 Clouds 12 1002 54 10000 5.7 120 14:19 16.12.2019
2262 Clouds 12 1002 54 10000 5.7 120 13:56 16.12.2019
2263 Clouds 12 1002 54 10000 5.7 120 13:56 16.12.2019
2264 Clouds 12 1002 54 10000 5.7 120 13:56 16.12.2019
2265 Clouds 12 1003 62 10000 4.6 120 13:37 16.12.2019
2266 Clouds 12 1003 62 10000 4.6 120 13:37 16.12.2019
2267 Clouds 11 1003 61 10000 4.6 130 13:19 16.12.2019
2268 Clouds 11 1003 61 10000 4.6 130 12:57 16.12.2019
2269 Clouds 11 1003 61 10000 4.6 130 12:57 16.12.2019
2270 Clouds 11 1004 76 10000 4.1 120 12:39 16.12.2019
2271 Clouds 10 1005 71 10000 3.6 120 12:18 16.12.2019
2272 Clouds 10 1005 71 10000 3.6 120 11:58 16.12.2019
2273 Clouds 10 1005 76 10000 4.1 120 11:40 16.12.2019
2274 Clouds 9 1005 75 10000 3.1 120 11:20 16.12.2019
2275 Clouds 9 1005 75 10000 3.1 120 11:20 16.12.2019
2276 Clouds 9 1005 75 10000 3.1 120 10:56 16.12.2019
2277 Clouds 9 1005 81 10000 3.6 120 10:37 16.12.2019
2278 Clouds 8 1005 81 10000 4.6 130 10:19 16.12.2019
2279 Clouds 8 1005 81 10000 5.1 130 09:45 16.12.2019
2280 Clouds 8 1005 81 10000 5.1 130 09:26 16.12.2019
2281 Clouds 7 1006 81 10000 4.1 120 08:41 16.12.2019
2282 Clouds 7 1006 87 10000 2.6 140 08:21 16.12.2019
2283 Clouds 7 1006 87 10000 2.6 140 07:59 16.12.2019
2284 Clouds 7 1006 87 10000 2.6 120 07:41 16.12.2019
2285 Clouds 7 1006 81 10000 2.1 120 07:20 16.12.2019
2286 Clouds 7 1007 81 10000 2.1 120 06:41 16.12.2019
2287 Clouds 7 1007 75 10000 4.1 140 06:22 16.12.2019
2288 Clouds 7 1007 75 10000 2.6 140 05:47 16.12.2019
2289 Clouds 8 1007 75 10000 2.6 140 05:29 16.12.2019
2290 Clouds 8 1009 81 10000 3.1 140 03:41 16.12.2019
2291 Clouds 8 1009 87 10000 2.1 150 01:58 16.12.2019
2292 Clouds 8 1010 81 10000 2.1 140 01:40 16.12.2019
2293 Clouds 8 1011 81 10000 1.5 130 00:42 16.12.2019
2294 Clouds 8 1011 81 10000 1.5 130 00:23 16.12.2019
2295 Clouds 8 1011 76 10000 1.5 140 23:58 15.12.2019
2296 Clouds 8 1011 71 10000 2.1 170 23:38 15.12.2019
2297 Clouds 9 1011 76 10000 1.5 140 23:19 15.12.2019
2298 Clouds 9 1011 76 10000 2.6 160 22:55 15.12.2019
2299 Clouds 9 1011 76 10000 2.6 160 22:37 15.12.2019
2300 Clouds 9 1012 76 10000 2.1 190 22:18 15.12.2019
2301 Clouds 9 1012 76 10000 2.1 190 21:55 15.12.2019
2302 Clouds 9 1012 71 10000 2.6 200 21:37 15.12.2019
2303 Clouds 9 1012 81 10000 1.5 170 21:18 15.12.2019
2304 Clouds 9 1012 76 10000 2.1 190 20:55 15.12.2019
2305 Clouds 9 1012 76 10000 2.1 190 20:36 15.12.2019
2306 Clouds 9 1012 76 10000 2.1 180 20:18 15.12.2019
2307 Clouds 9 1012 76 10000 2.1 180 19:56 15.12.2019
2308 Clouds 10 1012 71 10000 2.6 190 19:38 15.12.2019
2309 Clouds 9 1012 76 10000 1.5 200 19:18 15.12.2019
2310 Clouds 10 1012 76 10000 1.5 200 18:55 15.12.2019
2311 Clouds 10 1012 71 10000 2.6 180 18:37 15.12.2019
2312 Clouds 10 1012 71 10000 3.1 190 18:18 15.12.2019
2313 Clouds 10 1012 71 10000 3.1 190 17:55 15.12.2019
2314 Clouds 10 1012 71 10000 3.1 190 17:36 15.12.2019
2315 Clouds 10 1013 76 10000 3.1 190 17:18 15.12.2019
2316 Clouds 10 1013 66 10000 2.6 190 16:43 15.12.2019
2317 Clouds 10 1013 71 10000 3.6 190 16:23 15.12.2019
2318 Clouds 10 1013 71 10000 3.6 190 15:57 15.12.2019
2319 Clouds 10 1014 66 10000 3.6 190 15:39 15.12.2019
2320 Clouds 10 1014 66 10000 4.1 190 15:19 15.12.2019
2321 Clouds 10 1014 71 10000 3.6 200 14:56 15.12.2019
2322 Clouds 10 1014 71 10000 3.6 200 14:38 15.12.2019
2323 Clouds 10 1014 71 10000 3.6 200 14:38 15.12.2019
2324 Clouds 10 1014 71 10000 3.6 200 14:19 15.12.2019
2325 Clouds 10 1015 71 10000 4.1 200 13:59 15.12.2019
2326 Clouds 10 1015 71 10000 4.6 210 13:39 15.12.2019
2327 Clouds 9 1016 71 10000 4.1 190 13:20 15.12.2019
2328 Clouds 10 1016 71 10000 4.1 190 12:57 15.12.2019
2329 Clouds 10 1016 71 10000 4.1 190 12:57 15.12.2019
2330 Clouds 9 1016 76 10000 4.1 200 12:39 15.12.2019
2331 Clouds 9 1016 76 10000 4.1 200 12:21 15.12.2019
2332 Clouds 9 1016 81 10000 4.1 200 11:59 15.12.2019
2333 Clouds 9 1016 87 10000 3.6 190 11:38 15.12.2019
2334 Clouds 8 1016 87 10000 3.6 190 11:19 15.12.2019
2335 Clouds 8 1016 93 10000 3.1 190 10:56 15.12.2019
2336 Clouds 7 1016 93 10000 3.1 190 10:37 15.12.2019
2337 Clouds 7 1016 93 10000 3.6 200 10:19 15.12.2019
2338 Clouds 7 1016 93 10000 3.6 200 09:57 15.12.2019
2339 Clouds 7 1016 87 10000 3.1 210 09:37 15.12.2019
2340 Clouds 7 1016 93 10000 3.6 190 09:19 15.12.2019
2341 Clouds 7 1016 93 10000 2.6 200 08:42 15.12.2019
2342 -273 0 0 0 0 0 08:23 15.12.2019
2343 Clouds 7 1016 93 10000 2.6 220 07:57 15.12.2019
2344 Clouds 7 1016 93 10000 2.6 220 07:38 15.12.2019
2345 Mist 7 1016 100 5000 2.1 320 06:59 15.12.2019
2346 Mist 6 1016 100 3600 2.6 340 06:24 15.12.2019
2347 Mist 6 1016 93 3200 2.6 330 05:42 15.12.2019
2348 Mist 6 1016 100 4000 1 0 05:20 15.12.2019
2349 Clouds 6 1017 100 6000 2.1 320 04:19 15.12.2019
2350 Clouds 6 1017 93 8000 2.48 213 02:49 15.12.2019
2351 Clouds 6 1017 93 8000 2.69 217 02:30 15.12.2019
2352 Clouds 6 1018 93 8000 1 0 01:40 15.12.2019
2353 Clouds 6 1018 93 9000 1 0 01:18 15.12.2019
2354 Clouds 6 1018 100 10000 1.5 140 00:47 15.12.2019
2355 Clouds 6 1018 100 10000 1.5 140 00:47 15.12.2019
2356 Clouds 6 1018 100 10000 1.5 140 00:29 15.12.2019
2357 Clouds 6 1018 93 10000 2.1 120 23:41 14.12.2019
2358 Clouds 6 1018 93 10000 2.1 120 23:22 14.12.2019
2359 Clouds 6 1018 93 10000 3.6 140 22:59 14.12.2019
2360 Clouds 7 1018 93 10000 3.6 140 22:41 14.12.2019
2361 Clouds 7 1018 93 10000 3.6 140 22:22 14.12.2019
2362 Clouds 7 1018 93 10000 3.1 140 21:57 14.12.2019
2363 Clouds 7 1018 93 10000 3.1 140 21:38 14.12.2019
2364 Clouds 7 1018 87 10000 1.5 110 21:19 14.12.2019
2365 Clouds 7 1018 87 10000 1.5 110 21:19 14.12.2019
2366 Clouds 8 1018 87 10000 1.5 110 20:59 14.12.2019
2367 Clouds 8 1019 87 10000 4.1 230 20:40 14.12.2019
2368 Clouds 8 1019 81 10000 4.1 220 20:20 14.12.2019
2369 Clouds 8 1019 81 10000 4.1 220 19:57 14.12.2019
2370 Clouds 8 1018 81 10000 4.1 220 19:38 14.12.2019
2371 Clouds 9 1018 81 10000 4.1 220 19:20 14.12.2019
2372 Clouds 9 1018 81 10000 4.1 220 18:56 14.12.2019
2373 Clouds 9 1018 76 10000 5.1 230 18:38 14.12.2019
2374 Clouds 9 1018 76 10000 5.1 230 18:38 14.12.2019
2375 Clouds 10 1018 76 10000 5.7 220 18:19 14.12.2019
2376 Clouds 10 1018 71 10000 5.7 230 17:44 14.12.2019
2377 Clouds 11 1018 71 10000 4.6 220 17:24 14.12.2019
2378 Clouds 11 1018 66 10000 5.1 220 16:58 14.12.2019
2379 Clouds 11 1018 66 10000 5.1 220 16:40 14.12.2019
2380 Clouds 11 1018 71 10000 4.6 210 16:19 14.12.2019
2381 Clouds 11 1018 71 10000 4.6 210 16:19 14.12.2019
2382 Clouds 11 1018 71 10000 5.1 190 15:43 14.12.2019
2383 Clouds 11 1018 71 10000 5.1 190 15:24 14.12.2019
2384 Clouds 11 1018 71 10000 4.1 190 14:59 14.12.2019
2385 Clouds 11 1019 71 10000 5.1 200 14:39 14.12.2019
2386 Clouds 11 1019 66 10000 4.6 220 14:20 14.12.2019
2387 Clouds 11 1019 66 10000 5.1 220 13:57 14.12.2019
2388 Clouds 11 1019 66 10000 5.1 220 13:39 14.12.2019
2389 Clouds 11 1020 62 10000 4.1 220 13:19 14.12.2019
2390 Clouds 11 1020 62 10000 4.1 220 13:19 14.12.2019
2391 Clouds 11 1020 71 10000 3.6 230 12:55 14.12.2019
2392 Clouds 11 1020 71 10000 3.6 230 12:37 14.12.2019
2393 Clouds 11 1020 76 10000 4.1 240 12:18 14.12.2019
2394 Clouds 10 1020 76 10000 4.1 240 11:55 14.12.2019
2395 Clouds 10 1020 81 10000 4.6 240 11:37 14.12.2019
2396 Clouds 8 1020 87 10000 5.1 240 11:18 14.12.2019
2397 Clouds 8 1020 93 10000 4.6 250 10:55 14.12.2019
2398 Clouds 8 1020 93 10000 4.6 250 10:37 14.12.2019
2399 Clouds 7 1020 87 10000 5.1 250 10:18 14.12.2019
2400 Clouds 6 1019 87 10000 5.1 240 09:41 14.12.2019
2401 Clouds 6 1019 87 10000 5.1 240 09:21 14.12.2019
2402 Fog 6 1019 87 2000 4.1 240 08:45 14.12.2019
2403 Fog 6 1019 87 2000 4.1 240 08:21 14.12.2019
2404 Clouds 7 1019 100 10000 3.1 230 07:58 14.12.2019
2405 Clouds 7 1018 100 10000 2.6 240 07:38 14.12.2019
2406 Clouds 7 1018 87 10000 3.6 210 07:19 14.12.2019
2407 Clouds 7 1018 93 10000 5.7 230 06:42 14.12.2019
2408 Clouds 7 1017 87 10000 4.6 230 06:22 14.12.2019
2409 Clouds 7 1018 93 10000 3.6 200 05:25 14.12.2019
2410 Clouds 8 1018 87 10000 3.1 150 03:34 14.12.2019
2411 Clouds 9 1018 87 10000 4.6 220 02:23 14.12.2019
2412 Clouds 9 1018 87 10000 3.1 190 01:44 14.12.2019
2413 Clouds 10 1018 76 10000 5.7 220 00:58 14.12.2019
2414 Clouds 10 1018 76 10000 7.2 230 00:40 14.12.2019
2415 Clouds 10 1018 81 10000 8.2 220 00:19 14.12.2019
2416 Clear 10 1018 76 10000 4.6 190 23:41 13.12.2019
2417 Clear 10 1018 76 10000 4.6 190 23:41 13.12.2019
2418 Clouds 11 1017 71 10000 5.7 160 23:19 13.12.2019
2419 Clouds 11 1017 71 10000 5.7 160 22:56 13.12.2019
2420 Clouds 11 1017 66 10000 3.1 220 22:37 13.12.2019
2421 Clouds 11 1017 58 10000 5.1 250 22:18 13.12.2019
2422 Clouds 12 1017 54 10000 8.7 260 21:44 13.12.2019
2423 Clouds 12 1017 54 10000 7.2 250 21:22 13.12.2019
2424 Clouds 12 1017 54 10000 7.2 250 20:59 13.12.2019
2425 Clouds 12 1017 58 10000 10.3 270 20:39 13.12.2019
2426 Clouds 12 1017 58 10000 10.3 270 20:20 13.12.2019
2427 Clouds 12 1017 58 10000 12.3 270 19:56 13.12.2019
2428 Clouds 12 1017 62 10000 11.3 270 19:38 13.12.2019
2429 Clouds 13 1017 62 10000 11.3 270 19:19 13.12.2019
2430 Clouds 13 1017 62 10000 9.3 250 18:54 13.12.2019
2431 Clouds 14 1017 62 10000 9.3 250 18:36 13.12.2019
2432 Clouds 14 1017 62 10000 9.3 250 18:18 13.12.2019
2433 Clouds 14 1017 62 10000 9.3 250 18:18 13.12.2019
2434 Clouds 14 1017 67 10000 6.7 240 17:40 13.12.2019
2435 Clouds 14 1017 67 10000 6.7 240 17:19 13.12.2019
2436 Clouds 14 1017 62 10000 6.7 260 16:57 13.12.2019
2437 Clouds 14 1017 62 10000 6.7 260 16:57 13.12.2019
2438 Clouds 14 1015 59 10000 12.3 270 16:38 13.12.2019
2439 Clouds 14 1017 62 10000 8.2 270 16:20 13.12.2019
2440 Clouds 14 1016 71 10000 6.7 250 15:43 13.12.2019
2441 Clouds 15 1016 62 10000 6.7 250 15:22 13.12.2019
2442 Clouds 15 1016 67 10000 5.1 220 14:57 13.12.2019
2443 Clouds 14 1016 67 10000 4.6 210 14:39 13.12.2019
2444 Clouds 14 1016 67 10000 4.6 210 14:19 13.12.2019
2445 Clouds 14 1016 71 10000 4.6 200 13:44 13.12.2019
2446 Clouds 14 1016 76 10000 6.2 230 13:26 13.12.2019
2447 Clouds 14 1016 71 10000 6.7 230 12:59 13.12.2019
2448 Clouds 14 1016 71 10000 6.7 250 12:41 13.12.2019
2449 Clouds 14 1016 71 10000 6.7 250 12:19 13.12.2019
2450 Clouds 13 1016 71 10000 6.7 230 11:45 13.12.2019
2451 Clouds 13 1016 66 10000 7.2 260 11:27 13.12.2019
2452 Clouds 12 1015 66 10000 9.3 260 10:58 13.12.2019
2453 Clouds 12 1015 66 10000 11.8 270 10:40 13.12.2019
2454 Clouds 12 1015 66 10000 11.8 270 10:21 13.12.2019
2455 Clouds 11 1014 71 10000 9.3 270 09:43 13.12.2019
2456 Clouds 11 1014 71 10000 9.3 270 09:22 13.12.2019
2457 Clouds 11 1014 76 10000 10.8 260 08:55 13.12.2019
2458 Clouds 11 1013 76 10000 10.3 260 08:37 13.12.2019
2459 Clouds 11 1013 76 10000 10.3 260 08:19 13.12.2019
2460 Clouds 11 1013 81 10000 12.9 250 07:43 13.12.2019
2461 Clouds 11 1013 81 10000 12.9 250 07:19 13.12.2019
2462 Clouds 12 1011 62 10000 10.3 270 06:50 13.12.2019
2463 Clouds 11 1013 93 10000 5.7 200 06:28 13.12.2019
2464 Clouds 12 1011 67 10000 12.9 270 05:43 13.12.2019
2465 Clouds 12 1011 67 10000 12.9 270 05:20 13.12.2019
2466 Clouds 12 1012 76 10000 10.8 260 04:33 13.12.2019
2467 Clouds 11 1012 87 10000 8.2 240 03:29 13.12.2019
2468 Clouds 11 1012 87 10000 7.2 240 02:32 13.12.2019
2469 Clouds 11 1012 87 10000 7.2 240 02:32 13.12.2019
2470 Clouds 11 1012 87 10000 8.2 240 01:40 13.12.2019
2471 Clouds 11 1012 87 10000 8.7 230 00:51 13.12.2019
2472 Clouds 10 1012 93 10000 8.2 230 00:32 13.12.2019
2473 Clouds 10 1012 87 10000 6.7 220 23:47 12.12.2019
2474 Clouds 10 1012 87 10000 6.7 220 23:47 12.12.2019
2475 Clouds 10 1013 87 10000 6.2 230 23:27 12.12.2019
2476 Clouds 10 1012 87 10000 7.2 230 22:59 12.12.2019
2477 Clouds 9 1012 87 10000 7.2 230 22:41 12.12.2019
2478 Clouds 9 1012 87 10000 7.2 240 22:41 12.12.2019
2479 Clouds 9 1012 87 10000 7.2 240 22:22 12.12.2019
2480 Clouds 9 1013 87 10000 7.2 240 21:56 12.12.2019
2481 Clouds 9 1013 87 10000 7.2 240 21:56 12.12.2019
2482 Clouds 9 1013 87 10000 7.2 230 21:38 12.12.2019
2483 Clouds 9 1013 87 10000 7.2 230 21:20 12.12.2019
2484 Clouds 9 1013 87 10000 7.7 240 20:59 12.12.2019
2485 Clouds 9 1014 93 10000 10.8 240 20:41 12.12.2019
2486 Clouds 9 1014 93 10000 10.8 240 20:23 12.12.2019
2487 Drizzle 8 1014 93 10000 10.8 240 19:59 12.12.2019
2488 Drizzle 8 1014 93 10000 10.8 240 19:59 12.12.2019
2489 Drizzle 8 1014 93 10000 10.8 240 19:40 12.12.2019
2490 Drizzle 8 1014 93 10000 10.8 240 19:21 12.12.2019
2491 Drizzle 8 1014 93 10000 11.3 240 18:57 12.12.2019
2492 Drizzle 8 1014 93 10000 11.3 240 18:57 12.12.2019
2493 Rain 8 1014 93 10000 11.3 240 18:38 12.12.2019
2494 Rain 8 1015 87 10000 10.8 240 18:20 12.12.2019
2495 Clouds 8 1015 87 10000 10.8 240 17:57 12.12.2019
2496 Drizzle 8 1015 87 10000 11.8 240 17:38 12.12.2019
2497 Drizzle 8 1015 87 10000 11.8 240 17:20 12.12.2019
2498 Clouds 7 1015 87 10000 10.3 240 16:56 12.12.2019
2499 Clouds 7 1016 93 10000 10.8 230 16:37 12.12.2019
2500 Clouds 7 1016 93 10000 10.8 230 16:19 12.12.2019
2501 Clouds 7 1016 93 10000 6.7 230 15:54 12.12.2019
2502 Rain 7 1017 93 10000 7.2 230 15:36 12.12.2019
2503 Clouds 7 1015 93 10000 6.2 220 15:18 12.12.2019
2504 Rain 7 1018 87 10000 8.7 240 14:38 12.12.2019
2505 Rain 7 1018 87 10000 8.7 240 14:20 12.12.2019
2506 Rain 7 1019 87 10000 9.3 240 13:57 12.12.2019
2507 Rain 7 1019 87 10000 7.2 240 13:39 12.12.2019
2508 Rain 7 1019 87 10000 7.2 240 13:21 12.12.2019
2509 Clouds 6 1020 75 10000 6.2 230 12:57 12.12.2019
2510 Clouds 6 1020 75 10000 5.1 210 12:38 12.12.2019
2511 Clouds 6 1020 75 10000 5.1 210 12:20 12.12.2019
2512 Clouds 6 1021 81 10000 5.1 230 11:55 12.12.2019
2513 Clouds 6 1021 81 10000 5.1 230 11:55 12.12.2019
2514 Clouds 6 1021 81 10000 5.1 240 11:37 12.12.2019
2515 Clouds 6 1021 81 10000 5.1 240 11:19 12.12.2019
2516 Clouds 5 1022 86 10000 5.1 250 10:54 12.12.2019
2517 Clouds 5 1021 86 10000 5.7 240 10:36 12.12.2019
2518 Clouds 5 1021 86 10000 5.7 240 10:18 12.12.2019
2519 Clouds 4 1021 86 10000 5.1 250 09:41 12.12.2019
2520 Clouds 4 1021 86 10000 5.1 250 09:23 12.12.2019
2521 Clouds 4 1021 86 10000 3.1 230 08:56 12.12.2019
2522 Clouds 4 1021 80 10000 4.1 240 08:38 12.12.2019
2523 Clouds 4 1021 80 10000 4.1 240 08:38 12.12.2019
2524 Clouds 5 1021 80 10000 4.1 240 08:19 12.12.2019
2525 Clouds 5 1021 80 10000 4.1 230 07:42 12.12.2019
2526 Clouds 5 1022 80 10000 4.1 240 07:24 12.12.2019
2527 Clouds 5 1022 75 10000 3.6 230 06:48 12.12.2019
2528 Clouds 5 1021 70 10000 5.7 250 06:30 12.12.2019
2529 Clouds 6 1022 65 10000 3.6 220 05:36 12.12.2019
2530 Clouds 6 1022 65 10000 4.1 240 04:51 12.12.2019
2531 Clouds 6 1022 65 10000 4.1 240 04:51 12.12.2019
2532 Clouds 6 1023 65 10000 6.7 270 03:20 12.12.2019
2533 Clouds 6 1023 65 10000 4.6 250 02:37 12.12.2019
2534 Clouds 6 1023 65 10000 4.6 250 02:19 12.12.2019
2535 Clouds 6 1024 65 10000 5.1 230 01:37 12.12.2019
2536 Clouds 6 1024 65 10000 5.1 230 01:18 12.12.2019
2537 Clouds 6 1024 70 10000 4.1 220 00:40 12.12.2019
2538 Clouds 6 1024 70 10000 3.6 250 00:19 12.12.2019
2539 Clouds 6 1024 70 10000 4.6 240 23:44 11.12.2019
2540 Clear 6 1024 66 10000 6.7 270 23:20 11.12.2019
2541 Clear 6 1025 75 10000 5.1 240 22:57 11.12.2019
2542 Clear 6 1025 75 10000 5.1 240 22:38 11.12.2019
2543 Clear 6 1025 75 10000 5.1 260 22:19 11.12.2019
2544 Clear 6 1025 66 10000 3.6 230 21:57 11.12.2019
2545 Clear 6 1025 70 10000 3.6 250 21:37 11.12.2019
2546 Clear 6 1025 70 10000 3.6 250 21:37 11.12.2019
2547 Clear 7 1025 70 10000 3.6 250 21:19 11.12.2019
2548 Clear 7 1025 65 10000 8.2 270 20:56 11.12.2019
2549 Clear 7 1025 61 10000 7.7 290 20:37 11.12.2019
2550 Clear 7 1025 61 10000 7.7 290 20:19 11.12.2019
2551 Clear 7 1025 61 10000 5.1 290 19:57 11.12.2019
2552 Clear 7 1024 61 10000 5.1 280 19:38 11.12.2019
2553 Clear 7 1024 61 10000 5.1 280 19:18 11.12.2019
2554 Clouds 8 1024 57 10000 6.7 290 18:40 11.12.2019
2555 Clouds 8 1024 57 10000 6.7 290 18:21 11.12.2019
2556 Clouds 9 1023 64 10000 9.3 280 17:57 11.12.2019
2557 Clouds 9 1023 64 10000 9.3 280 17:57 11.12.2019
2558 Clouds 9 1023 57 10000 9.8 280 17:39 11.12.2019
2559 Clouds 9 1023 57 10000 9.8 280 17:18 11.12.2019
2560 Clouds 10 1023 52 10000 9.3 280 16:57 11.12.2019
2561 Clouds 9 1023 52 10000 9.3 280 16:57 11.12.2019
2562 Clouds 9 1023 46 10000 6.7 290 16:38 11.12.2019
2563 Clouds 9 1023 46 10000 6.7 290 16:38 11.12.2019
2564 Clouds 9 1023 46 10000 6.7 290 16:38 11.12.2019
2565 Clouds 9 1023 46 10000 6.7 290 16:20 11.12.2019
2566 Clouds 9 1022 53 10000 8.7 280 15:59 11.12.2019
2567 Clouds 9 1023 57 10000 8.2 300 15:39 11.12.2019
2568 Clouds 9 1023 57 10000 8.2 300 15:21 11.12.2019
2569 Clouds 9 1022 58 10000 4.6 290 14:56 11.12.2019
2570 Mist 9 1023 93 5000 1 30 14:37 11.12.2019
2571 Clouds 8 1022 81 9000 3.1 240 14:19 11.12.2019
2572 Clouds 7 1022 81 9000 3.1 240 13:54 11.12.2019
2573 Clouds 7 1023 93 6000 4.1 230 13:36 11.12.2019
2574 Clouds 6 1023 93 6000 4.1 230 13:18 11.12.2019
2575 Clouds 6 1023 93 6000 4.1 230 13:18 11.12.2019
2576 Clouds 4 1023 93 6000 4.1 240 12:54 11.12.2019
2577 Clouds 5 1023 100 7000 2.1 240 12:36 11.12.2019
2578 Clouds 5 1023 100 7000 2.1 240 12:18 11.12.2019
2579 Clouds 4 1023 100 6000 2.1 180 11:55 11.12.2019
2580 Fog 4 1023 100 900 2.1 250 11:37 11.12.2019
2581 Drizzle 4 1023 100 900 2.6 170 11:18 11.12.2019
2582 Drizzle 3 1023 100 900 2.6 170 10:44 11.12.2019
2583 Drizzle 3 1023 100 400 1.5 170 10:25 11.12.2019
2584 Fog 3 1023 100 350 2.6 190 09:58 11.12.2019
2585 Fog 3 1023 100 700 2.6 210 09:38 11.12.2019
2586 Fog 3 1023 100 700 2.6 210 09:20 11.12.2019
2587 Fog 3 1023 100 400 1 0 08:56 11.12.2019
2588 Fog 3 1023 100 300 1.5 260 08:37 11.12.2019
2589 Fog 3 1023 100 300 1.5 260 08:18 11.12.2019
2590 Fog 3 1022 100 250 1 0 07:45 11.12.2019
2591 Fog 3 1023 100 300 1 0 07:25 11.12.2019
2592 Mist 3 1023 100 1500 0.5 0 06:46 11.12.2019
2593 Mist 4 1023 100 1200 0.5 0 06:25 11.12.2019
2594 Fog 4 1023 100 400 0.5 0 05:58 11.12.2019
2595 Mist 3 1023 100 4000 0.5 0 05:37 11.12.2019
2596 Mist 4 1024 100 5000 0.5 0 04:55 11.12.2019
2597 Mist 3 1024 100 4000 0.5 0 03:41 11.12.2019
2598 Fog 3 1025 100 2000 1.5 10 02:40 11.12.2019
2599 Fog 3 1025 100 500 2.1 340 01:22 11.12.2019
2600 Fog 3 1025 100 500 1.5 330 00:46 11.12.2019
2601 Fog 3 1026 100 500 1.5 360 00:21 11.12.2019
2602 Fog 4 1025 100 1600 1 360 23:46 10.12.2019
2603 Fog 4 1025 100 1000 1.5 10 23:28 10.12.2019
2604 Clouds 4 1026 93 7000 1 120 22:57 10.12.2019
2605 Clouds 4 1026 93 7000 1 120 22:39 10.12.2019
2606 Clouds 4 1026 93 7000 0.51 161 22:21 10.12.2019
2607 Clouds 5 1026 100 7000 0.51 161 21:55 10.12.2019
2608 Clouds 5 1026 93 7000 1 260 21:37 10.12.2019
2609 Clouds 5 1026 93 7000 1 260 21:18 10.12.2019
2610 Clouds 5 1026 93 6000 0.51 161 20:56 10.12.2019
2611 Clouds 5 1026 87 10000 0.5 0 20:37 10.12.2019
2612 Clouds 5 1026 87 10000 0.5 0 20:19 10.12.2019
2613 Clouds 5 1026 87 10000 1 0 19:54 10.12.2019
2614 Clouds 5 1026 93 10000 1.39 188 19:36 10.12.2019
2615 Clouds 6 1026 93 10000 1.39 188 19:18 10.12.2019
2616 Clouds 6 1027 93 10000 3.1 270 18:40 10.12.2019
2617 Clouds 6 1027 93 10000 3.1 270 18:20 10.12.2019
2618 Clouds 6 1026 87 10000 1.5 240 17:57 10.12.2019
2619 Clouds 6 1027 87 8000 2.6 260 17:39 10.12.2019
2620 Clear 7 1027 87 8000 2.6 260 17:20 10.12.2019
2621 Clear 7 1027 81 8000 2.1 240 16:43 10.12.2019
2622 Clear 8 1027 71 7000 1 0 16:21 10.12.2019
2623 Clear 8 1027 71 7000 1 0 16:21 10.12.2019
2624 Clear 9 1027 71 7000 0.5 130 15:59 10.12.2019
2625 Clear 9 1027 76 7000 1 0 15:38 10.12.2019
2626 Clear 9 1027 76 7000 1 0 15:18 10.12.2019
2627 Clear 8 1028 70 6000 1 0 14:56 10.12.2019
2628 Mist 8 1028 81 5000 1 0 14:37 10.12.2019
2629 Mist 8 1028 81 5000 1 0 14:37 10.12.2019
2630 Mist 7 1028 81 5000 1 0 14:19 10.12.2019
2631 Clouds 7 1029 93 6000 2.1 110 13:56 10.12.2019
2632 Clouds 7 1029 93 6000 2.1 110 13:38 10.12.2019
2633 Mist 7 1029 87 1900 1 0 13:19 10.12.2019
2634 Mist 7 1029 87 1200 0 0 12:45 10.12.2019
2635 Mist 7 1029 87 1200 0 0 12:45 10.12.2019
2636 Mist 6 1030 93 1000 1 0 12:25 10.12.2019
2637 Mist 6 1030 93 1000 1 0 11:45 10.12.2019
2638 Mist 4 1030 93 1000 1 0 11:25 10.12.2019
2639 Fog 4 1030 93 900 1 0 10:58 10.12.2019
2640 Fog 3 1030 100 900 2.1 140 10:40 10.12.2019
2641 Fog 3 1030 100 900 2.1 140 10:22 10.12.2019
2642 Fog 3 1030 100 900 1.5 110 09:56 10.12.2019
2643 Fog 3 1030 100 900 1.5 110 09:56 10.12.2019
2644 Fog 2 1030 93 800 0.5 0 09:38 10.12.2019
2645 Fog 2 1030 93 800 0.5 0 09:38 10.12.2019
2646 Fog 2 1030 93 800 0.5 0 09:20 10.12.2019
2647 Fog 2 1030 100 300 1 0 08:57 10.12.2019
2648 Fog 2 1030 100 300 1 0 08:57 10.12.2019
2649 Fog 3 1030 100 300 1.5 340 08:38 10.12.2019
2650 Fog 3 1030 100 300 1.5 340 08:19 10.12.2019
2651 Fog 3 1030 100 900 0.5 0 07:44 10.12.2019
2652 Fog 2 1030 100 900 0.5 0 07:26 10.12.2019
2653 Fog 3 1030 100 300 1 0 06:49 10.12.2019
2654 Fog 3 1030 100 300 1 0 06:24 10.12.2019
2655 Fog 3 1030 100 200 1 0 05:55 10.12.2019
2656 Fog 3 1030 93 150 0.5 40 05:19 10.12.2019
2657 Fog 4 1030 100 300 1 10 03:47 10.12.2019
2658 Fog 4 1030 100 600 1 0 02:48 10.12.2019
2659 Fog 4 1031 100 450 0.5 0 01:54 10.12.2019
2660 Fog 4 1031 100 300 0.5 0 01:26 10.12.2019
2661 Fog 5 1031 100 300 0.5 0 00:51 10.12.2019
2662 Fog 5 1031 100 800 2.54 52 00:24 10.12.2019
2663 Mist 5 1030 100 4000 1.5 120 23:55 09.12.2019
2664 Mist 5 1031 100 4000 1.5 140 23:36 09.12.2019
2665 Mist 5 1031 100 4000 1.5 140 23:18 09.12.2019
2666 Clouds 6 1031 93 10000 1 0 22:54 09.12.2019
2667 Clouds 6 1031 93 10000 2.61 27 22:36 09.12.2019
2668 Clouds 6 1031 93 10000 2.61 27 22:18 09.12.2019
2669 Clouds 6 1031 93 10000 1 0 21:54 09.12.2019
2670 Clouds 6 1030 87 10000 2.61 27 21:36 09.12.2019
2671 Clouds 6 1030 87 10000 2.61 27 21:18 09.12.2019
2672 Clouds 6 1030 87 10000 1.5 50 20:54 09.12.2019
2673 Clouds 6 1030 93 10000 1 0 20:36 09.12.2019
2674 Clouds 7 1030 93 10000 1 0 20:18 09.12.2019
2675 Clouds 7 1030 93 10000 1 0 19:54 09.12.2019
2676 Clouds 7 1029 93 10000 2.14 44 19:36 09.12.2019
2677 Clouds 7 1029 93 10000 2.14 44 19:18 09.12.2019
2678 Clouds 8 1029 93 10000 2.1 240 18:40 09.12.2019
2679 Clouds 8 1029 93 10000 2.1 240 18:20 09.12.2019
2680 Clouds 9 1028 87 10000 1.5 270 17:59 09.12.2019
2681 Clouds 9 1028 87 10000 1.5 270 17:59 09.12.2019
2682 Clouds 9 1028 81 10000 1.5 270 17:41 09.12.2019
2683 Clouds 9 1028 81 10000 1.5 270 17:21 09.12.2019
2684 Clouds 10 1028 87 10000 2.6 270 16:57 09.12.2019
2685 Clouds 10 1028 81 10000 2.6 210 16:39 09.12.2019
2686 Clouds 10 1028 81 10000 2.6 210 16:21 09.12.2019
2687 Clouds 11 1028 76 10000 2.1 220 15:57 09.12.2019
2688 Clouds 11 1028 81 10000 3.6 250 15:38 09.12.2019
2689 Clouds 11 1028 81 10000 3.6 250 15:19 09.12.2019
2690 Clouds 11 1028 76 10000 3.1 250 14:59 09.12.2019
2691 Clouds 10 1028 76 10000 3.1 250 14:41 09.12.2019
2692 Clouds 10 1029 93 8000 4.1 240 14:18 09.12.2019
2693 Clouds 9 1029 93 8000 4.1 240 13:56 09.12.2019
2694 Clouds 9 1029 87 8000 4.1 240 13:37 09.12.2019
2695 Clouds 9 1029 87 8000 4.1 240 13:19 09.12.2019
2696 Clouds 8 1030 93 8000 3.1 230 12:55 09.12.2019
2697 Clouds 8 1030 87 7000 2.1 230 12:36 09.12.2019
2698 Clouds 8 1030 87 7000 2.1 230 12:18 09.12.2019
2699 Mist 6 1030 100 5000 1 0 11:40 09.12.2019
2700 Mist 6 1030 100 5000 1 0 11:22 09.12.2019
2701 Mist 6 1030 100 5000 1.17 198 10:59 09.12.2019
2702 Mist 5 1030 100 2500 1 0 10:39 09.12.2019
2703 Mist 5 1030 100 2500 1 0 10:19 09.12.2019
2704 Fog 5 1030 100 600 1.17 198 09:55 09.12.2019
2705 Fog 5 1029 100 200 1 0 09:36 09.12.2019
2706 Fog 5 1029 100 200 1 0 09:18 09.12.2019
2707 Fog 5 1029 100 200 1 0 08:40 09.12.2019
2708 Fog 5 1029 100 400 1 0 08:22 09.12.2019
2709 Fog 5 1028 100 400 1.5 270 07:52 09.12.2019
2710 Fog 5 1028 100 400 0.4 82 07:34 09.12.2019
2711 Fog 5 1027 100 1200 2.1 190 06:58 09.12.2019
2712 Fog 5 1027 100 1500 2.1 150 06:32 09.12.2019
2713 Fog 5 1028 100 2000 0.4 82 05:51 09.12.2019
2714 Fog 6 1028 100 2000 0.96 102 05:24 09.12.2019
2715 Fog 6 1027 100 1100 0.96 102 04:28 09.12.2019
2716 Fog 6 1027 100 1100 1 0 02:46 09.12.2019
2717 Fog 6 1027 100 600 0.5 0 01:48 09.12.2019
2718 Fog 6 1027 100 1500 1.05 167 01:23 09.12.2019
2719 Mist 6 1027 93 4500 1.5 150 00:39 09.12.2019
2720 Mist 6 1027 93 4500 1.5 150 00:19 09.12.2019
2721 Mist 6 1027 100 4000 1.05 167 23:39 08.12.2019
2722 Mist 6 1027 100 4000 1 136 23:20 08.12.2019
2723 Mist 7 1026 100 3500 1 136 22:56 08.12.2019
2724 Mist 6 1026 100 3500 1 136 22:38 08.12.2019
2725 Mist 6 1026 100 3500 1 136 22:18 08.12.2019
2726 Mist 6 1026 100 4000 1 0 21:57 08.12.2019
2727 Mist 6 1026 100 4000 0.5 0 21:38 08.12.2019
2728 Mist 6 1026 100 4000 0.5 0 21:19 08.12.2019
2729 Mist 6 1026 100 5000 1 0 20:56 08.12.2019
2730 Mist 6 1026 93 2500 1 136 20:38 08.12.2019
2731 Mist 6 1026 93 3000 0.5 0 20:19 08.12.2019
2732 Mist 6 1026 93 3000 0.5 0 19:56 08.12.2019
2733 Mist 6 1025 93 3000 0.5 0 19:38 08.12.2019
2734 Mist 6 1025 93 3000 0.5 0 19:20 08.12.2019
2735 Mist 6 1025 100 3000 1.22 204 18:55 08.12.2019
2736 Rain 6 1025 100 2000 0.5 0 18:36 08.12.2019
2737 Rain 6 1025 100 2000 0.5 0 18:36 08.12.2019
2738 Rain 6 1025 100 2000 0.5 0 18:18 08.12.2019
2739 Rain 6 1025 100 2000 0.5 0 17:55 08.12.2019
2740 Rain 6 1025 100 2000 1 0 17:37 08.12.2019
2741 Rain 6 1025 100 2000 1 0 17:19 08.12.2019
2742 Rain 6 1025 100 2000 0.5 0 16:55 08.12.2019
2743 Rain 6 1025 100 2000 1.51 214 16:37 08.12.2019
2744 Rain 6 1025 100 2000 1.51 214 16:18 08.12.2019
2745 Drizzle 6 1025 100 3000 0.5 0 15:38 08.12.2019
2746 Drizzle 6 1025 100 3000 0.5 0 15:19 08.12.2019
2747 Mist 6 1025 100 2000 0.5 0 14:58 08.12.2019
2748 Mist 6 1025 100 2000 0.5 0 14:39 08.12.2019
2749 Mist 6 1025 100 2000 1.5 100 14:39 08.12.2019
2750 Mist 6 1025 100 2000 1.5 100 14:21 08.12.2019
2751 Mist 6 1025 100 2000 1 0 13:56 08.12.2019
2752 Mist 6 1025 100 2000 1 0 13:56 08.12.2019
2753 Mist 6 1026 100 1500 0.5 0 13:38 08.12.2019
2754 Mist 5 1026 100 1500 0.5 0 13:19 08.12.2019
2755 Mist 6 1026 100 1100 1.5 110 12:54 08.12.2019
2756 Mist 6 1026 100 1100 1.5 110 12:54 08.12.2019
2757 Fog 6 1026 100 900 1 0 12:36 08.12.2019
2758 Fog 6 1026 100 900 1 0 12:18 08.12.2019
2759 Mist 6 1026 100 1600 2.1 150 11:38 08.12.2019
2760 Mist 5 1026 100 1600 2.1 150 11:38 08.12.2019
2761 Mist 5 1026 100 1600 2.1 150 11:20 08.12.2019
2762 Fog 5 1026 100 250 1 0 10:59 08.12.2019
2763 Fog 5 1026 100 250 0.5 0 10:38 08.12.2019
2764 Fog 5 1026 100 250 0.5 0 10:20 08.12.2019
2765 Fog 4 1026 100 250 1 0 09:57 08.12.2019
2766 Fog 4 1026 100 250 1 0 09:57 08.12.2019
2767 Fog 4 1026 100 250 1 0 09:38 08.12.2019
2768 Fog 4 1025 100 300 0.5 0 09:19 08.12.2019
2769 Fog 4 1025 100 300 0.5 0 08:58 08.12.2019
2770 Fog 4 1026 100 250 1 0 08:37 08.12.2019
2771 Fog 4 1026 100 250 1 0 08:19 08.12.2019
2772 Fog 4 1025 100 300 1 150 07:43 08.12.2019
2773 Fog 4 1025 100 250 1 100 07:20 08.12.2019
2774 Fog 4 1025 93 700 0.59 153 06:50 08.12.2019
2775 Fog 4 1025 93 700 0.59 153 06:22 08.12.2019
2776 Fog 4 1025 100 700 0.5 0 05:48 08.12.2019
2777 Clouds 4 1025 100 8000 0.74 136 05:18 08.12.2019
2778 Clouds 4 1025 93 6000 1 10 03:50 08.12.2019
2779 Clouds 4 1025 100 6000 0.5 0 03:22 08.12.2019
2780 Clear 5 1026 100 8000 2.1 340 02:39 08.12.2019
2781 Clear 4 1026 100 8000 1.5 340 01:55 08.12.2019
2782 Clear 5 1025 93 8000 1 350 01:23 08.12.2019
2783 Clear 5 1026 100 8000 1 340 00:40 08.12.2019
2784 Clear 5 1026 100 8000 1 340 00:40 08.12.2019
2785 Clear 6 1026 93 8000 1 350 00:20 08.12.2019
2786 Clear 6 1026 100 8000 1.5 20 23:41 07.12.2019
2787 Clouds 6 1026 100 8000 0.6 236 23:21 07.12.2019
2788 Clouds 6 1025 93 9000 0.5 0 22:57 07.12.2019
2789 Clouds 6 1025 100 9000 0.5 30 22:39 07.12.2019
2790 Clouds 7 1025 100 9000 0.5 30 22:21 07.12.2019
2791 Clouds 7 1025 100 9000 0.6 236 21:56 07.12.2019
2792 Clouds 7 1025 93 10000 0.5 140 21:38 07.12.2019
2793 Clouds 7 1025 93 10000 0.5 140 21:19 07.12.2019
2794 Clouds 7 1024 87 10000 1 170 20:59 07.12.2019
2795 Clouds 8 1025 100 8000 1 0 20:36 07.12.2019
2796 Clear 8 1025 100 8000 1 0 20:18 07.12.2019
2797 Clear 8 1024 93 10000 1 230 19:56 07.12.2019
2798 Clear 8 1024 93 10000 1 240 19:38 07.12.2019
2799 Clear 9 1024 93 10000 1 240 19:20 07.12.2019
2800 Clear 10 1024 76 10000 1.5 250 18:44 07.12.2019
2801 Clear 10 1024 76 10000 1.5 250 18:20 07.12.2019
2802 Clear 11 1023 76 10000 2.1 200 17:58 07.12.2019
2803 Clear 12 1023 66 10000 1 0 17:40 07.12.2019
2804 Clear 12 1023 66 10000 1 0 17:21 07.12.2019
2805 Clear 13 1023 66 10000 1 0 16:57 07.12.2019
2806 Clear 13 1023 66 10000 1 0 16:38 07.12.2019
2807 Clear 13 1023 66 10000 1 0 16:20 07.12.2019
2808 Clear 13 1023 58 10000 1.5 0 15:57 07.12.2019
2809 Clear 13 1023 58 10000 0.5 240 15:38 07.12.2019
2810 Clear 13 1023 58 10000 0.5 240 15:20 07.12.2019
2811 Clear 12 1024 62 10000 1 0 14:42 07.12.2019
2812 Clear 12 1024 62 10000 0.5 0 14:19 07.12.2019
2813 Clear 11 1024 71 10000 1 230 13:56 07.12.2019
2814 Clouds 11 1024 62 10000 0.5 0 13:37 07.12.2019
2815 Clouds 11 1024 62 10000 0.5 0 13:19 07.12.2019
2816 Clouds 10 1025 66 10000 0.5 160 12:41 07.12.2019
2817 Clouds 9 1025 66 10000 0.5 0 12:23 07.12.2019
2818 Clouds 9 1025 66 10000 0.5 0 11:58 07.12.2019
2819 Clouds 8 1025 76 10000 0.5 0 11:40 07.12.2019
2820 Clouds 8 1025 76 10000 0.5 0 11:22 07.12.2019
2821 Clouds 6 1025 81 10000 1.63 36 10:39 07.12.2019
2822 Clouds 6 1025 81 10000 1.63 36 10:20 07.12.2019
2823 Clouds 5 1025 93 10000 0.5 270 09:58 07.12.2019
2824 Clouds 4 1025 100 10000 1 0 09:38 07.12.2019
2825 Clouds 4 1025 100 10000 1 0 09:19 07.12.2019
2826 Clouds 3 1024 100 10000 1.63 36 08:43 07.12.2019
2827 Clear 3 1024 93 10000 1.4 41 08:21 07.12.2019
2828 Clear 3 1024 100 10000 1 350 07:47 07.12.2019
2829 Clear 3 1024 100 10000 0.5 100 07:27 07.12.2019
2830 Clear 4 1024 93 10000 2.1 360 06:51 07.12.2019
2831 Clear 3 1024 93 10000 0.5 340 06:25 07.12.2019
2832 Clear 4 1024 93 10000 0.5 0 05:38 07.12.2019
2833 Clear 5 1024 93 10000 2.1 360 04:19 07.12.2019
2834 Clear 4 1024 93 10000 2.1 340 03:47 07.12.2019
2835 Clouds 5 1024 93 10000 1 350 02:22 07.12.2019
2836 Clouds 6 1024 86 10000 1.5 360 01:35 07.12.2019
2837 Clouds 6 1024 87 10000 1.5 350 00:57 07.12.2019
2838 Clouds 6 1024 87 10000 2.1 340 00:21 07.12.2019
2839 Clouds 6 1024 93 10000 2.6 350 23:56 06.12.2019
2840 Clear 6 1024 93 10000 1.5 340 23:38 06.12.2019
2841 Clear 6 1024 93 10000 1.5 340 23:18 06.12.2019
2842 Clear 6 1023 93 10000 1.5 10 22:39 06.12.2019
2843 Clear 7 1023 93 10000 1.5 10 22:20 06.12.2019
2844 Clear 7 1023 93 10000 1.14 136 21:58 06.12.2019
2845 Clear 7 1023 87 10000 1.14 136 21:39 06.12.2019
2846 Clear 7 1023 87 10000 1.14 136 21:20 06.12.2019
2847 Clear 8 1023 87 10000 0.5 0 20:43 06.12.2019
2848 Clear 8 1023 87 10000 0.5 0 20:25 06.12.2019
2849 Clear 8 1023 81 10000 1.5 150 19:59 06.12.2019
2850 Clear 9 1022 81 10000 1 0 19:40 06.12.2019
2851 Clear 9 1022 81 10000 1 0 19:22 06.12.2019
2852 Clear 9 1022 81 10000 1 0 19:22 06.12.2019
2853 Clear 9 1022 81 10000 1 0 19:22 06.12.2019
2854 Clear 10 1022 71 10000 0.5 120 18:58 06.12.2019
2855 Clear 10 1022 71 10000 1 130 18:40 06.12.2019
2856 Clear 11 1022 71 10000 1 130 18:20 06.12.2019
2857 Clouds 11 1022 66 10000 2.6 140 17:57 06.12.2019
2858 Clouds 12 1022 62 10000 2.1 140 17:38 06.12.2019
2859 Clouds 12 1022 62 10000 2.1 140 17:20 06.12.2019
2860 Clouds 12 1022 58 10000 2.1 130 16:55 06.12.2019
2861 Clouds 13 1022 58 10000 1.5 0 16:37 06.12.2019
2862 Clouds 13 1022 58 10000 0.5 320 16:18 06.12.2019
2863 Clouds 13 1022 58 10000 1.5 0 15:41 06.12.2019
2864 Clouds 13 1022 58 10000 1.5 0 15:19 06.12.2019
2865 Clouds 13 1022 58 10000 1.5 100 14:57 06.12.2019
2866 Clouds 13 1022 58 10000 1.5 100 14:39 06.12.2019
2867 Clouds 12 1023 62 10000 2.1 120 14:19 06.12.2019
2868 Clouds 12 1023 58 10000 1.5 150 13:45 06.12.2019
2869 Clouds 12 1023 66 10000 0.5 0 13:26 06.12.2019
2870 Clouds 11 1023 62 10000 1 0 12:56 06.12.2019
2871 Clouds 11 1024 66 10000 1.5 20 12:38 06.12.2019
2872 Clouds 11 1024 66 10000 1.5 20 12:19 06.12.2019
2873 Clouds 9 1024 76 10000 2.1 360 11:42 06.12.2019
2874 Clouds 9 1024 76 10000 2.1 360 11:23 06.12.2019
2875 Clouds 8 1024 81 10000 2.6 360 10:54 06.12.2019
2876 Clouds 8 1024 76 10000 2.1 360 10:36 06.12.2019
2877 Clouds 8 1024 76 10000 2.1 360 10:18 06.12.2019
2878 Clouds 7 1023 76 10000 1 0 09:54 06.12.2019
2879 Clouds 7 1023 75 10000 1.5 60 09:36 06.12.2019
2880 Clouds 7 1023 75 10000 1.5 60 09:18 06.12.2019
2881 Clouds 7 1023 87 10000 0.5 0 08:40 06.12.2019
2882 Clouds 7 1023 87 10000 0.5 0 08:21 06.12.2019
2883 Clouds 7 1022 87 10000 1.5 10 07:38 06.12.2019
2884 Clouds 7 1022 87 10000 1.5 10 07:20 06.12.2019
2885 Clouds 7 1022 81 10000 2.1 350 06:31 06.12.2019
2886 Clouds 7 1022 81 10000 2.1 350 06:31 06.12.2019
2887 Clouds 7 1022 81 10000 2.6 350 05:57 06.12.2019
2888 Clouds 7 1022 87 10000 2.1 340 05:38 06.12.2019
2889 Clouds 8 1022 81 10000 2.6 340 02:20 06.12.2019
2890 Clouds 8 1022 81 10000 2.1 330 01:43 06.12.2019
2891 Clouds 8 1022 81 10000 2.1 340 00:49 06.12.2019
2892 Clouds 7 1022 81 10000 3.1 340 00:22 06.12.2019
2893 Clouds 8 1022 81 10000 3.1 340 23:50 05.12.2019
2894 Clouds 8 1022 81 10000 2.6 360 23:20 05.12.2019
2895 Clouds 8 1022 81 10000 2.6 340 22:58 05.12.2019
2896 Clouds 8 1021 81 10000 2.6 10 22:38 05.12.2019
2897 Clouds 8 1021 81 10000 2.6 10 22:18 05.12.2019
2898 Clouds 8 1021 81 10000 3.6 340 21:55 05.12.2019
2899 Clouds 8 1021 75 10000 3.1 350 21:37 05.12.2019
2900 Clouds 8 1021 75 10000 3.1 350 21:37 05.12.2019
2901 Clouds 8 1021 75 10000 3.1 350 21:18 05.12.2019
2902 Clouds 9 1021 70 10000 2.1 360 20:54 05.12.2019
2903 Clouds 9 1020 71 10000 2.6 40 20:36 05.12.2019
2904 Clouds 9 1020 71 10000 2.1 0 20:18 05.12.2019
2905 Clouds 9 1019 76 10000 1 0 19:40 05.12.2019
2906 Clouds 10 1019 66 10000 3.6 30 19:21 05.12.2019
2907 Clouds 10 1019 66 10000 3.6 30 18:58 05.12.2019
2908 Clouds 11 1019 66 10000 2.6 20 18:38 05.12.2019
2909 Clouds 11 1019 62 10000 4.6 30 18:20 05.12.2019
2910 Clouds 11 1019 62 10000 4.1 20 17:40 05.12.2019
2911 Clouds 12 1018 58 10000 3.1 30 17:20 05.12.2019
2912 Clouds 12 1018 58 10000 3.1 30 16:58 05.12.2019
2913 Clouds 12 1018 58 10000 3.1 30 16:39 05.12.2019
2914 Clouds 12 1018 58 10000 3.1 30 16:39 05.12.2019
2915 Clouds 12 1018 62 10000 3.6 40 16:21 05.12.2019
2916 Clouds 12 1018 62 10000 3.6 40 15:58 05.12.2019
2917 Clouds 12 1018 62 10000 4.1 20 15:39 05.12.2019
2918 Clouds 12 1018 62 10000 4.1 20 15:20 05.12.2019
2919 Clouds 12 1018 62 10000 3.6 20 14:56 05.12.2019
2920 Clouds 12 1018 62 10000 3.6 20 14:56 05.12.2019
2921 Clouds 12 1018 58 10000 3.6 50 14:37 05.12.2019
2922 Clouds 11 1018 66 10000 2.6 0 14:19 05.12.2019
2923 Clouds 11 1018 66 10000 2.6 0 13:57 05.12.2019
2924 Clouds 11 1018 66 10000 4.6 60 13:39 05.12.2019
2925 Clouds 11 1018 66 10000 4.1 20 13:19 05.12.2019
2926 Clouds 11 1018 66 10000 4.1 20 12:57 05.12.2019
2927 Clouds 11 1019 62 10000 4.1 30 12:38 05.12.2019
2928 Clouds 10 1019 70 10000 5.1 30 12:20 05.12.2019
2929 Clouds 10 1019 70 10000 5.1 30 12:20 05.12.2019
2930 Clouds 10 1018 66 10000 5.1 50 11:39 05.12.2019
2931 Clouds 9 1017 66 10000 3.6 40 11:21 05.12.2019
2932 Clouds 9 1017 66 10000 3.6 40 10:58 05.12.2019
2933 Clouds 9 1017 70 10000 4.1 0 10:40 05.12.2019
2934 Clouds 9 1017 70 10000 4.1 0 10:40 05.12.2019
2935 Clouds 9 1017 70 10000 4.6 40 10:19 05.12.2019
2936 Clouds 8 1017 70 10000 4.6 40 09:55 05.12.2019
2937 Clouds 8 1016 70 10000 5.7 30 09:37 05.12.2019
2938 Clouds 8 1016 70 10000 4.1 30 09:18 05.12.2019
2939 Clouds 8 1016 70 10000 5.1 30 08:39 05.12.2019
2940 Clouds 8 1015 70 10000 3.6 40 08:21 05.12.2019
2941 Clouds 8 1015 70 10000 3.6 40 08:21 05.12.2019
2942 Clouds 8 1015 70 10000 3.6 40 07:59 05.12.2019
2943 Clouds 8 1015 70 10000 3.6 30 07:40 05.12.2019
2944 Clouds 8 1015 66 10000 2.6 20 07:21 05.12.2019
2945 Clouds 8 1014 66 10000 3.1 20 06:47 05.12.2019
2946 Clouds 8 1014 66 10000 3.1 20 06:23 05.12.2019
2947 Clouds 8 1014 66 10000 2.6 20 05:53 05.12.2019
2948 Clouds 8 1014 66 10000 1.5 0 05:24 05.12.2019
2949 Rain 8 1014 66 10000 2.6 20 04:33 05.12.2019
2950 Rain 8 1014 66 10000 2.6 20 04:33 05.12.2019
2951 Clouds 8 1013 70 10000 0.5 10 03:33 05.12.2019
2952 Clouds 8 1012 70 10000 4.1 360 02:41 05.12.2019
2953 Clouds 8 1012 70 10000 5.1 350 02:21 05.12.2019
2954 Clouds 8 1012 76 10000 3.6 350 01:49 05.12.2019
2955 Clouds 8 1011 87 10000 3.1 20 01:22 05.12.2019
2956 Clouds 8 1011 75 10000 1 0 00:38 05.12.2019
2957 Clouds 8 1011 75 10000 1 0 00:20 05.12.2019
2958 Clouds 8 1011 75 10000 1 0 23:45 04.12.2019
2959 Clouds 7 1011 75 10000 1 0 23:22 04.12.2019
2960 Clouds 8 1011 75 10000 1 0 22:57 04.12.2019
2961 Clouds 8 1010 81 10000 1.5 310 22:38 04.12.2019
2962 Clouds 8 1010 81 10000 1.5 310 22:19 04.12.2019
2963 Clouds 9 1010 70 10000 1 0 21:56 04.12.2019
2964 Clouds 9 1010 70 10000 1 0 21:56 04.12.2019
2965 Clouds 9 1010 75 10000 0.5 30 21:37 04.12.2019
2966 Clouds 9 1010 71 10000 2.6 50 21:19 04.12.2019
2967 Clouds 9 1010 71 10000 2.6 50 20:56 04.12.2019
2968 Clouds 9 1010 71 10000 3.1 50 20:38 04.12.2019
2969 Clouds 9 1010 71 10000 2.6 40 20:19 04.12.2019
2970 Clouds 10 1009 76 10000 2.6 50 19:42 04.12.2019
2971 Clouds 10 1009 76 10000 1.5 40 19:24 04.12.2019
2972 Clouds 10 1009 76 10000 1.5 40 18:59 04.12.2019
2973 Rain 10 1009 76 10000 2.1 30 18:41 04.12.2019
2974 Rain 10 1009 76 10000 2.1 30 18:22 04.12.2019
2975 Drizzle 10 1009 76 10000 2.1 20 17:58 04.12.2019
2976 Rain 10 1009 71 10000 2.6 40 17:39 04.12.2019
2977 Rain 10 1008 71 10000 3.1 50 17:20 04.12.2019
2978 Clouds 11 1008 71 10000 5.1 30 16:56 04.12.2019
2979 Clouds 11 1008 71 10000 5.1 30 16:38 04.12.2019
2980 Clouds 11 1008 66 10000 2.6 20 16:19 04.12.2019
2981 Clouds 11 1008 66 10000 2.6 20 16:19 04.12.2019
2982 Clouds 11 1008 71 10000 1.5 10 15:55 04.12.2019
2983 Clouds 11 1008 71 10000 1.5 10 15:36 04.12.2019
2984 Clouds 11 1008 76 10000 2.6 360 15:18 04.12.2019
2985 Clouds 11 1008 76 10000 2.6 20 14:42 04.12.2019
2986 Clouds 10 1008 76 10000 2.6 20 14:23 04.12.2019
2987 Clouds 10 1008 76 10000 3.6 20 14:23 04.12.2019
2988 Clouds 10 1008 76 10000 3.6 20 13:57 04.12.2019
2989 Rain 10 1009 81 10000 3.1 20 13:37 04.12.2019
2990 Clouds 10 1009 76 10000 2.1 20 13:19 04.12.2019
2991 Clouds 9 1010 76 10000 2.6 10 12:44 04.12.2019
2992 Clouds 9 1010 76 10000 2.1 20 12:24 04.12.2019
2993 Clouds 9 1010 76 10000 2.1 20 11:55 04.12.2019
2994 Clouds 9 1010 81 10000 3.1 40 11:36 04.12.2019
2995 Clouds 8 1010 81 10000 2.6 30 11:18 04.12.2019
2996 Clouds 7 1010 87 10000 2.1 30 10:42 04.12.2019
2997 Clouds 7 1010 87 10000 2.1 30 10:22 04.12.2019
2998 Rain 7 1010 87 9000 2.6 40 09:55 04.12.2019
2999 Rain 7 1010 87 9000 2.6 40 09:37 04.12.2019
3000 Rain 7 1010 93 8000 4.6 30 09:18 04.12.2019
3001 Rain 7 1010 93 9000 2.6 360 08:39 04.12.2019
3002 Rain 6 1010 93 8000 2.6 10 08:20 04.12.2019
3003 Rain 6 1010 81 10000 2.1 20 07:48 04.12.2019
3004 Rain 6 1010 81 10000 2.1 20 07:30 04.12.2019
3005 Rain 6 1011 81 10000 3.1 360 06:34 04.12.2019
3006 Clouds 6 1011 87 10000 2.6 340 05:48 04.12.2019
3007 Clouds 5 1012 87 10000 2.1 350 04:58 04.12.2019
3008 Clouds 5 1012 87 10000 1.5 350 03:56 04.12.2019
3009 Clouds 5 1013 86 10000 3.1 350 02:47 04.12.2019
3010 Clouds 6 1014 75 10000 3.1 10 00:52 04.12.2019
3011 Clouds 6 1014 75 10000 3.1 10 00:27 04.12.2019
3012 Clouds 6 1014 75 10000 2.1 350 23:59 03.12.2019
3013 Clouds 6 1014 81 10000 2.1 350 23:40 03.12.2019
3014 Clouds 6 1014 75 10000 0.5 0 23:19 03.12.2019
3015 Clouds 6 1014 75 10000 0.5 0 23:19 03.12.2019
3016 Clouds 6 1014 81 10000 2.6 340 22:41 03.12.2019
3017 Clouds 6 1014 81 10000 2.6 330 22:19 03.12.2019
3018 Clouds 6 1014 81 10000 2.6 330 21:59 03.12.2019
3019 Clouds 6 1014 75 10000 3.1 350 21:38 03.12.2019
3020 Clouds 7 1014 75 10000 2.6 360 21:19 03.12.2019
3021 Clouds 7 1014 75 10000 2.6 360 20:58 03.12.2019
3022 Clouds 6 1014 75 10000 2.1 360 20:40 03.12.2019
3023 Clouds 6 1014 81 10000 2.1 350 20:19 03.12.2019
3024 Clouds 7 1014 81 10000 2.1 350 19:55 03.12.2019
3025 Rain 7 1014 81 10000 2.1 360 19:55 03.12.2019
3026 Rain 7 1014 81 10000 2.1 360 19:37 03.12.2019
3027 Clouds 7 1013 70 10000 1 0 19:18 03.12.2019
3028 Clouds 7 1013 70 10000 1 0 19:18 03.12.2019
3029 Clouds 8 1013 70 10000 1 0 18:56 03.12.2019
3030 Clouds 8 1013 61 10000 2.1 10 18:38 03.12.2019
3031 Clouds 8 1013 61 10000 2.1 10 18:20 03.12.2019
3032 Clouds 8 1013 61 10000 2.1 20 17:56 03.12.2019
3033 Clouds 8 1013 61 10000 1.5 50 17:36 03.12.2019
3034 Clouds 9 1013 53 10000 1.5 40 17:18 03.12.2019
3035 Clouds 9 1013 53 10000 1.5 40 16:56 03.12.2019
3036 Clouds 9 1013 57 10000 2.1 70 16:37 03.12.2019
3037 Clouds 9 1013 53 10000 2.1 10 16:19 03.12.2019
3038 -273 0 0 0 0 0 15:54 03.12.2019
3039 Clouds 10 1013 53 10000 2.1 20 15:36 03.12.2019
3040 Clouds 9 1014 57 10000 2.1 30 15:18 03.12.2019
3041 Clouds 9 1014 52 10000 2.6 40 14:41 03.12.2019
3042 Clouds 8 1015 56 10000 2.6 40 14:20 03.12.2019
3043 Clouds 8 1015 56 10000 2.6 40 13:54 03.12.2019
3044 Clouds 8 1015 56 10000 3.1 50 13:36 03.12.2019
3045 Clouds 8 1016 55 10000 3.1 50 13:18 03.12.2019
3046 Clouds 8 1016 55 10000 3.1 40 12:40 03.12.2019
3047 Clouds 7 1016 55 10000 2.6 40 12:18 03.12.2019
3048 Clouds 7 1016 55 10000 2.6 40 11:58 03.12.2019
3049 Clear 6 1016 60 10000 3.6 40 11:38 03.12.2019
3050 Clouds 5 1016 52 10000 6.35 46 11:20 03.12.2019
3051 Clouds 5 1016 72 10000 3.1 20 10:57 03.12.2019
3052 Clouds 4 1016 72 10000 4.1 20 10:39 03.12.2019
3053 Clouds 4 1016 65 10000 3.1 40 10:19 03.12.2019
3054 Clouds 3 1016 69 10000 3.1 20 09:46 03.12.2019
3055 Clouds 3 1016 69 10000 3.6 20 09:25 03.12.2019
3056 Clouds 3 1016 69 10000 3.6 20 08:59 03.12.2019
3057 Clouds 3 1016 65 10000 2.6 30 08:40 03.12.2019
3058 Clouds 3 1016 65 10000 2.6 20 08:21 03.12.2019
3059 Clouds 3 1016 74 10000 3.1 20 07:53 03.12.2019
3060 Clouds 3 1016 74 10000 3.1 20 07:29 03.12.2019
3061 Clouds 3 1017 74 10000 3.1 360 06:58 03.12.2019
3062 Clouds 4 1017 74 10000 3.1 20 06:21 03.12.2019
3063 Clouds 4 1017 74 10000 3.1 20 05:56 03.12.2019
3064 Clouds 4 1017 71 10000 2.1 350 03:45 03.12.2019
3065 Clouds 3 1017 71 10000 2.1 350 03:23 03.12.2019
3066 Clouds 4 1017 71 10000 3.1 10 02:57 03.12.2019
3067 Clouds 4 1017 71 10000 2.6 10 02:39 03.12.2019
3068 Clouds 4 1018 69 10000 4.1 10 02:21 03.12.2019
3069 Clouds 4 1018 75 10000 3.1 10 01:40 03.12.2019
3070 Clouds 4 1018 75 10000 3.1 10 01:20 03.12.2019
3071 Clouds 5 1018 80 10000 3.6 10 00:42 03.12.2019
3072 Clouds 5 1018 80 10000 3.6 10 00:23 03.12.2019
3073 Clouds 5 1018 75 10000 4.1 350 23:44 02.12.2019
3074 Clouds 6 1018 70 10000 3.6 30 23:22 02.12.2019
3075 Clouds 6 1018 70 10000 3.6 30 22:58 02.12.2019
3076 Clouds 6 1018 65 10000 3.1 20 22:39 02.12.2019
3077 Clouds 6 1018 61 10000 4.1 30 22:20 02.12.2019
3078 Clouds 7 1018 61 10000 4.1 30 21:54 02.12.2019
3079 Clouds 7 1018 65 10000 4.1 30 21:36 02.12.2019
3080 Clouds 8 1017 65 10000 4.1 20 21:18 02.12.2019
3081 Clouds 8 1017 65 10000 4.1 20 20:55 02.12.2019
3082 Clouds 8 1017 65 10000 4.1 20 20:55 02.12.2019
3083 Clouds 7 1017 61 10000 4.6 30 20:36 02.12.2019
3084 Clouds 8 1017 61 10000 4.1 20 20:18 02.12.2019
3085 Clouds 8 1017 61 10000 4.6 30 19:41 02.12.2019
3086 Clouds 8 1017 61 10000 4.6 30 19:41 02.12.2019
3087 Clouds 8 1016 57 10000 4.6 30 19:21 02.12.2019
3088 Clouds 9 1016 57 10000 4.6 30 18:55 02.12.2019
3089 Clouds 9 1016 57 10000 4.1 0 18:36 02.12.2019
3090 Clouds 10 1016 61 10000 4.1 30 18:18 02.12.2019
3091 Clouds 10 1016 61 10000 4.1 30 18:18 02.12.2019
3092 Clouds 10 1015 57 10000 3.1 50 17:41 02.12.2019
3093 Clear 10 1015 57 10000 3.6 40 17:21 02.12.2019
3094 Clear 10 1015 57 10000 3.6 40 16:59 02.12.2019
3095 Clouds 11 1015 53 10000 4.6 40 16:39 02.12.2019
3096 Clouds 11 1015 53 10000 4.6 40 16:39 02.12.2019
3097 Clouds 11 1015 53 10000 4.6 40 16:18 02.12.2019
3098 Clouds 11 1015 50 10000 3.6 30 15:56 02.12.2019
3099 Clouds 11 1015 53 10000 5.1 40 15:38 02.12.2019
3100 Clouds 11 1015 53 10000 5.1 30 15:20 02.12.2019
3101 Clouds 11 1015 53 10000 5.1 30 14:55 02.12.2019
3102 Clouds 11 1015 57 10000 4.6 40 14:37 02.12.2019
3103 Clouds 11 1016 61 10000 5.7 40 14:19 02.12.2019
3104 Clouds 10 1016 61 10000 4.6 30 13:54 02.12.2019
3105 Clouds 10 1016 61 10000 4.6 30 13:36 02.12.2019
3106 Clouds 10 1016 66 10000 5.7 30 13:18 02.12.2019
3107 Clouds 9 1016 66 10000 5.7 30 12:41 02.12.2019
3108 Clouds 9 1016 70 10000 5.7 30 12:20 02.12.2019
3109 Clouds 8 1016 70 10000 5.7 30 11:57 02.12.2019
3110 Clouds 8 1016 70 10000 5.1 30 11:37 02.12.2019
3111 Clouds 7 1016 70 10000 4.6 40 11:19 02.12.2019
3112 Clouds 7 1016 70 10000 4.6 40 10:57 02.12.2019
3113 Clouds 6 1015 70 10000 5.7 30 10:38 02.12.2019
3114 Clouds 6 1015 70 10000 5.1 30 10:20 02.12.2019
3115 Clouds 5 1015 70 10000 4.6 0 09:42 02.12.2019
3116 Clouds 5 1014 70 10000 4.6 40 09:19 02.12.2019
3117 Clouds 5 1014 70 10000 4.6 40 08:59 02.12.2019
3118 Clouds 5 1014 70 10000 4.6 40 08:40 02.12.2019
3119 Clouds 5 1014 70 10000 4.6 40 08:22 02.12.2019
3120 Clouds 6 1013 70 10000 5.1 40 07:45 02.12.2019
3121 Clouds 6 1013 70 10000 5.1 40 07:45 02.12.2019
3122 Clouds 6 1013 70 10000 5.1 40 07:25 02.12.2019
3123 Clouds 6 1014 75 10000 4.6 20 06:59 02.12.2019
3124 Clouds 6 1013 75 10000 4.1 30 06:39 02.12.2019
3125 Clouds 6 1013 81 10000 2.6 20 05:36 02.12.2019
3126 Clouds 7 1013 75 10000 3.6 30 04:55 02.12.2019
3127 Drizzle 7 1012 75 10000 3.6 40 02:56 02.12.2019
3128 Clouds 7 1012 81 10000 3.1 40 02:38 02.12.2019
3129 Drizzle 7 1012 81 10000 4.1 30 01:30 02.12.2019
3130 Drizzle 7 1012 87 10000 3.6 40 00:59 02.12.2019
3131 Drizzle 7 1012 87 10000 3.1 40 00:30 02.12.2019
3132 Rain 7 1012 93 10000 3.6 40 23:57 01.12.2019
3133 Rain 7 1012 93 10000 3.6 40 23:39 01.12.2019
3134 Rain 7 1011 93 10000 1.5 30 23:20 01.12.2019
3135 Rain 7 1011 93 10000 2.1 30 22:56 01.12.2019
3136 Rain 8 1011 93 10000 2.1 30 22:38 01.12.2019
3137 Rain 8 1011 93 10000 2.1 20 22:18 01.12.2019
3138 Rain 8 1011 93 10000 2.1 20 21:56 01.12.2019
3139 Rain 8 1011 93 10000 2.1 30 21:38 01.12.2019
3140 Rain 8 1011 93 10000 2.1 30 21:19 01.12.2019
3141 Rain 8 1011 100 10000 2.6 30 20:56 01.12.2019
3142 Rain 7 1011 100 5000 2.1 360 20:37 01.12.2019
3143 Rain 7 1011 100 5000 2.1 360 20:37 01.12.2019
3144 Rain 7 1011 100 5000 2.1 360 20:19 01.12.2019
3145 Rain 7 1011 93 5000 1.5 30 19:55 01.12.2019
3146 Rain 7 1010 100 5000 1.5 50 19:37 01.12.2019
3147 Rain 8 1010 100 5000 2.1 80 19:19 01.12.2019
3148 Rain 8 1010 100 5000 2.1 80 18:55 01.12.2019
3149 Rain 8 1010 100 7000 1 0 18:37 01.12.2019
3150 Rain 8 1010 100 7000 1 0 18:18 01.12.2019
3151 Rain 8 1010 93 9000 1.5 110 18:18 01.12.2019
3152 Rain 8 1010 100 7000 1 0 18:18 01.12.2019
3153 Rain 8 1010 93 9000 1.5 110 17:56 01.12.2019
3154 Rain 8 1010 100 8000 2.6 110 17:38 01.12.2019
3155 Rain 8 1010 100 8000 2.1 130 17:19 01.12.2019
3156 Rain 8 1010 93 8000 2.6 140 16:43 01.12.2019
3157 Rain 8 1010 87 8000 3.1 120 16:24 01.12.2019
3158 Rain 8 1011 87 7000 2.6 110 15:53 01.12.2019
3159 Rain 8 1011 87 7000 2.6 110 15:33 01.12.2019
3160 Rain 8 1010 100 3000 1.5 90 14:59 01.12.2019
3161 Rain 8 1011 100 2500 1.01 97 14:38 01.12.2019
3162 Rain 8 1011 100 2500 2.1 30 14:19 01.12.2019
3163 Rain 7 1011 100 10000 3.1 120 13:40 01.12.2019
3164 Rain 8 1011 100 10000 3.1 120 13:40 01.12.2019
3165 Rain 7 1011 93 2000 1 0 13:21 01.12.2019
3166 Rain 7 1011 93 2000 1 0 13:21 01.12.2019
3167 Rain 8 1012 93 4000 2.1 90 12:47 01.12.2019
3168 Rain 8 1012 93 4000 2.1 90 12:19 01.12.2019
3169 Rain 7 1012 93 10000 2.1 80 11:44 01.12.2019
3170 Rain 7 1012 93 10000 2.1 80 11:24 01.12.2019
3171 Drizzle 7 1013 93 7000 1 180 10:55 01.12.2019
3172 Drizzle 7 1013 93 7000 1 180 10:37 01.12.2019
3173 Drizzle 6 1012 93 1500 3.13 210 10:18 01.12.2019
3174 Drizzle 7 1012 93 9000 1 0 09:41 01.12.2019
3175 Drizzle 7 1012 93 9000 1.5 360 09:21 01.12.2019
3176 Drizzle 6 1012 93 9000 1.5 360 08:49 01.12.2019
3177 Clouds 6 1012 93 10000 3.54 217 08:23 01.12.2019
3178 Clouds 6 1013 93 10000 3.54 217 07:53 01.12.2019
3179 Clouds 6 1012 93 10000 3.54 217 07:32 01.12.2019
3180 Clouds 6 1013 100 10000 2.1 360 06:58 01.12.2019
3181 Clouds 6 1013 100 10000 2.1 360 06:40 01.12.2019
3182 Clouds 6 1012 93 8000 2.1 10 05:55 01.12.2019
3183 Clouds 6 1013 93 10000 1.5 180 04:54 01.12.2019
3184 Clouds 7 1013 93 10000 2.1 190 04:22 01.12.2019
3185 Rain 7 1014 93 10000 3.1 190 02:43 01.12.2019
3186 Rain 7 1014 100 10000 1 0 02:24 01.12.2019
3187 Rain 7 1015 100 10000 1 0 01:53 01.12.2019
3188 Clouds 7 1015 100 10000 1 0 01:26 01.12.2019
3189 Clouds 8 1015 93 10000 3.6 150 00:44 01.12.2019
3190 Rain 7 1015 93 10000 3.6 150 00:26 01.12.2019
3191 Rain 7 1015 93 8000 3.1 110 23:45 30.11.2019
3192 Rain 8 1015 100 8000 2.1 110 23:25 30.11.2019
3193 Rain 8 1015 100 8000 2.1 110 22:58 30.11.2019
3194 Drizzle 8 1016 93 10000 1.5 10 22:39 30.11.2019
3195 Rain 8 1016 93 7000 3.6 330 22:20 30.11.2019
3196 Rain 9 1016 93 4900 4.6 300 21:47 30.11.2019
3197 Rain 9 1016 93 4900 4.6 300 21:28 30.11.2019
3198 Rain 9 1016 93 4900 4.6 300 21:28 30.11.2019
3199 Rain 10 1015 93 4500 6.2 250 20:58 30.11.2019
3200 Drizzle 11 1015 87 10000 5.1 210 20:39 30.11.2019
3201 Clouds 12 1015 87 10000 6.2 220 20:19 30.11.2019
3202 Clouds 12 1015 87 10000 6.2 220 20:19 30.11.2019
3203 Clouds 12 1015 87 10000 6.2 220 19:56 30.11.2019
3204 Clouds 12 1015 87 10000 5.7 210 19:38 30.11.2019
3205 Clouds 12 1015 87 10000 5.7 210 19:20 30.11.2019
3206 Clouds 12 1015 82 10000 5.1 210 18:58 30.11.2019
3207 Clouds 12 1015 82 10000 6.2 210 18:38 30.11.2019
3208 Clouds 13 1015 82 10000 6.2 210 18:20 30.11.2019
3209 Clouds 13 1015 82 10000 6.2 210 17:58 30.11.2019
3210 Clouds 13 1016 82 10000 4.6 230 17:39 30.11.2019
3211 Clouds 13 1016 82 10000 5.7 230 17:20 30.11.2019
3212 Clouds 13 1016 82 10000 5.7 230 16:57 30.11.2019
3213 Drizzle 13 1016 87 8000 6.7 220 16:39 30.11.2019
3214 Clouds 13 1017 76 10000 5.1 220 16:20 30.11.2019
3215 Clouds 13 1017 76 10000 5.7 210 15:42 30.11.2019
3216 Clouds 13 1017 76 10000 5.7 210 15:42 30.11.2019
3217 Clouds 14 1017 76 10000 7.2 210 15:19 30.11.2019
3218 Clouds 13 1017 76 10000 7.2 210 14:58 30.11.2019
3219 Clouds 13 1018 76 10000 5.1 220 14:38 30.11.2019
3220 Clouds 13 1019 82 10000 6.2 220 14:19 30.11.2019
3221 Clouds 13 1019 82 10000 6.2 220 13:58 30.11.2019
3222 Clouds 13 1019 82 10000 6.2 200 13:38 30.11.2019
3223 Clouds 13 1019 82 10000 6.7 210 13:19 30.11.2019
3224 Clouds 13 1020 82 10000 7.2 210 12:47 30.11.2019
3225 Clouds 12 1020 82 10000 7.2 210 12:29 30.11.2019
3226 Rain 12 1020 87 10000 6.7 210 11:58 30.11.2019
3227 Rain 12 1020 82 10000 5.7 210 11:40 30.11.2019
3228 Clouds 12 1020 87 10000 5.1 220 11:18 30.11.2019
3229 Clouds 12 1020 93 10000 4.6 220 10:45 30.11.2019
3230 Clouds 11 1020 93 10000 4.1 200 10:21 30.11.2019
3231 Clouds 12 1020 93 10000 4.1 200 09:59 30.11.2019
3232 Fog 12 1020 100 300 2.6 220 09:40 30.11.2019
3233 Clouds 12 1020 93 10000 5.1 220 09:20 30.11.2019
3234 Clouds 12 1020 93 10000 4.6 220 08:41 30.11.2019
3235 Clouds 11 1020 93 10000 5.1 240 08:19 30.11.2019
3236 Clouds 11 1020 100 6000 4.6 220 07:43 30.11.2019
3237 Clouds 11 1020 93 9000 3.6 190 07:24 30.11.2019
3238 Clouds 11 1020 93 9000 3.1 210 06:46 30.11.2019
3239 Clouds 11 1020 93 9000 3.1 210 06:27 30.11.2019
3240 Clouds 11 1020 93 9000 2.1 190 05:29 30.11.2019
3241 Clouds 11 1021 93 9000 3.1 170 03:40 30.11.2019
3242 Clouds 11 1021 93 9000 2.1 170 02:26 30.11.2019
3243 Clouds 11 1021 93 9000 2.1 170 02:26 30.11.2019
3244 Drizzle 12 1022 100 4000 2.1 210 01:56 30.11.2019
3245 Clouds 12 1022 93 9000 3.1 190 01:24 30.11.2019
3246 Clouds 11 1022 93 9000 4.1 230 00:46 30.11.2019
3247 Clouds 11 1022 93 9000 4.1 230 00:27 30.11.2019
3248 Clouds 11 1021 93 10000 3.6 240 23:45 29.11.2019
3249 Clouds 12 1021 93 10000 3.6 240 23:25 29.11.2019
3250 Clouds 12 1021 93 10000 2.1 210 22:58 29.11.2019
3251 Clouds 12 1021 93 10000 3.1 190 22:39 29.11.2019
3252 Clouds 12 1021 93 10000 3.1 190 22:21 29.11.2019
3253 Clouds 13 1021 87 10000 2.6 200 21:41 29.11.2019
3254 Clouds 13 1021 87 10000 2.6 0 21:22 29.11.2019
3255 Clouds 13 1021 87 10000 2.6 0 20:56 29.11.2019
3256 Clouds 12 1021 93 10000 4.6 220 20:37 29.11.2019
3257 Clouds 12 1021 93 10000 4.1 220 20:18 29.11.2019
3258 Clouds 12 1021 93 10000 4.1 220 19:55 29.11.2019
3259 Clouds 12 1021 93 10000 3.6 220 19:37 29.11.2019
3260 Clouds 12 1021 93 10000 3.6 220 19:37 29.11.2019
3261 Clouds 13 1021 87 10000 3.6 240 19:18 29.11.2019
3262 Clouds 13 1021 87 10000 3.6 240 19:18 29.11.2019
3263 Clouds 13 1021 93 10000 4.1 240 18:42 29.11.2019
3264 Clouds 13 1021 93 10000 4.1 240 18:24 29.11.2019
3265 Clouds 14 1021 87 10000 4.6 230 17:57 29.11.2019
3266 Clouds 14 1021 87 10000 5.1 240 17:39 29.11.2019
3267 Clouds 13 1021 93 10000 4.6 210 17:20 29.11.2019
3268 Clouds 13 1020 87 10000 4.6 230 16:43 29.11.2019
3269 Clouds 14 1020 87 10000 4.6 230 16:21 29.11.2019
3270 Rain 14 1020 87 10000 3.6 220 15:57 29.11.2019
3271 Rain 14 1020 87 10000 4.6 230 15:39 29.11.2019
3272 Rain 14 1020 87 10000 4.6 230 15:20 29.11.2019
3273 Rain 14 1021 87 10000 5.1 250 14:40 29.11.2019
3274 Clouds 14 1021 93 10000 5.1 250 14:21 29.11.2019
3275 Clouds 14 1021 93 10000 5.1 250 13:57 29.11.2019
3276 Clouds 14 1021 87 10000 5.7 240 13:38 29.11.2019
3277 Clouds 14 1021 87 10000 5.7 240 13:19 29.11.2019
3278 Rain 13 1021 82 10000 2.1 200 12:43 29.11.2019
3279 Rain 13 1021 93 10000 5.7 250 12:25 29.11.2019
3280 Clouds 13 1021 93 10000 5.7 250 11:56 29.11.2019
3281 Clouds 13 1021 93 10000 5.1 240 11:38 29.11.2019
3282 Clouds 12 1021 93 10000 6.7 240 11:19 29.11.2019
3283 Clouds 12 1021 93 10000 6.7 240 10:57 29.11.2019
3284 Clouds 12 1021 93 10000 6.7 240 10:39 29.11.2019
3285 Clouds 12 1020 93 10000 5.7 230 10:20 29.11.2019
3286 Clouds 12 1020 93 10000 5.7 230 09:58 29.11.2019
3287 Clouds 12 1020 93 10000 6.2 230 09:39 29.11.2019
3288 Clouds 12 1019 93 10000 6.7 240 09:20 29.11.2019
3289 Clouds 11 1019 93 10000 6.7 240 08:55 29.11.2019
3290 Clouds 11 1019 93 10000 5.7 230 08:37 29.11.2019
3291 Clouds 12 1019 93 10000 5.1 220 08:18 29.11.2019
3292 Clouds 12 1019 93 10000 6.2 230 07:41 29.11.2019
3293 Clouds 11 1018 93 10000 6.2 230 07:23 29.11.2019
3294 Clouds 11 1018 93 10000 6.7 230 06:49 29.11.2019
3295 Clouds 11 1018 93 10000 6.7 230 06:28 29.11.2019
3296 Clouds 11 1018 93 10000 3.6 210 05:32 29.11.2019
3297 Clouds 11 1018 93 10000 3.6 210 05:32 29.11.2019
3298 Clouds 11 1018 93 10000 3.6 210 05:32 29.11.2019
3299 Clouds 11 1018 93 10000 3.6 210 05:32 29.11.2019
3300 Clouds 11 1018 93 10000 2.6 160 04:57 29.11.2019
3301 Clouds 11 1017 87 10000 6.7 230 03:41 29.11.2019
3302 Clouds 11 1017 87 10000 6.7 230 03:18 29.11.2019
3303 Clouds 11 1017 87 10000 5.7 230 02:24 29.11.2019
3304 Clouds 11 1017 87 10000 5.7 230 01:45 29.11.2019
3305 Clouds 11 1017 87 10000 5.7 230 01:23 29.11.2019
3306 Clouds 11 1017 87 10000 6.2 230 00:40 29.11.2019
3307 Clouds 10 1017 87 10000 6.7 230 00:18 29.11.2019
3308 Clouds 11 1017 87 10000 6.2 230 23:42 28.11.2019
3309 Clouds 11 1017 87 10000 5.1 230 23:21 28.11.2019
3310 Clouds 11 1017 87 10000 5.1 230 22:57 28.11.2019
3311 Clouds 11 1017 87 10000 7.7 240 22:37 28.11.2019
3312 Clouds 11 1017 87 10000 7.7 240 22:37 28.11.2019
3313 Clouds 11 1017 81 10000 7.7 240 22:19 28.11.2019
3314 Clouds 11 1017 81 10000 7.7 240 21:55 28.11.2019
3315 Clouds 11 1017 81 10000 7.2 230 21:36 28.11.2019
3316 Clouds 11 1017 81 10000 7.2 240 21:18 28.11.2019
3317 Clouds 11 1017 87 10000 5.1 230 20:42 28.11.2019
3318 Clouds 11 1017 87 10000 5.1 230 20:22 28.11.2019
3319 Clouds 11 1017 93 10000 5.1 230 19:58 28.11.2019
3320 Clouds 11 1017 93 10000 5.1 220 19:40 28.11.2019
3321 Clouds 11 1017 93 10000 5.1 220 19:22 28.11.2019
3322 Clouds 11 1016 93 10000 6.7 220 18:59 28.11.2019
3323 Clouds 11 1017 81 10000 5.1 220 18:39 28.11.2019
3324 Clouds 11 1016 81 10000 5.1 220 18:18 28.11.2019
3325 Clouds 11 1016 81 10000 5.1 220 18:18 28.11.2019
3326 Clouds 11 1016 81 10000 5.1 220 17:59 28.11.2019
3327 Clouds 11 1016 81 10000 5.1 220 17:41 28.11.2019
3328 Clouds 11 1016 81 10000 5.1 220 17:41 28.11.2019
3329 Clouds 11 1016 81 10000 5.7 220 17:21 28.11.2019
3330 Clouds 11 1016 81 10000 5.7 220 16:56 28.11.2019
3331 -273 0 0 0 0 0 16:55 28.11.2019
3332 Clouds 11 1017 81 10000 6.7 230 16:37 28.11.2019
3333 Clouds 11 1016 87 10000 7.2 220 16:18 28.11.2019
3334 Clouds 11 1016 87 10000 5.7 210 15:41 28.11.2019
3335 Clouds 11 1017 87 10000 5.7 220 15:20 28.11.2019
3336 Clouds 11 1017 87 10000 5.7 220 14:58 28.11.2019
3337 Clouds 11 1017 87 10000 5.1 220 14:40 28.11.2019
3338 Clouds 11 1017 87 10000 5.7 220 14:20 28.11.2019
3339 Clouds 11 1017 87 10000 5.7 220 13:55 28.11.2019
3340 Clouds 11 1018 87 10000 6.2 240 13:37 28.11.2019
3341 Clouds 11 1018 87 8000 5.7 220 13:19 28.11.2019
3342 Clouds 11 1018 93 10000 5.7 230 12:41 28.11.2019
3343 Clouds 11 1018 93 10000 5.7 230 12:23 28.11.2019
3344 Clouds 10 1018 87 10000 4.6 220 11:56 28.11.2019
3345 Clouds 10 1018 93 10000 6.2 230 11:38 28.11.2019
3346 Clouds 10 1018 93 10000 6.7 230 11:20 28.11.2019
3347 Clouds 9 1017 93 10000 6.7 230 10:42 28.11.2019
3348 Clouds 9 1017 93 10000 6.7 230 10:22 28.11.2019
3349 Clouds 9 1017 87 10000 6.7 230 09:59 28.11.2019
3350 Clouds 9 1017 100 10000 6.7 230 09:40 28.11.2019
3351 Clouds 9 1017 100 10000 6.7 230 09:20 28.11.2019
3352 Clouds 9 1017 100 10000 6.7 230 09:20 28.11.2019
3353 Clouds 8 1016 93 10000 3.6 230 08:54 28.11.2019
3354 Clouds 8 1016 93 10000 3.6 230 08:36 28.11.2019
3355 Clouds 8 1016 100 10000 3.6 220 08:18 28.11.2019
3356 Clouds 8 1016 93 10000 4.1 220 07:41 28.11.2019
3357 Clouds 8 1016 87 10000 5.1 220 07:23 28.11.2019
3358 Clouds 8 1015 87 10000 6.2 230 06:43 28.11.2019
3359 Clouds 8 1015 87 10000 7.2 230 06:18 28.11.2019
3360 Clouds 8 1015 87 10000 6.7 230 05:44 28.11.2019
3361 Clear 8 1015 87 10000 5.7 240 04:54 28.11.2019
3362 Clear 8 1015 93 10000 2.6 190 02:33 28.11.2019
3363 Clouds 9 1015 81 10000 5.7 240 01:28 28.11.2019
3364 Clouds 9 1015 81 10000 6.2 230 00:43 28.11.2019
3365 Clouds 9 1015 87 10000 6.2 260 00:20 28.11.2019
3366 Clouds 9 1015 87 10000 6.2 260 23:40 27.11.2019
3367 Clouds 9 1014 76 10000 5.7 240 23:22 27.11.2019
3368 Clouds 10 1014 76 10000 5.7 240 22:58 27.11.2019
3369 Clouds 10 1014 81 10000 5.7 230 22:38 27.11.2019
3370 Clouds 10 1014 81 10000 6.2 240 22:19 27.11.2019
3371 Clouds 10 1014 81 10000 6.2 240 21:56 27.11.2019
3372 Clouds 10 1014 87 10000 5.1 240 21:37 27.11.2019
3373 Clouds 10 1014 87 10000 5.1 240 21:19 27.11.2019
3374 Clouds 11 1014 87 10000 6.7 250 20:57 27.11.2019
3375 Clouds 11 1014 81 10000 6.7 240 20:38 27.11.2019
3376 Clouds 11 1014 81 10000 5.7 240 20:19 27.11.2019
3377 Clouds 11 1014 81 10000 5.7 240 19:57 27.11.2019
3378 Clouds 11 1014 81 10000 6.2 240 19:38 27.11.2019
3379 Clouds 11 1014 81 10000 6.2 240 19:19 27.11.2019
3380 Clouds 11 1013 81 10000 5.1 240 18:58 27.11.2019
3381 Clouds 11 1013 81 10000 6.2 240 18:36 27.11.2019
3382 Clouds 12 1013 71 10000 7.2 230 18:18 27.11.2019
3383 Clouds 12 1013 71 10000 7.2 230 17:55 27.11.2019
3384 Clouds 12 1013 71 10000 7.2 230 17:37 27.11.2019
3385 Clouds 12 1012 71 10000 7.2 230 17:18 27.11.2019
3386 Clouds 12 1012 71 10000 7.2 230 16:56 27.11.2019
3387 Clouds 12 1012 71 10000 7.2 230 16:55 27.11.2019
3388 Clouds 12 1012 71 10000 7.2 230 16:55 27.11.2019
3389 Clouds 12 1012 71 10000 7.7 240 16:36 27.11.2019
3390 Clouds 13 1012 71 10000 6.7 220 16:18 27.11.2019
3391 Clouds 13 1012 71 10000 6.7 220 15:56 27.11.2019
3392 Clouds 13 1013 66 10000 5.7 230 15:37 27.11.2019
3393 Clouds 12 1012 71 10000 6.7 210 15:19 27.11.2019
3394 Clouds 13 1013 71 10000 6.2 230 14:56 27.11.2019
3395 Clouds 13 1013 71 10000 6.2 230 14:38 27.11.2019
3396 Clouds 12 1013 66 10000 6.7 230 14:19 27.11.2019
3397 Clouds 13 1013 66 10000 6.7 230 13:55 27.11.2019
3398 Clouds 12 1013 76 10000 7.2 230 13:37 27.11.2019
3399 Clouds 12 1014 81 10000 7.2 230 13:18 27.11.2019
3400 Clouds 12 1014 81 10000 6.2 240 12:41 27.11.2019
3401 Clouds 12 1014 81 10000 6.2 240 12:41 27.11.2019
3402 Clouds 11 1014 87 10000 6.2 240 12:21 27.11.2019
3403 Clouds 11 1014 87 10000 6.2 240 11:56 27.11.2019
3404 Clouds 11 1014 87 10000 7.2 250 11:36 27.11.2019
3405 Clouds 11 1014 93 10000 6.2 240 11:18 27.11.2019
3406 Clouds 10 1013 93 10000 5.7 230 10:43 27.11.2019
3407 Clouds 10 1012 66 10000 3.6 260 10:24 27.11.2019
3408 Clouds 9 1013 87 10000 5.1 230 09:57 27.11.2019
3409 Clouds 9 1013 100 10000 4.6 230 09:38 27.11.2019
3410 Clouds 9 1012 93 10000 5.1 230 09:18 27.11.2019
3411 Clouds 9 1012 93 10000 4.1 230 08:42 27.11.2019
3412 Clouds 10 1012 93 10000 5.1 230 08:22 27.11.2019
3413 Clouds 10 1011 93 10000 5.1 240 07:47 27.11.2019
3414 Clouds 10 1011 87 10000 3.1 240 07:29 27.11.2019
3415 Clouds 10 1011 87 10000 5.1 240 06:54 27.11.2019
3416 Clouds 11 1011 87 10000 5.1 240 06:36 27.11.2019
3417 Clouds 11 1010 87 10000 4.6 220 05:47 27.11.2019
3418 Clouds 11 1010 87 10000 5.7 250 05:22 27.11.2019
3419 Clouds 11 1010 93 10000 4.1 230 04:49 27.11.2019
3420 Clouds 11 1010 93 10000 4.1 230 04:30 27.11.2019
3421 Clouds 11 1009 93 10000 5.1 220 03:41 27.11.2019
3422 Rain 11 1009 93 10000 6.7 230 03:20 27.11.2019
3423 Rain 12 1009 82 10000 6.7 220 02:28 27.11.2019
3424 Clouds 11 1009 82 10000 7.7 210 00:50 27.11.2019
3425 Clouds 12 1009 82 10000 7.7 210 00:30 27.11.2019
3426 Clouds 12 1009 87 10000 8.2 210 23:55 26.11.2019
3427 Rain 12 1009 87 10000 8.2 210 23:37 26.11.2019
3428 Rain 12 1009 87 10000 9.3 210 23:18 26.11.2019
3429 Clouds 12 1010 87 10000 8.7 210 22:39 26.11.2019
3430 Clouds 12 1010 87 10000 8.7 210 22:20 26.11.2019
3431 Rain 12 1010 87 10000 8.7 210 21:59 26.11.2019
3432 Drizzle 12 1010 93 7000 6.2 190 21:38 26.11.2019
3433 Rain 12 1010 100 2200 5.7 190 21:20 26.11.2019
3434 Drizzle 12 1010 100 2000 3.6 180 20:57 26.11.2019
3435 Drizzle 12 1010 100 2000 3.6 180 20:37 26.11.2019
3436 Drizzle 12 1010 100 2500 3.6 190 20:19 26.11.2019
3437 Drizzle 12 1010 100 2500 3.6 190 19:55 26.11.2019
3438 Drizzle 12 1010 100 3000 4.6 180 19:37 26.11.2019
3439 Drizzle 12 1010 100 4000 4.1 190 19:19 26.11.2019
3440 Clouds 13 1011 93 10000 6.2 200 18:57 26.11.2019
3441 Clouds 13 1011 93 10000 6.2 200 18:39 26.11.2019
3442 Clouds 13 1011 93 10000 5.7 200 18:20 26.11.2019
3443 Clouds 13 1011 93 10000 5.7 200 18:20 26.11.2019
3444 Rain 13 1011 93 10000 3.6 200 17:57 26.11.2019
3445 Rain 13 1011 93 10000 3.6 200 17:38 26.11.2019
3446 Clouds 13 1011 87 10000 5.7 210 17:20 26.11.2019
3447 Clouds 13 1011 87 10000 5.7 210 16:56 26.11.2019
3448 Clouds 13 1012 87 10000 4.6 210 16:37 26.11.2019
3449 Mist 13 1011 100 2000 5.1 240 16:18 26.11.2019
3450 Mist 13 1011 100 2000 5.1 240 15:58 26.11.2019
3451 Clouds 12 1012 93 10000 4.6 200 15:37 26.11.2019
3452 Clouds 12 1012 93 10000 2.1 160 15:19 26.11.2019
3453 Clouds 12 1013 93 9000 4.1 190 14:46 26.11.2019
3454 Clouds 12 1013 93 6000 4.1 190 14:24 26.11.2019
3455 Drizzle 11 1014 100 3000 4.1 200 13:45 26.11.2019
3456 Drizzle 11 1014 100 3000 4.1 200 13:25 26.11.2019
3457 Mist 11 1014 100 1400 4.1 190 12:58 26.11.2019
3458 Mist 11 1014 100 3000 3.6 190 12:38 26.11.2019
3459 Mist 11 1015 93 4000 3.1 180 12:19 26.11.2019
3460 Mist 11 1015 93 4000 3.1 180 11:56 26.11.2019
3461 Drizzle 10 1015 100 5000 4.1 200 11:38 26.11.2019
3462 Drizzle 10 1015 100 5000 4.1 200 11:38 26.11.2019
3463 Clouds 10 1015 93 7000 3.6 210 11:19 26.11.2019
3464 Clouds 10 1015 93 7000 3.6 210 10:57 26.11.2019
3465 Clouds 10 1015 93 10000 3.1 200 10:38 26.11.2019
3466 Drizzle 10 1015 93 300 3.56 216 10:20 26.11.2019
3467 Clouds 10 1015 93 10000 2.6 210 09:43 26.11.2019
3468 Clouds 10 1015 93 10000 2.6 220 09:25 26.11.2019
3469 Clouds 10 1015 93 10000 2.6 220 08:58 26.11.2019
3470 Clouds 10 1015 100 10000 2.6 230 08:38 26.11.2019
3471 Clouds 10 1015 100 10000 2.6 230 08:18 26.11.2019
3472 Clouds 10 1015 100 10000 3.6 250 07:43 26.11.2019
3473 Clouds 10 1015 100 6000 2.29 217 07:24 26.11.2019
3474 Clouds 10 1015 100 6000 2.29 217 06:53 26.11.2019
3475 Mist 9 1015 93 5000 1.5 350 06:21 26.11.2019
3476 Clouds 10 1016 93 10000 1 0 05:36 26.11.2019
3477 Fog 10 1016 100 400 2.6 220 03:43 26.11.2019
3478 Clouds 10 1016 87 10000 3.1 260 01:53 26.11.2019
3479 Clouds 9 1016 87 10000 3.1 260 01:28 26.11.2019
3480 Clouds 10 1016 93 10000 3.1 210 00:48 26.11.2019
3481 Clouds 10 1016 93 10000 3.6 210 00:21 26.11.2019
3482 Clouds 10 1016 87 10000 3.1 200 23:39 25.11.2019
3483 Clouds 10 1016 87 10000 3.1 200 23:39 25.11.2019
3484 Clouds 10 1016 100 10000 2.6 200 23:20 25.11.2019
3485 Clouds 10 1016 100 10000 2.6 200 22:56 25.11.2019
3486 Clouds 11 1016 87 10000 3.1 200 22:37 25.11.2019
3487 Clouds 11 1016 87 10000 3.1 180 22:18 25.11.2019
3488 Clouds 11 1016 87 10000 3.1 180 21:56 25.11.2019
3489 Clouds 11 1016 93 10000 5.1 250 21:38 25.11.2019
3490 Clouds 12 1016 87 10000 4.6 250 21:18 25.11.2019
3491 Clouds 12 1016 87 10000 2.6 230 20:55 25.11.2019
3492 Clouds 12 1016 87 10000 2.6 230 20:36 25.11.2019
3493 Clouds 12 1016 82 10000 3.6 230 20:18 25.11.2019
3494 Clouds 12 1016 82 10000 3.6 230 20:18 25.11.2019
3495 Clouds 12 1016 82 10000 4.1 240 19:54 25.11.2019
3496 Clouds 12 1016 82 10000 3.6 230 19:54 25.11.2019
3497 Clouds 13 1016 82 10000 4.1 240 19:36 25.11.2019
3498 Clouds 13 1016 82 10000 4.1 240 19:18 25.11.2019
3499 Clouds 13 1015 76 10000 2.6 220 18:55 25.11.2019
3500 Clouds 13 1015 76 10000 2.6 220 18:37 25.11.2019
3501 Clouds 14 1015 76 10000 3.1 230 18:18 25.11.2019
3502 Clouds 14 1015 76 10000 4.1 230 17:55 25.11.2019
3503 Clouds 14 1015 76 10000 4.1 230 17:36 25.11.2019
3504 Clouds 14 1015 76 10000 4.1 230 17:36 25.11.2019
3505 Clouds 14 1015 72 10000 5.1 230 17:18 25.11.2019
3506 Clouds 15 1014 72 10000 5.7 220 16:42 25.11.2019
3507 Clouds 15 1014 72 10000 5.7 220 16:23 25.11.2019
3508 Clouds 15 1014 72 10000 5.1 230 15:58 25.11.2019
3509 Clouds 15 1014 72 10000 5.1 230 15:58 25.11.2019
3510 Clouds 15 1014 72 10000 5.7 220 15:39 25.11.2019
3511 Clouds 15 1014 72 10000 6.2 220 15:20 25.11.2019
3512 Clouds 15 1014 72 10000 6.2 220 14:56 25.11.2019
3513 Clouds 15 1014 77 10000 5.7 220 14:37 25.11.2019
3514 Clouds 15 1014 77 10000 5.7 220 14:19 25.11.2019
3515 Clouds 15 1015 77 10000 3.6 210 13:39 25.11.2019
3516 Clouds 14 1015 87 10000 3.1 200 13:21 25.11.2019
3517 Clouds 14 1015 87 10000 3.1 200 12:59 25.11.2019
3518 Clouds 14 1015 87 10000 7.2 210 12:40 25.11.2019
3519 Clouds 13 1015 87 10000 7.2 210 12:40 25.11.2019
3520 Clouds 13 1015 93 10000 3.1 220 12:20 25.11.2019
3521 Clouds 12 1015 93 6000 3.1 220 11:56 25.11.2019
3522 Clouds 12 1015 93 6000 3.1 220 11:56 25.11.2019
3523 Clouds 12 1015 93 6000 3.1 220 11:38 25.11.2019
3524 Clouds 12 1015 93 6000 3.1 220 11:38 25.11.2019
3525 Fog 11 1015 100 900 3.1 220 11:19 25.11.2019
3526 Fog 10 1015 100 300 5.1 230 10:42 25.11.2019
3527 Mist 10 1015 100 2500 5.1 240 10:23 25.11.2019
3528 Mist 10 1015 100 2500 5.1 240 09:55 25.11.2019
3529 Mist 10 1015 100 2500 5.1 240 09:55 25.11.2019
3530 Fog 9 1014 87 10000 3.1 240 09:37 25.11.2019
3531 Fog 10 1015 100 300 4.6 220 09:18 25.11.2019
3532 Fog 10 1015 100 300 4.6 220 09:18 25.11.2019
3533 Clouds 9 1014 93 10000 3.1 200 08:39 25.11.2019
3534 Clouds 9 1014 100 8000 3.6 170 08:20 25.11.2019
3535 Mist 9 1014 100 3000 4.1 230 07:42 25.11.2019
3536 Mist 9 1014 100 3000 4.1 230 07:24 25.11.2019
3537 Clouds 9 1013 93 10000 2.6 210 06:48 25.11.2019
3538 Drizzle 9 1014 100 10000 5.1 210 06:21 25.11.2019
3539 Drizzle 8 1014 100 10000 5.1 210 05:39 25.11.2019
3540 Clouds 9 1014 93 10000 3.1 210 04:52 25.11.2019
3541 Clouds 9 1014 93 10000 6.2 220 02:52 25.11.2019
3542 Clouds 9 1014 87 10000 5.7 220 02:20 25.11.2019
3543 Clouds 9 1014 87 10000 6.7 220 01:40 25.11.2019
3544 Clouds 9 1014 87 10000 5.1 220 01:21 25.11.2019
3545 Clouds 9 1015 87 10000 3.1 200 00:23 25.11.2019
3546 Clouds 8 1015 87 10000 3.1 200 23:58 24.11.2019
3547 Clouds 8 1015 81 10000 4.1 220 23:39 24.11.2019
3548 Clouds 9 1014 76 10000 4.6 220 23:19 24.11.2019
3549 Clouds 9 1015 76 10000 5.7 220 22:55 24.11.2019
3550 Clouds 9 1015 76 10000 5.7 220 22:36 24.11.2019
3551 Clouds 8 1015 71 10000 5.1 230 22:18 24.11.2019
3552 Clouds 8 1015 66 10000 5.1 230 21:42 24.11.2019
3553 Clouds 8 1015 61 10000 5.7 230 21:22 24.11.2019
3554 Clouds 8 1015 61 10000 5.7 230 20:59 24.11.2019
3555 Clouds 8 1015 61 10000 5.7 230 20:59 24.11.2019
3556 Clouds 8 1015 70 10000 5.1 240 20:40 24.11.2019
3557 Clouds 8 1015 70 10000 4.1 240 20:20 24.11.2019
3558 Clouds 8 1015 70 10000 4.1 240 19:58 24.11.2019
3559 Clouds 8 1015 70 10000 4.6 240 19:40 24.11.2019
3560 Clouds 9 1014 66 10000 4.1 230 19:21 24.11.2019
3561 Clouds 9 1014 66 10000 4.1 230 19:00 24.11.2019
3562 Clouds 9 1014 70 10000 5.1 230 18:38 24.11.2019
3563 Clouds 9 1014 66 10000 4.6 230 18:20 24.11.2019
3564 Clouds 9 1014 66 10000 4.6 230 17:59 24.11.2019
3565 Clear 10 1015 61 10000 5.7 240 17:41 24.11.2019
3566 Clear 10 1015 61 10000 5.7 240 17:22 24.11.2019
3567 Clear 11 1014 57 10000 5.1 210 16:59 24.11.2019
3568 Clear 11 1014 57 10000 5.1 210 16:40 24.11.2019
3569 Clouds 11 1014 57 10000 5.7 220 16:22 24.11.2019
3570 Clouds 12 1014 57 10000 5.7 220 15:56 24.11.2019
3571 Clouds 12 1014 50 10000 4.1 240 15:37 24.11.2019
3572 Clouds 12 1014 50 10000 4.1 240 15:37 24.11.2019
3573 Clouds 12 1014 50 10000 4.1 240 15:37 24.11.2019
3574 Clouds 12 1014 50 10000 4.1 240 15:37 24.11.2019
3575 Clear 12 1014 50 10000 5.1 250 15:19 24.11.2019
3576 Clear 11 1015 50 10000 5.7 250 14:39 24.11.2019
3577 Clouds 11 1015 53 10000 6.7 260 14:19 24.11.2019
3578 Clouds 10 1015 53 10000 6.7 260 13:59 24.11.2019
3579 Clouds 10 1015 53 10000 6.2 270 13:38 24.11.2019
3580 Clouds 10 1016 57 10000 5.7 270 13:19 24.11.2019
3581 Clouds 10 1016 57 10000 5.7 270 12:56 24.11.2019
3582 Clouds 10 1016 61 10000 5.7 260 12:38 24.11.2019
3583 Clouds 9 1016 66 10000 7.2 270 12:18 24.11.2019
3584 Clouds 8 1016 66 10000 5.1 250 11:38 24.11.2019
3585 Clouds 8 1015 70 10000 4.6 240 11:19 24.11.2019
3586 Clouds 8 1015 70 10000 4.6 240 10:57 24.11.2019
3587 Clouds 8 1015 70 10000 4.1 250 10:38 24.11.2019
3588 Clouds 7 1015 70 10000 6.7 270 10:20 24.11.2019
3589 Clouds 6 1015 80 10000 6.7 260 09:40 24.11.2019
3590 Clouds 6 1014 80 10000 7.2 240 09:20 24.11.2019
3591 Clouds 6 1014 80 10000 7.2 240 08:57 24.11.2019
3592 Clouds 6 1014 70 10000 8.2 280 08:39 24.11.2019
3593 Clear 6 1014 70 10000 7.7 260 08:20 24.11.2019
3594 Clear 6 1014 75 10000 7.2 240 07:52 24.11.2019
3595 Clear 6 1014 75 10000 7.2 240 07:52 24.11.2019
3596 Clear 6 1012 70 10000 7.2 300 07:25 24.11.2019
3597 Clear 6 1012 70 10000 7.2 300 06:55 24.11.2019
3598 Clouds 7 1012 75 10000 4.1 270 05:40 24.11.2019
3599 Clear 7 1012 65 10000 6.2 290 04:42 24.11.2019
3600 Clear 7 1011 61 10000 7.2 280 02:49 24.11.2019
3601 Clouds 8 1011 61 10000 6.2 260 01:56 24.11.2019
3602 Clouds 8 1011 61 10000 6.7 270 01:37 24.11.2019
3603 Clouds 8 1011 61 10000 6.7 270 01:18 24.11.2019
3604 Clouds 8 1011 66 10000 6.2 270 00:42 24.11.2019
3605 Clouds 8 1010 66 10000 5.7 260 00:20 24.11.2019
3606 Clouds 8 1010 53 10000 7.7 270 23:44 23.11.2019
3607 Clouds 9 1010 53 10000 6.2 260 23:21 23.11.2019
3608 Clouds 9 1010 53 10000 7.7 270 22:57 23.11.2019
3609 Clouds 9 1010 53 10000 7.7 270 22:38 23.11.2019
3610 Clouds 9 1010 66 10000 6.7 280 22:20 23.11.2019
3611 Clouds 9 1010 66 10000 6.7 280 21:57 23.11.2019
3612 Clouds 8 1009 53 10000 6.7 250 21:39 23.11.2019
3613 Clouds 9 1009 53 10000 6.7 250 21:20 23.11.2019
3614 Clouds 9 1009 61 10000 8.7 260 20:39 23.11.2019
3615 Clouds 9 1009 61 10000 6.7 250 20:20 23.11.2019
3616 Clouds 9 1009 61 10000 6.7 250 19:58 23.11.2019
3617 Clouds 9 1008 61 10000 5.1 260 19:39 23.11.2019
3618 Clouds 9 1008 57 10000 5.7 240 19:19 23.11.2019
3619 Clouds 9 1008 57 10000 5.7 240 19:19 23.11.2019
3620 Clouds 10 1008 57 10000 5.7 240 18:58 23.11.2019
3621 Clouds 10 1008 57 10000 4.1 240 18:39 23.11.2019
3622 Clouds 10 1007 57 10000 4.1 250 18:19 23.11.2019
3623 Clouds 11 1006 53 10000 5.1 280 17:44 23.11.2019
3624 Clouds 11 1006 50 10000 5.1 280 17:22 23.11.2019
3625 Clouds 11 1006 50 10000 5.1 280 16:57 23.11.2019
3626 Clouds 11 1005 53 10000 4.1 260 16:39 23.11.2019
3627 Clouds 11 1005 53 10000 4.1 260 16:21 23.11.2019
3628 Clouds 11 1005 50 10000 6.2 290 15:59 23.11.2019
3629 Clouds 11 1005 46 10000 8.2 290 15:39 23.11.2019
3630 Clouds 11 1004 46 10000 7.7 270 15:19 23.11.2019
3631 Clouds 11 1004 46 10000 7.7 270 14:57 23.11.2019
3632 Clouds 11 1004 53 10000 7.7 280 14:39 23.11.2019
3633 Clouds 11 1004 53 10000 7.7 280 14:20 23.11.2019
3634 Clouds 11 1004 53 10000 7.2 260 13:54 23.11.2019
3635 Clouds 11 1004 53 10000 7.2 260 13:54 23.11.2019
3636 Clouds 11 1004 57 10000 5.7 270 13:36 23.11.2019
3637 Clouds 11 1004 57 10000 7.2 280 13:18 23.11.2019
3638 Clouds 10 1004 57 10000 8.2 280 12:41 23.11.2019
3639 Clouds 10 1003 57 10000 8.2 270 12:22 23.11.2019
3640 Clouds 9 1003 61 10000 6.7 260 11:44 23.11.2019
3641 Clouds 8 1002 57 10000 7.2 270 11:22 23.11.2019
3642 Clouds 8 1001 61 10000 8.2 270 10:45 23.11.2019
3643 Clouds 8 1001 61 10000 8.2 270 10:23 23.11.2019
3644 Clouds 7 1000 65 10000 7.2 280 09:58 23.11.2019
3645 Clouds 7 999 65 10000 10.3 280 09:39 23.11.2019
3646 Clouds 7 998 65 10000 7.7 260 09:18 23.11.2019
3647 Clouds 7 998 65 10000 9.3 260 08:41 23.11.2019
3648 Clouds 7 997 70 10000 11.3 270 08:18 23.11.2019
3649 Clouds 7 996 70 10000 10.8 260 07:41 23.11.2019
3650 Clouds 7 995 70 10000 5.7 250 06:52 23.11.2019
3651 Clouds 7 995 75 10000 6.7 250 06:26 23.11.2019
3652 Drizzle 7 994 70 10000 9.3 260 05:57 23.11.2019
3653 Rain 7 994 61 10000 7.2 260 05:31 23.11.2019
3654 Clouds 8 993 61 10000 6.2 250 04:54 23.11.2019
3655 Clouds 8 993 61 10000 6.2 250 04:31 23.11.2019
3656 Clouds 8 993 70 10000 5.1 270 03:25 23.11.2019
3657 Drizzle 8 993 87 10000 5.1 240 02:31 23.11.2019
3658 Clouds 8 993 81 10000 6.2 220 01:39 23.11.2019
3659 Clouds 8 993 81 10000 6.2 220 01:39 23.11.2019
3660 Clouds 9 993 81 10000 6.7 210 00:47 23.11.2019
3661 Clouds 9 993 81 10000 6.7 220 00:19 23.11.2019
3662 Clouds 9 993 81 10000 6.2 230 23:54 22.11.2019
3663 Rain 9 993 81 10000 6.2 230 23:36 22.11.2019
3664 Rain 9 993 81 10000 7.2 230 23:18 22.11.2019
3665 Rain 9 993 81 10000 6.2 220 22:42 22.11.2019
3666 Rain 9 993 87 10000 6.2 230 22:23 22.11.2019
3667 Rain 10 993 87 10000 6.2 230 21:59 22.11.2019
3668 Clouds 10 993 87 10000 7.2 230 21:40 22.11.2019
3669 Clouds 11 992 81 10000 7.7 230 21:21 22.11.2019
3670 Clouds 11 992 87 10000 7.7 220 20:44 22.11.2019
3671 Clouds 11 992 93 10000 9.3 230 20:23 22.11.2019
3672 Rain 11 992 93 10000 9.3 230 19:58 22.11.2019
3673 Rain 11 992 100 10000 7.2 230 19:39 22.11.2019
3674 Rain 11 992 100 10000 7.2 230 19:39 22.11.2019
3675 Rain 11 991 100 6000 2.6 210 19:20 22.11.2019
3676 Rain 11 991 93 4000 5.1 210 18:59 22.11.2019
3677 Rain 11 991 93 4000 5.1 210 18:37 22.11.2019
3678 Rain 11 991 93 10000 5.1 220 18:19 22.11.2019
3679 Clouds 11 991 87 10000 6.2 210 17:42 22.11.2019
3680 Drizzle 11 991 87 9000 6.2 210 17:22 22.11.2019
3681 Drizzle 11 991 87 9000 6.2 210 16:55 22.11.2019
3682 Rain 11 992 100 5000 8.7 200 16:37 22.11.2019
3683 Drizzle 11 992 100 6000 4.1 180 16:18 22.11.2019
3684 Rain 11 992 100 4000 4.6 170 15:38 22.11.2019
3685 Rain 11 993 93 6000 5.1 160 15:20 22.11.2019
3686 Rain 10 994 100 3000 5.1 150 14:54 22.11.2019
3687 Rain 10 994 100 3000 5.1 150 14:36 22.11.2019
3688 Rain 10 994 100 3500 5.1 150 14:18 22.11.2019
3689 Rain 9 996 93 4000 6.7 170 13:39 22.11.2019
3690 Rain 9 996 93 4000 6.7 170 13:19 22.11.2019
3691 Rain 9 996 93 2400 6.2 150 12:58 22.11.2019
3692 Rain 9 996 93 2400 6.2 150 12:58 22.11.2019
3693 Rain 9 997 93 2500 6.2 150 12:40 22.11.2019
3694 Clouds 9 998 93 8000 5.7 150 12:20 22.11.2019
3695 Clouds 9 998 93 8000 5.7 150 11:58 22.11.2019
3696 Clouds 9 999 87 10000 5.1 150 11:37 22.11.2019
3697 Clouds 9 999 93 10000 4.6 150 11:18 22.11.2019
3698 Clouds 9 999 93 10000 4.6 150 11:18 22.11.2019
3699 Clouds 9 999 93 10000 4.6 150 11:18 22.11.2019
3700 Rain 9 999 93 10000 4.6 150 10:55 22.11.2019
3701 Rain 8 1000 93 10000 4.1 150 10:37 22.11.2019
3702 Rain 8 1001 100 8000 4.1 160 10:18 22.11.2019
3703 Rain 8 1001 100 8000 3.1 160 09:41 22.11.2019
3704 Drizzle 8 1001 100 10000 3.1 160 09:22 22.11.2019
3705 Drizzle 8 1001 100 10000 3.1 160 08:59 22.11.2019
3706 Rain 8 1002 93 10000 1.5 150 08:39 22.11.2019
3707 Rain 8 1002 93 10000 2.6 150 08:21 22.11.2019
3708 Clouds 8 1002 93 10000 2.6 150 07:43 22.11.2019
3709 Clouds 8 1002 93 10000 2.6 150 07:43 22.11.2019
3710 Drizzle 8 1003 93 10000 3.1 180 07:21 22.11.2019
3711 Drizzle 7 1003 93 9000 3.6 170 06:48 22.11.2019
3712 Drizzle 7 1003 93 9000 3.6 170 06:28 22.11.2019
3713 Mist 7 1004 100 5000 1.5 160 05:37 22.11.2019
3714 Mist 7 1005 100 4000 1 0 03:34 22.11.2019
3715 Mist 7 1006 100 4000 3.59 174 02:47 22.11.2019
3716 Mist 7 1006 100 4000 3.59 174 02:28 22.11.2019
3717 Clouds 7 1007 93 6000 1 200 01:44 22.11.2019
3718 Clouds 7 1007 100 7000 0.5 0 01:19 22.11.2019
3719 Clouds 7 1007 100 7000 1.5 150 00:49 22.11.2019
3720 Clouds 7 1007 100 7000 1.5 150 00:23 22.11.2019
3721 Clouds 7 1008 93 10000 1 0 23:44 21.11.2019
3722 Clouds 7 1008 87 10000 1 0 23:25 21.11.2019
3723 Clouds 8 1008 87 10000 1 0 22:58 21.11.2019
3724 Clouds 8 1008 87 10000 1 0 22:38 21.11.2019
3725 Clouds 8 1008 81 10000 1.5 190 22:20 21.11.2019
3726 Clouds 7 1007 100 10000 1.5 230 21:56 21.11.2019
3727 Clouds 7 1007 100 10000 1.5 230 21:37 21.11.2019
3728 Clouds 8 1007 87 10000 2.1 180 21:18 21.11.2019
3729 Clouds 8 1008 93 10000 3.1 240 20:57 21.11.2019
3730 Clouds 8 1008 93 10000 3.1 240 20:38 21.11.2019
3731 Clouds 8 1007 93 10000 1 0 20:19 21.11.2019
3732 Clouds 8 1007 93 10000 1 0 19:58 21.11.2019
3733 Clouds 8 1007 93 10000 1 0 19:58 21.11.2019
3734 Clouds 8 1007 93 10000 1 0 19:39 21.11.2019
3735 Clouds 8 1007 93 10000 1 0 19:21 21.11.2019
3736 Clouds 8 1007 93 10000 1 280 18:56 21.11.2019
3737 Clouds 8 1007 87 10000 1.5 220 18:37 21.11.2019
3738 Clouds 8 1007 87 10000 2.6 210 18:18 21.11.2019
3739 Rain 9 1007 93 10000 2.1 230 17:41 21.11.2019
3740 Rain 9 1007 93 10000 2.1 230 17:41 21.11.2019
3741 Rain 9 1007 87 10000 3.1 240 17:22 21.11.2019
3742 Rain 9 1007 87 10000 3.1 240 16:59 21.11.2019
3743 Clouds 9 1007 87 10000 3.1 240 16:59 21.11.2019
3744 Clouds 9 1007 93 10000 3.1 250 16:40 21.11.2019
3745 Clouds 9 1007 93 10000 3.6 240 16:21 21.11.2019
3746 Clouds 9 1007 93 10000 3.6 240 15:56 21.11.2019
3747 Clouds 8 1007 87 10000 3.6 250 15:37 21.11.2019
3748 Clouds 9 1007 87 10000 4.1 240 15:19 21.11.2019
3749 Clouds 8 1007 87 10000 3.1 220 14:39 21.11.2019
3750 Clouds 8 1008 93 9000 2.6 210 14:21 21.11.2019
3751 Clouds 8 1008 93 9000 2.6 210 13:59 21.11.2019
3752 Clouds 8 1008 93 10000 2.1 210 13:38 21.11.2019
3753 Clouds 7 1008 93 10000 2.1 210 13:19 21.11.2019
3754 Rain 7 1008 93 10000 2.1 210 12:56 21.11.2019
3755 Rain 7 1008 93 7000 2.1 200 12:37 21.11.2019
3756 Rain 7 1009 87 9000 2.1 210 12:19 21.11.2019
3757 Rain 7 1009 87 8000 2.1 210 11:41 21.11.2019
3758 Clouds 7 1008 87 10000 2.1 230 11:21 21.11.2019
3759 Clouds 6 1008 87 10000 2.1 230 10:57 21.11.2019
3760 Clouds 6 1008 93 6000 1.5 200 10:39 21.11.2019
3761 Mist 6 1008 93 3500 2.6 190 10:20 21.11.2019
3762 Mist 6 1008 100 2500 3.21 213 09:43 21.11.2019
3763 Mist 6 1008 100 2500 3.21 213 09:24 21.11.2019
3764 Mist 6 1008 100 2500 2.1 170 08:59 21.11.2019
3765 Drizzle 6 1008 93 2300 1 0 08:40 21.11.2019
3766 Drizzle 5 1008 100 4000 2.1 190 08:19 21.11.2019
3767 Drizzle 5 1007 100 1200 4.09 231 07:40 21.11.2019
3768 Rain 6 1007 100 4000 2.6 150 07:18 21.11.2019
3769 Mist 5 1007 100 4500 1 0 06:57 21.11.2019
3770 Mist 5 1007 100 4500 1 0 06:33 21.11.2019
3771 Mist 5 1008 93 4000 1 0 05:32 21.11.2019
3772 Mist 5 1008 100 3000 1.5 150 03:32 21.11.2019
3773 Mist 6 1008 93 5000 1 0 02:40 21.11.2019
3774 Mist 5 1008 93 5000 2.1 170 01:54 21.11.2019
3775 Mist 5 1008 93 5000 2.1 170 01:54 21.11.2019
3776 Mist 5 1009 100 5000 2.1 160 01:36 21.11.2019
3777 Mist 5 1009 100 4000 1.5 130 00:54 21.11.2019
3778 Mist 5 1009 93 4500 0.5 0 00:21 21.11.2019
3779 Mist 6 1009 93 4500 0.5 0 23:57 20.11.2019
3780 Drizzle 6 1009 93 5000 1 0 23:39 20.11.2019
3781 Drizzle 6 1009 93 5000 0.5 0 23:20 20.11.2019
3782 Rain 6 1009 93 5000 0.5 0 22:55 20.11.2019
3783 Rain 6 1009 93 5000 0.5 0 22:37 20.11.2019
3784 Rain 6 1009 93 5000 0.5 0 22:37 20.11.2019
3785 Rain 5 1009 93 4000 0.5 0 22:18 20.11.2019
3786 Rain 5 1009 93 4000 0.5 0 21:55 20.11.2019
3787 Drizzle 5 1009 100 5000 0.5 80 21:36 20.11.2019
3788 Drizzle 6 1009 93 5000 3.47 216 21:18 20.11.2019
3789 Drizzle 6 1009 93 5000 3.47 216 20:54 20.11.2019
3790 Rain 6 1008 100 9000 3.47 216 20:36 20.11.2019
3791 Rain 5 1008 100 8000 4.58 189 20:18 20.11.2019
3792 Rain 5 1008 100 8000 3.51 180 20:18 20.11.2019
3793 Rain 5 1008 93 6000 0.5 0 19:54 20.11.2019
3794 Rain 5 1008 93 6000 0.5 0 19:36 20.11.2019
3795 Rain 5 1008 93 8000 1.5 290 19:18 20.11.2019
3796 Rain 5 1008 93 9000 2.1 270 18:41 20.11.2019
3797 Rain 6 1008 93 9000 2.1 270 18:23 20.11.2019
3798 Rain 6 1008 93 8000 2.1 270 17:59 20.11.2019
3799 Rain 6 1008 93 9000 3.1 270 17:40 20.11.2019
3800 Rain 6 1008 93 10000 3.1 270 17:21 20.11.2019
3801 Rain 6 1008 93 10000 3.1 270 16:59 20.11.2019
3802 Rain 6 1008 93 10000 3.1 270 16:59 20.11.2019
3803 Rain 7 1008 93 8000 3.6 260 16:41 20.11.2019
3804 Rain 7 1008 75 10000 2.1 210 16:20 20.11.2019
3805 Rain 7 1008 75 10000 2.1 210 15:57 20.11.2019
3806 Drizzle 8 1008 70 10000 1.5 0 15:38 20.11.2019
3807 Clouds 8 1009 70 10000 1.5 120 15:19 20.11.2019
3808 Clouds 8 1009 70 10000 1.5 120 14:55 20.11.2019
3809 Clouds 8 1009 70 10000 1.5 150 14:37 20.11.2019
3810 Clouds 8 1009 70 10000 1.5 150 14:18 20.11.2019
3811 Clouds 8 1010 70 10000 1 0 13:55 20.11.2019
3812 Clouds 8 1010 70 10000 1 0 13:36 20.11.2019
3813 Clouds 7 1010 75 10000 1.5 100 13:18 20.11.2019
3814 Clouds 7 1011 75 10000 2.1 90 12:40 20.11.2019
3815 Clouds 6 1011 81 10000 1.5 110 12:21 20.11.2019
3816 Clouds 6 1011 81 10000 1 0 11:46 20.11.2019
3817 Clouds 5 1011 80 10000 1.5 50 11:23 20.11.2019
3818 Clouds 4 1011 80 10000 1.5 50 10:59 20.11.2019
3819 Clouds 4 1011 80 10000 1.5 60 10:39 20.11.2019
3820 Clouds 4 1011 80 10000 1.5 60 10:20 20.11.2019
3821 Clouds 3 1011 80 10000 1.5 60 09:59 20.11.2019
3822 Clouds 3 1012 86 10000 0.5 0 09:41 20.11.2019
3823 Clouds 2 1011 93 10000 0.5 0 09:19 20.11.2019
3824 Clouds 2 1011 93 10000 0.5 0 08:43 20.11.2019
3825 Clouds 2 1011 86 10000 1 0 08:24 20.11.2019
3826 Clouds 2 1011 86 10000 1 0 07:52 20.11.2019
3827 Clouds 2 1011 93 10000 1 90 07:34 20.11.2019
3828 Clouds 2 1012 82 10000 1.5 10 06:58 20.11.2019
3829 Clouds 2 1012 82 10000 1 10 06:38 20.11.2019
3830 Clouds 2 1012 82 10000 1 360 06:18 20.11.2019
3831 Clouds 2 1013 78 10000 1.5 360 04:41 20.11.2019
3832 Clouds 3 1013 75 10000 1.5 340 02:29 20.11.2019
3833 Clouds 3 1014 93 10000 1.5 360 01:38 20.11.2019
3834 Clouds 4 1014 86 10000 0.5 330 00:50 20.11.2019
3835 Clouds 4 1014 86 10000 1 350 00:21 20.11.2019
3836 Clouds 4 1015 86 10000 1 0 23:41 19.11.2019
3837 Clouds 4 1015 86 10000 1 0 23:22 19.11.2019
3838 Clouds 5 1015 80 10000 1 0 22:56 19.11.2019
3839 Clouds 5 1015 80 10000 1.52 174 22:37 19.11.2019
3840 Clouds 5 1015 80 10000 1 140 22:18 19.11.2019
3841 Clouds 5 1015 75 10000 1 120 21:55 19.11.2019
3842 Clouds 5 1015 75 10000 1 120 21:36 19.11.2019
3843 Clouds 6 1015 75 10000 1 0 21:18 19.11.2019
3844 Clouds 6 1015 70 10000 1.52 174 20:54 19.11.2019
3845 Clouds 6 1015 70 10000 1.58 178 20:36 19.11.2019
3846 Clouds 6 1015 70 10000 2.23 210 20:18 19.11.2019
3847 Clouds 6 1015 70 10000 1 240 19:41 19.11.2019
3848 Clouds 7 1014 75 10000 1.5 260 19:20 19.11.2019
3849 Clouds 7 1014 75 10000 1.5 260 19:20 19.11.2019
3850 Clouds 7 1014 75 10000 1.5 260 19:20 19.11.2019
3851 Clouds 7 1014 75 10000 1.5 260 18:58 19.11.2019
3852 Clouds 8 1014 65 10000 2.1 240 18:40 19.11.2019
3853 Clouds 8 1014 61 10000 3.1 240 18:20 19.11.2019
3854 Clouds 8 1014 61 10000 3.1 240 18:20 19.11.2019
3855 Clouds 9 1015 61 10000 3.6 220 17:57 19.11.2019
3856 Clouds 9 1015 61 10000 3.6 220 17:39 19.11.2019
3857 Clouds 9 1015 61 10000 3.1 220 17:20 19.11.2019
3858 Clouds 9 1015 61 10000 3.1 220 16:59 19.11.2019
3859 Clouds 9 1015 61 10000 3.6 220 16:39 19.11.2019
3860 Clouds 9 1015 57 10000 4.1 230 16:19 19.11.2019
3861 Clouds 9 1015 57 10000 3.6 230 15:47 19.11.2019
3862 Clouds 9 1015 57 10000 3.6 230 15:26 19.11.2019
3863 Clouds 10 1015 57 10000 3.6 230 15:26 19.11.2019
3864 Clouds 9 1016 66 10000 2.6 220 14:58 19.11.2019
3865 Clouds 9 1016 66 10000 2.6 220 14:39 19.11.2019
3866 Clouds 9 1016 61 10000 2.1 240 14:20 19.11.2019
3867 Clouds 9 1017 61 10000 2.6 260 13:42 19.11.2019
3868 Clouds 8 1017 70 10000 2.1 180 13:21 19.11.2019
3869 Clouds 8 1017 70 10000 2.1 180 12:56 19.11.2019
3870 Clouds 8 1018 65 10000 1.5 180 12:38 19.11.2019
3871 Clouds 8 1018 65 10000 1.5 180 12:19 19.11.2019
3872 Clouds 6 1018 75 10000 2.1 130 11:55 19.11.2019
3873 Clouds 6 1018 75 10000 2.1 130 11:36 19.11.2019
3874 Clouds 6 1018 70 10000 1.5 120 11:18 19.11.2019
3875 Clouds 5 1018 75 10000 1.5 130 10:44 19.11.2019
3876 Clouds 4 1018 75 10000 1.5 130 10:20 19.11.2019
3877 Clouds 3 1018 69 10000 0.6 102 09:43 19.11.2019
3878 Clouds 1 1018 69 10000 0.6 102 09:21 19.11.2019
3879 Clouds 1 1018 69 10000 0.6 102 08:58 19.11.2019
3880 Clouds 0 1017 92 10000 0.67 88 08:39 19.11.2019
3881 Clear 0 1017 80 10000 0.87 73 08:21 19.11.2019
3882 Clear 0 1017 80 10000 0.87 73 07:55 19.11.2019
3883 Clear 0 1017 80 10000 0.87 73 07:36 19.11.2019
3884 Clear 0 1017 92 10000 1 0 07:18 19.11.2019
3885 Clear 0 1017 92 10000 1 320 06:42 19.11.2019
3886 Clear 0 1017 92 10000 0.5 0 06:18 19.11.2019
3887 Clear 1 1017 92 10000 1.5 340 05:18 19.11.2019
3888 Clear 2 1017 78 10000 1 10 03:39 19.11.2019
3889 Clear 2 1017 78 10000 1.35 56 03:19 19.11.2019
3890 Clear 2 1017 78 10000 2.1 310 02:47 19.11.2019
3891 Clear 3 1018 86 10000 0.5 0 01:48 19.11.2019
3892 Clear 4 1018 80 10000 0.5 0 00:48 19.11.2019
3893 Clear 4 1018 74 10000 0.5 30 00:19 19.11.2019
3894 Clear 5 1018 75 10000 1.5 280 23:40 18.11.2019
3895 Clear 4 1017 72 10000 1 0 23:20 18.11.2019
3896 Clear 5 1017 60 10000 2.1 20 22:46 18.11.2019
3897 Clear 5 1017 60 10000 2.1 20 22:24 18.11.2019
3898 Clear 5 1017 72 10000 0.5 120 21:59 18.11.2019
3899 Clear 6 1017 72 10000 1.5 80 21:40 18.11.2019
3900 Clear 6 1017 72 10000 1.5 80 21:21 18.11.2019
3901 Clear 6 1017 72 10000 2.1 20 20:59 18.11.2019
3902 Clear 6 1017 70 10000 0.5 0 20:41 18.11.2019
3903 Clear 6 1017 70 10000 0.5 0 20:41 18.11.2019
3904 Clouds 6 1016 65 10000 1 240 20:19 18.11.2019
3905 Clouds 6 1016 65 10000 1 240 19:58 18.11.2019
3906 Clouds 7 1016 69 10000 1 0 19:38 18.11.2019
3907 Clouds 7 1016 57 10000 1.5 30 19:20 18.11.2019
3908 Clouds 7 1016 57 10000 1.5 30 18:56 18.11.2019
3909 Clouds 8 1016 69 10000 2.1 0 18:38 18.11.2019
3910 Clouds 8 1015 69 10000 2.1 50 18:19 18.11.2019
3911 Clouds 9 1015 69 10000 2.1 50 17:56 18.11.2019
3912 Clouds 9 1015 46 10000 3.1 80 17:37 18.11.2019
3913 Clouds 9 1015 46 10000 3.1 80 17:19 18.11.2019
3914 Clouds 10 1015 48 10000 2.6 110 17:19 18.11.2019
3915 Clouds 10 1015 48 10000 2.6 100 16:43 18.11.2019
3916 Clouds 10 1015 50 10000 2.1 120 16:24 18.11.2019
3917 Clouds 10 1015 50 10000 2.1 120 15:58 18.11.2019
3918 Clouds 10 1014 50 10000 2.6 140 15:40 18.11.2019
3919 Clouds 10 1014 53 10000 2.6 120 15:20 18.11.2019
3920 Clouds 10 1014 53 10000 2.6 120 14:58 18.11.2019
3921 Clouds 10 1014 50 10000 1 0 14:38 18.11.2019
3922 Clouds 10 1014 57 10000 2.1 120 14:18 18.11.2019
3923 Clouds 10 1014 53 10000 1.5 0 13:42 18.11.2019
3924 Clouds 10 1014 53 10000 1.5 0 13:24 18.11.2019
3925 Clouds 10 1015 57 10000 5.1 10 12:43 18.11.2019
3926 Clear 9 1015 47 10000 1 0 12:20 18.11.2019
3927 Clear 9 1015 47 10000 1 0 11:57 18.11.2019
3928 Clear 9 1014 53 10000 0.5 0 11:38 18.11.2019
3929 Clear 8 1014 61 10000 1.5 250 11:20 18.11.2019
3930 Clouds 8 1012 63 10000 7.7 350 10:44 18.11.2019
3931 Clear 7 1013 75 10000 2.1 250 10:25 18.11.2019
3932 Clear 7 1013 75 10000 2.1 250 09:57 18.11.2019
3933 Clouds 6 1012 60 10000 1.5 330 09:38 18.11.2019
3934 Clouds 6 1012 60 10000 1.5 330 09:20 18.11.2019
3935 Clear 5 1012 75 10000 0.5 0 08:55 18.11.2019
3936 Clear 5 1012 75 10000 0.5 0 08:36 18.11.2019
3937 Clouds 5 1012 75 10000 2.6 320 08:18 18.11.2019
3938 Clouds 4 1012 80 10000 2.1 320 07:44 18.11.2019
3939 Clouds 5 1012 80 10000 4.1 320 07:23 18.11.2019
3940 Clouds 4 1011 100 10000 1 0 06:48 18.11.2019
3941 Clouds 4 1011 100 10000 1 0 06:28 18.11.2019
3942 Clouds 4 1011 100 10000 1 0 05:42 18.11.2019
3943 Clouds 4 1010 93 10000 1.5 310 03:59 18.11.2019
3944 Rain 5 1010 93 10000 2.1 140 01:40 18.11.2019
3945 Clouds 6 1009 87 10000 2.1 350 00:54 18.11.2019
3946 Clouds 6 1009 75 10000 2.6 320 00:20 18.11.2019
3947 Clouds 6 1009 75 10000 3.1 310 23:41 17.11.2019
3948 Clouds 7 1009 75 10000 4.6 300 23:21 17.11.2019
3949 Clouds 7 1009 75 10000 4.6 300 22:57 17.11.2019
3950 Clouds 7 1009 70 10000 2.1 330 22:39 17.11.2019
3951 Clouds 7 1009 70 10000 2.1 330 22:21 17.11.2019
3952 Clouds 8 1009 81 10000 1.5 80 21:56 17.11.2019
3953 Clouds 8 1009 81 10000 1.5 80 21:56 17.11.2019
3954 Clouds 7 1008 81 10000 4.1 250 21:37 17.11.2019
3955 Rain 7 1009 76 10000 6.7 240 21:18 17.11.2019
3956 Rain 8 1009 76 10000 6.7 240 20:55 17.11.2019
3957 Rain 7 1010 93 9000 4.6 240 20:36 17.11.2019
3958 Rain 7 1009 81 10000 6.2 230 20:18 17.11.2019
3959 Rain 7 1010 100 5000 3.6 260 19:55 17.11.2019
3960 Rain 7 1010 93 10000 3.6 230 19:36 17.11.2019
3961 Rain 7 1010 93 10000 3.6 240 19:18 17.11.2019
3962 Rain 7 1010 93 10000 3.6 240 18:54 17.11.2019
3963 Rain 7 1010 93 10000 6.7 240 18:36 17.11.2019
3964 Rain 7 1010 93 4800 8.2 240 18:18 17.11.2019
3965 Rain 7 1010 93 4800 8.2 240 17:56 17.11.2019
3966 Clouds 7 1010 87 10000 5.7 240 17:38 17.11.2019
3967 Clouds 7 1010 87 10000 5.1 240 17:18 17.11.2019
3968 Clouds 7 1010 87 10000 5.1 240 16:55 17.11.2019
3969 Clouds 7 1010 87 10000 4.1 200 16:37 17.11.2019
3970 Clouds 7 1011 87 10000 7.2 230 16:19 17.11.2019
3971 Clouds 7 1011 87 10000 5.1 220 15:41 17.11.2019
3972 Clouds 7 1012 87 10000 6.7 230 15:19 17.11.2019
3973 Clouds 7 1012 87 10000 5.7 210 14:57 17.11.2019
3974 Clouds 7 1012 87 10000 5.7 210 14:39 17.11.2019
3975 Clouds 7 1012 81 10000 5.7 220 14:21 17.11.2019
3976 Clouds 7 1012 81 10000 5.7 220 13:59 17.11.2019
3977 Clouds 7 1013 81 10000 6.2 230 13:40 17.11.2019
3978 Clouds 6 1013 75 10000 5.7 230 13:20 17.11.2019
3979 Clouds 6 1013 75 10000 5.7 230 13:20 17.11.2019
3980 Clouds 6 1014 70 10000 4.6 210 12:45 17.11.2019
3981 Clouds 6 1014 70 10000 3.6 210 12:25 17.11.2019
3982 Clouds 6 1014 70 10000 3.6 210 11:59 17.11.2019
3983 Clouds 5 1014 75 10000 2.6 200 11:40 17.11.2019
3984 Clouds 5 1014 80 10000 3.1 220 11:21 17.11.2019
3985 Clouds 5 1014 80 10000 3.1 220 11:21 17.11.2019
3986 Clouds 4 1014 80 10000 3.1 220 10:59 17.11.2019
3987 Drizzle 4 1014 75 10000 3.6 230 10:40 17.11.2019
3988 Drizzle 4 1014 75 10000 3.6 230 10:21 17.11.2019
3989 Drizzle 4 1014 75 10000 3.6 230 10:21 17.11.2019
3990 Clouds 4 1014 80 10000 2.1 210 09:42 17.11.2019
3991 Clouds 4 1014 63 10000 3.1 230 09:24 17.11.2019
3992 Clouds 3 1014 63 10000 2.6 220 08:44 17.11.2019
3993 Clouds 3 1014 63 10000 2.6 220 08:44 17.11.2019
3994 Clouds 3 1014 72 10000 3.6 190 08:26 17.11.2019
3995 Clouds 3 1014 72 10000 3.6 190 07:58 17.11.2019
3996 Clouds 3 1014 72 10000 3.6 190 07:58 17.11.2019
3997 Clouds 3 1015 72 10000 2.6 190 07:40 17.11.2019
3998 Clouds 3 1014 72 10000 1 0 07:20 17.11.2019
3999 Clouds 3 1014 80 10000 1.5 130 06:53 17.11.2019
4000 Clouds 3 1014 80 10000 1.5 130 06:29 17.11.2019
4001 Clouds 4 1015 80 10000 2.1 110 05:24 17.11.2019
4002 Clouds 5 1015 80 10000 1.5 110 04:18 17.11.2019
4003 Clouds 4 1015 69 10000 1.5 140 03:39 17.11.2019
4004 Clouds 4 1015 69 10000 1.5 80 03:20 17.11.2019
4005 Clouds 5 1015 60 10000 2.1 240 01:59 17.11.2019
4006 Clouds 5 1016 56 10000 4.1 260 01:21 17.11.2019
4007 Clouds 4 1016 56 10000 3.6 280 00:41 17.11.2019
4008 Clouds 5 1016 52 10000 3.6 280 00:21 17.11.2019
4009 Clouds 5 1016 52 10000 5.1 280 23:42 16.11.2019
4010 Clouds 5 1016 56 10000 6.7 290 23:19 16.11.2019
4011 Clouds 5 1015 56 10000 7.2 290 22:54 16.11.2019
4012 Clouds 5 1015 56 10000 7.2 290 22:36 16.11.2019
4013 Clouds 5 1015 56 10000 7.2 290 22:18 16.11.2019
4014 Clouds 6 1015 56 10000 5.1 280 21:41 16.11.2019
4015 Clouds 6 1015 56 10000 6.2 280 21:23 16.11.2019
4016 Clouds 6 1015 56 10000 6.2 280 20:58 16.11.2019
4017 Clouds 6 1015 56 10000 6.2 280 20:58 16.11.2019
4018 Clouds 6 1015 60 10000 2.6 270 20:39 16.11.2019
4019 Clouds 6 1015 56 10000 4.1 290 20:19 16.11.2019
4020 Clouds 7 1015 56 10000 4.1 290 19:56 16.11.2019
4021 Clouds 7 1015 56 10000 2.6 300 19:37 16.11.2019
4022 Clouds 7 1015 60 10000 2.6 280 19:19 16.11.2019
4023 Clouds 8 1015 52 10000 2.6 300 18:43 16.11.2019
4024 Clouds 9 1015 49 10000 3.6 310 18:25 16.11.2019
4025 Clouds 9 1014 43 10000 3.1 320 17:56 16.11.2019
4026 Clouds 9 1014 43 10000 3.1 320 17:37 16.11.2019
4027 Clouds 9 1014 49 10000 4.1 320 17:18 16.11.2019
4028 Clouds 9 1014 43 10000 4.1 310 16:45 16.11.2019
4029 Clouds 10 1014 43 10000 4.1 310 16:27 16.11.2019
4030 Clouds 10 1014 43 10000 4.6 300 15:56 16.11.2019
4031 Clouds 10 1014 40 10000 5.7 280 15:37 16.11.2019
4032 Clouds 10 1013 46 10000 5.1 250 15:19 16.11.2019
4033 Clouds 10 1014 43 10000 3.1 230 14:41 16.11.2019
4034 Clouds 10 1014 43 10000 3.1 230 14:21 16.11.2019
4035 Clouds 9 1014 46 10000 2.6 260 13:57 16.11.2019
4036 Clouds 9 1014 43 10000 2.6 0 13:39 16.11.2019
4037 Clouds 9 1014 43 10000 2.6 0 13:39 16.11.2019
4038 Clouds 8 1014 57 10000 2.6 0 13:19 16.11.2019
4039 Clouds 9 1014 57 10000 2.6 0 12:59 16.11.2019
4040 Clouds 8 1014 43 10000 1.5 240 12:40 16.11.2019
4041 Clouds 8 1014 52 10000 2.1 280 12:20 16.11.2019
4042 Clouds 7 1014 52 10000 2.6 300 11:46 16.11.2019
4043 Clouds 7 1014 52 10000 2.6 300 11:27 16.11.2019
4044 Clear 6 1014 62 10000 3.6 290 10:58 16.11.2019
4045 Clear 5 1014 62 10000 3.1 270 10:39 16.11.2019
4046 Clear 5 1013 69 10000 2.6 270 10:21 16.11.2019
4047 Clear 3 1013 74 10000 3.1 290 09:45 16.11.2019
4048 Clear 3 1013 80 10000 2.1 260 09:22 16.11.2019
4049 Clear 2 1013 80 10000 2.1 260 08:59 16.11.2019
4050 Clear 2 1012 80 10000 1.5 260 08:39 16.11.2019
4051 Clouds 2 1012 80 10000 1.5 260 08:19 16.11.2019
4052 Clouds 2 1012 80 10000 1.5 260 08:19 16.11.2019
4053 Clouds 2 1011 74 10000 3.6 290 07:43 16.11.2019
4054 Clouds 2 1011 74 10000 3.6 290 07:21 16.11.2019
4055 Clouds 2 1011 80 10000 2.1 320 06:56 16.11.2019
4056 Clouds 2 1010 80 10000 2.6 330 06:34 16.11.2019
4057 Clouds 2 1010 80 10000 2.6 360 05:42 16.11.2019
4058 Clouds 3 1009 73 10000 0.5 0 04:20 16.11.2019
4059 Clouds 3 1009 73 10000 0.5 0 04:20 16.11.2019
4060 Clouds 3 1008 73 10000 1 0 03:26 16.11.2019
4061 Clouds 4 1008 74 10000 0.5 0 02:21 16.11.2019
4062 Clouds 4 1008 65 10000 2.1 340 01:27 16.11.2019
4063 Clouds 5 1007 65 10000 4.6 300 00:46 16.11.2019
4064 Clouds 5 1007 65 10000 5.7 290 00:27 16.11.2019
4065 Clouds 5 1007 65 10000 5.7 290 23:40 15.11.2019
4066 Clouds 6 1007 57 10000 6.2 290 23:21 15.11.2019
4067 Clouds 6 1007 57 10000 6.2 290 22:58 15.11.2019
4068 Clouds 6 1006 57 10000 7.2 290 22:39 15.11.2019
4069 Clouds 7 1006 57 10000 5.1 280 22:19 15.11.2019
4070 Clouds 7 1006 57 10000 5.1 280 21:54 15.11.2019
4071 Clouds 7 1006 52 10000 5.1 280 21:36 15.11.2019
4072 Clouds 7 1005 57 10000 4.6 260 21:18 15.11.2019
4073 Clouds 7 1005 57 10000 4.6 260 20:54 15.11.2019
4074 Clouds 7 1005 61 10000 4.6 260 20:36 15.11.2019
4075 Clouds 7 1005 52 10000 5.1 270 20:18 15.11.2019
4076 Clouds 7 1005 52 10000 5.1 270 19:56 15.11.2019
4077 Clouds 7 1005 52 10000 5.1 270 19:36 15.11.2019
4078 Clouds 7 1005 52 10000 4.1 270 19:18 15.11.2019
4079 Clouds 7 1005 52 10000 3.6 270 18:42 15.11.2019
4080 Clouds 8 1005 52 10000 2.6 270 18:23 15.11.2019
4081 Clouds 8 1004 52 10000 5.1 280 17:55 15.11.2019
4082 Clouds 8 1004 52 10000 5.1 280 17:55 15.11.2019
4083 Clouds 8 1004 52 10000 5.1 280 17:37 15.11.2019
4084 Clouds 8 1004 52 10000 4.6 280 17:19 15.11.2019
4085 Clouds 8 1004 43 10000 5.7 290 16:40 15.11.2019
4086 Clouds 9 1004 43 10000 5.7 290 16:22 15.11.2019
4087 Clouds 8 1004 49 10000 4.6 290 16:00 15.11.2019
4088 Clouds 8 1004 49 10000 4.6 290 16:00 15.11.2019
4089 Clouds 8 1004 49 10000 4.6 290 16:00 15.11.2019
4090 Clouds 8 1004 49 10000 6.2 310 15:37 15.11.2019
4091 Clouds 8 1004 49 10000 7.2 310 15:18 15.11.2019
4092 Clouds 8 1004 49 10000 7.2 310 14:56 15.11.2019
4093 Clouds 8 1004 43 10000 7.2 300 14:37 15.11.2019
4094 Clouds 8 1004 44 10000 8.7 290 14:18 15.11.2019
4095 Clouds 8 1004 44 10000 7.7 300 13:55 15.11.2019
4096 Clouds 8 1004 44 10000 7.7 300 13:55 15.11.2019
4097 Clouds 8 1004 45 10000 7.7 300 13:36 15.11.2019
4098 Clouds 8 1004 45 10000 7.7 300 13:18 15.11.2019
4099 Clouds 8 1004 45 10000 7.7 300 12:56 15.11.2019
4100 Clouds 8 1005 61 10000 6.2 280 12:37 15.11.2019
4101 Clouds 7 1005 45 10000 6.2 270 12:18 15.11.2019
4102 Clouds 7 1005 45 10000 6.2 270 12:18 15.11.2019
4103 Clouds 6 1005 45 10000 6.7 270 11:40 15.11.2019
4104 Clouds 6 1004 57 10000 6.2 270 11:21 15.11.2019
4105 Clouds 6 1004 57 10000 6.2 270 11:21 15.11.2019
4106 Clouds 5 1004 57 10000 6.2 270 10:59 15.11.2019
4107 Clouds 5 1004 75 10000 5.7 260 10:39 15.11.2019
4108 Clouds 5 1004 75 10000 4.6 260 10:20 15.11.2019
4109 Clouds 4 1004 75 10000 4.6 250 09:42 15.11.2019
4110 Clouds 4 1004 80 10000 4.1 230 09:21 15.11.2019
4111 Clouds 4 1004 80 10000 4.1 230 08:58 15.11.2019
4112 Clouds 4 1003 57 10000 5.7 250 08:40 15.11.2019
4113 Clouds 4 1003 86 10000 5.7 250 08:21 15.11.2019
4114 Clouds 4 1003 70 10000 5.7 260 07:44 15.11.2019
4115 Clouds 4 1003 70 10000 5.7 260 07:25 15.11.2019
4116 Clouds 4 1002 70 10000 3.1 240 06:36 15.11.2019
4117 Clouds 4 1002 70 10000 2.1 120 05:57 15.11.2019
4118 Clouds 4 1002 70 10000 2.1 120 05:57 15.11.2019
4119 Clouds 4 1002 70 10000 1.5 130 05:38 15.11.2019
4120 Clouds 4 1002 70 10000 1.5 130 05:38 15.11.2019
4121 Clouds 4 1002 65 10000 3.1 230 04:55 15.11.2019
4122 Clouds 4 1002 65 10000 4.6 280 03:44 15.11.2019
4123 Clouds 4 1002 65 10000 3.1 260 02:37 15.11.2019
4124 Clouds 5 1002 57 10000 7.2 280 01:57 15.11.2019
4125 Clouds 5 1002 57 10000 7.2 280 01:32 15.11.2019
4126 Clouds 5 1002 70 10000 4.6 270 00:42 15.11.2019
4127 Clouds 5 1002 70 10000 5.7 280 00:24 15.11.2019
4128 Clouds 5 1001 70 10000 4.1 280 23:47 14.11.2019
4129 Clouds 6 1001 70 10000 4.1 280 23:27 14.11.2019
4130 Clouds 6 1001 59 10000 4.1 270 23:27 14.11.2019
4131 Clouds 6 1000 65 10000 5.7 280 22:55 14.11.2019
4132 Clouds 6 1000 65 10000 5.7 280 22:37 14.11.2019
4133 Clouds 6 1000 65 10000 9.3 310 22:19 14.11.2019
4134 Clouds 6 1000 59 10000 9.3 280 21:42 14.11.2019
4135 Clouds 6 999 59 10000 10.8 280 21:22 14.11.2019
4136 Clouds 6 999 59 10000 10.8 280 20:55 14.11.2019
4137 Clouds 6 999 60 10000 10.8 270 20:37 14.11.2019
4138 Clouds 7 999 65 10000 8.7 260 20:19 14.11.2019
4139 Clouds 7 999 65 10000 8.7 260 19:57 14.11.2019
4140 Clouds 7 999 70 10000 9.8 250 19:38 14.11.2019
4141 Rain 7 999 81 10000 8.7 240 19:18 14.11.2019
4142 Rain 6 999 70 10000 7.7 240 18:43 14.11.2019
4143 Rain 6 999 81 10000 4.1 250 18:24 14.11.2019
4144 Rain 6 999 81 10000 4.1 270 17:58 14.11.2019
4145 Rain 6 999 81 10000 4.1 270 17:38 14.11.2019
4146 Rain 6 1000 81 10000 11.3 260 17:20 14.11.2019
4147 Rain 7 1000 81 10000 11.3 260 16:58 14.11.2019
4148 Rain 7 1000 81 10000 11.3 260 16:58 14.11.2019
4149 Rain 7 1000 81 10000 11.3 260 16:58 14.11.2019
4150 Rain 8 1000 66 10000 10.8 250 16:38 14.11.2019
4151 Clouds 9 999 38 10000 7.7 260 16:19 14.11.2019
4152 Clouds 9 999 38 10000 7.7 260 15:58 14.11.2019
4153 Clouds 10 1000 38 10000 7.2 260 15:39 14.11.2019
4154 Rain 10 1001 38 10000 7.7 250 15:20 14.11.2019
4155 Rain 9 1001 38 10000 7.7 250 14:57 14.11.2019
4156 Clouds 9 1001 38 10000 10.3 270 14:39 14.11.2019
4157 Clouds 9 1002 57 10000 9.3 270 14:20 14.11.2019
4158 Clouds 9 1002 38 10000 9.3 260 13:42 14.11.2019
4159 Clouds 9 1002 38 10000 9.3 260 13:23 14.11.2019
4160 Clouds 8 1003 38 10000 7.7 260 12:57 14.11.2019
4161 Clouds 8 1004 57 10000 7.7 270 12:39 14.11.2019
4162 Clouds 8 1004 61 10000 6.7 270 12:21 14.11.2019
4163 Clouds 7 1004 65 10000 7.2 270 11:55 14.11.2019
4164 Clouds 7 1004 65 10000 7.2 270 11:37 14.11.2019
4165 Clouds 6 1004 70 10000 5.7 260 11:18 14.11.2019
4166 Clouds 6 1004 70 10000 5.7 260 10:56 14.11.2019
4167 Clouds 6 1004 70 10000 5.7 260 10:56 14.11.2019
4168 Clouds 6 1004 70 10000 4.6 260 10:37 14.11.2019
4169 Clouds 6 1004 70 10000 4.6 260 10:37 14.11.2019
4170 Clouds 5 1004 70 10000 4.6 300 10:19 14.11.2019
4171 Clouds 5 1004 70 10000 4.6 300 10:19 14.11.2019
4172 Clouds 5 1004 70 10000 4.6 300 10:19 14.11.2019
4173 Clouds 6 1004 75 10000 6.2 310 09:42 14.11.2019
4174 Clouds 6 1004 87 10000 5.1 270 09:23 14.11.2019
4175 Clouds 6 1004 87 10000 5.1 270 08:58 14.11.2019
4176 Clouds 6 1004 87 10000 5.1 270 08:39 14.11.2019
4177 Drizzle 7 1004 93 4000 8.7 250 08:21 14.11.2019
4178 Rain 8 1003 93 10000 5.7 270 07:42 14.11.2019
4179 Clouds 8 1003 81 10000 7.7 220 07:23 14.11.2019
4180 Rain 8 1004 81 10000 9.8 250 06:46 14.11.2019
4181 Rain 8 1004 87 10000 4.1 200 06:20 14.11.2019
4182 Clouds 8 1004 81 10000 4.6 190 05:27 14.11.2019
4183 Clouds 8 1006 76 10000 3.6 220 04:35 14.11.2019
4184 Clouds 7 1007 81 10000 2.1 230 03:26 14.11.2019
4185 Clouds 8 1007 81 10000 3.1 220 02:35 14.11.2019
4186 Clouds 8 1008 81 10000 2.1 130 01:40 14.11.2019
4187 Clouds 8 1008 81 10000 1.5 150 00:57 14.11.2019
4188 Clouds 8 1009 76 10000 3.1 170 00:37 14.11.2019
4189 Clouds 9 1009 76 10000 2.6 200 00:18 14.11.2019
4190 Clouds 10 1010 66 10000 2.1 200 23:38 13.11.2019
4191 Clouds 10 1010 62 10000 2.6 200 23:19 13.11.2019
4192 Clouds 10 1010 66 10000 3.1 230 22:55 13.11.2019
4193 Clouds 12 1010 66 10000 3.1 230 22:37 13.11.2019
4194 Clouds 12 1010 66 10000 3.1 230 22:37 13.11.2019
4195 Clouds 12 1011 66 10000 2.6 240 22:18 13.11.2019
4196 Clouds 12 1011 66 10000 2.6 240 21:54 13.11.2019
4197 Clouds 12 1011 76 10000 2.1 250 21:36 13.11.2019
4198 Clouds 12 1011 76 10000 1 0 21:18 13.11.2019
4199 Clouds 12 1012 71 10000 1 0 20:54 13.11.2019
4200 Clouds 12 1012 71 10000 1 0 20:36 13.11.2019
4201 Clouds 13 1012 62 10000 0.5 0 20:18 13.11.2019
4202 Clouds 13 1012 58 10000 4.17 277 19:41 13.11.2019
4203 Clouds 13 1012 58 10000 1.5 340 19:19 13.11.2019
4204 Clouds 13 1012 58 10000 1.5 340 18:56 13.11.2019
4205 Clouds 14 1012 54 10000 0.5 0 18:37 13.11.2019
4206 Clouds 14 1012 51 10000 3.1 290 18:19 13.11.2019
4207 Clouds 14 1012 51 10000 3.1 290 17:56 13.11.2019
4208 Clouds 14 1012 51 10000 3.6 310 17:38 13.11.2019
4209 Clouds 15 1012 44 10000 4.6 280 17:19 13.11.2019
4210 Clouds 15 1012 44 10000 4.6 280 16:57 13.11.2019
4211 Clouds 15 1012 44 10000 4.6 280 16:38 13.11.2019
4212 Clouds 16 1012 48 10000 5.1 280 16:20 13.11.2019
4213 Clouds 16 1012 48 10000 5.1 280 15:57 13.11.2019
4214 Clouds 16 1011 48 10000 2.6 290 15:38 13.11.2019
4215 Clouds 16 1011 47 10000 1 0 15:18 13.11.2019
4216 Clouds 16 1011 45 10000 1 0 14:42 13.11.2019
4217 Clouds 15 1011 47 10000 3.1 50 14:21 13.11.2019
4218 Clouds 15 1012 47 10000 3.6 60 13:56 13.11.2019
4219 Clouds 15 1012 47 10000 3.6 60 13:36 13.11.2019
4220 Clouds 15 1012 48 10000 2.1 50 13:18 13.11.2019
4221 Clouds 14 1012 58 10000 3.6 80 12:42 13.11.2019
4222 Clouds 14 1011 67 10000 2.6 120 12:24 13.11.2019
4223 Clouds 14 1011 67 10000 2.6 120 11:58 13.11.2019
4224 Clouds 13 1011 71 10000 3.1 90 11:38 13.11.2019
4225 Clouds 13 1010 71 10000 5.7 300 11:19 13.11.2019
4226 Clouds 13 1010 71 10000 5.7 300 10:57 13.11.2019
4227 Clouds 12 1009 93 10000 3.1 250 10:39 13.11.2019
4228 Clouds 12 1009 93 10000 5.1 240 10:19 13.11.2019
4229 Rain 11 1008 100 10000 8.2 240 09:43 13.11.2019
4230 Rain 11 1008 100 10000 8.2 240 09:21 13.11.2019
4231 Rain 11 1007 93 10000 9.3 230 09:21 13.11.2019
4232 Rain 11 1007 93 10000 9.3 230 09:21 13.11.2019
4233 Rain 11 1007 93 10000 9.3 230 09:21 13.11.2019
4234 Rain 11 1008 100 10000 8.2 240 09:21 13.11.2019
4235 Rain 11 1006 93 10000 8.7 230 08:46 13.11.2019
4236 Rain 11 1006 93 10000 8.7 230 08:28 13.11.2019
4237 Rain 10 1006 93 9000 8.7 230 07:59 13.11.2019
4238 Rain 11 1006 93 9000 8.7 230 07:41 13.11.2019
4239 Rain 10 1005 93 10000 9.3 240 07:20 13.11.2019
4240 Rain 10 1005 93 9000 9.3 240 06:43 13.11.2019
4241 Rain 10 1005 93 9000 9.3 240 06:19 13.11.2019
4242 Rain 10 1005 93 9000 9.3 240 06:19 13.11.2019
4243 Rain 10 1005 87 10000 7.2 230 06:19 13.11.2019
4244 Rain 10 1005 87 10000 7.2 230 06:19 13.11.2019
4245 Rain 10 1005 87 10000 7.2 230 06:19 13.11.2019
4246 Clouds 10 1005 93 10000 6.2 230 05:48 13.11.2019
4247 Rain 10 1005 93 10000 6.2 230 05:29 13.11.2019
4248 Clouds 10 1005 87 10000 7.2 230 04:19 13.11.2019
4249 Rain 9 1008 81 10000 6.2 220 01:54 13.11.2019
4250 Rain 9 1008 81 10000 6.2 220 01:35 13.11.2019
4251 Drizzle 9 1009 81 10000 5.1 210 00:43 13.11.2019
4252 Rain 8 1010 81 10000 4.1 210 23:59 12.11.2019
4253 Drizzle 9 1010 76 10000 4.1 210 23:41 12.11.2019
4254 Drizzle 9 1010 81 10000 6.7 230 23:21 12.11.2019
4255 Clouds 10 1011 71 10000 6.7 230 22:43 12.11.2019
4256 Clouds 10 1011 71 10000 6.7 230 22:20 12.11.2019
4257 Clouds 10 1011 71 10000 7.2 230 21:59 12.11.2019
4258 Rain 10 1012 71 10000 6.7 260 21:40 12.11.2019
4259 Clouds 10 1012 62 10000 5.1 240 21:22 12.11.2019
4260 Clouds 10 1012 62 10000 5.1 240 20:56 12.11.2019
4261 Clouds 10 1012 66 10000 5.7 230 20:37 12.11.2019
4262 Clouds 11 1012 66 10000 6.7 230 20:18 12.11.2019
4263 Clouds 11 1012 66 10000 6.7 230 20:18 12.11.2019
4264 Clouds 11 1012 66 10000 6.7 230 19:57 12.11.2019
4265 Clouds 11 1012 66 10000 5.1 220 19:38 12.11.2019
4266 Clouds 11 1013 62 10000 6.2 230 19:19 12.11.2019
4267 Clouds 11 1013 62 10000 6.2 230 18:58 12.11.2019
4268 Clouds 11 1013 62 10000 3.6 230 18:39 12.11.2019
4269 Clouds 12 1013 50 10000 2.1 270 18:21 12.11.2019
4270 Clouds 12 1013 43 10000 2.6 310 17:57 12.11.2019
4271 Clouds 12 1013 43 10000 2.6 310 17:39 12.11.2019
4272 Clouds 12 1013 47 10000 5.1 290 17:20 12.11.2019
4273 Clouds 12 1013 43 10000 5.7 280 16:44 12.11.2019
4274 Clouds 12 1013 43 10000 5.7 280 16:26 12.11.2019
4275 Clear 12 1014 43 10000 4.1 290 15:58 12.11.2019
4276 Clear 12 1014 46 10000 6.2 300 15:40 12.11.2019
4277 Clear 12 1014 46 10000 4.6 290 15:21 12.11.2019
4278 Clear 12 1014 46 10000 4.6 290 14:56 12.11.2019
4279 Clear 12 1015 43 10000 4.1 310 14:37 12.11.2019
4280 Clouds 12 1015 46 10000 3.6 280 14:18 12.11.2019
4281 Clouds 12 1015 46 10000 3.6 280 13:55 12.11.2019
4282 Clouds 12 1016 46 10000 3.1 270 13:36 12.11.2019
4283 Clouds 11 1016 50 10000 2.1 360 13:18 12.11.2019
4284 Clouds 11 1016 53 10000 2.6 10 12:42 12.11.2019
4285 Clouds 10 1017 57 10000 1.5 0 12:19 12.11.2019
4286 Clouds 10 1017 57 10000 1.5 0 11:58 12.11.2019
4287 Clouds 9 1016 57 10000 3.1 330 11:39 12.11.2019
4288 Clouds 9 1017 57 10000 1.5 340 11:21 12.11.2019
4289 Clouds 8 1017 61 10000 1.5 350 10:55 12.11.2019
4290 Clouds 7 1017 61 10000 1.5 350 10:37 12.11.2019
4291 Clouds 7 1017 70 10000 2.1 320 10:19 12.11.2019
4292 Clouds 6 1017 70 10000 0.5 0 09:40 12.11.2019
4293 Clouds 5 1017 86 10000 1.5 300 09:21 12.11.2019
4294 Clouds 4 1016 86 10000 0.5 0 08:51 12.11.2019
4295 Clouds 5 1016 86 10000 0.5 0 08:30 12.11.2019
4296 Clouds 5 1016 80 10000 0.5 0 07:45 12.11.2019
4297 Clouds 5 1016 75 10000 0.5 0 07:26 12.11.2019
4298 Clouds 5 1016 75 10000 0.5 0 06:58 12.11.2019
4299 Clouds 5 1017 80 10000 2.1 290 06:39 12.11.2019
4300 Clouds 5 1016 75 10000 1 180 06:21 12.11.2019
4301 Clouds 6 1016 70 10000 1 190 05:43 12.11.2019
4302 Clouds 6 1017 80 10000 2.79 30 04:42 12.11.2019
4303 Clouds 6 1017 80 10000 1 140 03:30 12.11.2019
4304 Clouds 6 1018 65 10000 1.5 110 01:42 12.11.2019
4305 Clouds 6 1018 61 10000 4.1 360 01:20 12.11.2019
4306 Clouds 7 1017 61 10000 2.6 10 00:46 12.11.2019
4307 Clouds 6 1017 61 10000 2.6 10 00:22 12.11.2019
4308 Clouds 7 1017 65 10000 1.5 0 23:44 11.11.2019
4309 Clouds 7 1017 61 10000 4.6 360 23:22 11.11.2019
4310 Clouds 8 1017 61 10000 4.6 360 22:56 11.11.2019
4311 Clouds 8 1017 61 10000 1.5 40 22:36 11.11.2019
4312 Clouds 8 1017 61 10000 2.1 20 22:18 11.11.2019
4313 Clouds 8 1017 61 10000 2.1 20 21:56 11.11.2019
4314 Clouds 9 1017 76 10000 1.5 70 21:37 11.11.2019
4315 Clouds 9 1017 61 10000 2.6 350 21:19 11.11.2019
4316 Clouds 9 1017 87 10000 1.5 260 20:42 11.11.2019
4317 Clouds 9 1017 76 10000 1 0 20:20 11.11.2019
4318 Clouds 10 1017 76 10000 1 0 19:57 11.11.2019
4319 Clouds 10 1017 76 10000 1.5 70 19:39 11.11.2019
4320 Clouds 10 1016 87 10000 1 0 19:18 11.11.2019
4321 Clouds 10 1016 87 10000 1 0 18:54 11.11.2019
4322 Clouds 11 1016 81 10000 1 150 18:36 11.11.2019
4323 Clouds 11 1016 81 10000 2.1 110 18:18 11.11.2019
4324 Clouds 12 1015 81 10000 2.1 130 17:41 11.11.2019
4325 Clouds 12 1015 76 10000 1.5 140 17:23 11.11.2019
4326 Clouds 12 1015 76 10000 2.1 170 16:41 11.11.2019
4327 Clouds 12 1015 71 10000 2.1 190 16:21 11.11.2019
4328 Clouds 12 1015 71 10000 2.1 190 15:57 11.11.2019
4329 Clouds 12 1015 76 10000 3.1 240 15:39 11.11.2019
4330 Clouds 12 1015 76 10000 2.6 230 15:19 11.11.2019
4331 Clouds 12 1015 76 10000 2.6 230 15:19 11.11.2019
4332 Clouds 11 1015 71 10000 4.6 250 14:43 11.11.2019
4333 Clouds 11 1015 71 10000 4.6 250 14:25 11.11.2019
4334 Clouds 10 1015 71 10000 4.6 240 13:58 11.11.2019
4335 Clouds 10 1016 66 10000 3.6 220 13:38 11.11.2019
4336 Clouds 10 1016 66 10000 3.6 220 13:19 11.11.2019
4337 Clouds 10 1016 66 10000 3.6 240 13:19 11.11.2019
4338 Clouds 9 1016 66 10000 3.6 240 12:56 11.11.2019
4339 Clouds 9 1016 70 10000 3.6 240 12:38 11.11.2019
4340 Clouds 8 1017 70 10000 4.6 240 12:20 11.11.2019
4341 Clouds 8 1017 70 10000 4.1 250 11:42 11.11.2019
4342 Clouds 8 1016 75 10000 0.5 0 11:22 11.11.2019
4343 Clouds 7 1017 75 10000 2.1 210 10:57 11.11.2019
4344 Clouds 7 1017 75 10000 2.1 210 10:38 11.11.2019
4345 Clouds 7 1017 75 10000 2.1 210 10:18 11.11.2019
4346 Clouds 6 1017 70 10000 3.6 240 09:43 11.11.2019
4347 Clouds 6 1017 70 10000 3.6 240 09:21 11.11.2019
4348 Clouds 6 1017 75 10000 2.1 250 08:59 11.11.2019
4349 Clouds 6 1017 75 10000 1 0 08:37 11.11.2019
4350 Clouds 6 1017 75 10000 1 0 08:18 11.11.2019
4351 Clouds 6 1017 75 10000 1 0 07:54 11.11.2019
4352 Clouds 6 1017 75 10000 0.66 110 07:36 11.11.2019
4353 Clouds 6 1017 75 10000 0.66 110 07:18 11.11.2019
4354 Clouds 5 1018 75 10000 0.66 110 06:40 11.11.2019
4355 Clouds 5 1017 86 10000 1 140 06:20 11.11.2019
4356 Clouds 5 1017 93 10000 1 0 05:49 11.11.2019
4357 Clouds 5 1018 93 10000 0.5 0 03:56 11.11.2019
4358 Clouds 5 1018 86 10000 1.5 320 02:55 11.11.2019
4359 Clouds 5 1018 86 10000 1.5 320 02:19 11.11.2019
4360 Clouds 5 1018 93 10000 1.5 220 01:51 11.11.2019
4361 Clouds 5 1019 93 10000 1.89 340 01:31 11.11.2019
4362 Clouds 5 1018 93 10000 1.49 337 00:41 11.11.2019
4363 Clouds 5 1019 86 10000 0.5 0 23:58 10.11.2019
4364 Clouds 5 1019 75 10000 1.5 220 23:39 10.11.2019
4365 Clouds 5 1018 80 10000 1.5 230 23:19 10.11.2019
4366 Clouds 5 1018 80 10000 1.5 230 22:57 10.11.2019
4367 Clouds 5 1018 86 10000 1 0 22:38 10.11.2019
4368 Clouds 5 1018 86 10000 2.1 10 22:20 10.11.2019
4369 Clouds 5 1018 86 10000 2.1 10 21:57 10.11.2019
4370 Clouds 6 1018 86 10000 2.6 190 21:39 10.11.2019
4371 Clouds 6 1018 75 10000 1 0 21:20 10.11.2019
4372 Clouds 6 1018 70 10000 3.1 310 20:43 10.11.2019
4373 Rain 6 1018 65 10000 3.6 320 20:22 10.11.2019
4374 Clouds 6 1018 70 10000 2.6 330 19:57 10.11.2019
4375 Clouds 6 1018 70 10000 2.6 330 19:57 10.11.2019
4376 Clouds 7 1017 70 10000 4.1 300 19:38 10.11.2019
4377 Clouds 7 1017 70 10000 4.1 310 19:19 10.11.2019
4378 Clouds 7 1017 70 10000 4.1 310 19:19 10.11.2019
4379 Clouds 7 1017 70 10000 4.1 310 18:58 10.11.2019
4380 Clouds 7 1017 70 10000 6.7 290 18:40 10.11.2019
4381 Clouds 8 1016 70 10000 6.7 280 18:20 10.11.2019
4382 Clouds 8 1016 70 10000 6.7 280 17:57 10.11.2019
4383 Clouds 8 1016 75 10000 5.1 250 17:39 10.11.2019
4384 Clouds 8 1016 81 10000 4.1 280 17:20 10.11.2019
4385 Clouds 8 1016 81 10000 4.1 280 16:59 10.11.2019
4386 Clouds 8 1016 75 10000 8.7 270 16:41 10.11.2019
4387 Clouds 8 1016 75 10000 8.7 270 16:22 10.11.2019
4388 Clouds 8 1016 70 10000 7.2 280 15:56 10.11.2019
4389 Clouds 8 1016 70 10000 8.2 280 15:37 10.11.2019
4390 Clouds 9 1016 57 10000 6.7 290 15:18 10.11.2019
4391 Clouds 9 1016 57 10000 6.7 290 14:55 10.11.2019
4392 Clouds 9 1016 61 10000 8.2 290 14:36 10.11.2019
4393 Clouds 9 1016 57 10000 8.7 270 14:18 10.11.2019
4394 Clouds 10 1017 50 10000 6.7 300 13:43 10.11.2019
4395 Clouds 9 1017 53 10000 6.2 310 13:21 10.11.2019
4396 Clouds 9 1017 53 10000 6.2 310 12:59 10.11.2019
4397 Clouds 10 1017 50 10000 4.6 290 12:40 10.11.2019
4398 Clouds 9 1018 56 10000 6.2 300 12:19 10.11.2019
4399 Clouds 9 1018 56 10000 6.2 300 11:55 10.11.2019
4400 Clouds 9 1018 56 10000 5.7 290 11:37 10.11.2019
4401 Clear 9 1018 53 10000 5.7 320 11:18 10.11.2019
4402 Clear 9 1018 53 10000 5.7 320 11:18 10.11.2019
4403 Clear 9 1017 53 10000 3.1 0 10:42 10.11.2019
4404 Clear 8 1017 53 10000 3.1 0 10:42 10.11.2019
4405 Clear 8 1017 53 10000 3.1 0 10:20 10.11.2019
4406 Clear 7 1017 53 10000 3.6 320 09:55 10.11.2019
4407 Clear 7 1017 53 10000 4.1 320 09:37 10.11.2019
4408 Clear 6 1017 53 10000 4.1 320 09:18 10.11.2019
4409 Clear 6 1017 60 10000 4.1 340 08:39 10.11.2019
4410 Clear 6 1017 60 10000 4.1 340 08:39 10.11.2019
4411 Clouds 6 1017 60 10000 4.1 340 08:20 10.11.2019
4412 Clouds 6 1016 60 10000 6.2 320 07:44 10.11.2019
4413 Clouds 6 1016 60 10000 6.2 320 07:26 10.11.2019
4414 Clouds 6 1016 56 10000 5.1 330 06:54 10.11.2019
4415 Clouds 6 1016 56 10000 3.6 330 05:51 10.11.2019
4416 Clouds 8 1016 71 10000 6.7 320 03:31 10.11.2019
4417 Clouds 9 1015 61 10000 5.7 290 02:22 10.11.2019
4418 Clouds 9 1015 61 10000 5.7 290 01:20 10.11.2019
4419 Clouds 9 1016 61 10000 6.7 290 00:49 10.11.2019
4420 Clouds 9 1016 61 10000 6.7 290 00:23 10.11.2019
4421 Clouds 8 1015 76 10000 4.6 260 23:40 09.11.2019
4422 Clouds 8 1016 93 10000 2.6 190 23:19 09.11.2019
4423 Clouds 8 1016 87 10000 5.7 230 22:42 09.11.2019
4424 Clouds 8 1016 87 10000 5.7 230 22:22 09.11.2019
4425 Clouds 8 1015 87 10000 6.7 230 21:58 09.11.2019
4426 Clouds 8 1016 87 10000 6.7 230 21:39 09.11.2019
4427 Clouds 8 1016 87 10000 6.7 230 21:20 09.11.2019
4428 Clouds 7 1016 87 10000 1 330 20:56 09.11.2019
4429 Clouds 7 1017 93 10000 7.2 240 20:37 09.11.2019
4430 Clouds 7 1017 100 10000 7.2 240 20:18 09.11.2019
4431 Clouds 7 1017 87 10000 3.6 240 19:41 09.11.2019
4432 Clouds 7 1018 93 10000 7.2 240 19:23 09.11.2019
4433 Clouds 7 1018 93 10000 7.2 240 18:59 09.11.2019
4434 Rain 7 1018 93 4000 7.7 230 18:39 09.11.2019
4435 Rain 7 1017 100 10000 2.6 0 18:19 09.11.2019
4436 Drizzle 7 1018 87 3000 5.7 240 17:43 09.11.2019
4437 Rain 8 1018 87 8000 6.2 240 17:23 09.11.2019
4438 Rain 8 1018 87 8000 6.2 240 16:59 09.11.2019
4439 Drizzle 9 1018 81 8000 5.7 230 16:41 09.11.2019
4440 Drizzle 9 1018 81 8000 5.7 230 16:20 09.11.2019
4441 Clouds 10 1019 50 10000 7.2 240 15:43 09.11.2019
4442 Clouds 10 1019 50 10000 7.2 240 15:24 09.11.2019
4443 Clouds 11 1019 50 10000 6.2 230 14:59 09.11.2019
4444 Clouds 11 1019 46 10000 6.7 230 14:40 09.11.2019
4445 Clouds 11 1020 46 10000 5.1 220 14:18 09.11.2019
4446 Clouds 11 1020 46 10000 5.1 220 13:56 09.11.2019
4447 Clouds 11 1020 53 10000 6.2 240 13:36 09.11.2019
4448 Clouds 11 1020 53 10000 3.1 220 13:18 09.11.2019
4449 Clouds 10 1021 57 10000 5.1 250 12:42 09.11.2019
4450 Clouds 10 1021 57 10000 5.1 250 12:23 09.11.2019
4451 Clouds 10 1021 61 10000 7.2 260 11:56 09.11.2019
4452 Clouds 10 1021 61 10000 6.7 260 11:38 09.11.2019
4453 Clouds 9 1021 57 10000 7.7 270 11:18 09.11.2019
4454 Clouds 8 1021 61 10000 6.7 270 10:41 09.11.2019
4455 Clouds 7 1021 65 10000 8.7 260 10:19 09.11.2019
4456 Clouds 7 1021 65 10000 8.7 260 10:19 09.11.2019
4457 Clouds 7 1021 65 10000 8.7 260 09:56 09.11.2019
4458 Clouds 7 1021 65 10000 6.2 250 09:38 09.11.2019
4459 Clouds 6 1021 70 10000 4.1 250 09:18 09.11.2019
4460 Clouds 5 1021 75 10000 5.7 260 08:43 09.11.2019
4461 Clouds 6 1021 75 10000 5.1 270 08:24 09.11.2019
4462 Clouds 6 1021 70 10000 3.6 260 07:48 09.11.2019
4463 Clouds 6 1021 70 10000 3.1 290 07:24 09.11.2019
4464 Clouds 6 1021 61 10000 5.7 280 06:56 09.11.2019
4465 Clouds 6 1021 65 10000 3.6 290 06:38 09.11.2019
4466 Clouds 6 1020 65 10000 4.6 290 06:19 09.11.2019
4467 Clouds 6 1020 65 10000 5.1 290 05:37 09.11.2019
4468 Clear 6 1020 65 10000 6.7 280 03:57 09.11.2019
4469 Clear 6 1020 61 10000 6.7 280 02:45 09.11.2019
4470 Clear 6 1020 61 10000 6.7 280 02:22 09.11.2019
4471 Clear 7 1020 61 10000 6.7 270 01:18 09.11.2019
4472 Clear 7 1020 61 10000 5.1 270 00:39 09.11.2019
4473 Clouds 8 1020 57 10000 5.7 260 00:21 09.11.2019
4474 Clouds 8 1020 57 10000 6.2 260 23:40 08.11.2019
4475 Clouds 8 1020 57 10000 6.7 270 23:22 08.11.2019
4476 Clouds 8 1019 53 10000 7.2 260 22:50 08.11.2019
4477 Clouds 9 1019 53 10000 7.2 270 22:22 08.11.2019
4478 Clouds 9 1019 53 10000 7.2 270 21:59 08.11.2019
4479 Clear 9 1020 57 10000 6.2 280 21:40 08.11.2019
4480 Clouds 9 1019 51 10000 8.2 270 21:22 08.11.2019
4481 Clouds 9 1019 51 10000 8.2 270 20:57 08.11.2019
4482 Clouds 9 1019 57 10000 5.1 260 20:38 08.11.2019
4483 Clouds 9 1019 51 10000 6.2 270 20:18 08.11.2019
4484 Clouds 9 1018 51 10000 6.2 270 19:40 08.11.2019
4485 Clouds 9 1018 51 10000 5.7 260 19:19 08.11.2019
4486 Clouds 9 1018 51 10000 5.7 260 19:19 08.11.2019
4487 Clouds 10 1018 51 10000 6.7 260 18:57 08.11.2019
4488 Clouds 10 1018 51 10000 6.7 260 18:57 08.11.2019
4489 Clouds 10 1017 51 10000 4.6 250 18:57 08.11.2019
4490 Clouds 10 1017 51 10000 4.6 250 18:39 08.11.2019
4491 Clouds 11 1017 43 10000 6.7 250 18:20 08.11.2019
4492 Clouds 11 1017 43 10000 6.7 250 17:56 08.11.2019
4493 Clouds 11 1017 37 10000 5.7 300 17:38 08.11.2019
4494 Clouds 11 1016 37 10000 5.1 280 17:20 08.11.2019
4495 Clouds 12 1016 37 10000 5.1 280 16:59 08.11.2019
4496 Clouds 12 1016 40 10000 7.2 290 16:40 08.11.2019
4497 Clouds 12 1016 40 10000 7.2 290 16:40 08.11.2019
4498 Clouds 12 1016 40 10000 7.2 290 16:21 08.11.2019
4499 Clouds 12 1016 40 10000 7.2 320 15:59 08.11.2019
4500 Clouds 12 1016 35 10000 6.2 350 15:40 08.11.2019
4501 Clouds 12 1015 37 10000 6.7 260 15:22 08.11.2019
4502 Clouds 12 1015 37 10000 6.7 260 15:22 08.11.2019
4503 Clouds 12 1015 37 10000 6.7 260 14:57 08.11.2019
4504 Clouds 12 1015 40 10000 6.2 240 14:38 08.11.2019
4505 Clouds 11 1016 46 10000 3.6 240 14:20 08.11.2019
4506 Clouds 11 1016 46 10000 3.6 240 13:58 08.11.2019
4507 Clouds 11 1016 46 10000 3.6 240 13:58 08.11.2019
4508 Clouds 11 1016 37 10000 4.6 260 13:39 08.11.2019
4509 Clouds 11 1016 37 10000 4.6 260 13:39 08.11.2019
4510 Clouds 11 1016 53 10000 6.2 250 13:20 08.11.2019
4511 Clouds 10 1016 57 10000 9.3 270 12:45 08.11.2019
4512 Clouds 10 1016 57 10000 9.3 270 12:27 08.11.2019
4513 Clouds 9 1016 39 10000 9.3 260 11:58 08.11.2019
4514 Clouds 9 1016 65 10000 8.7 250 11:40 08.11.2019
4515 Clouds 8 1016 65 10000 8.2 270 11:20 08.11.2019
4516 Clouds 8 1016 65 10000 8.2 270 10:57 08.11.2019
4517 Clouds 7 1015 50 10000 8.7 280 10:39 08.11.2019
4518 Clouds 6 1015 70 10000 7.7 270 10:21 08.11.2019
4519 Clouds 6 1015 70 10000 7.7 270 09:55 08.11.2019
4520 Clouds 6 1015 50 10000 4.6 230 09:36 08.11.2019
4521 Clouds 5 1014 50 10000 7.2 270 09:18 08.11.2019
4522 Clouds 5 1014 50 10000 3.1 220 08:41 08.11.2019
4523 Clouds 6 1014 65 10000 5.7 230 08:19 08.11.2019
4524 Clouds 5 1014 69 10000 5.1 240 07:41 08.11.2019
4525 Clouds 5 1014 69 10000 5.1 240 07:23 08.11.2019
4526 Clear 6 1013 59 10000 4.1 270 06:43 08.11.2019
4527 Clear 5 1013 60 10000 6.7 270 06:25 08.11.2019
4528 Clear 5 1013 60 10000 6.7 270 05:57 08.11.2019
4529 Clear 5 1012 60 10000 6.7 290 05:25 08.11.2019
4530 Clouds 6 1012 60 10000 5.1 250 04:19 08.11.2019
4531 Clouds 6 1012 60 10000 4.1 240 03:42 08.11.2019
4532 Clouds 6 1011 52 10000 4.6 250 02:55 08.11.2019
4533 Clouds 6 1012 49 10000 6.2 260 01:50 08.11.2019
4534 Clouds 6 1012 50 10000 6.2 260 01:32 08.11.2019
4535 Clouds 6 1012 50 10000 4.6 280 00:40 08.11.2019
4536 Clouds 5 1012 50 10000 6.2 280 00:20 08.11.2019
4537 Clouds 5 1012 65 10000 6.2 270 23:46 07.11.2019
4538 Clouds 5 1012 65 10000 6.2 270 23:27 07.11.2019
4539 Clouds 6 1012 70 10000 5.1 270 22:57 07.11.2019
4540 Clouds 6 1012 70 10000 7.2 280 22:37 07.11.2019
4541 Rain 6 1012 75 10000 6.7 250 22:19 07.11.2019
4542 Rain 7 1013 66 10000 7.7 320 21:39 07.11.2019
4543 Rain 7 1012 57 10000 5.1 310 21:20 07.11.2019
4544 Rain 7 1012 57 10000 5.1 310 20:59 07.11.2019
4545 Clouds 7 1012 65 10000 5.1 260 20:40 07.11.2019
4546 Clouds 8 1012 61 10000 7.7 280 20:21 07.11.2019
4547 Clouds 8 1012 61 10000 7.7 280 20:21 07.11.2019
4548 Clouds 8 1012 61 10000 7.7 280 19:57 07.11.2019
4549 Clouds 8 1012 63 10000 7.7 290 19:39 07.11.2019
4550 Clouds 9 1012 57 10000 9.3 290 19:20 07.11.2019
4551 Clouds 9 1012 57 10000 9.3 290 18:57 07.11.2019
4552 Rain 10 1011 50 10000 8.2 280 18:38 07.11.2019
4553 Clouds 11 1011 43 10000 7.2 280 18:19 07.11.2019
4554 Clouds 11 1011 43 10000 7.2 280 17:55 07.11.2019
4555 Clouds 11 1011 43 10000 7.2 270 17:37 07.11.2019
4556 Clouds 11 1011 43 10000 7.2 270 17:19 07.11.2019
4557 Clouds 12 1011 37 10000 8.7 280 16:54 07.11.2019
4558 Clouds 12 1011 40 10000 7.7 290 16:36 07.11.2019
4559 Clouds 12 1012 37 10000 7.7 290 16:18 07.11.2019
4560 Clouds 12 1012 35 10000 7.2 280 15:40 07.11.2019
4561 Clouds 12 1012 35 10000 7.2 280 15:20 07.11.2019
4562 Clouds 12 1012 35 10000 7.2 280 15:20 07.11.2019
4563 Clouds 12 1012 35 10000 7.7 290 14:57 07.11.2019
4564 Clouds 12 1012 50 10000 7.7 280 14:37 07.11.2019
4565 Clouds 12 1012 50 10000 7.7 280 14:19 07.11.2019
4566 Clouds 11 1012 50 10000 6.7 280 13:55 07.11.2019
4567 Clouds 11 1013 50 10000 7.2 280 13:36 07.11.2019
4568 Clouds 11 1013 50 10000 7.2 280 13:18 07.11.2019
4569 Clouds 11 1012 46 10000 7.7 320 12:55 07.11.2019
4570 Clouds 11 1012 54 10000 5.1 290 12:37 07.11.2019
4571 Clouds 11 1012 53 10000 6.7 290 12:18 07.11.2019
4572 Clouds 11 1012 50 10000 9.3 280 11:41 07.11.2019
4573 Clouds 12 1012 50 10000 9.3 280 11:22 07.11.2019
4574 Clouds 11 1012 58 10000 8.2 290 10:42 07.11.2019
4575 Clouds 11 1012 66 10000 3.6 290 10:19 07.11.2019
4576 Clouds 11 1012 66 10000 3.6 290 10:19 07.11.2019
4577 Clouds 11 1011 81 10000 5.1 260 09:55 07.11.2019
4578 Clouds 11 1011 93 10000 4.1 240 09:37 07.11.2019
4579 Clouds 11 1011 93 10000 4.1 240 09:19 07.11.2019
4580 -273 0 0 0 0 0 08:45 07.11.2019
4581 Clouds 10 1010 93 10000 5.1 240 08:44 07.11.2019
4582 Clouds 10 1010 93 10000 5.1 240 08:23 07.11.2019
4583 Clouds 10 1010 93 10000 5.1 240 08:23 07.11.2019
4584 Clouds 10 1011 100 10000 4.6 240 07:57 07.11.2019
4585 Drizzle 10 1010 93 10000 5.7 230 07:39 07.11.2019
4586 Clouds 10 1011 100 10000 4.6 240 07:38 07.11.2019
4587 Drizzle 10 1010 93 10000 5.7 230 07:20 07.11.2019
4588 Clouds 10 1010 87 10000 5.7 230 06:45 07.11.2019
4589 -273 0 0 0 0 0 06:24 07.11.2019
4590 Clouds 10 1010 87 10000 6.7 220 05:49 07.11.2019
4591 -273 0 0 0 0 0 05:30 07.11.2019
4592 Clouds 10 1011 87 10000 8.2 230 04:51 07.11.2019
4593 Clouds 9 1011 87 10000 8.7 230 04:29 07.11.2019
4594 Clouds 10 1013 66 10000 4.1 220 01:28 07.11.2019
4595 Clouds 10 1013 62 10000 3.1 190 00:32 07.11.2019
4596 Clouds 10 1014 58 10000 3.6 210 23:58 06.11.2019
4597 Clouds 10 1014 62 10000 4.6 230 23:40 06.11.2019
4598 Clouds 10 1014 58 10000 4.6 230 23:18 06.11.2019
4599 Clouds 10 1014 62 10000 2.6 250 22:40 06.11.2019
4600 Clouds 10 1014 62 10000 2.6 250 22:21 06.11.2019
4601 Clear 10 1014 58 10000 4.1 230 21:57 06.11.2019
4602 Clouds 10 1014 58 10000 2.1 210 21:39 06.11.2019
4603 Clouds 10 1014 58 10000 2.1 210 21:19 06.11.2019
4604 Clouds 10 1014 58 10000 3.6 230 20:57 06.11.2019
4605 Clear 11 1015 62 10000 2.6 220 20:39 06.11.2019
4606 Clouds 11 1015 62 10000 2.6 220 20:20 06.11.2019
4607 Clouds 11 1015 66 10000 3.6 230 19:57 06.11.2019
4608 Clouds 11 1015 66 10000 3.1 240 19:37 06.11.2019
4609 Clouds 11 1015 66 10000 3.1 240 19:19 06.11.2019
4610 Clouds 12 1015 58 10000 6.2 250 18:55 06.11.2019
4611 Clouds 12 1015 54 10000 5.1 240 18:37 06.11.2019
4612 Clouds 13 1014 54 10000 4.6 240 18:18 06.11.2019
4613 Clouds 13 1014 44 10000 2.6 280 17:42 06.11.2019
4614 Clouds 14 1015 47 10000 4.1 290 17:23 06.11.2019
4615 Clouds 14 1015 47 10000 4.1 290 16:57 06.11.2019
4616 Clouds 14 1015 47 10000 4.6 270 16:39 06.11.2019
4617 Clouds 14 1015 47 10000 4.1 290 16:21 06.11.2019
4618 Clouds 14 1015 47 10000 4.1 290 15:58 06.11.2019
4619 Clouds 14 1015 47 10000 4.1 300 15:38 06.11.2019
4620 Clouds 14 1015 47 10000 4.1 300 15:38 06.11.2019
4621 Clouds 14 1015 47 10000 4.1 300 15:38 06.11.2019
4622 Clouds 14 1015 50 10000 5.1 280 15:19 06.11.2019
4623 Clouds 14 1016 47 10000 6.2 270 14:57 06.11.2019
4624 Clouds 14 1016 47 10000 3.1 320 14:39 06.11.2019
4625 Clouds 14 1016 47 10000 3.1 320 14:39 06.11.2019
4626 Clouds 13 1016 50 10000 4.1 330 14:21 06.11.2019
4627 Clouds 13 1016 50 10000 4.1 330 13:59 06.11.2019
4628 Clouds 13 1016 50 10000 4.1 330 13:59 06.11.2019
4629 Clouds 13 1016 50 10000 4.6 320 13:37 06.11.2019
4630 Clouds 12 1017 50 10000 5.1 310 13:19 06.11.2019
4631 Clouds 13 1017 50 10000 5.1 310 12:55 06.11.2019
4632 Clouds 12 1017 54 10000 5.1 310 12:37 06.11.2019
4633 Clouds 12 1017 57 10000 4.6 310 12:18 06.11.2019
4634 Clouds 12 1017 57 10000 4.6 310 11:56 06.11.2019
4635 Clouds 12 1017 57 10000 4.1 310 11:36 06.11.2019
4636 Clouds 11 1017 62 10000 4.1 310 11:18 06.11.2019
4637 Clouds 11 1017 62 10000 4.1 310 10:55 06.11.2019
4638 Clouds 11 1017 62 10000 4.1 310 10:55 06.11.2019
4639 Clouds 11 1017 66 10000 3.6 320 10:37 06.11.2019
4640 Clouds 10 1017 70 10000 4.1 300 10:18 06.11.2019
4641 Clouds 9 1017 70 10000 5.7 290 09:41 06.11.2019
4642 Clouds 9 1017 70 10000 4.6 270 09:21 06.11.2019
4643 Clouds 8 1017 70 10000 4.6 270 08:56 06.11.2019
4644 Clouds 8 1016 75 10000 5.1 260 08:38 06.11.2019
4645 Clear 8 1016 70 10000 7.7 270 08:18 06.11.2019
4646 Clear 8 1016 75 10000 5.1 260 07:46 06.11.2019
4647 Clear 8 1016 75 10000 5.1 260 07:28 06.11.2019
4648 Clear 8 1016 70 10000 4.1 290 06:53 06.11.2019
4649 Clear 8 1016 70 10000 4.1 290 06:34 06.11.2019
4650 Clear 8 1015 70 10000 6.2 290 05:58 06.11.2019
4651 Clouds 9 1015 66 10000 5.7 260 03:48 06.11.2019
4652 Clouds 10 1015 62 10000 3.6 270 01:59 06.11.2019
4653 Clouds 10 1015 62 10000 6.7 300 00:48 06.11.2019
4654 Clouds 10 1015 58 10000 7.7 270 00:26 06.11.2019
4655 Clouds 10 1015 62 10000 3.6 320 23:41 05.11.2019
4656 Clouds 10 1015 71 10000 3.6 300 23:22 05.11.2019
4657 Clouds 10 1015 71 10000 3.6 300 22:59 05.11.2019
4658 Clouds 10 1014 66 10000 5.7 290 22:41 05.11.2019
4659 Clouds 10 1014 71 10000 4.6 280 22:19 05.11.2019
4660 Clouds 10 1014 66 10000 5.7 300 21:55 05.11.2019
4661 Clouds 10 1014 66 10000 5.7 300 21:37 05.11.2019
4662 Clouds 10 1013 62 10000 6.7 270 21:19 05.11.2019
4663 Clouds 10 1013 62 10000 6.7 270 20:56 05.11.2019
4664 Clouds 10 1014 81 10000 4.6 280 20:37 05.11.2019
4665 Drizzle 10 1014 81 10000 4.6 280 20:19 05.11.2019
4666 Rain 10 1014 81 10000 5.7 330 19:42 05.11.2019
4667 Rain 10 1013 81 9000 4.6 330 19:23 05.11.2019
4668 Rain 10 1013 81 9000 4.6 330 18:58 05.11.2019
4669 Rain 10 1012 54 10000 5.7 280 18:40 05.11.2019
4670 Rain 11 1012 54 10000 5.7 280 18:21 05.11.2019
4671 Clouds 11 1012 50 10000 6.7 280 17:59 05.11.2019
4672 Rain 12 1012 75 8000 3.6 300 17:39 05.11.2019
4673 Clouds 13 1011 54 10000 8.2 280 17:20 05.11.2019
4674 Clouds 13 1011 54 10000 8.2 280 16:57 05.11.2019
4675 Clouds 13 1011 54 10000 8.2 280 16:57 05.11.2019
4676 Clouds 13 1011 71 10000 5.7 360 16:39 05.11.2019
4677 Clouds 13 1011 50 10000 7.7 270 16:19 05.11.2019
4678 Clouds 13 1011 50 10000 7.7 270 16:19 05.11.2019
4679 Clouds 13 1011 54 10000 9.8 270 15:39 05.11.2019
4680 Clouds 14 1011 54 10000 7.7 270 15:20 05.11.2019
4681 Clouds 13 1011 54 10000 9.8 270 15:20 05.11.2019
4682 Clouds 14 1011 54 10000 7.7 270 14:59 05.11.2019
4683 Clouds 14 1011 62 10000 5.7 250 14:40 05.11.2019
4684 Clouds 13 1011 66 10000 6.2 240 14:21 05.11.2019
4685 Clouds 13 1012 76 10000 6.2 230 13:58 05.11.2019
4686 Clouds 13 1012 76 10000 6.2 230 13:58 05.11.2019
4687 Clouds 13 1012 76 10000 6.2 230 13:39 05.11.2019
4688 Clouds 12 1012 76 10000 6.2 230 13:21 05.11.2019
4689 Clouds 11 1012 71 10000 4.6 220 12:40 05.11.2019
4690 Clouds 11 1012 71 10000 7.2 220 12:21 05.11.2019
4691 Clouds 11 1012 71 10000 7.2 220 11:56 05.11.2019
4692 Clouds 11 1012 76 10000 7.2 230 11:37 05.11.2019
4693 Clouds 10 1012 76 10000 6.7 230 11:19 05.11.2019
4694 Clouds 10 1012 81 10000 6.7 240 10:48 05.11.2019
4695 Clouds 10 1012 81 10000 6.7 240 10:27 05.11.2019
4696 Clouds 10 1012 81 10000 6.7 240 10:27 05.11.2019
4697 Clouds 9 1012 81 10000 7.7 240 09:59 05.11.2019
4698 Clouds 9 1012 81 10000 7.7 240 09:59 05.11.2019
4699 Clouds 9 1011 87 10000 5.7 250 09:41 05.11.2019
4700 Clouds 9 1011 81 10000 6.2 230 09:20 05.11.2019
4701 Clouds 8 1011 81 10000 6.2 230 08:57 05.11.2019
4702 Clouds 8 1010 93 10000 5.1 230 08:37 05.11.2019
4703 Clouds 8 1010 93 10000 5.1 230 08:19 05.11.2019
4704 Clouds 8 1010 87 10000 7.2 240 07:45 05.11.2019
4705 Clouds 9 1010 87 10000 7.2 240 07:26 05.11.2019
4706 Clouds 8 1010 93 10000 6.2 250 06:52 05.11.2019
4707 Clouds 8 1010 93 10000 6.2 250 06:33 05.11.2019
4708 Clouds 9 1009 61 10000 4.6 250 05:49 05.11.2019
4709 Clouds 9 1008 57 10000 6.7 270 05:21 05.11.2019
4710 Clouds 9 1008 61 10000 4.1 270 04:22 05.11.2019
4711 Clouds 9 1009 66 10000 5.1 250 03:31 05.11.2019
4712 Clouds 9 1008 66 10000 6.2 260 02:43 05.11.2019
4713 Clouds 9 1008 66 10000 5.7 270 01:56 05.11.2019
4714 Clouds 10 1008 81 10000 4.1 290 00:48 05.11.2019
4715 Clouds 10 1008 81 10000 4.1 290 00:27 05.11.2019
4716 Rain 11 1008 81 10000 4.6 260 23:43 04.11.2019
4717 Rain 11 1008 81 10000 4.6 260 23:19 04.11.2019
4718 Rain 11 1007 76 8000 5.7 280 22:58 04.11.2019
4719 Drizzle 12 1007 87 6000 5.7 270 22:40 04.11.2019
4720 Drizzle 12 1007 87 6000 5.7 270 22:20 04.11.2019
4721 Clouds 12 1007 82 10000 7.2 240 21:55 04.11.2019
4722 Rain 12 1007 82 10000 7.7 250 21:55 04.11.2019
4723 Clouds 12 1007 82 10000 7.2 240 21:37 04.11.2019
4724 Clouds 12 1007 82 10000 9.3 240 21:18 04.11.2019
4725 Clouds 12 1007 82 10000 9.3 240 21:18 04.11.2019
4726 Clouds 12 1007 82 10000 9.3 240 20:56 04.11.2019
4727 Clouds 12 1007 82 10000 9.3 240 20:56 04.11.2019
4728 Clouds 12 1007 100 10000 5.1 280 20:37 04.11.2019
4729 Clouds 13 1007 87 9000 8.2 230 20:19 04.11.2019
4730 Clouds 13 1007 87 9000 8.2 230 19:57 04.11.2019
4731 Rain 13 1007 93 10000 9.3 220 19:38 04.11.2019
4732 Rain 13 1007 93 10000 9.3 220 19:20 04.11.2019
4733 Drizzle 13 1007 87 4500 11.3 220 18:54 04.11.2019
4734 Drizzle 13 1007 87 4500 11.3 220 18:36 04.11.2019
4735 Rain 14 1008 82 7000 7.2 240 18:18 04.11.2019
4736 Rain 14 1008 82 7000 7.2 240 18:18 04.11.2019
4737 Clouds 15 1008 72 10000 10.3 220 17:38 04.11.2019
4738 Clouds 15 1008 72 10000 10.3 230 17:19 04.11.2019
4739 Clouds 16 1008 67 10000 10.8 220 16:55 04.11.2019
4740 Clouds 15 1008 72 10000 10.3 230 16:55 04.11.2019
4741 Clouds 16 1008 67 10000 10.8 220 16:55 04.11.2019
4742 Clouds 16 1008 67 10000 10.8 220 16:36 04.11.2019
4743 Clouds 16 1009 67 10000 10.8 220 16:18 04.11.2019
4744 Clouds 16 1008 63 10000 10.3 230 15:41 04.11.2019
4745 Clouds 16 1009 67 10000 11.3 230 15:22 04.11.2019
4746 Clouds 16 1009 67 10000 11.3 230 14:59 04.11.2019
4747 Clouds 16 1010 72 10000 11.3 240 14:41 04.11.2019
4748 Clouds 16 1010 63 10000 11.8 220 14:21 04.11.2019
4749 Clouds 16 1010 63 10000 11.8 220 13:58 04.11.2019
4750 Clouds 16 1010 67 10000 11.3 230 13:40 04.11.2019
4751 Clouds 15 1010 67 10000 9.3 230 13:21 04.11.2019
4752 Clouds 16 1010 67 10000 13.4 240 13:21 04.11.2019
4753 Clouds 15 1010 67 10000 9.3 230 13:21 04.11.2019
4754 Clouds 15 1010 67 10000 9.3 230 13:21 04.11.2019
4755 Clouds 15 1010 67 10000 9.3 230 12:57 04.11.2019
4756 Clouds 15 1010 67 10000 9.3 230 12:57 04.11.2019
4757 Clouds 15 1011 72 10000 10.8 230 12:39 04.11.2019
4758 Clouds 15 1011 76 10000 9.3 230 12:20 04.11.2019
4759 Clouds 14 1011 76 10000 9.3 230 11:55 04.11.2019
4760 Clouds 14 1012 82 10000 7.2 220 11:37 04.11.2019
4761 Clouds 14 1012 82 10000 7.2 220 11:18 04.11.2019
4762 Clouds 14 1012 82 10000 6.7 220 10:41 04.11.2019
4763 Clouds 14 1012 82 10000 6.7 220 10:23 04.11.2019
4764 Clouds 13 1012 93 10000 7.2 220 09:46 04.11.2019
4765 Clouds 13 1012 93 10000 7.2 220 09:28 04.11.2019
4766 Fog 12 1011 100 400 5.7 220 08:59 04.11.2019
4767 Fog 12 1011 100 400 5.7 220 08:38 04.11.2019
4768 Clouds 12 1012 93 10000 7.2 230 08:20 04.11.2019
4769 Clouds 12 1012 100 9000 7.7 220 07:44 04.11.2019
4770 Clouds 12 1012 82 10000 6.2 230 07:24 04.11.2019
4771 Clouds 12 1012 82 10000 6.2 230 06:57 04.11.2019
4772 Rain 12 1013 93 10000 5.7 240 06:34 04.11.2019
4773 Clouds 12 1012 82 10000 6.2 230 05:49 04.11.2019
4774 Clouds 12 1012 93 10000 6.2 220 04:44 04.11.2019
4775 Clouds 12 1012 82 10000 6.7 230 04:21 04.11.2019
4776 Clouds 12 1013 76 10000 7.2 240 02:32 04.11.2019
4777 Clouds 13 1013 67 10000 6.2 230 01:22 04.11.2019
4778 Clouds 13 1013 71 10000 6.7 220 00:43 04.11.2019
4779 Clouds 13 1013 58 10000 5.1 230 00:21 04.11.2019
4780 Clouds 13 1013 54 10000 5.7 230 23:43 03.11.2019
4781 Clouds 14 1013 54 10000 5.7 230 23:22 03.11.2019
4782 Clouds 14 1012 51 10000 6.2 230 22:59 03.11.2019
4783 Clouds 14 1012 54 10000 4.1 200 22:41 03.11.2019
4784 Clouds 14 1012 54 10000 4.1 200 22:20 03.11.2019
4785 Clouds 14 1012 55 10000 6.2 240 21:58 03.11.2019
4786 Clear 14 1013 62 10000 4.6 230 21:40 03.11.2019
4787 Clear 14 1012 54 10000 3.6 260 21:20 03.11.2019
4788 Clear 14 1012 54 10000 3.6 260 20:56 03.11.2019
4789 Clear 13 1012 54 10000 7.7 250 20:36 03.11.2019
4790 Clear 13 1012 54 10000 7.2 260 20:18 03.11.2019
4791 Clear 13 1012 54 10000 7.2 260 19:55 03.11.2019
4792 Clouds 13 1012 54 10000 6.7 270 19:37 03.11.2019
4793 Clouds 14 1011 50 10000 9.3 270 19:19 03.11.2019
4794 Clouds 14 1011 50 10000 9.8 270 18:39 03.11.2019
4795 Clouds 15 1011 50 10000 9.8 280 18:19 03.11.2019
4796 Clouds 15 1011 50 10000 9.8 280 17:58 03.11.2019
4797 Clouds 15 1010 51 10000 8.7 270 17:40 03.11.2019
4798 Clouds 15 1010 51 10000 12.3 270 17:19 03.11.2019
4799 Clouds 15 1010 51 10000 12.3 270 16:56 03.11.2019
4800 Clouds 16 1010 44 10000 11.3 280 16:38 03.11.2019
4801 Clouds 16 1010 48 10000 10.8 270 16:19 03.11.2019
4802 Clouds 16 1010 48 10000 10.8 270 15:56 03.11.2019
4803 Clouds 16 1009 48 10000 8.7 270 15:38 03.11.2019
4804 Clouds 16 1009 48 10000 8.7 280 15:20 03.11.2019
4805 Clouds 16 1009 48 10000 11.8 270 14:41 03.11.2019
4806 Clouds 16 1009 48 10000 11.3 280 14:19 03.11.2019
4807 Clouds 16 1009 48 10000 11.3 280 14:19 03.11.2019
4808 Clouds 16 1009 44 10000 9.8 280 13:56 03.11.2019
4809 Clouds 16 1009 44 10000 9.8 280 13:37 03.11.2019
4810 Clouds 16 1008 41 10000 6.2 0 13:18 03.11.2019
4811 Clouds 16 1009 51 10000 11.3 270 13:18 03.11.2019
4812 Clouds 16 1009 51 10000 9.8 270 12:38 03.11.2019
4813 Clouds 15 1009 48 10000 8.7 300 12:20 03.11.2019
4814 Clouds 15 1009 48 10000 8.7 300 12:20 03.11.2019
4815 Clouds 15 1008 51 10000 8.7 270 11:57 03.11.2019
4816 Clouds 15 1008 54 10000 7.7 280 11:39 03.11.2019
4817 Clouds 15 1007 54 10000 12.9 280 11:20 03.11.2019
4818 Clouds 14 1006 62 10000 11.8 290 10:42 03.11.2019
4819 Clouds 14 1006 62 10000 11.8 290 10:22 03.11.2019
4820 Clouds 14 1006 82 10000 9.3 270 09:59 03.11.2019
4821 Drizzle 14 1005 93 10000 7.2 240 09:41 03.11.2019
4822 Clouds 14 1004 87 10000 8.2 230 09:23 03.11.2019
4823 Clouds 13 1003 87 10000 9.3 230 08:55 03.11.2019
4824 Clouds 13 1003 87 10000 9.3 230 08:36 03.11.2019
4825 Clouds 13 1003 87 10000 9.3 230 08:18 03.11.2019
4826 Clouds 13 1003 87 10000 7.2 230 07:43 03.11.2019
4827 Clouds 13 1002 76 10000 9.8 240 07:18 03.11.2019
4828 Clouds 13 1003 82 10000 12.9 250 06:39 03.11.2019
4829 Clouds 13 1003 76 10000 6.7 220 05:41 03.11.2019
4830 Clouds 13 1003 76 10000 7.2 220 05:19 03.11.2019
4831 Clouds 13 1003 76 10000 7.7 230 04:48 03.11.2019
4832 Clouds 13 1004 76 10000 8.7 240 03:54 03.11.2019
4833 Clouds 13 1005 71 10000 9.3 230 02:47 03.11.2019
4834 Clouds 13 1005 76 10000 8.2 230 02:21 03.11.2019
4835 Clouds 13 1005 82 10000 7.7 230 01:49 03.11.2019
4836 Clouds 13 1005 72 10000 8.2 220 01:24 03.11.2019
4837 Clouds 14 1005 67 10000 7.2 220 00:57 03.11.2019
4838 Clouds 14 1005 72 10000 9.3 220 00:37 03.11.2019
4839 Clouds 14 1006 72 10000 8.7 230 00:18 03.11.2019
4840 Clouds 14 1006 77 10000 7.7 220 23:39 02.11.2019
4841 Clouds 14 1006 77 10000 7.7 220 23:20 02.11.2019
4842 Clouds 14 1006 82 10000 6.7 230 22:56 02.11.2019
4843 Clouds 14 1006 72 10000 7.2 230 22:38 02.11.2019
4844 Clouds 14 1006 72 10000 7.2 230 22:38 02.11.2019
4845 Clouds 14 1006 72 10000 7.2 230 22:19 02.11.2019
4846 Clouds 14 1007 87 10000 6.2 240 21:57 02.11.2019
4847 Clouds 14 1007 87 10000 6.2 240 21:38 02.11.2019
4848 Clouds 15 1007 77 10000 8.2 240 21:19 02.11.2019
4849 Clouds 15 1007 77 10000 8.2 240 21:19 02.11.2019
4850 Clouds 15 1007 77 10000 8.2 240 20:59 02.11.2019
4851 Clouds 15 1008 87 10000 6.2 220 20:41 02.11.2019
4852 Clouds 15 1008 87 10000 6.2 220 20:41 02.11.2019
4853 Clouds 15 1008 82 10000 8.2 220 20:21 02.11.2019
4854 Clouds 15 1008 82 10000 8.2 220 19:58 02.11.2019
4855 Clouds 16 1008 87 10000 6.2 220 19:36 02.11.2019
4856 Rain 16 1008 87 8000 6.2 220 19:18 02.11.2019
4857 Rain 16 1008 87 8000 6.2 220 18:54 02.11.2019
4858 Clouds 16 1008 77 10000 6.7 220 18:36 02.11.2019
4859 Clouds 17 1008 77 10000 6.7 220 18:18 02.11.2019
4860 Clouds 17 1008 77 10000 6.7 220 17:55 02.11.2019
4861 Clouds 17 1009 72 10000 7.2 220 17:36 02.11.2019
4862 Clouds 18 1009 68 10000 8.7 230 17:18 02.11.2019
4863 Clouds 18 1009 68 10000 7.2 230 16:39 02.11.2019
4864 Clouds 18 1009 68 10000 9.8 230 16:20 02.11.2019
4865 Clouds 18 1009 72 10000 8.2 230 15:44 02.11.2019
4866 Clouds 18 1010 77 10000 8.7 230 15:21 02.11.2019
4867 Clouds 18 1010 77 10000 8.7 230 14:58 02.11.2019
4868 Clouds 18 1010 77 10000 8.2 230 14:40 02.11.2019
4869 Clouds 18 1010 77 10000 8.2 230 14:21 02.11.2019
4870 Clouds 18 1011 77 10000 7.7 230 13:54 02.11.2019
4871 Clouds 18 1011 77 10000 7.7 230 13:36 02.11.2019
4872 Clouds 18 1011 77 10000 9.3 230 13:18 02.11.2019
4873 Clouds 18 1012 77 10000 7.2 240 12:40 02.11.2019
4874 Clouds 17 1012 82 10000 8.2 240 12:22 02.11.2019
4875 Clouds 17 1012 82 10000 8.2 240 11:56 02.11.2019
4876 Clouds 17 1012 82 10000 7.2 230 11:38 02.11.2019
4877 Clouds 16 1012 87 10000 5.1 230 11:19 02.11.2019
4878 Clouds 16 1013 82 10000 7.2 230 10:43 02.11.2019
4879 Clouds 16 1013 82 10000 7.2 230 10:24 02.11.2019
4880 Clouds 15 1013 93 10000 7.7 240 09:54 02.11.2019
4881 Clouds 15 1013 93 10000 7.7 240 09:36 02.11.2019
4882 Clouds 15 1012 93 10000 7.7 240 09:18 02.11.2019
4883 Clouds 14 1013 93 10000 8.2 240 08:42 02.11.2019
4884 Clouds 14 1013 87 10000 7.2 230 08:19 02.11.2019
4885 Clouds 14 1013 93 10000 6.7 240 07:47 02.11.2019
4886 Clouds 14 1013 93 10000 6.7 240 07:27 02.11.2019
4887 Clouds 15 1013 87 10000 8.7 250 06:52 02.11.2019
4888 Clouds 15 1013 87 10000 8.7 250 06:25 02.11.2019
4889 Clouds 15 1013 87 10000 6.2 240 05:55 02.11.2019
4890 Clouds 15 1014 87 10000 6.7 240 04:51 02.11.2019
4891 Clouds 15 1014 87 10000 5.7 230 04:19 02.11.2019
4892 Clouds 15 1015 87 10000 6.7 240 03:45 02.11.2019
4893 Clouds 15 1015 82 10000 6.7 230 02:32 02.11.2019
4894 Clouds 15 1016 82 10000 6.2 240 01:42 02.11.2019
4895 Clouds 16 1016 82 10000 5.1 230 01:20 02.11.2019
4896 Clouds 16 1017 82 10000 4.6 230 00:42 02.11.2019
4897 Clouds 16 1017 82 10000 4.6 230 00:24 02.11.2019
4898 Clouds 16 1017 77 10000 4.6 230 23:44 01.11.2019
4899 Clouds 16 1017 82 10000 6.7 240 23:20 01.11.2019
4900 Clouds 17 1017 82 10000 6.7 240 22:55 01.11.2019
4901 Clouds 17 1017 77 10000 5.7 240 22:37 01.11.2019
4902 Clouds 17 1017 77 10000 5.7 230 22:18 01.11.2019
4903 Clouds 17 1018 82 10000 7.2 250 21:38 01.11.2019
4904 Clouds 17 1017 77 10000 7.2 240 21:20 01.11.2019
4905 Clouds 17 1018 88 10000 3.6 220 20:55 01.11.2019
4906 Clouds 17 1018 88 10000 3.6 220 20:36 01.11.2019
4907 Clouds 17 1018 88 10000 3.6 230 20:18 01.11.2019
4908 Clouds 17 1018 88 10000 5.1 240 19:41 01.11.2019
4909 Clouds 18 1018 88 10000 5.7 240 19:22 01.11.2019
4910 Clouds 18 1018 88 10000 5.7 240 18:58 01.11.2019
4911 Clouds 18 1018 82 10000 5.1 230 18:39 01.11.2019
4912 Clouds 18 1018 82 10000 5.7 240 18:18 01.11.2019
4913 Clouds 19 1018 82 10000 7.2 240 17:41 01.11.2019
4914 Clouds 19 1019 77 10000 6.7 230 17:23 01.11.2019
4915 Clouds 19 1019 77 10000 6.7 230 16:59 01.11.2019
4916 Clouds 19 1019 77 10000 6.7 230 16:37 01.11.2019
4917 Clouds 19 1019 77 10000 6.7 230 16:18 01.11.2019
4918 Clouds 19 1019 88 10000 8.2 240 15:41 01.11.2019
4919 Clouds 19 1019 88 10000 8.2 240 15:22 01.11.2019
4920 Clouds 19 1020 82 10000 6.7 230 14:58 01.11.2019
4921 Clouds 19 1020 82 10000 7.7 240 14:40 01.11.2019
4922 Clouds 19 1021 77 10000 6.7 230 14:21 01.11.2019
4923 Clouds 19 1021 77 10000 6.7 230 13:56 01.11.2019
4924 Clouds 19 1021 77 10000 5.1 210 13:37 01.11.2019
4925 Clouds 19 1022 77 10000 5.1 230 13:18 01.11.2019
4926 Clouds 19 1022 82 10000 6.2 230 12:43 01.11.2019
4927 Clouds 19 1022 82 10000 6.2 230 12:24 01.11.2019
4928 Clouds 19 1022 77 10000 5.1 250 11:43 01.11.2019
4929 Clouds 19 1022 77 10000 5.1 250 11:43 01.11.2019
4930 Clouds 19 1022 77 10000 5.1 250 11:25 01.11.2019
4931 Clouds 18 1022 88 10000 4.1 230 10:58 01.11.2019
4932 Clouds 18 1022 88 10000 2.1 210 10:39 01.11.2019
4933 Clouds 18 1022 88 10000 2.1 210 10:20 01.11.2019
4934 Fog 16 1023 93 500 2.6 210 09:45 01.11.2019
4935 Fog 16 1023 93 500 2.6 210 09:26 01.11.2019
4936 Mist 15 1022 93 3000 2.6 230 08:58 01.11.2019
4937 Mist 15 1022 93 2000 3.1 230 08:40 01.11.2019
4938 Clouds 15 1022 93 10000 3.6 180 08:21 01.11.2019
4939 Clouds 15 1022 93 10000 3.6 220 07:52 01.11.2019
4940 Clouds 15 1022 93 10000 2.1 110 07:25 01.11.2019
4941 Clouds 15 1023 93 10000 4.1 220 06:56 01.11.2019
4942 Clouds 15 1023 93 10000 4.1 220 06:37 01.11.2019
4943 Clouds 15 1022 87 10000 1.5 170 06:18 01.11.2019
4944 Clouds 15 1022 87 10000 1.5 170 06:18 01.11.2019
4945 Clouds 15 1022 93 10000 1 160 05:41 01.11.2019
4946 Clouds 15 1022 93 10000 2.6 130 03:33 01.11.2019
4947 Clouds 16 1023 93 10000 2.1 110 01:52 01.11.2019
4948 Clouds 16 1023 93 10000 1.5 160 01:28 01.11.2019
4949 Clouds 16 1023 88 10000 1.5 180 00:21 01.11.2019
4950 Rain 16 1024 88 10000 1 0 23:56 31.10.2019
4951 Rain 16 1024 77 10000 4.1 260 23:38 31.10.2019
4952 Rain 17 1024 68 10000 3.6 230 23:19 31.10.2019
4953 Clouds 17 1024 72 10000 2.6 200 22:42 31.10.2019
4954 Clouds 16 1024 72 10000 2.6 200 22:24 31.10.2019
4955 Clouds 17 1023 59 10000 1.5 190 21:58 31.10.2019
4956 Clouds 18 1023 56 10000 1 0 21:40 31.10.2019
4957 Clouds 18 1023 55 10000 1.48 306 21:18 31.10.2019
4958 Clouds 18 1024 77 10000 2.6 240 20:41 31.10.2019
4959 Clouds 18 1024 77 10000 2.6 240 20:23 31.10.2019
4960 Clouds 18 1024 77 10000 1.5 260 19:59 31.10.2019
4961 Clouds 19 1024 72 10000 2.1 280 19:38 31.10.2019
4962 Clouds 18 1024 72 10000 2.1 280 19:38 31.10.2019
4963 Clouds 19 1024 72 10000 3.6 250 19:20 31.10.2019
4964 Clouds 19 1023 72 10000 3.6 250 18:44 31.10.2019
4965 Clouds 20 1023 64 10000 4.1 240 18:26 31.10.2019
4966 Clouds 20 1023 64 10000 4.1 240 17:59 31.10.2019
4967 Clouds 20 1023 64 10000 4.1 240 17:41 31.10.2019
4968 Clouds 21 1023 60 10000 4.1 240 17:20 31.10.2019
4969 Clouds 21 1023 60 10000 4.1 240 16:55 31.10.2019
4970 Clouds 21 1023 60 10000 4.1 240 16:37 31.10.2019
4971 Clouds 21 1023 60 10000 3.6 250 16:18 31.10.2019
4972 Clouds 21 1024 60 10000 4.6 230 15:40 31.10.2019
4973 Clouds 21 1024 60 10000 4.6 230 15:22 31.10.2019
4974 Clouds 21 1024 68 10000 2.6 210 14:59 31.10.2019
4975 Clouds 21 1024 68 10000 3.6 240 14:41 31.10.2019
4976 Clouds 21 1025 64 10000 3.6 270 14:22 31.10.2019
4977 Clouds 21 1025 60 10000 4.6 270 13:59 31.10.2019
4978 Clouds 21 1025 60 10000 4.6 270 13:39 31.10.2019
4979 Clouds 21 1025 60 10000 3.6 280 13:19 31.10.2019
4980 Clouds 21 1025 60 10000 3.6 280 12:57 31.10.2019
4981 Clouds 20 1025 63 10000 4.1 260 12:38 31.10.2019
4982 Clouds 20 1025 68 10000 5.1 260 12:20 31.10.2019
4983 Clouds 19 1025 77 10000 4.1 250 11:46 31.10.2019
4984 Clouds 18 1025 77 10000 3.6 250 11:21 31.10.2019
4985 Clouds 19 1025 77 10000 4.1 250 11:21 31.10.2019
4986 Clouds 17 1025 77 10000 3.6 250 10:58 31.10.2019
4987 Clouds 17 1025 87 10000 4.6 260 10:39 31.10.2019
4988 Clouds 16 1025 93 10000 4.1 260 10:21 31.10.2019
4989 Clouds 16 1025 93 10000 4.1 260 09:56 31.10.2019
4990 Clouds 15 1024 93 10000 4.6 240 09:37 31.10.2019
4991 Clouds 15 1024 93 10000 5.1 240 09:18 31.10.2019
4992 Clouds 14 1024 93 9000 4.6 260 08:44 31.10.2019
4993 Clouds 14 1024 93 9000 4.6 260 08:26 31.10.2019
4994 Clouds 14 1023 93 10000 4.6 240 07:48 31.10.2019
4995 Clouds 14 1023 93 10000 4.6 240 07:27 31.10.2019
4996 Clouds 14 1023 93 10000 1 0 06:54 31.10.2019
4997 Clouds 14 1023 93 10000 1.5 130 06:32 31.10.2019
4998 Clouds 14 1022 87 10000 1 310 05:27 31.10.2019
4999 Clouds 14 1023 93 10000 2.32 249 03:20 31.10.2019
5000 Clouds 15 1023 87 10000 0.5 180 02:30 31.10.2019
5001 Clouds 15 1023 82 10000 1.5 210 01:24 31.10.2019
5002 Clouds 15 1023 77 10000 3.1 250 00:27 31.10.2019
5003 Clouds 15 1023 72 10000 3.6 240 23:52 30.10.2019
5004 Clouds 15 1023 72 10000 3.6 240 23:27 30.10.2019
5005 Clouds 16 1023 72 10000 4.1 230 22:43 30.10.2019
5006 Clouds 16 1023 72 10000 3.1 240 22:20 30.10.2019
5007 Clouds 16 1023 72 10000 3.1 240 21:55 30.10.2019
5008 Clouds 16 1023 68 10000 2.6 250 21:37 30.10.2019
5009 Clouds 16 1023 68 10000 2.6 250 21:18 30.10.2019
5010 Clouds 16 1023 68 10000 2.6 250 20:58 30.10.2019
5011 Clouds 16 1023 77 10000 4.6 240 20:39 30.10.2019
5012 Clouds 16 1023 72 10000 4.6 250 20:21 30.10.2019
5013 Clouds 16 1023 72 10000 4.6 250 19:55 30.10.2019
5014 Drizzle 16 1023 72 10000 3.6 230 19:37 30.10.2019
5015 Rain 17 1023 72 10000 6.2 230 19:19 30.10.2019
5016 Clouds 17 1023 67 10000 5.7 240 18:39 30.10.2019
5017 Clouds 17 1023 67 10000 5.7 240 18:19 30.10.2019
5018 Clouds 17 1023 68 10000 4.1 250 18:19 30.10.2019
5019 Clouds 17 1023 68 10000 4.1 250 17:57 30.10.2019
5020 Clouds 17 1023 68 10000 4.1 240 17:38 30.10.2019
5021 Clouds 18 1023 72 10000 3.6 250 17:19 30.10.2019
5022 Clouds 18 1023 72 10000 3.6 250 16:55 30.10.2019
5023 Clouds 18 1023 72 10000 3.6 250 16:55 30.10.2019
5024 Clouds 18 1023 68 10000 4.1 250 16:37 30.10.2019
5025 Clouds 18 1023 68 10000 2.6 210 16:18 30.10.2019
5026 Clouds 18 1023 68 10000 2.6 210 15:55 30.10.2019
5027 Clouds 18 1023 68 10000 3.1 220 15:37 30.10.2019
5028 Clouds 18 1023 63 10000 2.1 220 15:19 30.10.2019
5029 Clouds 18 1023 59 10000 2.6 190 14:42 30.10.2019
5030 Clouds 18 1023 59 8000 2.1 200 14:22 30.10.2019
5031 Clouds 18 1023 59 8000 2.1 200 13:58 30.10.2019
5032 Clouds 17 1024 68 8000 1.5 0 13:40 30.10.2019
5033 Clouds 17 1024 68 7000 1.5 140 13:20 30.10.2019
5034 Clouds 17 1024 68 7000 1.5 140 12:56 30.10.2019
5035 Clouds 17 1024 72 6000 1 0 12:37 30.10.2019
5036 Clouds 17 1024 68 6000 2.61 230 12:19 30.10.2019
5037 Clouds 16 1025 77 6000 2.61 230 11:41 30.10.2019
5038 Mist 15 1024 77 5000 1.25 118 11:22 30.10.2019
5039 Clouds 14 1024 87 6000 1.25 118 10:45 30.10.2019
5040 Clouds 14 1024 87 6000 1.25 118 10:45 30.10.2019
5041 Clouds 14 1024 87 6000 1.25 118 10:26 30.10.2019
5042 Clouds 14 1024 82 6000 1.25 118 09:58 30.10.2019
5043 Clouds 14 1024 82 6000 1.25 118 09:58 30.10.2019
5044 Clouds 14 1024 82 6000 1.25 118 09:58 30.10.2019
5045 Mist 13 1024 93 4000 1.5 90 09:39 30.10.2019
5046 Mist 12 1024 93 4000 1.5 90 09:19 30.10.2019
5047 Mist 11 1023 100 5000 1.19 133 08:42 30.10.2019
5048 Mist 11 1023 100 5000 1.19 133 08:42 30.10.2019
5049 Mist 10 1023 100 5000 0.32 95 08:22 30.10.2019
5050 Fog 10 1023 100 4200 1 140 07:56 30.10.2019
5051 Fog 10 1023 100 4200 1 140 07:37 30.10.2019
5052 Fog 10 1023 100 4200 1 140 07:37 30.10.2019
5053 Mist 11 1023 100 3500 0.32 95 06:43 30.10.2019
5054 Mist 11 1023 100 3500 0.32 95 06:25 30.10.2019
5055 Clouds 11 1022 93 7000 1 350 05:54 30.10.2019
5056 Clouds 11 1022 93 7000 1 350 05:54 30.10.2019
5057 Clouds 11 1022 93 7000 1 350 05:35 30.10.2019
5058 Mist 11 1022 93 4000 0.5 0 03:48 30.10.2019
5059 Mist 12 1022 93 4000 0.5 0 03:21 30.10.2019
5060 Mist 12 1022 100 4000 1 0 02:39 30.10.2019
5061 Mist 12 1022 93 4000 1.5 20 01:42 30.10.2019
5062 Mist 12 1022 93 4000 1.5 340 00:32 30.10.2019
5063 Mist 13 1022 93 5000 0.5 0 23:49 29.10.2019
5064 Clouds 12 1022 93 10000 0.91 64 23:30 29.10.2019
5065 Mist 13 1022 93 5000 1 0 22:57 29.10.2019
5066 Clear 13 1022 87 10000 1.13 194 22:39 29.10.2019
5067 Mist 14 1021 93 4000 1 10 22:19 29.10.2019
5068 Mist 14 1021 93 4000 1 10 21:55 29.10.2019
5069 Clear 14 1021 87 10000 1.13 194 21:36 29.10.2019
5070 Clear 14 1021 87 7000 0.5 0 21:18 29.10.2019
5071 Clear 15 1021 82 10000 1.13 194 20:41 29.10.2019
5072 Clear 15 1020 77 10000 1.89 217 20:22 29.10.2019
5073 Clear 16 1020 77 10000 1.89 217 19:58 29.10.2019
5074 Clear 16 1020 82 10000 1 260 19:39 29.10.2019
5075 Clear 16 1020 72 10000 1 0 19:20 29.10.2019
5076 Clear 17 1020 72 10000 1 0 18:57 29.10.2019
5077 Clear 17 1020 68 10000 1 200 18:38 29.10.2019
5078 Clear 17 1020 63 10000 1.5 160 18:19 29.10.2019
5079 Clouds 18 1020 63 10000 1.5 170 17:56 29.10.2019
5080 Clouds 18 1020 63 10000 1.5 170 17:37 29.10.2019
5081 Clouds 18 1020 63 10000 1.5 190 17:19 29.10.2019
5082 Clouds 18 1020 68 8000 1.5 140 16:40 29.10.2019
5083 Clouds 18 1020 68 8000 1 0 16:21 29.10.2019
5084 Clouds 18 1020 68 8000 1 0 15:58 29.10.2019
5085 Clouds 18 1020 60 8000 1.27 233 15:39 29.10.2019
5086 Clouds 18 1020 63 8000 0.5 0 15:20 29.10.2019
5087 Clouds 18 1020 63 8000 0.5 0 14:56 29.10.2019
5088 Clouds 17 1020 63 7000 0.5 0 14:38 29.10.2019
5089 Clouds 17 1020 68 7000 1 0 14:19 29.10.2019
5090 Clouds 16 1021 72 7000 0.5 260 13:40 29.10.2019
5091 Clouds 15 1021 77 7000 1 0 13:22 29.10.2019
5092 Clouds 15 1021 77 7000 1 0 12:56 29.10.2019
5093 Clouds 15 1021 77 8000 1 0 12:37 29.10.2019
5094 Clouds 15 1021 77 9000 1 80 12:19 29.10.2019
5095 Clouds 15 1021 72 9000 0.5 0 11:42 29.10.2019
5096 Clouds 15 1021 72 9000 0.5 0 11:42 29.10.2019
5097 Clouds 14 1021 72 9000 0.5 0 11:22 29.10.2019
5098 Clouds 13 1020 87 6000 0.5 10 10:59 29.10.2019
5099 Mist 13 1020 82 5000 1.5 30 10:40 29.10.2019
5100 Mist 12 1020 87 3500 1 0 10:20 29.10.2019
5101 Mist 12 1020 87 3500 1 0 09:59 29.10.2019
5102 Mist 12 1020 87 2500 0.95 172 09:41 29.10.2019
5103 Mist 12 1020 87 2500 0.95 172 09:22 29.10.2019
5104 Mist 11 1019 100 2500 1 0 08:45 29.10.2019
5105 Mist 11 1019 100 2500 1 0 08:26 29.10.2019
5106 Mist 10 1018 100 2500 0.5 240 07:55 29.10.2019
5107 Mist 10 1018 100 4000 0.5 250 07:37 29.10.2019
5108 Clouds 10 1018 93 9000 1 0 07:18 29.10.2019
5109 Mist 10 1018 100 4500 1.5 176 06:45 29.10.2019
5110 Mist 10 1018 100 4500 1.5 176 06:26 29.10.2019
5111 Clouds 10 1018 93 9000 1 360 05:50 29.10.2019
5112 Clouds 11 1018 93 9000 1 360 05:30 29.10.2019
5113 Clouds 11 1017 93 10000 1.5 10 04:32 29.10.2019
5114 Clouds 12 1018 87 10000 0.5 0 02:33 29.10.2019
5115 Clouds 12 1018 87 10000 1.5 150 01:49 29.10.2019
5116 Clouds 12 1018 87 10000 1.5 150 01:22 29.10.2019
5117 Clouds 13 1018 82 10000 2.1 130 00:48 29.10.2019
5118 Clouds 14 1018 72 10000 3.1 150 23:44 28.10.2019
5119 Clouds 15 1018 72 10000 1.5 150 23:21 28.10.2019
5120 Clouds 15 1018 72 10000 1.5 150 22:59 28.10.2019
5121 Clouds 15 1018 63 10000 1.5 150 22:38 28.10.2019
5122 Clouds 15 1018 59 10000 2.1 180 22:18 28.10.2019
5123 Clouds 16 1018 59 10000 2.1 180 21:56 28.10.2019
5124 Clouds 16 1018 77 10000 2.6 200 21:38 28.10.2019
5125 Clouds 16 1017 59 10000 1.5 180 21:20 28.10.2019
5126 Clouds 16 1017 59 10000 1.5 180 20:54 28.10.2019
5127 Clouds 16 1018 67 10000 1 200 20:36 28.10.2019
5128 Clouds 17 1018 63 10000 1.5 220 20:18 28.10.2019
5129 Clouds 18 1018 59 10000 1 260 19:40 28.10.2019
5130 Clouds 18 1018 55 10000 2.6 220 19:22 28.10.2019
5131 Clouds 19 1018 55 10000 2.6 220 18:59 28.10.2019
5132 Clouds 19 1018 48 10000 4.1 220 18:41 28.10.2019
5133 Clouds 20 1018 48 10000 4.1 220 18:22 28.10.2019
5134 Clouds 20 1018 49 10000 3.1 210 17:57 28.10.2019
5135 Clouds 20 1018 49 10000 3.1 210 17:39 28.10.2019
5136 Clouds 21 1018 43 10000 3.6 210 17:20 28.10.2019
5137 Clouds 21 1018 43 10000 3.6 210 16:58 28.10.2019
5138 Clouds 21 1018 46 10000 3.1 220 16:40 28.10.2019
5139 Clouds 21 1018 46 10000 3.1 210 16:21 28.10.2019
5140 Clouds 21 1018 46 10000 3.1 210 15:59 28.10.2019
5141 Clouds 21 1018 49 10000 3.1 220 15:40 28.10.2019
5142 Clouds 21 1018 49 10000 2.6 200 15:21 28.10.2019
5143 Clouds 21 1018 49 10000 2.6 200 14:57 28.10.2019
5144 Clouds 21 1018 49 10000 2.6 200 14:57 28.10.2019
5145 Clouds 21 1018 56 10000 3.1 230 14:39 28.10.2019
5146 Clouds 20 1019 56 10000 3.6 210 14:19 28.10.2019
5147 Clouds 20 1019 56 10000 3.6 210 13:57 28.10.2019
5148 Clouds 20 1019 56 10000 2.1 180 13:38 28.10.2019
5149 Clouds 20 1020 56 10000 1 0 13:18 28.10.2019
5150 Clouds 19 1020 56 10000 0.5 0 12:42 28.10.2019
5151 Clouds 19 1020 59 10000 0.5 0 12:21 28.10.2019
5152 Clouds 18 1020 59 10000 0.5 0 11:54 28.10.2019
5153 Clouds 18 1020 63 10000 0.5 0 11:36 28.10.2019
5154 Clouds 17 1020 72 10000 1.5 140 11:18 28.10.2019
5155 Clouds 15 1020 67 10000 1.5 50 10:39 28.10.2019
5156 Clouds 14 1020 76 10000 0.5 0 10:21 28.10.2019
5157 Clouds 14 1020 76 10000 0.5 0 09:57 28.10.2019
5158 Clouds 13 1020 76 10000 0.5 100 09:38 28.10.2019
5159 Clouds 13 1020 87 10000 0.5 0 09:19 28.10.2019
5160 Clouds 13 1020 87 10000 0.5 0 08:57 28.10.2019
5161 Clouds 13 1020 87 10000 0.5 0 08:57 28.10.2019
5162 Clouds 12 1019 82 10000 0.5 0 08:38 28.10.2019
5163 Clouds 12 1019 82 10000 0.5 0 08:38 28.10.2019
5164 Clouds 12 1019 82 10000 1.5 360 08:19 28.10.2019
5165 Clouds 13 1019 82 10000 1.5 360 07:55 28.10.2019
5166 Clouds 13 1019 82 10000 1 0 07:36 28.10.2019
5167 Clouds 13 1019 82 10000 2.1 360 07:18 28.10.2019
5168 Clouds 13 1019 87 10000 0.78 107 06:39 28.10.2019
5169 Clouds 13 1019 87 10000 0.5 0 05:34 28.10.2019
5170 Clouds 13 1020 87 10000 0.5 350 03:45 28.10.2019
5171 Clouds 13 1020 87 10000 1.5 340 02:46 28.10.2019
5172 Clouds 14 1020 82 10000 1.5 10 01:52 28.10.2019
5173 Clouds 14 1020 87 10000 1 340 00:53 28.10.2019
5174 Clouds 14 1020 87 10000 1 340 00:31 28.10.2019
5175 Clouds 15 1020 82 10000 1.5 20 23:47 27.10.2019
5176 Clouds 15 1020 82 10000 1.5 20 23:23 27.10.2019
5177 Clouds 15 1020 76 10000 0.5 0 22:57 27.10.2019
5178 Clouds 15 1020 82 10000 0.5 0 22:39 27.10.2019
5179 Clouds 15 1020 82 10000 0.5 0 22:21 27.10.2019
5180 Clouds 16 1020 72 10000 1 20 21:57 27.10.2019
5181 Clouds 16 1020 72 10000 1 20 21:39 27.10.2019
5182 Clouds 16 1020 67 10000 1.5 340 21:20 27.10.2019
5183 Clouds 16 1020 67 10000 1.5 340 20:55 27.10.2019
5184 Clouds 17 1021 77 10000 1.04 60 20:37 27.10.2019
5185 Clouds 17 1021 72 10000 1 270 20:19 27.10.2019
5186 Clouds 18 1020 67 10000 0.34 18 19:40 27.10.2019
5187 Clouds 18 1020 63 10000 0.34 18 19:21 27.10.2019
5188 Clouds 19 1020 63 10000 0.34 18 18:58 27.10.2019
5189 Clouds 19 1020 59 10000 0.5 0 18:40 27.10.2019
5190 Clouds 19 1020 56 10000 1 140 18:22 27.10.2019
5191 Clouds 20 1020 56 10000 1 140 17:58 27.10.2019
5192 Clouds 20 1020 46 10000 1 0 17:39 27.10.2019
5193 Clouds 20 1020 46 10000 1 0 17:39 27.10.2019
5194 Clouds 20 1020 49 10000 1 0 17:19 27.10.2019
5195 Clouds 20 1020 49 10000 1 0 16:57 27.10.2019
5196 Clouds 21 1020 46 10000 2.1 130 16:39 27.10.2019
5197 Clouds 21 1020 43 10000 1.5 150 16:20 27.10.2019
5198 Clouds 21 1020 49 10000 2.1 120 15:56 27.10.2019
5199 Clouds 21 1021 52 10000 2.1 140 15:37 27.10.2019
5200 Clouds 21 1021 49 10000 2.1 100 15:19 27.10.2019
5201 Clouds 21 1021 49 10000 2.1 130 14:42 27.10.2019
5202 Clouds 21 1021 49 10000 2.1 130 14:42 27.10.2019
5203 Clouds 21 1021 49 10000 2.1 130 14:20 27.10.2019
5204 Clouds 20 1022 49 10000 2.1 100 13:58 27.10.2019
5205 Clouds 20 1022 55 10000 1.5 100 13:38 27.10.2019
5206 Clouds 20 1022 55 10000 1.5 0 13:19 27.10.2019
5207 Clouds 19 1023 55 10000 1.5 130 12:46 27.10.2019
5208 Clouds 18 1023 55 10000 1.5 130 12:24 27.10.2019
5209 Clouds 17 1023 59 10000 1 0 11:59 27.10.2019
5210 Clouds 17 1023 59 10000 1.5 80 11:41 27.10.2019
5211 Clouds 16 1023 59 10000 1.5 50 11:21 27.10.2019
5212 Clouds 15 1023 63 10000 1 0 10:44 27.10.2019
5213 Clouds 14 1023 71 10000 1 0 10:25 27.10.2019
5214 Clouds 13 1023 71 10000 0.5 0 09:56 27.10.2019
5215 Clouds 12 1023 71 10000 0.5 0 09:38 27.10.2019
5216 Clouds 11 1022 81 10000 1 0 09:18 27.10.2019
5217 Clouds 11 1022 81 10000 1 0 09:18 27.10.2019
5218 Clouds 9 1022 87 10000 1 0 08:42 27.10.2019
5219 Clouds 9 1022 87 10000 1 0 08:22 27.10.2019
5220 Clouds 9 1022 93 10000 1 0 07:59 27.10.2019
5221 Clouds 9 1022 87 10000 0.5 0 07:41 27.10.2019
5222 Clouds 9 1021 100 10000 0.5 0 07:20 27.10.2019
5223 Clouds 9 1021 100 10000 1.16 75 06:47 27.10.2019
5224 Clouds 9 1021 100 10000 1.16 75 06:26 27.10.2019
5225 Clouds 10 1021 100 10000 0.5 10 05:39 27.10.2019
5226 Clouds 11 1021 93 10000 0.5 0 04:51 27.10.2019
5227 Clear 12 1022 93 10000 1.5 350 02:55 27.10.2019
5228 Clear 12 1022 93 10000 3.1 30 01:49 27.10.2019
5229 Clear 13 1022 81 10000 1.5 350 01:20 27.10.2019
5230 Clear 13 1022 81 10000 1.5 10 00:46 27.10.2019
5231 Clear 13 1022 81 10000 1.5 10 00:24 27.10.2019
5232 Clear 14 1022 76 10000 2.1 350 23:55 26.10.2019
5233 Clear 14 1022 76 10000 2.1 350 23:37 26.10.2019
5234 Clear 14 1022 76 10000 1.5 360 23:19 26.10.2019
5235 Clear 14 1022 76 10000 1.5 360 22:55 26.10.2019
5236 Clear 14 1022 71 10000 0.5 250 22:36 26.10.2019
5237 Clear 15 1022 67 10000 0.5 270 22:18 26.10.2019
5238 Clear 16 1022 62 10000 0.99 82 21:42 26.10.2019
5239 Clear 16 1022 62 10000 1.29 76 21:42 26.10.2019
5240 Clouds 16 1021 59 10000 0.31 50 21:21 26.10.2019
5241 Clouds 17 1021 55 10000 1.5 130 20:55 26.10.2019
5242 Clouds 17 1021 55 10000 1.5 130 20:36 26.10.2019
5243 Clouds 19 1021 55 10000 1.5 140 20:18 26.10.2019
5244 Clouds 20 1021 37 10000 1.5 170 19:41 26.10.2019
5245 Clouds 21 1021 37 10000 1.5 190 19:20 26.10.2019
5246 Clouds 21 1021 37 10000 1.5 190 18:57 26.10.2019
5247 Clouds 21 1021 40 10000 1 0 18:38 26.10.2019
5248 Clear 22 1021 35 10000 1 0 18:19 26.10.2019
5249 Clear 22 1021 35 10000 1 0 17:56 26.10.2019
5250 Clear 22 1021 37 10000 2.1 180 17:37 26.10.2019
5251 Clear 22 1021 40 10000 2.1 170 17:19 26.10.2019
5252 Clear 22 1021 38 10000 0.5 0 16:43 26.10.2019
5253 Clear 21 1021 46 10000 1.5 100 16:24 26.10.2019
5254 Clear 21 1022 43 10000 1.5 110 15:44 26.10.2019
5255 Clear 20 1022 52 10000 1.5 60 15:22 26.10.2019
5256 Clear 20 1022 56 10000 1.5 0 14:59 26.10.2019
5257 Clear 20 1023 52 10000 1.5 90 14:37 26.10.2019
5258 Clear 19 1023 55 10000 1.5 90 14:19 26.10.2019
5259 Clear 18 1023 59 10000 2.1 80 13:42 26.10.2019
5260 Clear 19 1021 43 0 0.74 196 13:22 26.10.2019
5261 Clear 19 1021 43 0 0.74 196 13:22 26.10.2019
5262 Clear 14 1021 70 0 0.45 88 12:49 26.10.2019
5263 Clear 13 1023 67 10000 1 0 12:26 26.10.2019
5264 Clear 13 1023 67 10000 1 0 11:57 26.10.2019
5265 Clear 14 1023 67 10000 1 0 11:38 26.10.2019
5266 Clear 14 1023 67 10000 1 0 11:38 26.10.2019
5267 Clear 14 1023 82 10000 2.6 40 11:20 26.10.2019
5268 Clear 10 1023 76 10000 0.5 0 10:45 26.10.2019
5269 Clear 10 1023 76 10000 0.5 0 10:24 26.10.2019
5270 Clear 8 1022 87 10000 1 0 09:48 26.10.2019
5271 Clear 7 1022 93 10000 1 0 09:28 26.10.2019
5272 Clear 7 1022 93 10000 1 0 08:47 26.10.2019
5273 Clear 7 1022 93 10000 1 0 08:26 26.10.2019
5274 Clear 7 1022 93 10000 1 0 07:57 26.10.2019
5275 Clear 8 1022 93 10000 1 0 07:33 26.10.2019
5276 Clear 7 1022 93 10000 1.5 350 06:48 26.10.2019
5277 Clear 7 1022 93 10000 1.5 350 06:29 26.10.2019
5278 Clear 8 1022 93 10000 1 360 05:21 26.10.2019
5279 Clear 8 1022 93 10000 1 360 04:59 26.10.2019
5280 Clear 11 1023 93 10000 1.5 350 03:25 26.10.2019
5281 Clear 11 1023 93 10000 1.5 350 02:23 26.10.2019
5282 Clear 11 1023 93 10000 2.1 340 01:44 26.10.2019
5283 Clear 12 1023 87 10000 1.5 340 00:33 26.10.2019
5284 Clear 12 1023 93 10000 1 360 23:47 25.10.2019
5285 Clear 13 1023 93 10000 1 360 23:22 25.10.2019
5286 Clear 13 1023 87 10000 0.46 159 23:22 25.10.2019
5287 Clear 13 1023 87 10000 0.46 159 22:56 25.10.2019
5288 Clear 13 1023 82 10000 0.46 159 22:38 25.10.2019
5289 Clear 13 1023 82 10000 0.46 159 22:38 25.10.2019
5290 Clear 13 1023 76 10000 0.46 159 22:20 25.10.2019
5291 Clear 14 1023 76 10000 0.46 159 21:55 25.10.2019
5292 Clear 14 1023 76 10000 0.52 154 21:37 25.10.2019
5293 Clear 15 1023 76 10000 1.29 206 21:18 25.10.2019
5294 Clear 16 1023 67 10000 1.29 206 20:42 25.10.2019
5295 Clear 17 1023 59 10000 1.5 170 20:19 25.10.2019
5296 Clear 18 1022 55 10000 2.1 180 19:47 25.10.2019
5297 Clear 18 1022 55 10000 2.1 180 19:27 25.10.2019
5298 Clear 19 1023 49 10000 2.1 240 18:48 25.10.2019
5299 Clear 19 1023 49 10000 2.1 240 18:29 25.10.2019
5300 Clear 20 1023 52 10000 2.1 210 17:59 25.10.2019
5301 Clear 20 1023 52 10000 2.1 190 17:36 25.10.2019
5302 Clear 20 1023 52 10000 2.1 190 17:36 25.10.2019
5303 Clear 20 1023 49 10000 1.5 190 17:18 25.10.2019
5304 Clear 19 1023 52 10000 1.5 0 16:46 25.10.2019
5305 Clear 19 1023 52 10000 1.5 0 16:22 25.10.2019
5306 Clear 19 1024 55 10000 1 0 15:55 25.10.2019
5307 Clear 19 1024 55 10000 1 0 15:37 25.10.2019
5308 Clear 18 1024 59 10000 1 130 15:18 25.10.2019
5309 Clear 17 1025 63 10000 1.5 150 14:42 25.10.2019
5310 Clear 17 1025 59 10000 1.5 120 14:23 25.10.2019
5311 Clear 17 1025 59 10000 1.5 120 13:57 25.10.2019
5312 Clear 16 1026 63 10000 1.5 90 13:38 25.10.2019
5313 Clear 16 1026 67 10000 1.5 100 13:18 25.10.2019
5314 Clear 16 1026 63 10000 1.5 90 13:18 25.10.2019
5315 Clear 15 1026 62 10000 1 0 12:41 25.10.2019
5316 Clear 14 1026 71 10000 1.5 70 12:22 25.10.2019
5317 Clear 14 1026 71 10000 1.5 70 11:58 25.10.2019
5318 Clear 13 1026 71 10000 1.5 70 11:38 25.10.2019
5319 Clear 12 1026 71 10000 1 0 11:18 25.10.2019
5320 Clear 11 1025 76 9000 1.39 29 10:41 25.10.2019
5321 Clear 11 1025 76 9000 1.39 29 10:41 25.10.2019
5322 Clear 10 1025 87 9000 1.39 29 10:22 25.10.2019
5323 Clear 9 1025 87 9000 1.39 29 09:57 25.10.2019
5324 Clear 8 1025 93 9000 1 0 09:38 25.10.2019
5325 Clouds 8 1025 93 8000 1.5 10 09:19 25.10.2019
5326 Clouds 8 1025 93 10000 1 0 08:48 25.10.2019
5327 Clouds 8 1025 93 10000 1 0 08:29 25.10.2019
5328 Clouds 8 1025 100 10000 1.53 58 07:55 25.10.2019
5329 Clouds 8 1025 100 10000 1.53 58 07:34 25.10.2019
5330 Clouds 8 1025 93 7000 1.5 360 06:42 25.10.2019
5331 Clouds 8 1024 100 8000 1 0 05:54 25.10.2019
5332 Clouds 8 1024 100 8000 1 0 05:33 25.10.2019
5333 Clouds 9 1024 100 8000 1 10 04:52 25.10.2019
5334 Clouds 9 1024 93 10000 1 350 03:37 25.10.2019
5335 Clouds 10 1024 93 10000 1.5 20 01:54 25.10.2019
5336 Clouds 11 1024 87 10000 0.5 110 00:59 25.10.2019
5337 Clear 11 1024 87 10000 1 0 00:20 25.10.2019
5338 Clear 12 1024 76 10000 3.1 240 23:40 24.10.2019
5339 Clear 12 1023 76 10000 2.1 130 23:22 24.10.2019
5340 Clear 12 1023 76 10000 3.1 250 22:55 24.10.2019
5341 Clear 12 1023 76 10000 3.1 250 22:55 24.10.2019
5342 Clear 12 1023 76 10000 3.1 250 22:37 24.10.2019
5343 Clear 13 1023 71 10000 3.1 220 22:18 24.10.2019
5344 Clear 13 1023 71 10000 3.1 220 21:56 24.10.2019
5345 Clear 13 1023 71 10000 1.5 120 21:37 24.10.2019
5346 Clear 13 1023 71 10000 1.5 120 21:19 24.10.2019
5347 Clear 14 1022 67 10000 4.6 240 20:56 24.10.2019
5348 Clear 14 1022 67 10000 4.6 240 20:38 24.10.2019
5349 Clear 14 1021 67 10000 5.1 240 20:19 24.10.2019
5350 Clear 15 1021 59 10000 3.6 210 19:44 24.10.2019
5351 Clear 16 1021 59 10000 4.1 210 19:23 24.10.2019
5352 Clear 16 1021 59 10000 4.1 210 18:59 24.10.2019
5353 Clear 16 1021 59 10000 4.1 200 18:40 24.10.2019
5354 Clear 16 1018 57 0 2.68 143 18:21 24.10.2019
5355 Clear 17 1020 55 10000 3.6 200 17:57 24.10.2019
5356 Clear 17 1020 51 10000 3.1 230 17:39 24.10.2019
5357 Clear 17 1020 51 10000 3.6 230 17:19 24.10.2019
5358 Clear 16 1020 51 10000 3.6 230 16:54 24.10.2019
5359 Clear 16 1020 51 10000 3.6 220 16:36 24.10.2019
5360 Clear 16 1020 51 10000 3.1 220 16:18 24.10.2019
5361 Clouds 16 1020 58 10000 3.1 210 15:54 24.10.2019
5362 Clouds 16 1020 58 10000 3.1 210 15:36 24.10.2019
5363 Clouds 15 1020 54 10000 4.1 240 15:18 24.10.2019
5364 Clouds 15 1020 54 10000 4.1 270 14:44 24.10.2019
5365 Clouds 15 1021 62 10000 5.7 250 14:26 24.10.2019
5366 Clouds 14 1020 58 10000 5.1 250 13:59 24.10.2019
5367 Clouds 14 1020 58 10000 5.1 250 13:37 24.10.2019
5368 Clouds 13 1020 58 10000 4.6 280 13:18 24.10.2019
5369 Clouds 12 1020 66 10000 5.1 270 12:56 24.10.2019
5370 Clouds 12 1020 66 10000 5.1 270 12:37 24.10.2019
5371 Clouds 12 1019 66 10000 5.7 250 12:18 24.10.2019
5372 Clouds 11 1019 66 10000 5.7 250 11:55 24.10.2019
5373 Clouds 11 1019 66 10000 3.1 280 11:36 24.10.2019
5374 Clouds 10 1019 66 10000 5.1 260 11:18 24.10.2019
5375 Clouds 10 1018 71 10000 3.1 250 10:42 24.10.2019
5376 Clouds 10 1018 71 10000 3.1 250 10:23 24.10.2019
5377 Clear 8 1017 75 10000 3.1 270 09:40 24.10.2019
5378 Clouds 8 1016 75 10000 4.6 280 09:19 24.10.2019
5379 Clouds 8 1016 75 10000 4.6 280 08:58 24.10.2019
5380 Clouds 8 1016 70 10000 4.1 280 08:39 24.10.2019
5381 Clouds 8 1016 81 10000 4.1 280 08:20 24.10.2019
5382 Clouds 8 1015 87 10000 5.1 270 07:47 24.10.2019
5383 Clouds 8 1015 87 10000 5.1 270 07:23 24.10.2019
5384 Fog 8 1014 100 7000 1.5 80 06:54 24.10.2019
5385 Fog 8 1014 100 7000 1.5 80 06:36 24.10.2019
5386 Fog 8 1014 100 2000 2.59 192 05:55 24.10.2019
5387 Fog 8 1014 100 2000 2.59 192 05:31 24.10.2019
5388 Fog 8 1014 100 2000 2.59 192 05:31 24.10.2019
5389 Fog 8 1013 100 4000 1 0 04:23 24.10.2019
5390 Clouds 8 1013 93 6000 0.5 80 03:35 24.10.2019
5391 Clouds 8 1012 100 6000 1.5 140 02:39 24.10.2019
5392 Clouds 8 1012 93 6000 1.5 130 02:19 24.10.2019
5393 Clouds 8 1012 93 6000 1.5 140 01:31 24.10.2019
5394 Clouds 9 1012 93 10000 3.1 170 00:55 24.10.2019
5395 Clouds 9 1011 93 10000 3.1 160 00:27 24.10.2019
5396 Clouds 9 1011 93 10000 3.1 160 23:57 23.10.2019
5397 Clouds 9 1011 93 10000 2.6 180 23:38 23.10.2019
5398 Clouds 9 1011 93 10000 2.1 170 23:18 23.10.2019
5399 Clouds 9 1011 93 10000 2.1 170 22:54 23.10.2019
5400 Clouds 9 1011 87 10000 2.6 240 22:36 23.10.2019
5401 Clouds 9 1010 93 10000 3.1 250 22:18 23.10.2019
5402 Clouds 9 1010 93 10000 3.1 250 21:55 23.10.2019
5403 Clouds 9 1010 87 10000 2.6 240 21:36 23.10.2019
5404 Clouds 9 1009 87 10000 2.6 250 21:18 23.10.2019
5405 Clouds 9 1009 93 10000 2.1 230 20:54 23.10.2019
5406 Clouds 9 1009 93 10000 2.1 230 20:36 23.10.2019
5407 Clouds 9 1009 87 10000 1.5 210 20:18 23.10.2019
5408 Clouds 9 1009 87 10000 3.1 240 19:42 23.10.2019
5409 Clouds 10 1008 87 10000 2.6 230 19:19 23.10.2019
5410 Clouds 10 1008 87 10000 2.6 230 18:57 23.10.2019
5411 Clouds 10 1009 87 10000 3.1 240 18:38 23.10.2019
5412 Clouds 10 1008 76 10000 3.1 240 18:19 23.10.2019
5413 Clouds 10 1008 76 10000 3.1 240 18:19 23.10.2019
5414 Clouds 10 1008 81 10000 4.1 240 17:46 23.10.2019
5415 Clouds 10 1008 81 10000 4.1 240 17:21 23.10.2019
5416 Clouds 10 1008 81 10000 3.6 240 16:58 23.10.2019
5417 Clouds 10 1008 87 10000 4.1 230 16:40 23.10.2019
5418 Clouds 9 1007 81 10000 3.6 240 16:20 23.10.2019
5419 Clouds 9 1007 81 10000 3.6 240 15:54 23.10.2019
5420 Clouds 9 1008 87 10000 4.6 240 15:36 23.10.2019
5421 Clouds 9 1007 87 10000 4.1 250 15:18 23.10.2019
5422 Clouds 9 1007 93 10000 4.1 240 14:54 23.10.2019
5423 Clouds 9 1007 93 10000 4.1 240 14:36 23.10.2019
5424 Drizzle 9 1007 93 10000 4.6 240 14:18 23.10.2019
5425 Rain 9 1007 87 10000 4.6 230 13:42 23.10.2019
5426 Drizzle 9 1007 87 10000 3.1 270 13:24 23.10.2019
5427 Clouds 9 1007 87 10000 0.5 0 12:57 23.10.2019
5428 Drizzle 9 1007 93 10000 4.1 260 12:38 23.10.2019
5429 Rain 8 1007 93 10000 5.1 260 12:19 23.10.2019
5430 Rain 8 1007 93 10000 5.1 260 11:57 23.10.2019
5431 Drizzle 8 1007 93 9000 5.1 250 11:39 23.10.2019
5432 Rain 8 1007 93 7000 5.7 250 11:20 23.10.2019
5433 Rain 7 1007 93 10000 6.2 260 10:46 23.10.2019
5434 Clouds 7 1007 93 10000 6.2 260 10:26 23.10.2019
5435 Drizzle 7 1006 93 10000 5.1 240 09:58 23.10.2019
5436 Drizzle 7 1006 100 6000 1 0 09:39 23.10.2019
5437 Rain 7 1006 93 10000 5.1 250 09:20 23.10.2019
5438 Rain 7 1005 93 10000 4.6 230 08:43 23.10.2019
5439 Drizzle 7 1005 100 9000 4.1 240 08:25 23.10.2019
5440 Drizzle 7 1005 100 8000 5.1 250 07:47 23.10.2019
5441 Rain 7 1006 93 10000 2.1 230 07:25 23.10.2019
5442 Rain 7 1006 93 10000 1.5 180 06:48 23.10.2019
5443 Rain 7 1006 93 10000 1.5 180 06:22 23.10.2019
5444 Rain 7 1006 93 10000 1.5 190 05:55 23.10.2019
5445 Rain 8 1006 93 10000 2.6 180 04:59 23.10.2019
5446 Rain 8 1007 93 10000 2.6 210 03:35 23.10.2019
5447 Rain 8 1007 93 10000 1 180 02:41 23.10.2019
5448 Rain 8 1008 93 10000 2.1 180 01:34 23.10.2019
5449 Rain 8 1008 93 10000 2.1 180 00:56 23.10.2019
5450 Rain 8 1008 93 10000 2.1 180 00:29 23.10.2019
5451 Rain 8 1009 87 10000 2.1 180 23:41 22.10.2019
5452 Rain 8 1009 87 10000 1.5 240 23:19 22.10.2019
5453 Rain 8 1009 87 10000 1.5 240 22:58 22.10.2019
5454 Rain 9 1009 93 10000 2.1 210 22:40 22.10.2019
5455 Rain 9 1009 93 10000 1.5 200 22:21 22.10.2019
5456 Rain 9 1009 93 10000 1.5 200 21:56 22.10.2019
5457 Rain 9 1009 87 10000 1 230 21:38 22.10.2019
5458 Clouds 9 1010 87 10000 0.5 0 21:18 22.10.2019
5459 Clouds 9 1010 87 10000 0.5 0 20:58 22.10.2019
5460 Clouds 9 1009 87 10000 1 0 20:39 22.10.2019
5461 Rain 9 1010 76 10000 1 0 20:21 22.10.2019
5462 Rain 9 1010 76 10000 1 0 19:55 22.10.2019
5463 Rain 9 1010 76 10000 2.1 290 19:37 22.10.2019
5464 Rain 9 1010 76 10000 2.1 310 19:19 22.10.2019
5465 Clouds 10 1010 71 10000 2.1 310 18:41 22.10.2019
5466 Rain 10 1011 66 10000 3.1 10 18:22 22.10.2019
5467 Clouds 10 1010 66 10000 2.6 350 17:59 22.10.2019
5468 Clouds 10 1011 71 10000 1.5 50 17:39 22.10.2019
5469 Rain 10 1011 71 10000 2.1 0 17:20 22.10.2019
5470 Rain 10 1011 71 10000 2.1 0 17:20 22.10.2019
5471 Rain 10 1011 71 10000 2.1 0 17:20 22.10.2019
5472 Rain 10 1011 71 10000 2.1 0 16:57 22.10.2019
5473 Clouds 10 1012 76 10000 1 0 16:39 22.10.2019
5474 Clouds 10 1012 76 10000 1 0 16:19 22.10.2019
5475 Drizzle 10 1012 76 10000 3.6 50 15:58 22.10.2019
5476 Drizzle 11 1012 71 10000 3.1 0 15:39 22.10.2019
5477 Clouds 10 1013 71 10000 3.1 20 15:18 22.10.2019
5478 Drizzle 11 1013 71 10000 3.6 20 14:43 22.10.2019
5479 Drizzle 11 1013 71 10000 3.6 20 14:20 22.10.2019
5480 Clouds 11 1014 66 10000 3.6 20 13:43 22.10.2019
5481 Clouds 11 1014 66 10000 3.6 20 13:23 22.10.2019
5482 Clouds 11 1014 71 10000 4.6 30 12:59 22.10.2019
5483 Rain 11 1014 71 10000 3.6 20 12:41 22.10.2019
5484 Rain 10 1014 71 10000 3.6 20 12:21 22.10.2019
5485 Rain 10 1015 66 10000 4.1 30 11:57 22.10.2019
5486 Rain 10 1015 76 10000 4.1 0 11:38 22.10.2019
5487 Rain 9 1014 71 10000 3.1 20 11:20 22.10.2019
5488 Rain 9 1014 71 10000 3.1 20 10:58 22.10.2019
5489 Rain 9 1014 71 10000 2.6 20 10:37 22.10.2019
5490 Rain 9 1015 71 10000 2.6 20 10:18 22.10.2019
5491 Rain 9 1015 71 10000 2.6 20 10:18 22.10.2019
5492 Rain 8 1015 71 10000 2.6 20 09:55 22.10.2019
5493 Clouds 8 1015 76 10000 2.6 10 09:36 22.10.2019
5494 Clouds 8 1014 76 10000 2.6 360 09:18 22.10.2019
5495 Clouds 8 1015 76 10000 2.1 10 08:42 22.10.2019
5496 Clouds 8 1015 76 10000 2.1 20 08:21 22.10.2019
5497 Clouds 8 1015 70 10000 2.1 20 07:48 22.10.2019
5498 Clouds 7 1015 87 10000 2.6 340 07:26 22.10.2019
5499 Clouds 8 1016 81 10000 2.1 360 06:51 22.10.2019
5500 Clouds 8 1016 81 10000 2.1 360 06:31 22.10.2019
5501 Clouds 8 1016 87 10000 2.1 350 05:57 22.10.2019
5502 Clouds 7 1016 87 10000 3.1 340 05:21 22.10.2019
5503 Clear 7 1017 87 10000 1 0 02:47 22.10.2019
5504 Clear 7 1017 87 10000 1 0 02:28 22.10.2019
5505 Clear 8 1018 87 10000 1 350 01:28 22.10.2019
5506 Clear 8 1018 81 10000 1.5 10 00:57 22.10.2019
5507 Clear 8 1018 81 10000 1.5 10 00:57 22.10.2019
5508 Clear 8 1018 81 10000 2.6 350 00:39 22.10.2019
5509 Clear 9 1018 81 10000 2.6 350 00:20 22.10.2019
5510 Clear 9 1018 76 10000 2.6 340 23:55 21.10.2019
5511 Clear 10 1018 81 10000 1.5 350 23:37 21.10.2019
5512 Clear 10 1018 81 10000 1.5 350 23:18 21.10.2019
5513 Clear 10 1018 76 10000 1.5 10 23:18 21.10.2019
5514 Clear 10 1018 76 10000 1.5 10 22:56 21.10.2019
5515 Clear 10 1018 66 10000 0.5 0 22:37 21.10.2019
5516 Clear 10 1018 71 10000 0.5 220 22:19 21.10.2019
5517 Clear 11 1018 71 10000 0.5 220 21:54 21.10.2019
5518 Clear 11 1018 62 10000 1 210 21:36 21.10.2019
5519 Clear 11 1018 62 10000 1 210 21:36 21.10.2019
5520 Clear 11 1018 58 10000 1 190 21:18 21.10.2019
5521 Clear 12 1017 54 10000 1.5 150 20:41 21.10.2019
5522 Clouds 12 1017 54 10000 1.5 140 20:21 21.10.2019
5523 Clouds 12 1017 54 10000 1.5 140 19:59 21.10.2019
5524 Clouds 13 1017 47 10000 2.1 150 19:41 21.10.2019
5525 Clouds 13 1017 47 10000 2.1 150 19:22 21.10.2019
5526 Clouds 14 1017 44 10000 1.5 0 18:57 21.10.2019
5527 Clouds 14 1017 38 10000 0.5 40 18:38 21.10.2019
5528 Clouds 14 1017 41 10000 1.5 0 18:19 21.10.2019
5529 Clouds 14 1017 41 10000 1.5 0 17:57 21.10.2019
5530 Clouds 14 1017 47 10000 2.6 150 17:38 21.10.2019
5531 Clouds 14 1017 47 10000 2.1 100 17:19 21.10.2019
5532 Clouds 15 1017 47 10000 2.1 100 16:57 21.10.2019
5533 Clouds 15 1017 47 10000 2.6 140 16:38 21.10.2019
5534 Clouds 15 1017 47 10000 1 80 16:20 21.10.2019
5535 Clouds 14 1018 47 10000 2.1 130 15:47 21.10.2019
5536 Clouds 14 1018 47 10000 2.1 130 15:25 21.10.2019
5537 Clouds 13 1018 50 10000 2.1 120 14:58 21.10.2019
5538 Clouds 14 1018 50 10000 1.5 0 14:39 21.10.2019
5539 Clouds 13 1019 54 10000 2.1 100 14:20 21.10.2019
5540 Clouds 13 1019 54 10000 2.1 100 13:57 21.10.2019
5541 Clouds 13 1019 54 10000 2.1 100 13:38 21.10.2019
5542 Clear 12 1019 58 10000 1.5 80 13:19 21.10.2019
5543 Clouds 11 1019 58 10000 0.5 30 12:42 21.10.2019
5544 Clear 11 1019 71 10000 1.5 0 12:22 21.10.2019
5545 Clouds 10 1019 62 10000 1 0 11:57 21.10.2019
5546 Clouds 10 1019 71 10000 1 0 11:39 21.10.2019
5547 Clouds 9 1019 71 10000 1 0 11:20 21.10.2019
5548 Clouds 9 1019 71 10000 1 0 11:20 21.10.2019
5549 Clouds 9 1019 81 10000 1 0 10:57 21.10.2019
5550 Clouds 7 1019 87 10000 1 0 10:38 21.10.2019
5551 Clouds 6 1018 93 10000 2.1 10 10:19 21.10.2019
5552 Clouds 6 1018 93 10000 2.1 10 10:19 21.10.2019
5553 Clouds 6 1018 93 10000 1.5 10 09:46 21.10.2019
5554 Clouds 6 1018 93 10000 1.5 10 09:26 21.10.2019
5555 Clouds 5 1018 93 10000 1 0 08:58 21.10.2019
5556 Clouds 5 1018 93 10000 1 0 08:39 21.10.2019
5557 Clouds 4 1018 93 10000 1 0 08:21 21.10.2019
5558 Clouds 5 1017 93 10000 0.5 0 07:39 21.10.2019
5559 Clear 5 1017 100 10000 1 10 07:21 21.10.2019
5560 Clear 5 1017 100 10000 1 10 06:57 21.10.2019
5561 Clear 5 1017 100 10000 1.44 142.875 06:39 21.10.2019
5562 Clear 5 1017 100 10000 0.5 110 05:57 21.10.2019
5563 Clear 5 1017 100 10000 0.5 110 05:57 21.10.2019
5564 Clear 5 1016 93 10000 0.5 340 04:46 21.10.2019
5565 Clear 6 1016 87 10000 1.5 360 03:38 21.10.2019
5566 Clear 6 1016 87 10000 1.5 360 03:38 21.10.2019
5567 Clouds 7 1016 81 10000 1 0 02:25 21.10.2019
5568 Clear 7 1016 87 10000 1.5 340 02:25 21.10.2019
5569 Clouds 7 1016 81 10000 1 0 01:59 21.10.2019
5570 Clouds 7 1016 81 10000 3.1 320 01:37 21.10.2019
5571 Clouds 8 1016 75 10000 2.1 350 00:50 21.10.2019
5572 Clouds 8 1016 70 10000 3.6 360 00:27 21.10.2019
5573 Clouds 8 1015 70 10000 2.6 350 23:43 20.10.2019
5574 Clouds 8 1015 70 10000 2.6 350 23:22 20.10.2019
5575 Clouds 9 1015 76 10000 1.5 10 22:57 20.10.2019
5576 Clouds 9 1015 76 10000 1.5 290 22:39 20.10.2019
5577 Clouds 9 1015 76 10000 1.5 290 22:19 20.10.2019
5578 Clouds 10 1014 71 10000 2.1 340 21:59 20.10.2019
5579 Clouds 10 1014 71 10000 2.6 310 21:39 20.10.2019
5580 Clouds 10 1013 71 10000 5.7 270 21:21 20.10.2019
5581 Clouds 10 1013 66 10000 7.2 260 20:42 20.10.2019
5582 Clouds 10 1013 66 10000 7.2 260 20:20 20.10.2019
5583 Clouds 10 1012 71 10000 5.1 260 19:57 20.10.2019
5584 Clouds 11 1012 66 10000 5.7 270 19:39 20.10.2019
5585 Clouds 11 1012 66 10000 5.7 270 19:39 20.10.2019
5586 Rain 11 1012 71 10000 4.6 230 19:20 20.10.2019
5587 Rain 12 1012 71 10000 4.6 230 18:58 20.10.2019
5588 Rain 12 1011 71 10000 6.2 230 18:40 20.10.2019
5589 Rain 12 1011 76 10000 6.2 230 18:20 20.10.2019
5590 Rain 12 1011 76 10000 6.2 230 17:56 20.10.2019
5591 Rain 12 1011 71 10000 6.2 230 17:37 20.10.2019
5592 Rain 12 1011 71 10000 6.2 230 17:18 20.10.2019
5593 Rain 12 1010 76 10000 6.7 220 16:42 20.10.2019
5594 Rain 12 1010 76 10000 6.7 220 16:42 20.10.2019
5595 Rain 12 1010 76 10000 6.7 220 16:23 20.10.2019
5596 Rain 12 1010 76 10000 6.7 220 15:58 20.10.2019
5597 Rain 12 1010 71 10000 6.2 230 15:38 20.10.2019
5598 Rain 12 1010 71 10000 6.2 230 15:20 20.10.2019
5599 Rain 12 1010 71 10000 7.2 230 14:57 20.10.2019
5600 Rain 11 1010 81 6000 5.7 270 14:37 20.10.2019
5601 Clouds 12 1010 81 10000 5.7 240 14:19 20.10.2019
5602 Clouds 12 1010 81 10000 5.7 240 13:55 20.10.2019
5603 Rain 11 1010 76 10000 6.2 230 13:36 20.10.2019
5604 Rain 11 1010 76 10000 6.2 230 13:18 20.10.2019
5605 Rain 11 1010 81 10000 4.6 240 12:56 20.10.2019
5606 Rain 11 1010 81 10000 4.6 240 12:37 20.10.2019
5607 Clouds 11 1010 81 10000 5.7 230 12:19 20.10.2019
5608 Clouds 11 1010 81 10000 5.7 230 11:55 20.10.2019
5609 Clouds 10 1010 87 10000 6.7 230 11:37 20.10.2019
5610 Rain 10 1009 87 10000 5.7 220 11:18 20.10.2019
5611 Rain 9 1009 87 10000 3.6 210 10:41 20.10.2019
5612 Fog 9 1008 93 10000 3.1 200 10:22 20.10.2019
5613 Fog 9 1008 93 10000 3.1 200 09:57 20.10.2019
5614 Fog 9 1008 100 300 3.1 190 09:39 20.10.2019
5615 Clouds 9 1008 87 10000 4.1 220 09:21 20.10.2019
5616 Clouds 9 1008 87 10000 3.6 220 08:48 20.10.2019
5617 Clouds 9 1008 87 10000 3.6 220 08:23 20.10.2019
5618 Clouds 9 1007 93 10000 5.7 220 07:50 20.10.2019
5619 Clouds 9 1007 87 10000 4.1 220 07:30 20.10.2019
5620 Rain 10 1006 81 10000 4.1 210 06:34 20.10.2019
5621 Rain 10 1006 87 10000 3.1 220 05:59 20.10.2019
5622 Clouds 10 1005 87 10000 4.6 210 04:27 20.10.2019
5623 Clouds 11 1005 87 10000 4.6 200 03:43 20.10.2019
5624 Drizzle 12 1005 93 10000 4.6 210 03:20 20.10.2019
5625 Drizzle 12 1005 93 8000 5.1 210 02:38 20.10.2019
5626 Clouds 12 1004 87 10000 3.1 160 01:58 20.10.2019
5627 Rain 13 1005 93 10000 3.1 160 01:23 20.10.2019
5628 Rain 13 1005 93 10000 3.1 160 00:55 20.10.2019
5629 Rain 13 1005 93 10000 3.1 120 00:22 20.10.2019
5630 Rain 13 1005 87 8000 3.6 180 23:59 19.10.2019
5631 Rain 13 1006 100 7000 6.2 210 23:41 19.10.2019
5632 Rain 13 1005 87 3500 5.1 220 23:22 19.10.2019
5633 Rain 13 1005 87 3500 5.1 220 22:56 19.10.2019
5634 Rain 13 1006 87 3500 6.2 250 22:37 19.10.2019
5635 Rain 14 1005 93 3000 4.1 200 22:18 19.10.2019
5636 Clouds 15 1004 72 10000 3.6 120 21:45 19.10.2019
5637 Clouds 15 1004 72 10000 3.6 120 21:45 19.10.2019
5638 Clouds 15 1004 72 10000 3.6 120 21:22 19.10.2019
5639 Clouds 15 1006 72 10000 1 0 20:45 19.10.2019
5640 Clouds 15 1006 72 10000 1 0 20:45 19.10.2019
5641 Clouds 15 1006 72 10000 1 0 20:22 19.10.2019
5642 Clouds 16 1006 72 10000 2.6 180 19:57 19.10.2019
5643 Clouds 16 1007 72 10000 3.1 200 19:39 19.10.2019
5644 Clouds 16 1007 72 10000 3.1 200 19:21 19.10.2019
5645 Drizzle 16 1008 67 10000 6.7 180 18:42 19.10.2019
5646 Clouds 16 1008 72 10000 5.7 180 18:24 19.10.2019
5647 Clouds 16 1008 72 10000 5.7 180 17:55 19.10.2019
5648 Clouds 16 1008 63 10000 5.7 190 17:36 19.10.2019
5649 Clouds 16 1008 59 10000 5.1 180 17:18 19.10.2019
5650 Clouds 16 1009 55 10000 5.7 190 16:39 19.10.2019
5651 Clouds 16 1009 55 10000 5.7 190 16:20 19.10.2019
5652 Clouds 16 1010 59 10000 6.2 210 15:45 19.10.2019
5653 Clouds 17 1010 59 10000 6.2 210 15:26 19.10.2019
5654 Clouds 16 1010 59 10000 5.7 200 14:56 19.10.2019
5655 Clouds 16 1010 59 10000 5.7 200 14:56 19.10.2019
5656 Clouds 16 1010 59 10000 4.1 220 14:38 19.10.2019
5657 Clouds 15 1011 59 10000 4.6 190 14:19 19.10.2019
5658 Clouds 15 1011 62 10000 3.6 190 13:55 19.10.2019
5659 Clouds 14 1011 62 10000 3.6 190 13:36 19.10.2019
5660 Clouds 14 1012 71 10000 4.1 210 13:18 19.10.2019
5661 Clouds 14 1012 71 10000 4.1 210 13:18 19.10.2019
5662 Clouds 14 1012 71 10000 5.1 190 12:39 19.10.2019
5663 Clouds 12 1012 81 10000 5.7 200 12:21 19.10.2019
5664 Clouds 12 1012 81 10000 5.7 200 11:57 19.10.2019
5665 Clouds 12 1012 87 10000 4.1 200 11:39 19.10.2019
5666 Clouds 12 1012 76 10000 4.6 210 11:21 19.10.2019
5667 Clouds 12 1012 81 10000 3.1 210 10:41 19.10.2019
5668 Clouds 12 1012 81 10000 3.6 220 10:23 19.10.2019
5669 Clear 11 1012 87 10000 3.6 200 09:59 19.10.2019
5670 Clear 11 1012 87 10000 3.6 200 09:41 19.10.2019
5671 Clear 11 1012 87 10000 2.1 200 09:22 19.10.2019
5672 Clear 10 1012 87 10000 3.6 200 08:56 19.10.2019
5673 Clear 11 1012 87 10000 3.6 200 08:56 19.10.2019
5674 Clear 11 1012 87 10000 2.6 180 08:37 19.10.2019
5675 Clear 11 1012 87 10000 2.6 180 08:19 19.10.2019
5676 Clear 12 1012 87 10000 3.6 190 07:41 19.10.2019
5677 Clouds 12 1012 81 10000 3.1 220 07:23 19.10.2019
5678 Clouds 11 1013 76 10000 2.6 190 06:36 19.10.2019
5679 Clouds 12 1013 76 10000 2.6 200 05:51 19.10.2019
5680 Clouds 12 1013 71 10000 2.6 180 04:54 19.10.2019
5681 Clouds 12 1014 76 10000 3.1 200 03:18 19.10.2019
5682 Clouds 13 1014 72 10000 2.6 200 02:21 19.10.2019
5683 Clouds 13 1014 72 10000 2.6 200 01:49 19.10.2019
5684 Clouds 14 1014 72 10000 4.1 200 00:52 19.10.2019
5685 Clouds 14 1014 72 10000 4.1 210 00:29 19.10.2019
5686 Clouds 14 1014 77 10000 3.6 170 23:59 18.10.2019
5687 Clouds 14 1015 82 10000 2.6 190 23:38 18.10.2019
5688 Clouds 15 1015 82 10000 2.6 190 23:20 18.10.2019
5689 Clouds 15 1014 68 10000 4.6 220 22:55 18.10.2019
5690 Clouds 15 1015 82 10000 2.1 220 22:36 18.10.2019
5691 Clouds 16 1015 82 10000 2.1 220 22:18 18.10.2019
5692 Clouds 16 1015 82 10000 2.6 230 21:55 18.10.2019
5693 Clouds 16 1015 77 10000 2.6 200 21:36 18.10.2019
5694 Clouds 16 1015 77 10000 2.6 210 21:18 18.10.2019
5695 Clouds 16 1015 77 10000 2.6 210 21:18 18.10.2019
5696 Clouds 17 1015 77 10000 2.6 210 20:43 18.10.2019
5697 Clouds 17 1015 77 10000 2.6 210 20:23 18.10.2019
5698 Clouds 18 1015 72 10000 3.6 220 19:58 18.10.2019
5699 Clouds 18 1015 68 10000 4.6 210 19:40 18.10.2019
5700 Clouds 18 1015 68 10000 4.6 210 19:22 18.10.2019
5701 Clouds 19 1015 68 10000 5.1 220 18:59 18.10.2019
5702 Clouds 19 1015 68 10000 5.1 210 18:41 18.10.2019
5703 Clouds 19 1015 68 10000 5.1 210 18:22 18.10.2019
5704 Clouds 19 1015 72 10000 6.7 230 17:55 18.10.2019
5705 Clouds 19 1016 72 10000 7.7 220 17:36 18.10.2019
5706 Clouds 19 1016 77 10000 5.7 220 17:18 18.10.2019
5707 Clouds 19 1016 77 10000 7.2 230 16:39 18.10.2019
5708 Clouds 19 1016 72 10000 8.2 230 16:21 18.10.2019
5709 Clouds 19 1016 72 10000 8.2 230 15:57 18.10.2019
5710 Clouds 19 1017 72 10000 6.7 220 15:38 18.10.2019
5711 Clouds 19 1017 77 10000 6.2 230 15:19 18.10.2019
5712 Clouds 19 1017 77 10000 6.2 230 14:56 18.10.2019
5713 Clouds 18 1018 82 10000 5.7 220 14:38 18.10.2019
5714 Clouds 18 1018 88 10000 5.7 230 14:19 18.10.2019
5715 Rain 17 1018 100 6000 5.7 200 13:55 18.10.2019
5716 Rain 17 1018 100 6000 5.7 200 13:36 18.10.2019
5717 Rain 17 1018 93 10000 4.1 220 13:18 18.10.2019
5718 Drizzle 16 1018 93 4000 4.6 210 12:54 18.10.2019
5719 Drizzle 16 1018 93 4000 4.6 210 12:36 18.10.2019
5720 Drizzle 16 1018 93 4000 5.1 220 12:18 18.10.2019
5721 Drizzle 16 1018 93 10000 5.1 220 11:41 18.10.2019
5722 Drizzle 16 1018 93 10000 5.1 220 11:20 18.10.2019
5723 Mist 15 1018 100 2000 1.5 260 10:57 18.10.2019
5724 Drizzle 15 1018 93 6000 4.6 220 10:39 18.10.2019
5725 Drizzle 15 1018 93 3000 5.1 230 10:19 18.10.2019
5726 Drizzle 15 1018 93 3000 5.1 230 09:57 18.10.2019
5727 Drizzle 15 1018 100 3000 4.1 210 09:39 18.10.2019
5728 Drizzle 15 1018 100 3000 3.6 210 09:18 18.10.2019
5729 Drizzle 15 1018 100 500 4.6 240 08:43 18.10.2019
5730 Drizzle 15 1018 100 5000 3.1 240 08:24 18.10.2019
5731 Clouds 15 1018 100 10000 5.1 230 07:51 18.10.2019
5732 Clouds 15 1018 100 10000 5.1 230 07:33 18.10.2019
5733 Mist 14 1018 100 4000 2.1 160 06:48 18.10.2019
5734 -273 0 0 0 0 0 06:30 18.10.2019
5735 Mist 14 1018 93 5000 2.1 160 05:59 18.10.2019
5736 Mist 14 1018 93 4500 2.6 160 05:24 18.10.2019
5737 Drizzle 14 1018 93 4500 2.1 170 04:56 18.10.2019
5738 Rain 14 1019 93 7000 1 0 03:35 18.10.2019
5739 Rain 14 1019 93 8000 2.6 190 02:51 18.10.2019
5740 Drizzle 14 1019 93 8000 2.6 190 02:32 18.10.2019
5741 Clouds 14 1019 87 10000 2.6 170 01:39 18.10.2019
5742 Clouds 15 1019 87 10000 2.6 170 01:18 18.10.2019
5743 Clouds 15 1019 87 10000 2.6 170 00:40 18.10.2019
5744 Clouds 15 1020 77 10000 2.6 180 00:19 18.10.2019
5745 Clouds 15 1020 77 10000 2.6 180 00:19 18.10.2019
5746 Clouds 15 1020 77 10000 2.1 190 23:38 17.10.2019
5747 Clouds 15 1020 77 10000 2.6 240 23:20 17.10.2019
5748 Clouds 15 1020 77 10000 2.6 240 22:56 17.10.2019
5749 Clouds 15 1020 77 10000 2.6 240 22:56 17.10.2019
5750 Clouds 15 1020 82 10000 4.6 230 22:38 17.10.2019
5751 Clouds 15 1020 82 10000 4.6 230 22:19 17.10.2019
5752 Clouds 15 1020 87 10000 5.7 230 21:56 17.10.2019
5753 Clouds 15 1020 87 10000 4.1 230 21:38 17.10.2019
5754 Clouds 15 1020 87 10000 4.6 220 21:20 17.10.2019
5755 Clouds 15 1020 87 10000 4.6 220 21:20 17.10.2019
5756 -273 0 0 0 0 0 20:57 17.10.2019
5757 Clouds 15 1019 87 10000 3.6 240 20:38 17.10.2019
5758 Clouds 15 1019 82 10000 3.1 240 20:19 17.10.2019
5759 Clouds 15 1019 82 10000 3.1 240 19:56 17.10.2019
5760 Clouds 15 1019 82 10000 3.6 240 19:37 17.10.2019
5761 Clouds 15 1019 82 10000 5.7 230 19:18 17.10.2019
5762 Clouds 16 1019 82 10000 3.6 220 18:42 17.10.2019
5763 Clouds 16 1019 82 10000 3.6 230 18:21 17.10.2019
5764 Clouds 16 1019 82 10000 3.6 230 17:55 17.10.2019
5765 Clouds 15 1019 77 10000 4.1 230 17:37 17.10.2019
5766 Clouds 15 1019 77 10000 3.1 210 17:19 17.10.2019
5767 Clouds 15 1019 82 10000 3.1 230 16:55 17.10.2019
5768 Clouds 15 1019 82 10000 3.1 230 16:36 17.10.2019
5769 Clouds 15 1020 82 10000 3.6 200 16:18 17.10.2019
5770 Clouds 15 1020 87 10000 3.1 190 15:41 17.10.2019
5771 Clouds 14 1020 87 10000 3.6 190 15:21 17.10.2019
5772 Clouds 14 1020 87 10000 3.6 190 14:59 17.10.2019
5773 Clouds 14 1020 87 10000 3.6 190 14:59 17.10.2019
5774 Clouds 14 1020 87 10000 3.6 220 14:41 17.10.2019
5775 Clouds 14 1021 87 10000 2.6 220 14:23 17.10.2019
5776 Clouds 13 1021 87 10000 3.1 210 13:42 17.10.2019
5777 Clouds 13 1021 82 10000 2.1 200 13:22 17.10.2019
5778 Clouds 13 1021 82 10000 2.1 200 12:59 17.10.2019
5779 Clouds 13 1021 82 10000 1.5 200 12:40 17.10.2019
5780 Clouds 12 1021 82 10000 1.5 200 12:20 17.10.2019
5781 Clouds 11 1021 87 10000 2.1 210 11:58 17.10.2019
5782 Clouds 11 1021 81 10000 2.1 200 11:40 17.10.2019
5783 Rain 10 1020 87 8000 1.5 190 11:19 17.10.2019
5784 Rain 10 1020 87 7000 1.5 150 10:54 17.10.2019
5785 -273 0 0 0 0 0 10:54 17.10.2019
5786 Rain 10 1020 87 7000 1.5 150 10:36 17.10.2019
5787 Rain 9 1020 87 8000 2.1 240 10:18 17.10.2019
5788 Rain 10 1020 87 8000 2.1 240 10:18 17.10.2019
5789 Rain 9 1020 93 6000 1.5 30 09:41 17.10.2019
5790 Rain 9 1019 76 10000 2.1 180 09:21 17.10.2019
5791 Clouds 9 1019 76 10000 2.1 180 08:58 17.10.2019
5792 Clouds 9 1019 76 10000 2.1 180 08:58 17.10.2019
5793 Rain 9 1019 76 10000 2.1 180 08:39 17.10.2019
5794 Rain 9 1019 76 10000 1 0 08:20 17.10.2019
5795 -273 0 0 0 0 0 07:54 17.10.2019
5796 -273 0 0 0 0 0 07:54 17.10.2019
5797 Rain 9 1019 71 10000 0.5 0 07:36 17.10.2019
5798 Clouds 9 1018 81 10000 1 350 07:18 17.10.2019
5799 Clouds 9 1018 81 10000 1 360 06:39 17.10.2019
5800 Clouds 9 1018 87 10000 1.5 10 06:20 17.10.2019
5801 Clouds 9 1018 81 10000 1 360 05:49 17.10.2019
5802 Clouds 9 1018 81 10000 1 360 05:30 17.10.2019
5803 Clouds 9 1019 81 10000 1 360 04:51 17.10.2019
5804 Clouds 9 1019 81 10000 1 0 03:54 17.10.2019
5805 Clouds 10 1019 66 10000 2.1 140 02:36 17.10.2019
5806 Clouds 11 1019 66 10000 2.1 130 00:57 17.10.2019
5807 Clouds 12 1019 62 10000 2.1 130 00:38 17.10.2019
5808 Clear 12 1019 54 10000 1.5 140 00:18 17.10.2019
5809 Clear 13 1019 47 10000 2.1 200 23:42 16.10.2019
5810 Clear 13 1019 47 10000 2.1 200 23:21 16.10.2019
5811 Clear 13 1019 47 10000 2.1 200 23:21 16.10.2019
5812 Clear 13 1019 47 10000 2.1 200 23:21 16.10.2019
5813 Clear 13 1019 47 10000 2.1 200 22:55 16.10.2019
5814 Clear 14 1019 47 10000 2.6 210 22:36 16.10.2019
5815 Clear 14 1019 47 10000 2.6 210 22:36 16.10.2019
5816 Clear 14 1019 47 10000 3.1 220 22:18 16.10.2019
5817 -273 0 0 0 0 0 21:56 16.10.2019
5818 Clear 14 1019 50 10000 2.6 230 21:37 16.10.2019
5819 Clouds 15 1019 44 10000 2.1 220 21:18 16.10.2019
5820 Clouds 15 1019 44 10000 2.1 220 20:57 16.10.2019
5821 Clouds 15 1019 41 10000 3.1 230 20:38 16.10.2019
5822 Clouds 16 1019 36 10000 3.6 220 20:20 16.10.2019
5823 Clouds 16 1019 36 10000 3.6 220 20:20 16.10.2019
5824 Clouds 17 1019 36 10000 3.6 220 19:57 16.10.2019
5825 Clouds 17 1019 33 10000 5.7 220 19:38 16.10.2019
5826 Clouds 17 1018 31 10000 4.6 210 19:20 16.10.2019
5827 Clouds 18 1018 34 10000 4.6 210 18:39 16.10.2019
5828 Clouds 18 1018 34 10000 4.6 210 18:19 16.10.2019
5829 Clouds 18 1018 36 10000 4.1 200 17:58 16.10.2019
5830 Clouds 18 1018 36 10000 4.1 200 17:58 16.10.2019
5831 Clouds 18 1019 36 10000 4.1 200 17:39 16.10.2019
5832 Clouds 18 1019 36 10000 5.1 220 17:21 16.10.2019
5833 Clouds 18 1019 36 10000 5.1 220 16:59 16.10.2019
5834 Clouds 18 1019 45 10000 4.1 210 16:41 16.10.2019
5835 -273 0 0 0 0 0 16:41 16.10.2019
5836 Clouds 18 1019 45 10000 4.1 210 16:20 16.10.2019
5837 Clouds 17 1020 48 10000 5.1 230 15:56 16.10.2019
5838 Clouds 17 1020 45 10000 4.6 220 15:38 16.10.2019
5839 Clouds 17 1020 48 10000 5.1 230 15:18 16.10.2019
5840 Clouds 17 1020 48 10000 5.1 230 14:56 16.10.2019
5841 Clouds 16 1021 55 10000 4.6 210 14:38 16.10.2019
5842 Clouds 16 1021 55 10000 4.6 210 14:18 16.10.2019
5843 Clouds 16 1021 51 10000 5.7 230 13:56 16.10.2019
5844 Clouds 15 1022 55 10000 4.1 230 13:37 16.10.2019
5845 Clouds 15 1022 55 10000 4.1 230 13:19 16.10.2019
5846 -273 0 0 0 0 0 12:41 16.10.2019
5847 Clouds 14 1022 62 10000 2.6 200 12:19 16.10.2019
5848 Clouds 12 1022 62 10000 3.1 180 11:44 16.10.2019
5849 Clouds 12 1022 62 10000 2.1 170 11:19 16.10.2019
5850 Clouds 11 1022 66 10000 1.5 180 10:41 16.10.2019
5851 Clouds 10 1022 66 10000 1.5 180 10:22 16.10.2019
5852 Clouds 8 1022 71 10000 1 0 09:58 16.10.2019
5853 Clouds 9 1022 71 10000 1 0 09:58 16.10.2019
5854 Clouds 8 1022 71 10000 1 0 09:39 16.10.2019
5855 Clouds 8 1022 71 10000 1 0 09:39 16.10.2019
5856 Clouds 8 1021 71 10000 1 0 09:20 16.10.2019
5857 Clouds 7 1021 81 10000 1.5 160 08:44 16.10.2019
5858 Clouds 7 1021 81 10000 1.5 160 08:26 16.10.2019
5859 Clouds 7 1021 81 10000 1.5 180 07:56 16.10.2019
5860 Clouds 7 1020 81 10000 0.5 0 07:38 16.10.2019
5861 Clouds 7 1020 81 10000 0.5 0 07:20 16.10.2019
5862 Clouds 8 1020 93 10000 1 0 06:40 16.10.2019
5863 Clouds 8 1020 81 10000 0.5 0 06:19 16.10.2019
5864 Clouds 9 1021 70 10000 1 0 03:46 16.10.2019
5865 Clouds 10 1021 66 10000 1 0 02:50 16.10.2019
5866 Clouds 11 1022 62 10000 1.5 150 01:20 16.10.2019
5867 Clouds 11 1021 58 10000 1.5 130 00:58 16.10.2019
5868 Clouds 11 1021 58 10000 1.5 130 00:39 16.10.2019
5869 Clouds 11 1022 54 10000 1 0 23:42 15.10.2019
5870 Clouds 11 1022 54 10000 1 0 23:23 15.10.2019
5871 Clouds 11 1021 47 10000 2.1 250 22:59 15.10.2019
5872 Clouds 12 1021 54 10000 3.1 230 22:40 15.10.2019
5873 Clouds 12 1021 54 10000 3.1 230 22:21 15.10.2019
5874 Clouds 13 1021 47 10000 3.1 220 21:57 15.10.2019
5875 Clouds 12 1021 47 10000 2.6 220 21:39 15.10.2019
5876 Clouds 12 1021 47 10000 2.6 220 21:20 15.10.2019
5877 Clouds 13 1021 54 10000 3.1 220 20:58 15.10.2019
5878 Clouds 13 1021 47 10000 3.6 210 20:40 15.10.2019
5879 Clouds 13 1021 47 10000 3.6 210 20:22 15.10.2019
5880 Clouds 15 1021 47 10000 3.6 210 19:59 15.10.2019
5881 Clouds 15 1021 44 10000 3.6 230 19:41 15.10.2019
5882 Clouds 15 1021 44 10000 3.6 230 19:20 15.10.2019
5883 Clouds 15 1021 44 10000 3.6 230 19:20 15.10.2019
5884 Clouds 16 1020 44 10000 4.1 230 18:57 15.10.2019
5885 Clouds 16 1020 44 10000 4.1 230 18:39 15.10.2019
5886 Clouds 16 1020 41 10000 4.1 210 18:20 15.10.2019
5887 Clouds 16 1021 44 10000 4.1 230 17:42 15.10.2019
5888 Clouds 16 1021 44 10000 4.1 230 17:42 15.10.2019
5889 Clouds 16 1021 44 10000 4.1 230 17:42 15.10.2019
5890 Clouds 16 1021 41 10000 4.6 200 17:21 15.10.2019
5891 Clouds 16 1020 44 10000 3.6 220 16:59 15.10.2019
5892 Clouds 16 1021 44 10000 3.6 210 16:41 15.10.2019
5893 Clouds 16 1021 44 10000 3.6 210 16:21 15.10.2019
5894 Clouds 16 1021 44 10000 3.6 210 16:21 15.10.2019
5895 Clouds 16 1021 44 10000 4.1 200 15:55 15.10.2019
5896 Clouds 16 1021 44 10000 3.6 200 15:37 15.10.2019
5897 Clouds 16 1021 44 10000 3.6 200 15:19 15.10.2019
5898 Clouds 15 1021 51 10000 4.6 220 14:54 15.10.2019
5899 -273 0 0 0 0 0 14:36 15.10.2019
5900 Clouds 15 1022 51 10000 4.1 220 14:18 15.10.2019
5901 Clouds 14 1022 54 10000 4.6 240 13:43 15.10.2019
5902 Clouds 14 1022 54 10000 4.6 240 13:20 15.10.2019
5903 Clouds 13 1022 54 10000 4.1 250 12:46 15.10.2019
5904 Clear 12 1022 58 10000 3.1 250 12:23 15.10.2019
5905 Clear 12 1022 58 10000 3.1 250 11:59 15.10.2019
5906 Clear 11 1022 66 10000 3.6 250 11:41 15.10.2019
5907 Clear 11 1022 66 10000 3.6 250 11:20 15.10.2019
5908 Clear 10 1022 62 10000 4.1 260 10:46 15.10.2019
5909 Clear 10 1021 66 10000 4.1 260 10:24 15.10.2019
5910 Clear 9 1021 70 10000 4.1 260 09:59 15.10.2019
5911 Clear 9 1021 70 10000 4.1 260 09:40 15.10.2019
5912 Clear 8 1021 75 10000 2.6 240 09:21 15.10.2019
5913 Clear 8 1021 75 10000 2.6 240 09:21 15.10.2019
5914 -273 0 0 0 0 0 08:58 15.10.2019
5915 Clear 8 1020 75 10000 4.6 270 08:39 15.10.2019
5916 Clear 8 1020 75 10000 4.6 270 08:19 15.10.2019
5917 Clear 8 1020 81 10000 3.1 260 07:43 15.10.2019
5918 Clear 8 1020 75 10000 3.6 270 07:22 15.10.2019
5919 Clear 8 1019 66 10000 1 340 06:57 15.10.2019
5920 Clear 8 1019 61 10000 6.2 280 06:39 15.10.2019
5921 Clear 8 1019 61 10000 3.6 270 05:56 15.10.2019
5922 Clear 8 1019 61 10000 1.5 260 05:36 15.10.2019
5923 Clear 8 1019 61 10000 4.6 280 04:48 15.10.2019
5924 Clear 9 1019 61 10000 5.1 270 04:18 15.10.2019
5925 Clear 9 1019 57 10000 8.2 290 03:35 15.10.2019
5926 Clear 9 1019 57 10000 8.2 290 03:35 15.10.2019
5927 Clouds 10 1018 62 10000 3.6 260 01:57 15.10.2019
5928 Clouds 10 1018 66 10000 5.1 250 01:39 15.10.2019
5929 Clouds 10 1018 66 10000 5.1 270 00:59 15.10.2019
5930 Clouds 10 1018 66 10000 4.1 250 00:25 15.10.2019
5931 Clear 10 1017 71 10000 4.1 260 23:58 14.10.2019
5932 Clouds 10 1017 76 10000 3.6 240 23:37 14.10.2019
5933 Clouds 10 1017 76 10000 3.6 240 23:18 14.10.2019
5934 Clouds 10 1017 81 10000 3.6 250 22:39 14.10.2019
5935 Rain 10 1017 93 10000 5.1 240 22:20 14.10.2019
5936 Rain 11 1016 93 10000 4.1 230 21:58 14.10.2019
5937 Rain 10 1016 93 10000 5.1 230 21:39 14.10.2019
5938 Clouds 11 1016 93 10000 5.1 230 21:20 14.10.2019
5939 Clouds 11 1016 93 10000 5.1 230 20:57 14.10.2019
5940 Clouds 11 1016 93 10000 5.1 230 20:57 14.10.2019
5941 Drizzle 11 1016 93 10000 5.7 230 20:38 14.10.2019
5942 Drizzle 11 1016 93 10000 5.7 230 20:38 14.10.2019
5943 Rain 11 1016 93 10000 5.7 230 20:19 14.10.2019
5944 Rain 11 1015 87 10000 7.2 230 19:43 14.10.2019
5945 Rain 12 1015 87 6000 8.7 230 19:25 14.10.2019
5946 Rain 13 1014 82 10000 8.7 260 18:59 14.10.2019
5947 Rain 13 1015 93 5000 11.3 240 18:40 14.10.2019
5948 Rain 13 1015 93 8000 10.8 240 18:40 14.10.2019
5949 Rain 16 1014 87 3000 13.4 240 18:20 14.10.2019
5950 Rain 16 1014 87 3000 13.4 240 18:20 14.10.2019
5951 Rain 17 1014 62 3000 7.7 220 17:58 14.10.2019
5952 Clouds 19 1013 45 10000 7.2 230 17:40 14.10.2019
5953 Clouds 19 1013 45 10000 7.2 230 17:21 14.10.2019
5954 Clouds 19 1013 45 10000 6.7 230 16:44 14.10.2019
5955 Clouds 19 1013 45 10000 8.2 220 16:22 14.10.2019
5956 Clouds 19 1013 45 10000 8.2 220 15:57 14.10.2019
5957 Clouds 19 1013 45 10000 8.2 220 15:57 14.10.2019
5958 Clouds 19 1013 48 10000 7.2 230 15:38 14.10.2019
5959 Clouds 19 1013 52 10000 7.7 230 15:20 14.10.2019
5960 Clouds 18 1014 59 10000 7.7 230 14:43 14.10.2019
5961 Clouds 18 1014 59 10000 7.7 230 14:24 14.10.2019
5962 Clouds 17 1014 72 10000 7.2 240 13:56 14.10.2019
5963 Clouds 17 1014 77 10000 7.2 240 13:37 14.10.2019
5964 Rain 17 1014 82 10000 6.2 240 13:18 14.10.2019
5965 Rain 17 1014 77 10000 10.3 230 12:40 14.10.2019
5966 Rain 17 1014 77 10000 10.3 230 12:40 14.10.2019
5967 Rain 17 1014 63 10000 9.8 220 12:19 14.10.2019
5968 Rain 17 1014 63 10000 9.8 220 12:19 14.10.2019
5969 Clouds 17 1013 63 10000 7.2 200 11:46 14.10.2019
5970 Clouds 18 1013 63 10000 7.2 200 11:27 14.10.2019
5971 Clouds 17 1013 63 10000 7.2 210 10:59 14.10.2019
5972 Rain 17 1013 67 10000 6.7 210 10:39 14.10.2019
5973 Rain 17 1012 67 10000 6.7 210 10:20 14.10.2019
5974 Rain 17 1012 67 10000 6.7 210 09:56 14.10.2019
5975 Rain 17 1012 68 10000 6.2 210 09:37 14.10.2019
5976 Clouds 17 1012 63 10000 5.7 220 09:18 14.10.2019
5977 Clouds 17 1012 55 10000 5.7 200 08:44 14.10.2019
5978 Clear 16 1011 67 10000 2.1 140 08:22 14.10.2019
5979 Clear 16 1011 67 10000 3.1 130 07:42 14.10.2019
5980 Clear 16 1011 87 10000 1.5 30 07:19 14.10.2019
5981 Clear 16 1011 87 10000 2.1 340 06:53 14.10.2019
5982 Clear 16 1011 87 10000 2.1 340 06:26 14.10.2019
5983 Clear 17 1011 82 10000 1.5 360 05:49 14.10.2019
5984 Clear 16 1012 82 10000 2.1 360 04:48 14.10.2019
5985 Clear 17 1012 82 10000 1 350 03:28 14.10.2019
5986 Clear 17 1013 82 10000 2.1 330 02:49 14.10.2019
5987 Clear 17 1014 82 10000 1.5 330 01:24 14.10.2019
5988 Clear 17 1014 82 10000 1.5 330 00:58 14.10.2019
5989 Clear 16 1015 82 10000 1.5 340 00:20 14.10.2019
5990 Clear 17 1015 77 10000 1 0 23:45 13.10.2019
5991 Clouds 18 1015 72 10000 1.5 340 23:20 13.10.2019
5992 Clouds 18 1015 72 10000 1.5 340 22:58 13.10.2019
5993 Clouds 18 1015 72 10000 1.5 340 22:58 13.10.2019
5994 Clear 18 1015 68 10000 1.9 134.723 22:40 13.10.2019
5995 Clear 19 1015 63 10000 0.5 0 22:21 13.10.2019
5996 Clear 19 1015 63 10000 0.5 0 22:21 13.10.2019
5997 Clear 19 1015 63 10000 0.5 0 21:58 13.10.2019
5998 Clear 19 1015 72 10000 0.5 40 21:37 13.10.2019
5999 Clear 19 1015 63 10000 0.9 172.292 21:19 13.10.2019
6000 Clear 20 1015 63 10000 0.51 130.407 20:57 13.10.2019
6001 Clear 20 1015 56 10000 1 0 20:39 13.10.2019
6002 Clear 21 1015 53 10000 1.5 180 20:21 13.10.2019
6003 Clear 22 1015 53 10000 1.5 180 19:58 13.10.2019
6004 Clear 22 1015 49 10000 2.1 180 19:39 13.10.2019
6005 Clear 23 1015 47 10000 1 0 19:21 13.10.2019
6006 -273 0 0 0 0 0 18:57 13.10.2019
6007 -273 0 0 0 0 0 18:57 13.10.2019
6008 Clear 23 1015 49 10000 2.6 190 18:56 13.10.2019
6009 Clear 23 1015 49 10000 2.6 190 18:56 13.10.2019
6010 Clear 23 1015 49 10000 2.6 190 18:36 13.10.2019
6011 Clear 23 1016 47 10000 2.6 210 18:18 13.10.2019
6012 Clear 23 1016 47 10000 2.6 210 17:54 13.10.2019
6013 Clear 23 1016 49 10000 3.6 190 17:36 13.10.2019
6014 Clear 23 1016 49 10000 4.6 190 17:18 13.10.2019
6015 Clear 23 1016 53 10000 3.6 200 16:41 13.10.2019
6016 Clear 23 1016 53 10000 3.6 200 16:18 13.10.2019
6017 -273 0 0 0 0 0 15:56 13.10.2019
6018 Clouds 22 1017 53 10000 3.1 190 15:37 13.10.2019
6019 Clouds 22 1017 53 10000 3.1 190 15:37 13.10.2019
6020 Clouds 22 1017 56 10000 2.6 180 15:18 13.10.2019
6021 Clouds 21 1017 56 10000 2.6 180 14:57 13.10.2019
6022 Clouds 21 1018 56 10000 3.1 190 14:38 13.10.2019
6023 Clouds 21 1018 64 10000 3.6 200 14:19 13.10.2019
6024 Clouds 20 1018 64 10000 3.6 180 13:41 13.10.2019
6025 Clouds 20 1018 64 10000 3.6 180 13:23 13.10.2019
6026 Clouds 20 1018 64 10000 3.6 180 12:59 13.10.2019
6027 Clouds 19 1018 77 10000 3.1 190 12:39 13.10.2019
6028 Clouds 19 1018 77 10000 2.1 170 12:20 13.10.2019
6029 Clouds 19 1018 77 10000 2.1 170 11:58 13.10.2019
6030 Clouds 18 1018 77 10000 2.6 150 11:39 13.10.2019
6031 Clear 17 1018 88 10000 3.1 170 11:20 13.10.2019
6032 Clear 17 1018 82 10000 2.6 180 10:56 13.10.2019
6033 Clear 17 1018 82 10000 2.6 180 10:38 13.10.2019
6034 Clear 16 1017 87 10000 2.1 180 10:19 13.10.2019
6035 Clear 16 1017 93 10000 0.5 0 09:39 13.10.2019
6036 Clear 15 1016 93 10000 2.1 140 09:21 13.10.2019
6037 Clear 15 1016 93 10000 2.6 130 08:44 13.10.2019
6038 Clear 15 1016 93 10000 2.6 130 08:25 13.10.2019
6039 Clear 15 1016 87 10000 2.6 130 07:51 13.10.2019
6040 Clear 15 1016 87 10000 2.6 130 07:33 13.10.2019
6041 Clear 15 1015 93 10000 2.6 320 06:53 13.10.2019
6042 Clear 15 1015 93 10000 2.6 320 06:24 13.10.2019
6043 Clear 15 1015 93 10000 2.6 320 06:24 13.10.2019
6044 Clear 15 1016 87 10000 2.1 350 05:21 13.10.2019
6045 Clear 16 1016 87 10000 1.5 360 04:34 13.10.2019
6046 Clouds 16 1017 82 10000 3.1 340 03:24 13.10.2019
6047 Clouds 16 1017 87 10000 4.1 330 02:31 13.10.2019
6048 Clouds 16 1017 87 10000 4.1 330 02:31 13.10.2019
6049 Clouds 16 1017 82 10000 0.5 360 01:37 13.10.2019
6050 Rain 17 1017 77 10000 5.1 130 00:56 13.10.2019
6051 Rain 17 1017 77 10000 5.1 130 00:56 13.10.2019
6052 Rain 17 1017 77 10000 3.1 130 00:38 13.10.2019
6053 Rain 18 1019 64 10000 2.6 220 00:19 13.10.2019
6054 Rain 18 1017 77 10000 2.6 10 23:42 12.10.2019
6055 Rain 18 1017 77 10000 2.6 10 23:42 12.10.2019
6056 Clear 18 1017 77 10000 2.6 10 23:23 12.10.2019
6057 Rain 18 1018 68 10000 2.6 140 22:59 12.10.2019
6058 Thunderstorm 18 1017 56 10000 4.1 120 22:40 12.10.2019
6059 Rain 18 1017 56 10000 4.1 120 22:22 12.10.2019
6060 Rain 19 1017 52 10000 3.1 160 21:58 12.10.2019
6061 Rain 19 1017 52 10000 3.1 160 21:58 12.10.2019
6062 Rain 18 1018 82 10000 6.7 280 21:39 12.10.2019
6063 Rain 20 1018 72 8000 5.1 160 21:21 12.10.2019
6064 Rain 22 1017 43 4000 11.3 210 20:54 12.10.2019
6065 Rain 22 1017 43 4000 11.3 210 20:54 12.10.2019
6066 Thunderstorm 23 1017 43 4000 11.3 210 20:36 12.10.2019
6067 Thunderstorm 23 1015 44 10000 1.5 150 20:18 12.10.2019
6068 Clear 25 1016 31 10000 2.6 150 19:36 12.10.2019
6069 Clear 26 1016 34 10000 2.6 140 19:18 12.10.2019
6070 Clear 26 1016 36 10000 4.1 150 18:43 12.10.2019
6071 Clear 25 1016 36 10000 4.1 150 18:24 12.10.2019
6072 Rain 26 1017 38 10000 4.1 150 17:46 12.10.2019
6073 Rain 26 1017 38 10000 4.1 150 17:22 12.10.2019
6074 Clear 26 1017 36 10000 3.6 140 16:59 12.10.2019
6075 Clear 26 1017 36 10000 3.6 140 16:59 12.10.2019
6076 Clear 26 1017 39 10000 4.1 130 16:40 12.10.2019
6077 Clear 25 1017 44 10000 3.1 130 16:21 12.10.2019
6078 Clear 25 1017 44 10000 3.1 130 15:56 12.10.2019
6079 Clear 25 1018 44 10000 2.1 130 15:37 12.10.2019
6080 Clear 25 1018 47 10000 3.1 130 15:18 12.10.2019
6081 Clear 24 1019 47 10000 2.1 120 14:40 12.10.2019
6082 Clear 24 1019 50 10000 2.1 90 14:20 12.10.2019
6083 Clear 23 1019 50 10000 2.1 90 13:51 12.10.2019
6084 Clear 23 1019 56 10000 2.1 0 13:32 12.10.2019
6085 Clear 22 1019 64 10000 2.6 120 12:55 12.10.2019
6086 Clear 22 1019 56 10000 1.5 90 12:55 12.10.2019
6087 Clear 22 1019 64 10000 2.6 120 12:37 12.10.2019
6088 Clear 21 1019 68 10000 1.5 60 12:19 12.10.2019
6089 Clear 20 1019 72 10000 3.6 90 11:43 12.10.2019
6090 Clear 20 1019 72 10000 3.6 90 11:43 12.10.2019
6091 Clear 20 1019 72 10000 3.6 90 11:23 12.10.2019
6092 Clear 19 1019 72 10000 3.6 90 10:58 12.10.2019
6093 Clear 19 1019 72 10000 3.6 100 10:39 12.10.2019
6094 Clear 18 1019 72 10000 2.1 90 10:20 12.10.2019
6095 Clear 19 1019 72 10000 2.1 90 10:20 12.10.2019
6096 Clear 18 1019 72 10000 2.1 90 09:57 12.10.2019
6097 Clear 18 1019 72 10000 2.1 90 09:57 12.10.2019
6098 Clear 17 1018 72 10000 1.5 50 09:37 12.10.2019
6099 Clear 17 1019 77 10000 1 0 09:19 12.10.2019
6100 Clear 17 1019 77 10000 1 0 09:19 12.10.2019
6101 Clear 17 1018 77 10000 1.5 150 08:44 12.10.2019
6102 Clear 17 1018 72 10000 2.1 100 08:23 12.10.2019
6103 Clear 17 1018 72 10000 2.1 100 07:50 12.10.2019
6104 Clear 17 1018 72 10000 1.5 80 07:30 12.10.2019
6105 Clear 19 1018 68 10000 0.5 0 06:27 12.10.2019
6106 Clear 19 1018 68 10000 0.5 0 05:42 12.10.2019
6107 Clear 19 1018 60 10000 1.5 110 04:34 12.10.2019
6108 Clear 20 1018 60 10000 2.1 140 03:53 12.10.2019
6109 Clear 21 1018 52 10000 1 0 02:45 12.10.2019
6110 Clear 21 1018 49 10000 2.1 140 01:32 12.10.2019
6111 Clear 22 1018 49 10000 1 0 00:55 12.10.2019
6112 Clear 22 1018 49 10000 1 0 00:55 12.10.2019
6113 Clear 22 1018 49 10000 1 0 00:37 12.10.2019
6114 Clear 22 1018 49 10000 2.1 110 23:55 11.10.2019
6115 Clear 22 1018 53 10000 1.5 80 23:36 11.10.2019
6116 Clear 23 1018 53 10000 1 100 23:18 11.10.2019
6117 Clear 23 1018 56 10000 0.5 0 22:37 11.10.2019
6118 Clear 23 1018 50 10000 1 0 22:19 11.10.2019
6119 Clear 23 1018 50 10000 1.5 130 21:42 11.10.2019
6120 Clouds 23 1018 50 10000 1.5 150 21:21 11.10.2019
6121 Clear 23 1018 50 10000 1.5 150 20:57 11.10.2019
6122 Clear 23 1018 50 10000 1.5 150 20:38 11.10.2019
6123 Clear 23 1018 50 10000 1.5 150 20:38 11.10.2019
6124 Clouds 24 1018 44 10000 2.1 180 20:19 11.10.2019
6125 Clear 25 1018 47 10000 2.1 140 19:55 11.10.2019
6126 Clear 25 1018 47 10000 2.1 140 19:36 11.10.2019
6127 Clear 26 1018 44 10000 0.5 0 19:18 11.10.2019
6128 Clear 26 1018 44 10000 0.5 0 19:18 11.10.2019
6129 Clear 26 1018 44 10000 0.5 0 19:18 11.10.2019
6130 Clear 26 1018 44 10000 0.5 0 19:18 11.10.2019
6131 Clear 26 1018 44 10000 0.5 0 19:18 11.10.2019
6132 Clear 26 1018 44 10000 1 0 18:54 11.10.2019
6133 Clear 26 1018 44 10000 1 0 18:36 11.10.2019
6134 Clear 26 1018 44 10000 1 0 18:36 11.10.2019
6135 Clear 26 1019 47 10000 1 0 18:18 11.10.2019
6136 Clear 26 1019 44 10000 1 0 17:54 11.10.2019
6137 Clear 26 1019 44 10000 1 0 17:36 11.10.2019
6138 Clear 26 1019 50 10000 2.1 0 17:18 11.10.2019
6139 Clear 26 1019 50 10000 2.1 0 17:18 11.10.2019
6140 Clear 26 1019 50 10000 1.5 150 16:40 11.10.2019
6141 Clear 25 1020 50 10000 2.6 110 16:19 11.10.2019
6142 Clear 25 1020 50 10000 2.6 110 15:58 11.10.2019
6143 Clear 25 1021 53 10000 1.5 0 15:38 11.10.2019
6144 Clear 24 1021 60 10000 3.1 100 15:18 11.10.2019
6145 Clear 24 1022 56 10000 2.6 120 14:46 11.10.2019
6146 Clear 24 1022 56 10000 2.6 120 14:28 11.10.2019
6147 Clear 23 1022 60 10000 3.6 120 13:56 11.10.2019
6148 Clear 23 1023 60 10000 3.1 100 13:37 11.10.2019
6149 Clear 22 1023 64 10000 3.1 100 13:18 11.10.2019
6150 Clear 22 1023 64 10000 2.6 90 12:42 11.10.2019
6151 Clear 21 1023 64 10000 2.6 90 12:22 11.10.2019
6152 Clear 20 1023 68 10000 2.6 90 12:00 11.10.2019
6153 Clear 20 1023 68 10000 3.1 90 11:40 11.10.2019
6154 Clear 19 1023 68 10000 1.5 50 11:21 11.10.2019
6155 Clear 19 1023 68 10000 1.5 50 10:56 11.10.2019
6156 Clear 18 1023 72 10000 1.5 60 10:38 11.10.2019
6157 Clear 17 1022 68 10000 1 0 10:20 11.10.2019
6158 Clear 17 1022 68 10000 1 0 10:20 11.10.2019
6159 Clear 16 1022 68 10000 1 0 09:55 11.10.2019
6160 Clear 16 1022 72 10000 1.5 30 09:37 11.10.2019
6161 Clear 15 1022 77 10000 0.5 0 09:18 11.10.2019
6162 Clear 15 1022 77 10000 1 0 08:40 11.10.2019
6163 Clear 15 1022 77 10000 1 0 08:21 11.10.2019
6164 Clear 15 1022 77 10000 1 0 07:59 11.10.2019
6165 Clear 15 1021 77 10000 1 0 07:40 11.10.2019
6166 Clear 15 1021 82 10000 1.5 360 07:20 11.10.2019
6167 Clear 15 1021 82 10000 1.5 360 06:44 11.10.2019
6168 Clear 15 1021 82 10000 1.5 350 06:21 11.10.2019
6169 Clear 16 1021 77 10000 1 360 05:37 11.10.2019
6170 Clear 16 1021 77 10000 1 340 04:59 11.10.2019
6171 Clear 16 1021 72 10000 2.1 340 04:24 11.10.2019
6172 Clear 18 1021 67 10000 2.1 360 01:58 11.10.2019
6173 Clouds 19 1021 68 10000 1 360 00:42 11.10.2019
6174 Clouds 19 1021 68 10000 1 360 00:23 11.10.2019
6175 Clouds 19 1021 68 10000 1.5 310 00:23 11.10.2019
6176 Clear 20 1021 60 10000 2.1 140 23:42 10.10.2019
6177 Clear 21 1020 60 10000 1.5 360 23:21 10.10.2019
6178 Clear 21 1020 56 10000 1 0 22:57 10.10.2019
6179 Clear 21 1020 56 10000 1 0 22:38 10.10.2019
6180 Clear 21 1020 56 10000 1 0 22:20 10.10.2019
6181 Clear 21 1020 56 10000 1 0 21:56 10.10.2019
6182 Clear 21 1020 56 10000 1 0 21:56 10.10.2019
6183 Clear 21 1020 56 10000 1 360 21:38 10.10.2019
6184 Clear 22 1020 53 10000 1 350 21:20 10.10.2019
6185 Clear 22 1020 53 10000 0.87 302.905 20:42 10.10.2019
6186 Clear 23 1020 44 10000 0.5 0 20:21 10.10.2019
6187 Clear 24 1020 44 10000 0.5 0 19:58 10.10.2019
6188 Clear 24 1020 44 10000 0.87 302.905 19:40 10.10.2019
6189 Clear 25 1020 39 10000 0.87 302.905 19:20 10.10.2019
6190 Clear 26 1020 39 10000 0.87 302.905 18:57 10.10.2019
6191 Clear 25 1020 41 10000 1.5 200 18:38 10.10.2019
6192 Clear 25 1020 41 10000 1.5 0 18:19 10.10.2019
6193 Clear 26 1020 44 10000 1 0 17:41 10.10.2019
6194 Clear 25 1020 47 10000 1.5 0 17:20 10.10.2019
6195 Clear 25 1020 47 10000 1.5 0 16:59 10.10.2019
6196 Clear 25 1020 47 10000 1.5 0 16:41 10.10.2019
6197 Clear 25 1020 47 10000 1.5 0 16:22 10.10.2019
6198 Clear 24 1021 50 10000 2.1 0 15:44 10.10.2019
6199 Clear 24 1021 50 10000 2.1 0 15:25 10.10.2019
6200 Clear 23 1022 56 10000 3.1 70 14:59 10.10.2019
6201 Clear 23 1021 53 10000 2.6 80 14:59 10.10.2019
6202 Clear 23 1022 56 10000 3.1 70 14:38 10.10.2019
6203 Clear 23 1022 56 10000 3.1 70 14:38 10.10.2019
6204 Clouds 22 1022 56 10000 2.6 30 14:19 10.10.2019
6205 Clouds 22 1022 56 10000 2.6 10 13:59 10.10.2019
6206 Clouds 22 1022 56 10000 2.6 10 13:41 10.10.2019
6207 Clouds 21 1023 56 10000 2.6 20 13:19 10.10.2019
6208 Clouds 21 1023 56 10000 2.6 20 13:19 10.10.2019
6209 Clouds 20 1023 56 10000 2.6 20 12:56 10.10.2019
6210 Clouds 19 1023 56 10000 2.1 360 12:38 10.10.2019
6211 Clouds 19 1023 59 10000 2.6 10 12:19 10.10.2019
6212 Clouds 18 1023 59 10000 2.1 350 11:55 10.10.2019
6213 Clouds 17 1023 59 10000 2.1 350 11:36 10.10.2019
6214 Clouds 17 1022 59 10000 4.1 50 11:18 10.10.2019
6215 Clouds 17 1022 63 10000 1.5 40 10:44 10.10.2019
6216 Clouds 16 1022 63 10000 1.5 40 10:25 10.10.2019
6217 -273 0 0 0 0 0 09:55 10.10.2019
6218 Clouds 15 1021 63 10000 1.5 20 09:37 10.10.2019
6219 Clouds 14 1021 63 10000 2.6 360 09:19 10.10.2019
6220 Clouds 14 1021 62 10000 3.1 360 08:41 10.10.2019
6221 Clouds 13 1021 62 10000 3.1 360 08:23 10.10.2019
6222 Clouds 13 1021 62 10000 3.1 360 07:58 10.10.2019
6223 Clouds 13 1021 62 10000 3.1 360 07:40 10.10.2019
6224 Clouds 13 1020 67 10000 2.1 360 07:20 10.10.2019
6225 Clear 13 1020 67 10000 2.1 20 06:45 10.10.2019
6226 Clear 14 1020 67 10000 2.1 20 06:22 10.10.2019
6227 Clear 14 1020 62 10000 2.6 350 05:23 10.10.2019
6228 Clear 15 1020 62 10000 2.1 10 04:37 10.10.2019
6229 Clear 16 1020 55 10000 4.1 360 02:54 10.10.2019
6230 Clear 18 1020 55 10000 3.1 10 01:42 10.10.2019
6231 Clear 18 1020 55 10000 3.1 10 01:42 10.10.2019
6232 Clear 18 1019 52 10000 3.1 360 01:23 10.10.2019
6233 Clear 18 1019 49 10000 3.6 340 00:45 10.10.2019
6234 Clear 19 1019 43 10000 4.1 350 00:19 10.10.2019
6235 Clear 20 1019 37 10000 2.6 30 23:39 09.10.2019
6236 Clear 21 1018 38 10000 2.1 30 23:19 09.10.2019
6237 Clear 22 1018 33 10000 2.1 10 22:43 09.10.2019
6238 Clear 22 1018 29 10000 2.6 340 22:24 09.10.2019
6239 Clear 23 1018 29 10000 2.6 340 21:59 09.10.2019
6240 Clear 23 1017 27 10000 3.1 320 21:39 09.10.2019
6241 Clear 24 1017 27 10000 2.6 310 21:20 09.10.2019
6242 Clear 24 1017 27 10000 2.6 310 20:56 09.10.2019
6243 Clear 24 1017 27 10000 2.6 310 20:56 09.10.2019
6244 Clear 24 1017 24 10000 2.6 290 20:37 09.10.2019
6245 Clear 25 1017 36 10000 2.1 0 20:18 09.10.2019
6246 Clear 27 1016 32 10000 3.1 220 19:45 09.10.2019
6247 Clear 27 1016 32 10000 3.1 220 19:24 09.10.2019
6248 Clear 28 1016 32 10000 3.1 180 18:58 09.10.2019
6249 Clear 27 1016 30 10000 1 0 18:38 09.10.2019
6250 Clear 28 1017 32 10000 1.5 0 18:18 09.10.2019
6251 Clear 28 1017 32 10000 2.1 180 17:55 09.10.2019
6252 Clear 28 1017 32 10000 2.1 180 17:37 09.10.2019
6253 Clear 27 1017 32 10000 1 0 17:18 09.10.2019
6254 Clear 28 1017 37 10000 1.5 0 16:41 09.10.2019
6255 Clear 28 1017 37 10000 1.5 0 16:23 09.10.2019
6256 Clear 27 1018 39 10000 2.1 330 15:58 09.10.2019
6257 Clear 27 1018 39 10000 1.5 110 15:39 09.10.2019
6258 Clear 26 1018 41 10000 1.5 0 15:20 09.10.2019
6259 Clear 26 1018 41 10000 1.5 0 14:58 09.10.2019
6260 Clear 26 1018 41 10000 1.5 0 14:58 09.10.2019
6261 Clear 26 1018 41 10000 1.5 0 14:40 09.10.2019
6262 Clear 25 1019 41 10000 2.1 0 14:18 09.10.2019
6263 Clear 25 1019 47 10000 2.1 360 13:40 09.10.2019
6264 Clear 24 1019 47 10000 2.1 0 13:21 09.10.2019
6265 Clear 24 1019 47 10000 2.1 0 12:59 09.10.2019
6266 Clear 24 1019 47 10000 2.1 0 12:59 09.10.2019
6267 Clear 23 1019 46 10000 2.6 30 12:40 09.10.2019
6268 Clear 22 1019 46 10000 1.5 0 12:21 09.10.2019
6269 Clear 22 1019 46 10000 1.5 0 11:55 09.10.2019
6270 Clear 21 1019 49 10000 2.1 80 11:37 09.10.2019
6271 Clear 20 1019 46 10000 1.5 110 11:19 09.10.2019
6272 Clear 20 1019 52 10000 1.5 60 10:44 09.10.2019
6273 Clear 19 1018 55 10000 0.5 0 10:21 09.10.2019
6274 Clear 18 1018 55 10000 0.5 0 09:59 09.10.2019
6275 Clear 17 1018 59 10000 1 0 09:40 09.10.2019
6276 Clear 17 1018 59 10000 1 0 09:40 09.10.2019
6277 Clear 17 1018 59 10000 1 0 09:40 09.10.2019
6278 Clear 17 1018 59 10000 2.6 340 09:19 09.10.2019
6279 Clear 16 1018 67 10000 1.5 340 08:41 09.10.2019
6280 Clear 16 1017 67 10000 2 334.523 08:23 09.10.2019
6281 Clear 16 1017 67 10000 2 334.523 07:58 09.10.2019
6282 Clear 16 1017 67 10000 2 334.523 07:39 09.10.2019
6283 Clear 17 1017 71 10000 0.5 0 07:20 09.10.2019
6284 Clear 17 1017 67 10000 1 0 06:51 09.10.2019
6285 Clear 17 1017 67 10000 3.1 360 05:56 09.10.2019
6286 Clear 17 1017 67 10000 1 0 05:28 09.10.2019
6287 Clear 18 1017 67 10000 1 10 04:25 09.10.2019
6288 Clear 19 1018 63 10000 1.86 331.404 02:52 09.10.2019
6289 Clear 20 1018 55 10000 1.5 360 01:43 09.10.2019
6290 Clear 20 1018 52 10000 1.5 350 01:20 09.10.2019
6291 Clear 20 1018 52 10000 1.5 350 01:20 09.10.2019
6292 Clear 21 1018 52 10000 1.5 350 00:56 09.10.2019
6293 Clear 21 1018 52 10000 2.1 10 00:38 09.10.2019
6294 Clear 21 1018 49 10000 2.1 340 00:19 09.10.2019
6295 Clear 21 1018 49 10000 2.1 360 23:39 08.10.2019
6296 Clear 22 1017 46 10000 1 0 23:19 08.10.2019
6297 Clear 22 1017 46 10000 1 0 22:56 08.10.2019
6298 Clear 22 1018 46 10000 1.25 302.068 22:38 08.10.2019
6299 Clear 22 1018 40 10000 0.5 90 22:19 08.10.2019
6300 Clear 23 1018 40 10000 0.5 90 21:57 08.10.2019
6301 Clear 23 1018 37 10000 1.25 302.068 21:39 08.10.2019
6302 Clear 24 1018 38 10000 1.59 236.908 21:19 08.10.2019
6303 Clear 24 1018 38 10000 1.59 236.908 21:19 08.10.2019
6304 Clear 25 1018 38 10000 1.59 236.908 20:56 08.10.2019
6305 Clear 25 1017 31 10000 1 0 20:37 08.10.2019
6306 Clear 26 1017 28 10000 2.1 190 20:19 08.10.2019
6307 Clear 28 1017 28 10000 2.1 190 19:56 08.10.2019
6308 Clear 27 1017 28 10000 2.1 190 19:37 08.10.2019
6309 Clear 28 1017 28 10000 3.1 190 19:19 08.10.2019
6310 Clear 28 1018 26 10000 2.6 210 18:46 08.10.2019
6311 Clear 28 1018 25 10000 1.5 180 18:27 08.10.2019
6312 Clear 28 1018 25 10000 1.5 180 17:59 08.10.2019
6313 Clear 28 1018 26 10000 2.6 180 17:40 08.10.2019
6314 Clear 28 1018 26 10000 2.6 180 17:40 08.10.2019
6315 Clear 28 1018 26 10000 2.6 180 17:40 08.10.2019
6316 Clear 28 1018 26 10000 2.1 170 17:20 08.10.2019
6317 Clear 28 1018 26 10000 2.1 170 16:56 08.10.2019
6318 Clear 28 1019 28 10000 2.6 130 16:38 08.10.2019
6319 Clear 28 1019 30 10000 2.1 190 16:20 08.10.2019
6320 Clear 27 1019 28 10000 2.1 0 15:40 08.10.2019
6321 Clear 27 1020 30 10000 2.1 0 15:21 08.10.2019
6322 Clear 26 1020 30 10000 2.1 0 14:57 08.10.2019
6323 Clear 26 1020 34 10000 2.1 140 14:39 08.10.2019
6324 Clear 26 1021 36 10000 2.1 100 14:20 08.10.2019
6325 Clear 26 1021 36 10000 2.1 100 13:56 08.10.2019
6326 Clear 25 1021 36 10000 1 0 13:37 08.10.2019
6327 Clear 24 1021 33 10000 0.5 0 13:18 08.10.2019
6328 Clear 24 1022 38 10000 1 0 12:42 08.10.2019
6329 Clear 22 1022 40 10000 1.5 70 12:21 08.10.2019
6330 Clear 22 1022 40 10000 1.5 70 11:59 08.10.2019
6331 Clear 21 1022 43 10000 1 0 11:40 08.10.2019
6332 Clear 21 1022 45 10000 1 0 11:22 08.10.2019
6333 Clear 20 1021 45 10000 1 0 10:55 08.10.2019
6334 Clear 20 1021 45 10000 1 0 10:36 08.10.2019
6335 Clear 18 1021 52 10000 1 0 10:18 08.10.2019
6336 Clear 17 1021 55 10000 1 0 09:41 08.10.2019
6337 Clear 17 1021 55 10000 1 0 09:41 08.10.2019
6338 Clear 17 1021 55 10000 1 0 09:41 08.10.2019
6339 Clear 16 1021 62 10000 1 0 09:23 08.10.2019
6340 Clear 15 1021 62 10000 1 0 08:59 08.10.2019
6341 Clear 15 1021 55 10000 1 360 08:41 08.10.2019
6342 Clear 14 1021 55 10000 1 360 08:22 08.10.2019
6343 Clear 15 1021 62 10000 0.67 64.551 07:42 08.10.2019
6344 Clear 15 1020 66 10000 1 360 07:21 08.10.2019
6345 Clear 15 1020 62 10000 2.1 350 06:49 08.10.2019
6346 Clear 15 1020 62 10000 2.1 350 06:28 08.10.2019
6347 Clear 15 1020 62 10000 2.1 350 05:45 08.10.2019
6348 Clear 16 1020 62 10000 2.1 350 05:25 08.10.2019
6349 Clear 17 1020 55 10000 3.1 340 03:57 08.10.2019
6350 Clear 17 1020 55 10000 1.5 350 03:24 08.10.2019
6351 Clear 18 1020 45 10000 1 0 02:35 08.10.2019
6352 Clear 19 1020 42 10000 1 90 01:44 08.10.2019
6353 Clear 19 1020 45 10000 0.5 240 01:25 08.10.2019
6354 Clear 20 1020 42 10000 1 0 00:45 08.10.2019
6355 Clear 20 1020 42 10000 1 10 00:20 08.10.2019
6356 Clear 21 1020 40 10000 1 0 23:39 07.10.2019
6357 Clear 21 1020 40 10000 1 0 23:19 07.10.2019
6358 Clear 21 1020 40 10000 1 0 22:56 07.10.2019
6359 Clear 22 1020 46 10000 1 0 22:37 07.10.2019
6360 Clear 22 1020 46 10000 1 0 22:19 07.10.2019
6361 Clear 22 1020 46 10000 2.56 331.523 21:55 07.10.2019
6362 Clear 22 1020 46 10000 0.5 0 21:37 07.10.2019
6363 Clear 23 1020 43 10000 1 170 21:18 07.10.2019
6364 Clear 23 1020 43 10000 1 170 21:18 07.10.2019
6365 Clear 24 1020 43 10000 1 170 20:57 07.10.2019
6366 Clear 24 1020 36 10000 1.5 170 20:38 07.10.2019
6367 Clear 25 1019 31 10000 1 0 20:19 07.10.2019
6368 Clear 26 1019 30 10000 1.5 150 19:55 07.10.2019
6369 Clear 26 1019 31 10000 1 0 19:54 07.10.2019
6370 Clear 26 1019 30 10000 1.5 150 19:54 07.10.2019
6371 Clear 27 1019 30 10000 1.5 150 19:36 07.10.2019
6372 Clear 27 1019 28 10000 1 0 19:18 07.10.2019
6373 Clear 28 1019 28 10000 1.5 0 18:42 07.10.2019
6374 Clear 28 1019 28 10000 1 0 18:19 07.10.2019
6375 Clear 28 1019 28 10000 1 0 17:58 07.10.2019
6376 Clear 28 1020 28 10000 1.5 140 17:40 07.10.2019
6377 Clear 27 1020 30 10000 3.1 130 17:19 07.10.2019
6378 Clear 27 1020 30 10000 2.1 100 16:46 07.10.2019
6379 Clear 27 1020 29 10000 2.6 0 16:28 07.10.2019
6380 Clear 26 1020 29 10000 2.6 0 15:58 07.10.2019
6381 Clear 26 1020 31 10000 1.5 0 15:40 07.10.2019
6382 Clear 26 1021 31 10000 1.5 190 15:21 07.10.2019
6383 Clear 25 1021 33 10000 1.5 140 14:42 07.10.2019
6384 Clear 25 1021 33 10000 1 0 14:23 07.10.2019
6385 Clear 24 1021 33 10000 0.5 80 13:45 07.10.2019
6386 Clear 23 1021 36 10000 1 0 13:21 07.10.2019
6387 Clear 23 1021 36 10000 1 0 12:59 07.10.2019
6388 Clear 23 1022 38 10000 1.5 190 12:40 07.10.2019
6389 Clear 22 1022 43 10000 1 0 12:21 07.10.2019
6390 Clear 22 1022 43 10000 1 0 12:21 07.10.2019
6391 Clear 21 1022 43 10000 1 0 11:59 07.10.2019
6392 Clear 21 1022 49 10000 1 0 11:40 07.10.2019
6393 Clear 20 1022 49 10000 1 0 11:21 07.10.2019
6394 Clear 20 1021 48 10000 1 0 10:58 07.10.2019
6395 Clear 20 1021 48 10000 1 0 10:58 07.10.2019
6396 Clear 19 1021 48 10000 1 0 10:39 07.10.2019
6397 Clear 18 1021 52 10000 1 0 10:20 07.10.2019
6398 Clear 16 1021 59 10000 1.5 360 09:40 07.10.2019
6399 Clear 15 1020 58 10000 1 0 09:22 07.10.2019
6400 Clear 15 1021 58 10000 1.5 360 08:44 07.10.2019
6401 Clear 15 1020 55 10000 1 0 08:21 07.10.2019
6402 Clear 15 1020 55 10000 1 0 07:59 07.10.2019
6403 Clear 15 1020 58 10000 1.5 90 07:40 07.10.2019
6404 Clear 15 1020 66 10000 1.03 346.993 07:20 07.10.2019
6405 Clear 15 1020 62 10000 1.5 30 06:44 07.10.2019
6406 Clear 16 1020 62 10000 0.5 0 06:22 07.10.2019
6407 Clear 16 1019 62 10000 1 0 05:27 07.10.2019
6408 Clear 16 1019 62 10000 0.5 20 04:56 07.10.2019
6409 Clear 17 1020 54 10000 1.5 360 04:19 07.10.2019
6410 Clear 17 1020 54 10000 0.5 0 03:39 07.10.2019
6411 Clear 17 1020 54 10000 0.5 0 03:39 07.10.2019
6412 Clear 18 1020 51 10000 1.5 20 03:18 07.10.2019
6413 Clear 18 1020 48 10000 0.5 0 02:20 07.10.2019
6414 Clear 18 1021 48 10000 3.29 317.572 01:42 07.10.2019
6415 Clear 19 1021 42 10000 1.5 200 01:18 07.10.2019
6416 Clear 20 1021 42 10000 1 0 00:38 07.10.2019
6417 Clear 20 1021 39 10000 0.5 120 00:19 07.10.2019
6418 Clear 21 1020 39 10000 1 0 23:42 06.10.2019
6419 Clear 21 1020 35 10000 3.1 330 23:21 06.10.2019
6420 Clear 22 1020 35 10000 3.1 330 22:58 06.10.2019
6421 Clear 22 1020 35 10000 3.1 310 22:40 06.10.2019
6422 Clear 22 1020 31 10000 4.6 300 22:21 06.10.2019
6423 Clear 22 1020 31 10000 4.6 300 21:57 06.10.2019
6424 Clear 23 1020 31 10000 4.6 300 21:37 06.10.2019
6425 Clear 23 1020 31 10000 4.6 300 21:37 06.10.2019
6426 Clear 23 1019 27 10000 4.1 300 21:19 06.10.2019
6427 Clear 23 1019 23 10000 2.1 330 20:57 06.10.2019
6428 Clear 24 1019 23 10000 3.6 290 20:38 06.10.2019
6429 Clear 25 1019 22 10000 5.1 270 20:20 06.10.2019
6430 Clear 26 1019 22 10000 5.1 270 19:57 06.10.2019
6431 Clear 26 1019 24 10000 5.7 270 19:37 06.10.2019
6432 Clear 27 1019 24 10000 1.5 220 19:19 06.10.2019
6433 Clear 27 1019 24 10000 1.5 220 18:56 06.10.2019
6434 Clear 27 1019 24 10000 1 240 18:38 06.10.2019
6435 Clear 27 1019 24 10000 2.1 210 18:19 06.10.2019
6436 Clear 27 1020 23 10000 1.5 0 17:43 06.10.2019
6437 Clear 27 1020 23 10000 1.5 0 17:21 06.10.2019
6438 Clear 27 1020 24 10000 2.1 230 16:59 06.10.2019
6439 Clear 27 1020 24 10000 1 0 16:41 06.10.2019
6440 Clear 27 1020 28 10000 1 200 16:23 06.10.2019
6441 Clear 26 1020 27 10000 1.5 0 15:45 06.10.2019
6442 Clear 26 1020 27 10000 1.5 0 15:45 06.10.2019
6443 Clear 26 1020 27 10000 1.5 0 15:23 06.10.2019
6444 Clear 25 1021 31 10000 1.5 0 14:59 06.10.2019
6445 Clear 25 1021 36 10000 2.1 190 14:40 06.10.2019
6446 Clear 24 1021 36 10000 2.1 160 14:22 06.10.2019
6447 Clear 24 1022 38 10000 1.5 0 13:55 06.10.2019
6448 Clear 24 1022 38 10000 1.5 0 13:37 06.10.2019
6449 Clear 23 1021 40 10000 1.5 100 13:19 06.10.2019
6450 Clear 23 1021 40 10000 1.5 100 12:55 06.10.2019
6451 Clear 22 1022 43 10000 1.5 70 12:37 06.10.2019
6452 Clear 21 1022 46 10000 1.5 0 12:19 06.10.2019
6453 Clear 20 1021 48 10000 2.1 90 11:43 06.10.2019
6454 Clear 19 1021 46 10000 1 0 11:24 06.10.2019
6455 Clear 19 1021 46 10000 1 0 11:24 06.10.2019
6456 Clear 19 1021 46 10000 1 0 10:58 06.10.2019
6457 Clear 19 1021 52 10000 1.5 360 10:39 06.10.2019
6458 Clear 17 1021 59 10000 1.5 360 10:21 06.10.2019
6459 Clear 16 1020 62 10000 2.1 10 09:42 06.10.2019
6460 Clear 16 1020 62 10000 2.1 10 09:42 06.10.2019
6461 Clear 15 1020 62 10000 2.1 10 09:21 06.10.2019
6462 Clear 14 1020 62 10000 1.5 360 09:21 06.10.2019
6463 Clear 13 1019 66 10000 0.5 0 08:57 06.10.2019
6464 Clear 13 1019 66 10000 0.5 0 08:39 06.10.2019
6465 Clear 13 1019 71 10000 0.5 0 08:19 06.10.2019
6466 Clear 13 1020 58 10000 1.5 360 07:41 06.10.2019
6467 Clear 13 1019 76 10000 1.5 320 07:18 06.10.2019
6468 Clear 14 1019 76 10000 1.5 10 06:18 06.10.2019
6469 Clear 15 1019 71 10000 2.1 360 05:27 06.10.2019
6470 Clear 17 1019 67 10000 3.34 316.481 03:23 06.10.2019
6471 Clear 18 1019 67 10000 1.5 20 02:40 06.10.2019
6472 Clear 18 1019 63 10000 1 0 01:57 06.10.2019
6473 Clear 18 1018 63 10000 3.17 315.485 01:37 06.10.2019
6474 Clear 18 1018 59 10000 2.1 10 01:18 06.10.2019
6475 Clear 19 1018 59 10000 2.1 330 00:45 06.10.2019
6476 Clear 20 1018 52 10000 2.6 350 00:21 06.10.2019
6477 Clear 20 1018 46 10000 2.1 130 23:42 05.10.2019
6478 Clear 21 1018 52 10000 1 0 23:21 05.10.2019
6479 Clear 21 1018 46 10000 3.6 230 22:56 05.10.2019
6480 Clear 21 1018 46 10000 3.6 230 22:38 05.10.2019
6481 Clear 21 1018 46 10000 3.6 230 22:38 05.10.2019
6482 Clear 20 1018 46 10000 3.6 230 22:38 05.10.2019
6483 Clear 21 1018 49 10000 3.1 240 22:19 05.10.2019
6484 Clear 22 1018 43 10000 3.6 230 21:42 05.10.2019
6485 Clear 22 1018 43 10000 3.6 230 21:42 05.10.2019
6486 Clear 22 1018 43 10000 3.6 230 21:24 05.10.2019
6487 Clear 23 1017 38 10000 2.1 140 20:59 05.10.2019
6488 Clear 23 1017 38 10000 2.6 220 20:40 05.10.2019
6489 Clear 25 1017 33 10000 2.6 190 20:20 05.10.2019
6490 Clear 25 1017 34 10000 2.6 180 19:57 05.10.2019
6491 Clear 26 1017 34 10000 2.6 180 19:37 05.10.2019
6492 Clear 26 1017 30 10000 3.1 200 19:18 05.10.2019
6493 Clear 26 1017 30 10000 3.1 190 18:55 05.10.2019
6494 Clear 26 1017 30 10000 3.1 190 18:36 05.10.2019
6495 Clear 27 1017 30 10000 2.6 170 18:18 05.10.2019
6496 Clear 27 1017 30 10000 2.1 230 17:42 05.10.2019
6497 Clear 26 1017 32 10000 2.1 240 17:22 05.10.2019
6498 Clear 26 1017 32 10000 2.1 240 16:56 05.10.2019
6499 Clear 26 1017 32 10000 2.1 210 16:37 05.10.2019
6500 Clear 26 1017 34 10000 2.1 210 16:19 05.10.2019
6501 Clear 26 1018 36 10000 2.1 0 15:56 05.10.2019
6502 Clear 25 1018 36 10000 2.1 0 15:37 05.10.2019
6503 Clear 25 1018 38 10000 2.6 190 15:19 05.10.2019
6504 Clear 24 1018 38 10000 1 100 14:42 05.10.2019
6505 Clear 24 1018 38 10000 1 100 14:23 05.10.2019
6506 Clear 24 1019 46 10000 2.6 110 13:44 05.10.2019
6507 Clear 23 1019 46 10000 1.5 50 13:26 05.10.2019
6508 Clear 23 1019 46 10000 1.5 50 12:59 05.10.2019
6509 Clear 22 1019 46 10000 1.5 0 12:41 05.10.2019
6510 Clear 21 1019 49 10000 1.5 50 12:19 05.10.2019
6511 Clear 20 1019 52 10000 1.5 30 11:41 05.10.2019
6512 Clear 20 1019 52 10000 1.5 30 11:20 05.10.2019
6513 Clear 19 1019 52 10000 1.5 10 10:57 05.10.2019
6514 Clear 19 1018 55 10000 1 0 10:57 05.10.2019
6515 Clear 19 1018 55 10000 1 0 10:38 05.10.2019
6516 Clear 16 1018 59 10000 1 0 10:20 05.10.2019
6517 Clear 15 1018 63 10000 1 0 09:41 05.10.2019
6518 Clear 14 1018 63 10000 1 0 09:23 05.10.2019
6519 Clear 13 1017 76 10000 0.2 99.135 08:43 05.10.2019
6520 Clear 13 1017 76 10000 0.2 99.135 08:23 05.10.2019
6521 Clear 13 1017 71 10000 0.2 99.135 07:59 05.10.2019
6522 Clear 13 1017 71 10000 0.2 99.135 07:39 05.10.2019
6523 Clear 13 1017 71 10000 0.2 99.135 07:39 05.10.2019
6524 Clear 13 1017 71 10000 0.5 0 07:20 05.10.2019
6525 Clear 14 1017 71 10000 2.1 10 06:52 05.10.2019
6526 Clear 13 1017 71 10000 1 0 06:21 05.10.2019
6527 Clear 14 1017 58 10000 0.5 0 04:46 05.10.2019
6528 Clear 16 1017 54 10000 1.5 150 03:32 05.10.2019
6529 Clear 18 1017 58 10000 0.5 0 02:26 05.10.2019
6530 Clear 18 1017 51 10000 2.6 310 01:26 05.10.2019
6531 Clear 19 1017 48 10000 2.1 10 00:48 05.10.2019
6532 Clear 19 1017 48 10000 2.1 10 00:48 05.10.2019
6533 Clear 19 1017 48 10000 2.1 10 00:27 05.10.2019
6534 Clear 20 1017 39 10000 1 0 23:57 04.10.2019
6535 Clear 20 1016 37 10000 1.5 130 23:39 04.10.2019
6536 Clear 21 1016 35 10000 1.5 180 23:20 04.10.2019
6537 Clear 21 1017 35 10000 3.1 220 22:42 04.10.2019
6538 Clear 21 1017 35 10000 3.1 220 22:24 04.10.2019
6539 Clear 22 1017 37 10000 3.1 230 21:59 04.10.2019
6540 Clear 22 1017 34 10000 2.6 220 21:40 04.10.2019
6541 Clear 22 1017 34 10000 2.6 220 21:22 04.10.2019
6542 Clear 23 1017 31 10000 2.6 220 20:58 04.10.2019
6543 Clear 24 1017 29 10000 2.6 220 20:40 04.10.2019
6544 Clear 25 1016 26 10000 3.6 210 20:21 04.10.2019
6545 Clear 26 1016 26 10000 3.6 200 19:55 04.10.2019
6546 Clear 26 1016 26 10000 3.6 200 19:37 04.10.2019
6547 Clear 26 1016 24 10000 3.1 190 19:19 04.10.2019
6548 Clear 27 1016 23 10000 3.6 220 18:40 04.10.2019
6549 Clear 27 1016 23 10000 2.1 210 18:20 04.10.2019
6550 Clear 26 1017 26 10000 2.6 180 17:59 04.10.2019
6551 Clear 26 1017 26 10000 2.6 180 17:39 04.10.2019
6552 Clear 26 1017 24 10000 2.1 260 17:21 04.10.2019
6553 Clear 26 1018 26 10000 3.6 210 16:57 04.10.2019
6554 Clear 26 1018 26 10000 3.6 210 16:39 04.10.2019
6555 -273 0 0 0 0 0 16:39 04.10.2019
6556 Clear 26 1018 27 10000 2.1 210 16:18 04.10.2019
6557 Clear 26 1018 27 10000 2.1 210 15:55 04.10.2019
6558 Clear 25 1018 29 10000 2.6 180 15:37 04.10.2019
6559 Clear 25 1018 29 10000 2.6 180 15:19 04.10.2019
6560 Clear 25 1018 29 10000 2.6 180 15:19 04.10.2019
6561 -273 0 0 0 0 0 14:55 04.10.2019
6562 Clear 24 1019 31 10000 2.1 150 14:36 04.10.2019
6563 Clear 24 1019 33 10000 2.1 150 14:18 04.10.2019
6564 Clear 23 1020 31 10000 1.5 0 13:43 04.10.2019
6565 Clear 23 1020 33 10000 1 120 13:21 04.10.2019
6566 Clear 22 1020 37 10000 1.5 110 12:47 04.10.2019
6567 Clear 21 1020 37 10000 1.5 110 12:29 04.10.2019
6568 Clear 20 1020 37 10000 1 0 11:59 04.10.2019
6569 Clear 20 1020 37 10000 1 0 11:59 04.10.2019
6570 Clear 20 1020 37 10000 1 0 11:59 04.10.2019
6571 Clear 20 1020 42 10000 1 0 11:41 04.10.2019
6572 Clear 19 1020 42 10000 1.5 60 11:20 04.10.2019
6573 Clear 19 1020 42 10000 1.5 60 11:20 04.10.2019
6574 Clear 18 1020 45 10000 1 0 10:41 04.10.2019
6575 Clear 16 1020 51 10000 0.5 0 10:21 04.10.2019
6576 Clear 15 1020 51 10000 0.5 0 09:48 04.10.2019
6577 Clear 14 1020 51 10000 0.5 0 09:30 04.10.2019
6578 Clear 13 1019 58 10000 1 0 08:57 04.10.2019
6579 Clear 13 1019 58 10000 1 0 08:38 04.10.2019
6580 Clear 13 1019 58 10000 1 0 08:38 04.10.2019
6581 Clear 13 1019 58 10000 1 0 08:20 04.10.2019
6582 Clear 13 1019 62 10000 1 360 07:46 04.10.2019
6583 Clear 13 1019 71 10000 1 340 07:23 04.10.2019
6584 Clear 13 1019 71 10000 2.6 20 06:47 04.10.2019
6585 Clear 13 1019 71 10000 2.6 20 06:47 04.10.2019
6586 Clear 13 1019 71 10000 2.6 20 06:27 04.10.2019
6587 Clear 13 1019 66 10000 0.5 0 05:52 04.10.2019
6588 Clear 14 1019 66 10000 1.5 320 05:19 04.10.2019
6589 Clear 15 1019 66 10000 0.5 30 03:56 04.10.2019
6590 Clear 15 1019 62 10000 0.5 10 02:54 04.10.2019
6591 Clear 15 1019 58 10000 1.15 321.387 02:54 04.10.2019
6592 Clear 17 1019 54 10000 1 0 02:18 04.10.2019
6593 Clear 17 1019 58 10000 1.5 40 01:42 04.10.2019
6594 Clear 17 1019 54 10000 1.5 330 01:23 04.10.2019
6595 Clear 18 1019 48 10000 2.1 360 00:18 04.10.2019
6596 Clear 19 1019 48 10000 3.1 280 23:37 03.10.2019
6597 Clear 19 1019 39 10000 1.59 308.131 23:18 03.10.2019
6598 Clear 19 1019 39 10000 1.59 308.131 22:57 03.10.2019
6599 Clear 19 1019 39 10000 1.59 308.131 22:57 03.10.2019
6600 Clear 20 1019 32 10000 2.6 310 22:39 03.10.2019
6601 Clear 20 1019 39 10000 3.6 260 22:21 03.10.2019
6602 Clear 20 1019 39 10000 2.6 250 21:56 03.10.2019
6603 Clear 21 1019 39 10000 2.6 250 21:37 03.10.2019
6604 Clear 21 1019 34 10000 2.6 230 21:19 03.10.2019
6605 Clear 22 1019 34 10000 2.6 230 20:56 03.10.2019
6606 Clear 22 1019 31 10000 1 0 20:37 03.10.2019
6607 Clear 23 1018 29 10000 2.6 70 20:19 03.10.2019
6608 Clear 24 1018 29 10000 2.6 70 19:55 03.10.2019
6609 Clear 24 1018 29 10000 2.6 70 19:55 03.10.2019
6610 Clear 24 1018 29 10000 2.6 140 19:36 03.10.2019
6611 Clear 24 1018 24 10000 2.1 180 19:18 03.10.2019
6612 Clear 25 1018 26 10000 2.6 210 18:40 03.10.2019
6613 Clear 25 1019 26 10000 1 0 18:19 03.10.2019
6614 Clear 25 1020 25 10000 2.1 120 18:19 03.10.2019
6615 Clear 25 1019 26 10000 1 0 17:59 03.10.2019
6616 Clear 25 1019 27 10000 1 0 17:41 03.10.2019
6617 Clear 24 1019 26 10000 1 0 17:19 03.10.2019
6618 Clear 24 1019 29 10000 2.1 180 16:44 03.10.2019
6619 Clear 24 1019 29 10000 2.51 291.886 16:26 03.10.2019
6620 Clear 24 1019 29 10000 2.51 291.886 15:57 03.10.2019
6621 Clear 23 1020 28 10000 1.5 110 15:39 03.10.2019
6622 Clear 23 1020 31 10000 1.5 0 15:20 03.10.2019
6623 Clear 22 1020 35 10000 1.5 130 14:47 03.10.2019
6624 Clear 21 1020 35 10000 1.5 130 14:27 03.10.2019
6625 Clear 21 1021 37 10000 2.06 184.149 13:59 03.10.2019
6626 Clear 21 1021 40 10000 1.5 0 13:41 03.10.2019
6627 Clear 20 1021 40 10000 1.5 0 13:19 03.10.2019
6628 Clear 19 1021 42 10000 1 0 12:57 03.10.2019
6629 Clear 19 1021 48 10000 1.5 190 12:38 03.10.2019
6630 Clear 18 1021 52 10000 2.1 90 12:19 03.10.2019
6631 Clear 16 1021 51 10000 1 0 11:41 03.10.2019
6632 Clear 16 1021 51 10000 1 0 11:23 03.10.2019
6633 Clear 16 1021 55 10000 1 0 10:59 03.10.2019
6634 Clear 15 1021 59 10000 0.68 236.052 10:40 03.10.2019
6635 Clear 14 1021 59 10000 0.68 236.052 10:19 03.10.2019
6636 Clear 13 1021 59 10000 0.68 236.052 09:58 03.10.2019
6637 Clear 12 1021 66 10000 0.68 236.052 09:40 03.10.2019
6638 Clear 10 1021 71 10000 1.54 249.714 09:21 03.10.2019
6639 Clear 11 1020 71 10000 1.51 248.487 08:45 03.10.2019
6640 Clear 10 1020 71 10000 1.51 248.487 08:27 03.10.2019
6641 Clear 11 1020 71 10000 1.51 248.487 07:57 03.10.2019
6642 Clear 11 1020 71 10000 1.51 248.487 07:39 03.10.2019
6643 Clear 10 1020 76 10000 1.5 350 07:19 03.10.2019
6644 Clear 11 1020 71 10000 1 0 06:50 03.10.2019
6645 Clear 11 1020 71 10000 1 0 06:24 03.10.2019
6646 Clear 12 1020 66 10000 1 350 05:46 03.10.2019
6647 Clear 12 1020 66 10000 1.5 30 05:19 03.10.2019
6648 Clear 12 1020 62 10000 1 0 04:27 03.10.2019
6649 Clear 13 1020 58 10000 1.14 324.321 03:24 03.10.2019
6650 Clear 13 1020 54 10000 0.5 0 02:39 03.10.2019
6651 Clear 14 1020 58 10000 1 0 01:52 03.10.2019
6652 Clear 14 1021 54 10000 1 0 01:33 03.10.2019
6653 Clear 15 1021 54 10000 1.5 50 00:49 03.10.2019
6654 Clear 15 1020 48 10000 2.1 110 00:19 03.10.2019
6655 Clear 16 1020 45 10000 1.5 0 23:43 02.10.2019
6656 Clear 17 1020 45 10000 1.5 0 23:22 02.10.2019
6657 Clear 18 1020 42 10000 1 0 22:44 02.10.2019
6658 Clear 18 1020 42 10000 1 0 22:22 02.10.2019
6659 Clear 18 1020 37 10000 1.5 40 21:58 02.10.2019
6660 Clear 18 1020 37 10000 1.5 40 21:38 02.10.2019
6661 Clear 19 1020 37 10000 1.5 40 21:20 02.10.2019
6662 Clear 19 1019 35 10000 1 0 20:57 02.10.2019
6663 Clear 20 1019 35 10000 1 0 20:38 02.10.2019
6664 Clear 20 1019 28 10000 0.5 0 20:20 02.10.2019
6665 Clear 22 1019 28 10000 0.5 0 19:56 02.10.2019
6666 Clear 22 1019 28 10000 1.5 0 19:38 02.10.2019
6667 Clear 22 1019 28 10000 1 0 19:19 02.10.2019
6668 Clear 22 1019 28 10000 1 0 18:56 02.10.2019
6669 Clear 23 1019 29 10000 0.5 0 18:38 02.10.2019
6670 Clear 23 1019 29 10000 1.5 0 18:19 02.10.2019
6671 Clear 23 1019 29 10000 1.5 10 17:43 02.10.2019
6672 Clear 23 1019 35 10000 2.1 60 17:21 02.10.2019
6673 Clear 23 1019 35 10000 2.1 60 17:21 02.10.2019
6674 Clear 23 1019 35 10000 2.1 60 16:59 02.10.2019
6675 Clear 23 1019 33 10000 1.5 0 16:41 02.10.2019
6676 Clear 23 1019 33 10000 1.5 0 16:21 02.10.2019
6677 Clear 22 1019 33 10000 1.5 90 15:57 02.10.2019
6678 Clear 22 1019 35 10000 1 130 15:38 02.10.2019
6679 Clear 22 1019 35 10000 1 130 15:18 02.10.2019
6680 Clear 21 1019 35 10000 1 0 14:55 02.10.2019
6681 Clear 21 1020 35 10000 1 0 14:36 02.10.2019
6682 Clear 20 1020 42 10000 1.5 0 14:18 02.10.2019
6683 Clear 20 1020 45 10000 2.1 0 13:42 02.10.2019
6684 Clear 20 1020 45 10000 2.1 0 13:22 02.10.2019
6685 Clear 19 1020 45 10000 2.1 70 12:56 02.10.2019
6686 Clear 19 1020 45 10000 1.5 50 12:37 02.10.2019
6687 Clear 18 1020 45 10000 1.5 50 12:18 02.10.2019
6688 Clear 17 1020 48 10000 2.1 300 11:43 02.10.2019
6689 Clear 17 1020 48 10000 2.1 300 11:21 02.10.2019
6690 Clear 16 1019 55 10000 3.1 310 10:41 02.10.2019
6691 Clear 16 1019 59 10000 2.6 320 10:20 02.10.2019
6692 Clear 15 1019 58 10000 4.1 300 09:56 02.10.2019
6693 Clear 14 1018 62 10000 3.6 300 09:36 02.10.2019
6694 Clear 13 1018 62 10000 3.6 300 09:18 02.10.2019
6695 Clear 13 1018 62 10000 5.7 300 08:42 02.10.2019
6696 Clear 13 1018 62 10000 5.7 300 08:22 02.10.2019
6697 Clear 13 1017 62 10000 5.7 300 07:55 02.10.2019
6698 Clear 14 1018 62 10000 5.1 280 07:37 02.10.2019
6699 Clear 14 1017 62 10000 1.5 30 07:18 02.10.2019
6700 Clear 14 1016 59 10000 2.6 340 06:31 02.10.2019
6701 Clear 15 1016 59 10000 6.2 290 05:52 02.10.2019
6702 Clear 16 1016 59 10000 6.2 290 05:23 02.10.2019
6703 Clear 16 1016 55 10000 6.2 280 04:41 02.10.2019
6704 Clear 17 1017 55 10000 5.1 270 03:51 02.10.2019
6705 Clear 17 1017 48 10000 2.6 340 02:39 02.10.2019
6706 Clear 18 1017 48 10000 2.6 340 02:20 02.10.2019
6707 Clear 18 1016 52 10000 2.1 10 01:19 02.10.2019
6708 Clear 19 1017 45 10000 2.6 300 00:42 02.10.2019
6709 Clear 19 1017 48 10000 2.1 320 00:23 02.10.2019
6710 Clear 19 1016 52 10000 1.5 340 23:42 01.10.2019
6711 Clear 20 1016 52 10000 1.5 340 23:24 01.